<?xml version="1.0" encoding="UTF-8" standalone="no" ?>
<gpx xmlns="http://www.topografix.com/GPX/1/1" xmlns:xsi="http://www.w3.org/2001/XMLSchema-instance" xsi:schemaLocation="http://www.topografix.com/GPX/1/1 http://www.topografix.com/GPX/1/1/gpx.xsd" version="1.1" creator="VisuGPX - https://www.visugpx.com">
  <metadata>
    <name>Trail de Pelasque MapMyTracks</name>
    <desc><![CDATA[Avec l\'appli Iphone MapMyTracks]]></desc>
  </metadata>
  <trk>
    <name><![CDATA[Trail de Pelasque MapMyTracks_1]]></name>
    <trkseg>
      <trkpt lat="43.9554" lon="7.27969">
        <ele>649.787354</ele>
        <time>2012-08-19T07:03:50Z</time>
      </trkpt>
      <trkpt lat="43.95535" lon="7.27971">
        <ele>649.951782</ele>
        <time>2012-08-19T07:03:52Z</time>
      </trkpt>
      <trkpt lat="43.95528" lon="7.27974">
        <ele>650.16272</ele>
        <time>2012-08-19T07:03:55Z</time>
      </trkpt>
      <trkpt lat="43.95522" lon="7.27973">
        <ele>650.350708</ele>
        <time>2012-08-19T07:03:58Z</time>
      </trkpt>
      <trkpt lat="43.95519" lon="7.2797">
        <ele>650.467834</ele>
        <time>2012-08-19T07:04:00Z</time>
      </trkpt>
      <trkpt lat="43.9552" lon="7.27966">
        <ele>650.55365</ele>
        <time>2012-08-19T07:04:02Z</time>
      </trkpt>
      <trkpt lat="43.95523" lon="7.27962">
        <ele>650.622314</ele>
        <time>2012-08-19T07:04:04Z</time>
      </trkpt>
      <trkpt lat="43.95527" lon="7.27958">
        <ele>650.685669</ele>
        <time>2012-08-19T07:04:06Z</time>
      </trkpt>
      <trkpt lat="43.95532" lon="7.27952">
        <ele>650.756042</ele>
        <time>2012-08-19T07:04:09Z</time>
      </trkpt>
      <trkpt lat="43.95538" lon="7.27944">
        <ele>650.802734</ele>
        <time>2012-08-19T07:04:12Z</time>
      </trkpt>
      <trkpt lat="43.95541" lon="7.27936">
        <ele>650.809998</ele>
        <time>2012-08-19T07:04:15Z</time>
      </trkpt>
      <trkpt lat="43.95542" lon="7.27931">
        <ele>650.766052</ele>
        <time>2012-08-19T07:04:17Z</time>
      </trkpt>
      <trkpt lat="43.95545" lon="7.27928">
        <ele>650.705017</ele>
        <time>2012-08-19T07:04:20Z</time>
      </trkpt>
      <trkpt lat="43.95546" lon="7.27928">
        <ele>650.679993</ele>
        <time>2012-08-19T07:04:22Z</time>
      </trkpt>
      <trkpt lat="43.95546" lon="7.27928">
        <ele>650.675964</ele>
        <time>2012-08-19T07:04:24Z</time>
      </trkpt>
      <trkpt lat="43.95546" lon="7.2793">
        <ele>650.621277</ele>
        <time>2012-08-19T07:04:27Z</time>
      </trkpt>
      <trkpt lat="43.95547" lon="7.27933">
        <ele>650.474487</ele>
        <time>2012-08-19T07:04:30Z</time>
      </trkpt>
      <trkpt lat="43.95548" lon="7.27933">
        <ele>650.381226</ele>
        <time>2012-08-19T07:04:32Z</time>
      </trkpt>
      <trkpt lat="43.9555" lon="7.27932">
        <ele>650.305908</ele>
        <time>2012-08-19T07:04:34Z</time>
      </trkpt>
      <trkpt lat="43.95552" lon="7.27931">
        <ele>650.192261</ele>
        <time>2012-08-19T07:04:37Z</time>
      </trkpt>
      <trkpt lat="43.95554" lon="7.27931">
        <ele>650.110413</ele>
        <time>2012-08-19T07:04:39Z</time>
      </trkpt>
      <trkpt lat="43.95555" lon="7.2793">
        <ele>649.995911</ele>
        <time>2012-08-19T07:04:42Z</time>
      </trkpt>
      <trkpt lat="43.95556" lon="7.27929">
        <ele>649.939026</ele>
        <time>2012-08-19T07:04:44Z</time>
      </trkpt>
      <trkpt lat="43.95559" lon="7.27924">
        <ele>649.921021</ele>
        <time>2012-08-19T07:04:47Z</time>
      </trkpt>
      <trkpt lat="43.95562" lon="7.27919">
        <ele>650.001587</ele>
        <time>2012-08-19T07:04:50Z</time>
      </trkpt>
      <trkpt lat="43.95564" lon="7.27916">
        <ele>650.0625</ele>
        <time>2012-08-19T07:04:52Z</time>
      </trkpt>
      <trkpt lat="43.95566" lon="7.27914">
        <ele>650.123596</ele>
        <time>2012-08-19T07:04:55Z</time>
      </trkpt>
      <trkpt lat="43.95567" lon="7.27914">
        <ele>650.124573</ele>
        <time>2012-08-19T07:04:57Z</time>
      </trkpt>
      <trkpt lat="43.95568" lon="7.27914">
        <ele>650.17157</ele>
        <time>2012-08-19T07:05:00Z</time>
      </trkpt>
      <trkpt lat="43.95569" lon="7.27913">
        <ele>650.208862</ele>
        <time>2012-08-19T07:05:02Z</time>
      </trkpt>
      <trkpt lat="43.95571" lon="7.2791">
        <ele>650.227356</ele>
        <time>2012-08-19T07:05:04Z</time>
      </trkpt>
      <trkpt lat="43.95573" lon="7.27907">
        <ele>650.304565</ele>
        <time>2012-08-19T07:05:07Z</time>
      </trkpt>
      <trkpt lat="43.95573" lon="7.27905">
        <ele>650.352051</ele>
        <time>2012-08-19T07:05:09Z</time>
      </trkpt>
      <trkpt lat="43.95573" lon="7.27901">
        <ele>650.41571</ele>
        <time>2012-08-19T07:05:12Z</time>
      </trkpt>
      <trkpt lat="43.95576" lon="7.27902">
        <ele>650.465149</ele>
        <time>2012-08-19T07:05:15Z</time>
      </trkpt>
      <trkpt lat="43.95576" lon="7.27904">
        <ele>650.496887</ele>
        <time>2012-08-19T07:05:17Z</time>
      </trkpt>
      <trkpt lat="43.95577" lon="7.27904">
        <ele>650.515198</ele>
        <time>2012-08-19T07:05:20Z</time>
      </trkpt>
      <trkpt lat="43.95577" lon="7.27904">
        <ele>650.518372</ele>
        <time>2012-08-19T07:05:22Z</time>
      </trkpt>
      <trkpt lat="43.95577" lon="7.27901">
        <ele>650.58252</ele>
        <time>2012-08-19T07:05:25Z</time>
      </trkpt>
      <trkpt lat="43.95579" lon="7.27897">
        <ele>650.713989</ele>
        <time>2012-08-19T07:05:28Z</time>
      </trkpt>
      <trkpt lat="43.95581" lon="7.27895">
        <ele>650.779968</ele>
        <time>2012-08-19T07:05:30Z</time>
      </trkpt>
      <trkpt lat="43.95583" lon="7.2789">
        <ele>650.737671</ele>
        <time>2012-08-19T07:05:33Z</time>
      </trkpt>
      <trkpt lat="43.95585" lon="7.27891">
        <ele>650.724731</ele>
        <time>2012-08-19T07:05:35Z</time>
      </trkpt>
      <trkpt lat="43.95587" lon="7.27894">
        <ele>650.778931</ele>
        <time>2012-08-19T07:05:38Z</time>
      </trkpt>
      <trkpt lat="43.95588" lon="7.27894">
        <ele>650.814941</ele>
        <time>2012-08-19T07:05:40Z</time>
      </trkpt>
      <trkpt lat="43.9559" lon="7.27894">
        <ele>650.848694</ele>
        <time>2012-08-19T07:05:42Z</time>
      </trkpt>
      <trkpt lat="43.9559" lon="7.27892">
        <ele>650.876282</ele>
        <time>2012-08-19T07:05:44Z</time>
      </trkpt>
      <trkpt lat="43.95592" lon="7.2789">
        <ele>650.933838</ele>
        <time>2012-08-19T07:05:47Z</time>
      </trkpt>
      <trkpt lat="43.95593" lon="7.27887">
        <ele>650.991028</ele>
        <time>2012-08-19T07:05:49Z</time>
      </trkpt>
      <trkpt lat="43.95594" lon="7.27885">
        <ele>651.075623</ele>
        <time>2012-08-19T07:05:52Z</time>
      </trkpt>
      <trkpt lat="43.95596" lon="7.27884">
        <ele>651.149048</ele>
        <time>2012-08-19T07:05:55Z</time>
      </trkpt>
      <trkpt lat="43.95596" lon="7.27886">
        <ele>651.192932</ele>
        <time>2012-08-19T07:05:57Z</time>
      </trkpt>
      <trkpt lat="43.95597" lon="7.27887">
        <ele>651.260681</ele>
        <time>2012-08-19T07:05:59Z</time>
      </trkpt>
      <trkpt lat="43.95598" lon="7.27888">
        <ele>651.303162</ele>
        <time>2012-08-19T07:06:02Z</time>
      </trkpt>
      <trkpt lat="43.95598" lon="7.27888">
        <ele>651.38324</ele>
        <time>2012-08-19T07:06:05Z</time>
      </trkpt>
      <trkpt lat="43.95599" lon="7.2789">
        <ele>651.469238</ele>
        <time>2012-08-19T07:06:07Z</time>
      </trkpt>
      <trkpt lat="43.95601" lon="7.27891">
        <ele>651.661438</ele>
        <time>2012-08-19T07:06:10Z</time>
      </trkpt>
      <trkpt lat="43.95602" lon="7.27893">
        <ele>651.832703</ele>
        <time>2012-08-19T07:06:12Z</time>
      </trkpt>
      <trkpt lat="43.95603" lon="7.27893">
        <ele>652.005249</ele>
        <time>2012-08-19T07:06:14Z</time>
      </trkpt>
      <trkpt lat="43.95605" lon="7.27893">
        <ele>652.27417</ele>
        <time>2012-08-19T07:06:17Z</time>
      </trkpt>
      <trkpt lat="43.95606" lon="7.27894">
        <ele>652.542297</ele>
        <time>2012-08-19T07:06:20Z</time>
      </trkpt>
      <trkpt lat="43.95607" lon="7.27895">
        <ele>652.773071</ele>
        <time>2012-08-19T07:06:23Z</time>
      </trkpt>
      <trkpt lat="43.95608" lon="7.27896">
        <ele>652.907959</ele>
        <time>2012-08-19T07:06:25Z</time>
      </trkpt>
      <trkpt lat="43.9561" lon="7.27898">
        <ele>653.076416</ele>
        <time>2012-08-19T07:06:28Z</time>
      </trkpt>
      <trkpt lat="43.95612" lon="7.27899">
        <ele>653.159424</ele>
        <time>2012-08-19T07:06:30Z</time>
      </trkpt>
      <trkpt lat="43.95616" lon="7.27901">
        <ele>653.262146</ele>
        <time>2012-08-19T07:06:33Z</time>
      </trkpt>
      <trkpt lat="43.95618" lon="7.27903">
        <ele>653.358704</ele>
        <time>2012-08-19T07:06:35Z</time>
      </trkpt>
      <trkpt lat="43.95622" lon="7.27907">
        <ele>653.571167</ele>
        <time>2012-08-19T07:06:38Z</time>
      </trkpt>
      <trkpt lat="43.95624" lon="7.2791">
        <ele>653.695496</ele>
        <time>2012-08-19T07:06:40Z</time>
      </trkpt>
      <trkpt lat="43.95629" lon="7.27914">
        <ele>653.866882</ele>
        <time>2012-08-19T07:06:43Z</time>
      </trkpt>
      <trkpt lat="43.95632" lon="7.27916">
        <ele>654.003357</ele>
        <time>2012-08-19T07:06:45Z</time>
      </trkpt>
      <trkpt lat="43.95636" lon="7.27917">
        <ele>654.126038</ele>
        <time>2012-08-19T07:06:47Z</time>
      </trkpt>
      <trkpt lat="43.95641" lon="7.27919">
        <ele>654.285522</ele>
        <time>2012-08-19T07:06:50Z</time>
      </trkpt>
      <trkpt lat="43.95645" lon="7.2792">
        <ele>654.378723</ele>
        <time>2012-08-19T07:06:52Z</time>
      </trkpt>
      <trkpt lat="43.9565" lon="7.27919">
        <ele>654.55188</ele>
        <time>2012-08-19T07:06:55Z</time>
      </trkpt>
      <trkpt lat="43.95654" lon="7.27919">
        <ele>654.632996</ele>
        <time>2012-08-19T07:06:57Z</time>
      </trkpt>
      <trkpt lat="43.95658" lon="7.27918">
        <ele>654.7995</ele>
        <time>2012-08-19T07:07:00Z</time>
      </trkpt>
      <trkpt lat="43.95663" lon="7.27915">
        <ele>654.992737</ele>
        <time>2012-08-19T07:07:03Z</time>
      </trkpt>
      <trkpt lat="43.95666" lon="7.27913">
        <ele>655.115845</ele>
        <time>2012-08-19T07:07:05Z</time>
      </trkpt>
      <trkpt lat="43.95669" lon="7.2791">
        <ele>655.214722</ele>
        <time>2012-08-19T07:07:07Z</time>
      </trkpt>
      <trkpt lat="43.95675" lon="7.27907">
        <ele>655.379883</ele>
        <time>2012-08-19T07:07:10Z</time>
      </trkpt>
      <trkpt lat="43.95681" lon="7.27907">
        <ele>655.475037</ele>
        <time>2012-08-19T07:07:12Z</time>
      </trkpt>
      <trkpt lat="43.95688" lon="7.27911">
        <ele>655.923706</ele>
        <time>2012-08-19T07:07:15Z</time>
      </trkpt>
      <trkpt lat="43.95691" lon="7.27913">
        <ele>656.283997</ele>
        <time>2012-08-19T07:07:17Z</time>
      </trkpt>
      <trkpt lat="43.95696" lon="7.27915">
        <ele>656.805359</ele>
        <time>2012-08-19T07:07:20Z</time>
      </trkpt>
      <trkpt lat="43.95698" lon="7.27916">
        <ele>657.165955</ele>
        <time>2012-08-19T07:07:22Z</time>
      </trkpt>
      <trkpt lat="43.95699" lon="7.27915">
        <ele>657.518005</ele>
        <time>2012-08-19T07:07:24Z</time>
      </trkpt>
      <trkpt lat="43.957" lon="7.27915">
        <ele>657.914368</ele>
        <time>2012-08-19T07:07:26Z</time>
      </trkpt>
      <trkpt lat="43.95704" lon="7.27915">
        <ele>658.990784</ele>
        <time>2012-08-19T07:07:29Z</time>
      </trkpt>
      <trkpt lat="43.9571" lon="7.27915">
        <ele>660.323669</ele>
        <time>2012-08-19T07:07:32Z</time>
      </trkpt>
      <trkpt lat="43.95712" lon="7.27913">
        <ele>661.113586</ele>
        <time>2012-08-19T07:07:34Z</time>
      </trkpt>
      <trkpt lat="43.95717" lon="7.2791">
        <ele>661.967468</ele>
        <time>2012-08-19T07:07:36Z</time>
      </trkpt>
      <trkpt lat="43.9573" lon="7.27903">
        <ele>663.506592</ele>
        <time>2012-08-19T07:07:39Z</time>
      </trkpt>
      <trkpt lat="43.95741" lon="7.27898">
        <ele>664.998718</ele>
        <time>2012-08-19T07:07:42Z</time>
      </trkpt>
      <trkpt lat="43.95746" lon="7.27897">
        <ele>665.990906</ele>
        <time>2012-08-19T07:07:44Z</time>
      </trkpt>
      <trkpt lat="43.95751" lon="7.27895">
        <ele>666.965637</ele>
        <time>2012-08-19T07:07:46Z</time>
      </trkpt>
      <trkpt lat="43.95756" lon="7.27892">
        <ele>668.387512</ele>
        <time>2012-08-19T07:07:49Z</time>
      </trkpt>
      <trkpt lat="43.95759" lon="7.27887">
        <ele>669.633057</ele>
        <time>2012-08-19T07:07:52Z</time>
      </trkpt>
      <trkpt lat="43.95761" lon="7.27883">
        <ele>670.694641</ele>
        <time>2012-08-19T07:07:55Z</time>
      </trkpt>
      <trkpt lat="43.95764" lon="7.27882">
        <ele>671.555725</ele>
        <time>2012-08-19T07:07:58Z</time>
      </trkpt>
      <trkpt lat="43.95767" lon="7.27882">
        <ele>672.068359</ele>
        <time>2012-08-19T07:08:01Z</time>
      </trkpt>
      <trkpt lat="43.9577" lon="7.27883">
        <ele>672.325073</ele>
        <time>2012-08-19T07:08:03Z</time>
      </trkpt>
      <trkpt lat="43.95773" lon="7.27885">
        <ele>672.600952</ele>
        <time>2012-08-19T07:08:06Z</time>
      </trkpt>
      <trkpt lat="43.95777" lon="7.27888">
        <ele>672.700867</ele>
        <time>2012-08-19T07:08:09Z</time>
      </trkpt>
      <trkpt lat="43.95782" lon="7.27891">
        <ele>672.722107</ele>
        <time>2012-08-19T07:08:12Z</time>
      </trkpt>
      <trkpt lat="43.95787" lon="7.27894">
        <ele>672.632263</ele>
        <time>2012-08-19T07:08:15Z</time>
      </trkpt>
      <trkpt lat="43.95793" lon="7.27897">
        <ele>672.470581</ele>
        <time>2012-08-19T07:08:18Z</time>
      </trkpt>
      <trkpt lat="43.95798" lon="7.27901">
        <ele>671.982361</ele>
        <time>2012-08-19T07:08:21Z</time>
      </trkpt>
      <trkpt lat="43.95803" lon="7.27903">
        <ele>671.608521</ele>
        <time>2012-08-19T07:08:23Z</time>
      </trkpt>
      <trkpt lat="43.95807" lon="7.27903">
        <ele>671.23999</ele>
        <time>2012-08-19T07:08:25Z</time>
      </trkpt>
      <trkpt lat="43.95814" lon="7.27905">
        <ele>670.74823</ele>
        <time>2012-08-19T07:08:28Z</time>
      </trkpt>
      <trkpt lat="43.95819" lon="7.27907">
        <ele>670.34082</ele>
        <time>2012-08-19T07:08:30Z</time>
      </trkpt>
      <trkpt lat="43.95826" lon="7.27908">
        <ele>670.008118</ele>
        <time>2012-08-19T07:08:32Z</time>
      </trkpt>
      <trkpt lat="43.95836" lon="7.27908">
        <ele>669.623657</ele>
        <time>2012-08-19T07:08:35Z</time>
      </trkpt>
      <trkpt lat="43.95844" lon="7.27906">
        <ele>669.859802</ele>
        <time>2012-08-19T07:08:38Z</time>
      </trkpt>
      <trkpt lat="43.95853" lon="7.27902">
        <ele>670.699646</ele>
        <time>2012-08-19T07:08:41Z</time>
      </trkpt>
      <trkpt lat="43.95859" lon="7.27899">
        <ele>671.297241</ele>
        <time>2012-08-19T07:08:43Z</time>
      </trkpt>
      <trkpt lat="43.95868" lon="7.27897">
        <ele>672.159851</ele>
        <time>2012-08-19T07:08:46Z</time>
      </trkpt>
      <trkpt lat="43.95872" lon="7.27896">
        <ele>672.697205</ele>
        <time>2012-08-19T07:08:48Z</time>
      </trkpt>
      <trkpt lat="43.95877" lon="7.27895">
        <ele>673.447632</ele>
        <time>2012-08-19T07:08:51Z</time>
      </trkpt>
      <trkpt lat="43.95879" lon="7.27894">
        <ele>673.90094</ele>
        <time>2012-08-19T07:08:53Z</time>
      </trkpt>
      <trkpt lat="43.95882" lon="7.2789">
        <ele>674.567322</ele>
        <time>2012-08-19T07:08:56Z</time>
      </trkpt>
      <trkpt lat="43.95883" lon="7.27885">
        <ele>675.202454</ele>
        <time>2012-08-19T07:08:59Z</time>
      </trkpt>
      <trkpt lat="43.95884" lon="7.2788">
        <ele>675.774414</ele>
        <time>2012-08-19T07:09:02Z</time>
      </trkpt>
      <trkpt lat="43.95885" lon="7.27874">
        <ele>676.312561</ele>
        <time>2012-08-19T07:09:05Z</time>
      </trkpt>
      <trkpt lat="43.95887" lon="7.27867">
        <ele>676.832581</ele>
        <time>2012-08-19T07:09:08Z</time>
      </trkpt>
      <trkpt lat="43.95888" lon="7.27862">
        <ele>677.141418</ele>
        <time>2012-08-19T07:09:10Z</time>
      </trkpt>
      <trkpt lat="43.95891" lon="7.27855">
        <ele>677.471069</ele>
        <time>2012-08-19T07:09:13Z</time>
      </trkpt>
      <trkpt lat="43.95892" lon="7.2785">
        <ele>677.645874</ele>
        <time>2012-08-19T07:09:16Z</time>
      </trkpt>
      <trkpt lat="43.95893" lon="7.27844">
        <ele>677.673828</ele>
        <time>2012-08-19T07:09:19Z</time>
      </trkpt>
      <trkpt lat="43.95895" lon="7.27836">
        <ele>677.841553</ele>
        <time>2012-08-19T07:09:22Z</time>
      </trkpt>
      <trkpt lat="43.95895" lon="7.27829">
        <ele>678.02063</ele>
        <time>2012-08-19T07:09:25Z</time>
      </trkpt>
      <trkpt lat="43.95896" lon="7.27824">
        <ele>678.200989</ele>
        <time>2012-08-19T07:09:28Z</time>
      </trkpt>
      <trkpt lat="43.95897" lon="7.2782">
        <ele>678.346863</ele>
        <time>2012-08-19T07:09:30Z</time>
      </trkpt>
      <trkpt lat="43.95897" lon="7.27815">
        <ele>678.592957</ele>
        <time>2012-08-19T07:09:33Z</time>
      </trkpt>
      <trkpt lat="43.95897" lon="7.27807">
        <ele>678.891479</ele>
        <time>2012-08-19T07:09:36Z</time>
      </trkpt>
      <trkpt lat="43.95898" lon="7.27801">
        <ele>678.958679</ele>
        <time>2012-08-19T07:09:38Z</time>
      </trkpt>
      <trkpt lat="43.959" lon="7.27794">
        <ele>679.007996</ele>
        <time>2012-08-19T07:09:40Z</time>
      </trkpt>
      <trkpt lat="43.95901" lon="7.27785">
        <ele>679.034912</ele>
        <time>2012-08-19T07:09:43Z</time>
      </trkpt>
      <trkpt lat="43.95903" lon="7.27778">
        <ele>678.895752</ele>
        <time>2012-08-19T07:09:46Z</time>
      </trkpt>
      <trkpt lat="43.95904" lon="7.27773">
        <ele>678.743652</ele>
        <time>2012-08-19T07:09:48Z</time>
      </trkpt>
      <trkpt lat="43.95904" lon="7.27769">
        <ele>678.545532</ele>
        <time>2012-08-19T07:09:50Z</time>
      </trkpt>
      <trkpt lat="43.95906" lon="7.27762">
        <ele>678.239929</ele>
        <time>2012-08-19T07:09:53Z</time>
      </trkpt>
      <trkpt lat="43.95909" lon="7.27754">
        <ele>678.02655</ele>
        <time>2012-08-19T07:09:56Z</time>
      </trkpt>
      <trkpt lat="43.95911" lon="7.27747">
        <ele>677.793579</ele>
        <time>2012-08-19T07:09:59Z</time>
      </trkpt>
      <trkpt lat="43.95915" lon="7.2774">
        <ele>677.288086</ele>
        <time>2012-08-19T07:10:02Z</time>
      </trkpt>
      <trkpt lat="43.95918" lon="7.27737">
        <ele>676.947571</ele>
        <time>2012-08-19T07:10:04Z</time>
      </trkpt>
      <trkpt lat="43.9592" lon="7.27734">
        <ele>676.670471</ele>
        <time>2012-08-19T07:10:06Z</time>
      </trkpt>
      <trkpt lat="43.95923" lon="7.27731">
        <ele>676.422302</ele>
        <time>2012-08-19T07:10:08Z</time>
      </trkpt>
      <trkpt lat="43.95926" lon="7.27727">
        <ele>675.996826</ele>
        <time>2012-08-19T07:10:11Z</time>
      </trkpt>
      <trkpt lat="43.95929" lon="7.2772">
        <ele>675.687561</ele>
        <time>2012-08-19T07:10:14Z</time>
      </trkpt>
      <trkpt lat="43.9593" lon="7.27712">
        <ele>675.656738</ele>
        <time>2012-08-19T07:10:16Z</time>
      </trkpt>
      <trkpt lat="43.95929" lon="7.27702">
        <ele>675.691956</ele>
        <time>2012-08-19T07:10:18Z</time>
      </trkpt>
      <trkpt lat="43.95927" lon="7.27692">
        <ele>675.762817</ele>
        <time>2012-08-19T07:10:20Z</time>
      </trkpt>
      <trkpt lat="43.95925" lon="7.27684">
        <ele>675.918152</ele>
        <time>2012-08-19T07:10:22Z</time>
      </trkpt>
      <trkpt lat="43.95923" lon="7.27675">
        <ele>676.067322</ele>
        <time>2012-08-19T07:10:24Z</time>
      </trkpt>
      <trkpt lat="43.95923" lon="7.27669">
        <ele>676.245361</ele>
        <time>2012-08-19T07:10:26Z</time>
      </trkpt>
      <trkpt lat="43.95923" lon="7.2766">
        <ele>676.545593</ele>
        <time>2012-08-19T07:10:29Z</time>
      </trkpt>
      <trkpt lat="43.95924" lon="7.27654">
        <ele>676.904297</ele>
        <time>2012-08-19T07:10:32Z</time>
      </trkpt>
      <trkpt lat="43.95926" lon="7.27649">
        <ele>677.15741</ele>
        <time>2012-08-19T07:10:34Z</time>
      </trkpt>
      <trkpt lat="43.95928" lon="7.27643">
        <ele>677.530151</ele>
        <time>2012-08-19T07:10:37Z</time>
      </trkpt>
      <trkpt lat="43.95932" lon="7.27638">
        <ele>677.92926</ele>
        <time>2012-08-19T07:10:40Z</time>
      </trkpt>
      <trkpt lat="43.95934" lon="7.27633">
        <ele>678.238342</ele>
        <time>2012-08-19T07:10:43Z</time>
      </trkpt>
      <trkpt lat="43.95936" lon="7.27627">
        <ele>678.61377</ele>
        <time>2012-08-19T07:10:46Z</time>
      </trkpt>
      <trkpt lat="43.95939" lon="7.27616">
        <ele>678.974365</ele>
        <time>2012-08-19T07:10:49Z</time>
      </trkpt>
      <trkpt lat="43.9594" lon="7.27604">
        <ele>679.297546</ele>
        <time>2012-08-19T07:10:52Z</time>
      </trkpt>
      <trkpt lat="43.95942" lon="7.27592">
        <ele>679.661316</ele>
        <time>2012-08-19T07:10:55Z</time>
      </trkpt>
      <trkpt lat="43.95943" lon="7.27579">
        <ele>680.013123</ele>
        <time>2012-08-19T07:10:58Z</time>
      </trkpt>
      <trkpt lat="43.95943" lon="7.27571">
        <ele>680.215881</ele>
        <time>2012-08-19T07:11:00Z</time>
      </trkpt>
      <trkpt lat="43.95942" lon="7.27565">
        <ele>680.404663</ele>
        <time>2012-08-19T07:11:02Z</time>
      </trkpt>
      <trkpt lat="43.9594" lon="7.27558">
        <ele>680.628479</ele>
        <time>2012-08-19T07:11:04Z</time>
      </trkpt>
      <trkpt lat="43.95939" lon="7.27545">
        <ele>680.858521</ele>
        <time>2012-08-19T07:11:07Z</time>
      </trkpt>
      <trkpt lat="43.95938" lon="7.27531">
        <ele>681.174927</ele>
        <time>2012-08-19T07:11:10Z</time>
      </trkpt>
      <trkpt lat="43.95937" lon="7.27523">
        <ele>681.411987</ele>
        <time>2012-08-19T07:11:12Z</time>
      </trkpt>
      <trkpt lat="43.95935" lon="7.27514">
        <ele>681.819458</ele>
        <time>2012-08-19T07:11:15Z</time>
      </trkpt>
      <trkpt lat="43.95934" lon="7.27501">
        <ele>682.14978</ele>
        <time>2012-08-19T07:11:18Z</time>
      </trkpt>
      <trkpt lat="43.95933" lon="7.27493">
        <ele>682.472046</ele>
        <time>2012-08-19T07:11:20Z</time>
      </trkpt>
      <trkpt lat="43.95931" lon="7.27485">
        <ele>682.792664</ele>
        <time>2012-08-19T07:11:22Z</time>
      </trkpt>
      <trkpt lat="43.9593" lon="7.27475">
        <ele>683.311096</ele>
        <time>2012-08-19T07:11:25Z</time>
      </trkpt>
      <trkpt lat="43.95929" lon="7.27468">
        <ele>683.532349</ele>
        <time>2012-08-19T07:11:27Z</time>
      </trkpt>
      <trkpt lat="43.95929" lon="7.27462">
        <ele>683.692871</ele>
        <time>2012-08-19T07:11:29Z</time>
      </trkpt>
      <trkpt lat="43.9593" lon="7.27453">
        <ele>683.823059</ele>
        <time>2012-08-19T07:11:32Z</time>
      </trkpt>
      <trkpt lat="43.95932" lon="7.27445">
        <ele>683.855774</ele>
        <time>2012-08-19T07:11:34Z</time>
      </trkpt>
      <trkpt lat="43.95933" lon="7.27437">
        <ele>683.851135</ele>
        <time>2012-08-19T07:11:36Z</time>
      </trkpt>
      <trkpt lat="43.95934" lon="7.27428">
        <ele>683.823486</ele>
        <time>2012-08-19T07:11:38Z</time>
      </trkpt>
      <trkpt lat="43.95936" lon="7.27416">
        <ele>683.808105</ele>
        <time>2012-08-19T07:11:41Z</time>
      </trkpt>
      <trkpt lat="43.95938" lon="7.27409">
        <ele>683.806396</ele>
        <time>2012-08-19T07:11:43Z</time>
      </trkpt>
      <trkpt lat="43.95942" lon="7.27399">
        <ele>683.837952</ele>
        <time>2012-08-19T07:11:46Z</time>
      </trkpt>
      <trkpt lat="43.95947" lon="7.27397">
        <ele>683.881104</ele>
        <time>2012-08-19T07:11:48Z</time>
      </trkpt>
      <trkpt lat="43.95952" lon="7.27391">
        <ele>683.888794</ele>
        <time>2012-08-19T07:11:51Z</time>
      </trkpt>
      <trkpt lat="43.95954" lon="7.27387">
        <ele>683.886841</ele>
        <time>2012-08-19T07:11:53Z</time>
      </trkpt>
      <trkpt lat="43.95957" lon="7.27386">
        <ele>683.897278</ele>
        <time>2012-08-19T07:11:55Z</time>
      </trkpt>
      <trkpt lat="43.95962" lon="7.27385">
        <ele>683.910522</ele>
        <time>2012-08-19T07:11:58Z</time>
      </trkpt>
      <trkpt lat="43.95963" lon="7.2738">
        <ele>684.007751</ele>
        <time>2012-08-19T07:12:01Z</time>
      </trkpt>
      <trkpt lat="43.95964" lon="7.27377">
        <ele>684.123047</ele>
        <time>2012-08-19T07:12:03Z</time>
      </trkpt>
      <trkpt lat="43.95965" lon="7.27372">
        <ele>684.281067</ele>
        <time>2012-08-19T07:12:05Z</time>
      </trkpt>
      <trkpt lat="43.95964" lon="7.27363">
        <ele>684.593018</ele>
        <time>2012-08-19T07:12:08Z</time>
      </trkpt>
      <trkpt lat="43.95963" lon="7.27355">
        <ele>684.817017</ele>
        <time>2012-08-19T07:12:11Z</time>
      </trkpt>
      <trkpt lat="43.95961" lon="7.27352">
        <ele>684.923828</ele>
        <time>2012-08-19T07:12:13Z</time>
      </trkpt>
      <trkpt lat="43.95957" lon="7.27349">
        <ele>685.077454</ele>
        <time>2012-08-19T07:12:16Z</time>
      </trkpt>
      <trkpt lat="43.95957" lon="7.27348">
        <ele>685.168274</ele>
        <time>2012-08-19T07:12:18Z</time>
      </trkpt>
      <trkpt lat="43.95957" lon="7.27343">
        <ele>685.354675</ele>
        <time>2012-08-19T07:12:21Z</time>
      </trkpt>
      <trkpt lat="43.95955" lon="7.27338">
        <ele>685.475708</ele>
        <time>2012-08-19T07:12:23Z</time>
      </trkpt>
      <trkpt lat="43.95954" lon="7.27334">
        <ele>685.605774</ele>
        <time>2012-08-19T07:12:25Z</time>
      </trkpt>
      <trkpt lat="43.95951" lon="7.27327">
        <ele>685.791626</ele>
        <time>2012-08-19T07:12:28Z</time>
      </trkpt>
      <trkpt lat="43.95949" lon="7.27323">
        <ele>685.916931</ele>
        <time>2012-08-19T07:12:30Z</time>
      </trkpt>
      <trkpt lat="43.95946" lon="7.27319">
        <ele>686.116272</ele>
        <time>2012-08-19T07:12:33Z</time>
      </trkpt>
      <trkpt lat="43.95941" lon="7.27315">
        <ele>686.211914</ele>
        <time>2012-08-19T07:12:36Z</time>
      </trkpt>
      <trkpt lat="43.95935" lon="7.27311">
        <ele>686.138306</ele>
        <time>2012-08-19T07:12:39Z</time>
      </trkpt>
      <trkpt lat="43.95933" lon="7.27307">
        <ele>685.993408</ele>
        <time>2012-08-19T07:12:42Z</time>
      </trkpt>
      <trkpt lat="43.95931" lon="7.27301">
        <ele>685.68927</ele>
        <time>2012-08-19T07:12:45Z</time>
      </trkpt>
      <trkpt lat="43.95931" lon="7.27299">
        <ele>685.42688</ele>
        <time>2012-08-19T07:12:48Z</time>
      </trkpt>
      <trkpt lat="43.95931" lon="7.27299">
        <ele>685.187012</ele>
        <time>2012-08-19T07:12:50Z</time>
      </trkpt>
      <trkpt lat="43.9593" lon="7.27288">
        <ele>684.832947</ele>
        <time>2012-08-19T07:12:52Z</time>
      </trkpt>
      <trkpt lat="43.95933" lon="7.27278">
        <ele>684.155579</ele>
        <time>2012-08-19T07:12:55Z</time>
      </trkpt>
      <trkpt lat="43.95935" lon="7.27272">
        <ele>683.69873</ele>
        <time>2012-08-19T07:12:57Z</time>
      </trkpt>
      <trkpt lat="43.95936" lon="7.27265">
        <ele>683.291931</ele>
        <time>2012-08-19T07:12:59Z</time>
      </trkpt>
      <trkpt lat="43.95938" lon="7.27253">
        <ele>682.647583</ele>
        <time>2012-08-19T07:13:02Z</time>
      </trkpt>
      <trkpt lat="43.9594" lon="7.27239">
        <ele>682.085815</ele>
        <time>2012-08-19T07:13:05Z</time>
      </trkpt>
      <trkpt lat="43.95941" lon="7.27231">
        <ele>681.817505</ele>
        <time>2012-08-19T07:13:07Z</time>
      </trkpt>
      <trkpt lat="43.95942" lon="7.27224">
        <ele>681.591431</ele>
        <time>2012-08-19T07:13:09Z</time>
      </trkpt>
      <trkpt lat="43.95945" lon="7.27217">
        <ele>681.246033</ele>
        <time>2012-08-19T07:13:12Z</time>
      </trkpt>
      <trkpt lat="43.95947" lon="7.27215">
        <ele>681.005432</ele>
        <time>2012-08-19T07:13:14Z</time>
      </trkpt>
      <trkpt lat="43.95949" lon="7.2721">
        <ele>680.704163</ele>
        <time>2012-08-19T07:13:17Z</time>
      </trkpt>
      <trkpt lat="43.9595" lon="7.27205">
        <ele>680.526428</ele>
        <time>2012-08-19T07:13:19Z</time>
      </trkpt>
      <trkpt lat="43.95953" lon="7.27199">
        <ele>680.305664</ele>
        <time>2012-08-19T07:13:22Z</time>
      </trkpt>
      <trkpt lat="43.95955" lon="7.27194">
        <ele>680.204956</ele>
        <time>2012-08-19T07:13:24Z</time>
      </trkpt>
      <trkpt lat="43.95957" lon="7.27189">
        <ele>680.119202</ele>
        <time>2012-08-19T07:13:26Z</time>
      </trkpt>
      <trkpt lat="43.95961" lon="7.27182">
        <ele>680.054382</ele>
        <time>2012-08-19T07:13:29Z</time>
      </trkpt>
      <trkpt lat="43.95964" lon="7.27174">
        <ele>680.008606</ele>
        <time>2012-08-19T07:13:32Z</time>
      </trkpt>
      <trkpt lat="43.95967" lon="7.27166">
        <ele>679.997131</ele>
        <time>2012-08-19T07:13:35Z</time>
      </trkpt>
      <trkpt lat="43.95971" lon="7.27157">
        <ele>679.947083</ele>
        <time>2012-08-19T07:13:38Z</time>
      </trkpt>
      <trkpt lat="43.95974" lon="7.27152">
        <ele>679.766113</ele>
        <time>2012-08-19T07:13:41Z</time>
      </trkpt>
      <trkpt lat="43.95977" lon="7.27145">
        <ele>679.767761</ele>
        <time>2012-08-19T07:13:43Z</time>
      </trkpt>
      <trkpt lat="43.9598" lon="7.27139">
        <ele>679.911133</ele>
        <time>2012-08-19T07:13:46Z</time>
      </trkpt>
      <trkpt lat="43.95983" lon="7.27133">
        <ele>680.112366</ele>
        <time>2012-08-19T07:13:49Z</time>
      </trkpt>
      <trkpt lat="43.95986" lon="7.27126">
        <ele>680.298218</ele>
        <time>2012-08-19T07:13:52Z</time>
      </trkpt>
      <trkpt lat="43.95988" lon="7.27121">
        <ele>680.427979</ele>
        <time>2012-08-19T07:13:54Z</time>
      </trkpt>
      <trkpt lat="43.95991" lon="7.27113">
        <ele>680.624146</ele>
        <time>2012-08-19T07:13:57Z</time>
      </trkpt>
      <trkpt lat="43.95994" lon="7.27107">
        <ele>680.760254</ele>
        <time>2012-08-19T07:14:00Z</time>
      </trkpt>
      <trkpt lat="43.95997" lon="7.27103">
        <ele>680.757568</ele>
        <time>2012-08-19T07:14:02Z</time>
      </trkpt>
      <trkpt lat="43.96002" lon="7.27097">
        <ele>680.714966</ele>
        <time>2012-08-19T07:14:05Z</time>
      </trkpt>
      <trkpt lat="43.96006" lon="7.27093">
        <ele>680.661194</ele>
        <time>2012-08-19T07:14:08Z</time>
      </trkpt>
      <trkpt lat="43.9601" lon="7.27091">
        <ele>680.560608</ele>
        <time>2012-08-19T07:14:10Z</time>
      </trkpt>
      <trkpt lat="43.96011" lon="7.2709">
        <ele>680.491394</ele>
        <time>2012-08-19T07:14:12Z</time>
      </trkpt>
      <trkpt lat="43.96017" lon="7.27086">
        <ele>680.588501</ele>
        <time>2012-08-19T07:14:15Z</time>
      </trkpt>
      <trkpt lat="43.96022" lon="7.27082">
        <ele>680.869141</ele>
        <time>2012-08-19T07:14:18Z</time>
      </trkpt>
      <trkpt lat="43.96028" lon="7.27074">
        <ele>681.17804</ele>
        <time>2012-08-19T07:14:21Z</time>
      </trkpt>
      <trkpt lat="43.96029" lon="7.27067">
        <ele>681.398621</ele>
        <time>2012-08-19T07:14:23Z</time>
      </trkpt>
      <trkpt lat="43.96032" lon="7.27062">
        <ele>681.594299</ele>
        <time>2012-08-19T07:14:25Z</time>
      </trkpt>
      <trkpt lat="43.96037" lon="7.27055">
        <ele>681.836853</ele>
        <time>2012-08-19T07:14:28Z</time>
      </trkpt>
      <trkpt lat="43.9604" lon="7.27049">
        <ele>682.009216</ele>
        <time>2012-08-19T07:14:31Z</time>
      </trkpt>
      <trkpt lat="43.96043" lon="7.27046">
        <ele>682.109741</ele>
        <time>2012-08-19T07:14:33Z</time>
      </trkpt>
      <trkpt lat="43.96045" lon="7.27043">
        <ele>682.178528</ele>
        <time>2012-08-19T07:14:36Z</time>
      </trkpt>
      <trkpt lat="43.96049" lon="7.27041">
        <ele>682.140137</ele>
        <time>2012-08-19T07:14:39Z</time>
      </trkpt>
      <trkpt lat="43.96052" lon="7.27038">
        <ele>682.105591</ele>
        <time>2012-08-19T07:14:42Z</time>
      </trkpt>
      <trkpt lat="43.96053" lon="7.27037">
        <ele>682.102112</ele>
        <time>2012-08-19T07:14:44Z</time>
      </trkpt>
      <trkpt lat="43.96053" lon="7.27037">
        <ele>682.07782</ele>
        <time>2012-08-19T07:14:47Z</time>
      </trkpt>
      <trkpt lat="43.96057" lon="7.27033">
        <ele>681.989868</ele>
        <time>2012-08-19T07:14:50Z</time>
      </trkpt>
      <trkpt lat="43.96057" lon="7.27033">
        <ele>681.915466</ele>
        <time>2012-08-19T07:14:53Z</time>
      </trkpt>
      <trkpt lat="43.96061" lon="7.27029">
        <ele>681.846619</ele>
        <time>2012-08-19T07:14:55Z</time>
      </trkpt>
      <trkpt lat="43.96065" lon="7.27024">
        <ele>681.810425</ele>
        <time>2012-08-19T07:14:57Z</time>
      </trkpt>
      <trkpt lat="43.9607" lon="7.27022">
        <ele>681.776855</ele>
        <time>2012-08-19T07:14:59Z</time>
      </trkpt>
      <trkpt lat="43.9608" lon="7.27018">
        <ele>681.717896</ele>
        <time>2012-08-19T07:15:02Z</time>
      </trkpt>
      <trkpt lat="43.96088" lon="7.27013">
        <ele>681.670288</ele>
        <time>2012-08-19T07:15:05Z</time>
      </trkpt>
      <trkpt lat="43.9609" lon="7.27009">
        <ele>681.633423</ele>
        <time>2012-08-19T07:15:08Z</time>
      </trkpt>
      <trkpt lat="43.96091" lon="7.27007">
        <ele>681.615784</ele>
        <time>2012-08-19T07:15:10Z</time>
      </trkpt>
      <trkpt lat="43.96095" lon="7.27005">
        <ele>681.586914</ele>
        <time>2012-08-19T07:15:12Z</time>
      </trkpt>
      <trkpt lat="43.96103" lon="7.27">
        <ele>681.572327</ele>
        <time>2012-08-19T07:15:15Z</time>
      </trkpt>
      <trkpt lat="43.96111" lon="7.26993">
        <ele>681.556702</ele>
        <time>2012-08-19T07:15:18Z</time>
      </trkpt>
      <trkpt lat="43.96119" lon="7.26989">
        <ele>681.524719</ele>
        <time>2012-08-19T07:15:21Z</time>
      </trkpt>
      <trkpt lat="43.96124" lon="7.26985">
        <ele>681.561157</ele>
        <time>2012-08-19T07:15:23Z</time>
      </trkpt>
      <trkpt lat="43.9613" lon="7.2698">
        <ele>681.62561</ele>
        <time>2012-08-19T07:15:25Z</time>
      </trkpt>
      <trkpt lat="43.96138" lon="7.26978">
        <ele>681.688477</ele>
        <time>2012-08-19T07:15:28Z</time>
      </trkpt>
      <trkpt lat="43.96144" lon="7.26975">
        <ele>681.770569</ele>
        <time>2012-08-19T07:15:30Z</time>
      </trkpt>
      <trkpt lat="43.96153" lon="7.2697">
        <ele>681.940186</ele>
        <time>2012-08-19T07:15:33Z</time>
      </trkpt>
      <trkpt lat="43.96162" lon="7.26966">
        <ele>682.073792</ele>
        <time>2012-08-19T07:15:36Z</time>
      </trkpt>
      <trkpt lat="43.96172" lon="7.26966">
        <ele>682.132751</ele>
        <time>2012-08-19T07:15:39Z</time>
      </trkpt>
      <trkpt lat="43.9618" lon="7.26965">
        <ele>682.220825</ele>
        <time>2012-08-19T07:15:42Z</time>
      </trkpt>
      <trkpt lat="43.96187" lon="7.26964">
        <ele>682.339844</ele>
        <time>2012-08-19T07:15:45Z</time>
      </trkpt>
      <trkpt lat="43.96191" lon="7.26963">
        <ele>682.409241</ele>
        <time>2012-08-19T07:15:47Z</time>
      </trkpt>
      <trkpt lat="43.96195" lon="7.26962">
        <ele>682.487732</ele>
        <time>2012-08-19T07:15:49Z</time>
      </trkpt>
      <trkpt lat="43.96201" lon="7.26958">
        <ele>682.604065</ele>
        <time>2012-08-19T07:15:52Z</time>
      </trkpt>
      <trkpt lat="43.96208" lon="7.26954">
        <ele>682.682495</ele>
        <time>2012-08-19T07:15:55Z</time>
      </trkpt>
      <trkpt lat="43.96216" lon="7.26952">
        <ele>682.731201</ele>
        <time>2012-08-19T07:15:58Z</time>
      </trkpt>
      <trkpt lat="43.96223" lon="7.26952">
        <ele>682.796265</ele>
        <time>2012-08-19T07:16:00Z</time>
      </trkpt>
      <trkpt lat="43.96228" lon="7.26952">
        <ele>682.86615</ele>
        <time>2012-08-19T07:16:02Z</time>
      </trkpt>
      <trkpt lat="43.96235" lon="7.26951">
        <ele>682.93457</ele>
        <time>2012-08-19T07:16:05Z</time>
      </trkpt>
      <trkpt lat="43.9624" lon="7.26948">
        <ele>683.004211</ele>
        <time>2012-08-19T07:16:07Z</time>
      </trkpt>
      <trkpt lat="43.96244" lon="7.26944">
        <ele>683.058472</ele>
        <time>2012-08-19T07:16:09Z</time>
      </trkpt>
      <trkpt lat="43.96249" lon="7.26936">
        <ele>683.150208</ele>
        <time>2012-08-19T07:16:12Z</time>
      </trkpt>
      <trkpt lat="43.96253" lon="7.26929">
        <ele>683.255615</ele>
        <time>2012-08-19T07:16:14Z</time>
      </trkpt>
      <trkpt lat="43.9626" lon="7.26922">
        <ele>683.353027</ele>
        <time>2012-08-19T07:16:17Z</time>
      </trkpt>
      <trkpt lat="43.96264" lon="7.26918">
        <ele>683.421387</ele>
        <time>2012-08-19T07:16:19Z</time>
      </trkpt>
      <trkpt lat="43.96269" lon="7.26909">
        <ele>683.561646</ele>
        <time>2012-08-19T07:16:22Z</time>
      </trkpt>
      <trkpt lat="43.96274" lon="7.26899">
        <ele>683.740356</ele>
        <time>2012-08-19T07:16:25Z</time>
      </trkpt>
      <trkpt lat="43.96277" lon="7.26893">
        <ele>683.945251</ele>
        <time>2012-08-19T07:16:27Z</time>
      </trkpt>
      <trkpt lat="43.96279" lon="7.26886">
        <ele>684.12262</ele>
        <time>2012-08-19T07:16:29Z</time>
      </trkpt>
      <trkpt lat="43.96283" lon="7.26877">
        <ele>684.536804</ele>
        <time>2012-08-19T07:16:32Z</time>
      </trkpt>
      <trkpt lat="43.96286" lon="7.26871">
        <ele>684.914429</ele>
        <time>2012-08-19T07:16:35Z</time>
      </trkpt>
      <trkpt lat="43.96289" lon="7.26866">
        <ele>685.223572</ele>
        <time>2012-08-19T07:16:38Z</time>
      </trkpt>
      <trkpt lat="43.96294" lon="7.26861">
        <ele>685.489441</ele>
        <time>2012-08-19T07:16:41Z</time>
      </trkpt>
      <trkpt lat="43.96296" lon="7.26857">
        <ele>685.666504</ele>
        <time>2012-08-19T07:16:43Z</time>
      </trkpt>
      <trkpt lat="43.96298" lon="7.26853">
        <ele>685.825562</ele>
        <time>2012-08-19T07:16:45Z</time>
      </trkpt>
      <trkpt lat="43.96303" lon="7.26849">
        <ele>685.916626</ele>
        <time>2012-08-19T07:16:48Z</time>
      </trkpt>
      <trkpt lat="43.96311" lon="7.26845">
        <ele>685.876587</ele>
        <time>2012-08-19T07:16:51Z</time>
      </trkpt>
      <trkpt lat="43.96316" lon="7.26844">
        <ele>685.81073</ele>
        <time>2012-08-19T07:16:53Z</time>
      </trkpt>
      <trkpt lat="43.96322" lon="7.26841">
        <ele>685.827271</ele>
        <time>2012-08-19T07:16:56Z</time>
      </trkpt>
      <trkpt lat="43.96326" lon="7.26835">
        <ele>685.86084</ele>
        <time>2012-08-19T07:16:59Z</time>
      </trkpt>
      <trkpt lat="43.96332" lon="7.2683">
        <ele>685.98822</ele>
        <time>2012-08-19T07:17:02Z</time>
      </trkpt>
      <trkpt lat="43.96336" lon="7.26827">
        <ele>686.114075</ele>
        <time>2012-08-19T07:17:04Z</time>
      </trkpt>
      <trkpt lat="43.9634" lon="7.26824">
        <ele>686.229248</ele>
        <time>2012-08-19T07:17:06Z</time>
      </trkpt>
      <trkpt lat="43.96346" lon="7.26819">
        <ele>686.517273</ele>
        <time>2012-08-19T07:17:09Z</time>
      </trkpt>
      <trkpt lat="43.96351" lon="7.26815">
        <ele>686.785339</ele>
        <time>2012-08-19T07:17:12Z</time>
      </trkpt>
      <trkpt lat="43.96359" lon="7.26812">
        <ele>686.742249</ele>
        <time>2012-08-19T07:17:15Z</time>
      </trkpt>
      <trkpt lat="43.96367" lon="7.26811">
        <ele>686.69519</ele>
        <time>2012-08-19T07:17:17Z</time>
      </trkpt>
      <trkpt lat="43.96374" lon="7.2681">
        <ele>686.65686</ele>
        <time>2012-08-19T07:17:19Z</time>
      </trkpt>
      <trkpt lat="43.96382" lon="7.26811">
        <ele>686.571777</ele>
        <time>2012-08-19T07:17:22Z</time>
      </trkpt>
      <trkpt lat="43.96386" lon="7.26811">
        <ele>686.536804</ele>
        <time>2012-08-19T07:17:24Z</time>
      </trkpt>
      <trkpt lat="43.96391" lon="7.26812">
        <ele>686.441833</ele>
        <time>2012-08-19T07:17:27Z</time>
      </trkpt>
      <trkpt lat="43.96393" lon="7.26813">
        <ele>686.357483</ele>
        <time>2012-08-19T07:17:29Z</time>
      </trkpt>
      <trkpt lat="43.96397" lon="7.26814">
        <ele>686.24115</ele>
        <time>2012-08-19T07:17:32Z</time>
      </trkpt>
      <trkpt lat="43.96397" lon="7.26814">
        <ele>686.055542</ele>
        <time>2012-08-19T07:17:34Z</time>
      </trkpt>
      <trkpt lat="43.964" lon="7.26811">
        <ele>685.731445</ele>
        <time>2012-08-19T07:17:37Z</time>
      </trkpt>
      <trkpt lat="43.96402" lon="7.26807">
        <ele>685.529358</ele>
        <time>2012-08-19T07:17:39Z</time>
      </trkpt>
      <trkpt lat="43.96406" lon="7.26804">
        <ele>685.255371</ele>
        <time>2012-08-19T07:17:42Z</time>
      </trkpt>
      <trkpt lat="43.96406" lon="7.26804">
        <ele>685.16156</ele>
        <time>2012-08-19T07:17:45Z</time>
      </trkpt>
      <trkpt lat="43.96411" lon="7.26803">
        <ele>684.965881</ele>
        <time>2012-08-19T07:17:47Z</time>
      </trkpt>
      <trkpt lat="43.96411" lon="7.26803">
        <ele>684.79425</ele>
        <time>2012-08-19T07:17:50Z</time>
      </trkpt>
      <trkpt lat="43.96415" lon="7.26807">
        <ele>684.771729</ele>
        <time>2012-08-19T07:17:53Z</time>
      </trkpt>
      <trkpt lat="43.96415" lon="7.26807">
        <ele>684.761108</ele>
        <time>2012-08-19T07:17:55Z</time>
      </trkpt>
      <trkpt lat="43.96415" lon="7.26807">
        <ele>684.543579</ele>
        <time>2012-08-19T07:17:58Z</time>
      </trkpt>
      <trkpt lat="43.96421" lon="7.26809">
        <ele>684.42981</ele>
        <time>2012-08-19T07:18:00Z</time>
      </trkpt>
      <trkpt lat="43.96425" lon="7.26809">
        <ele>684.364197</ele>
        <time>2012-08-19T07:18:03Z</time>
      </trkpt>
      <trkpt lat="43.96432" lon="7.26809">
        <ele>684.298645</ele>
        <time>2012-08-19T07:18:06Z</time>
      </trkpt>
      <trkpt lat="43.96436" lon="7.26809">
        <ele>684.363098</ele>
        <time>2012-08-19T07:18:08Z</time>
      </trkpt>
      <trkpt lat="43.96442" lon="7.2681">
        <ele>684.629028</ele>
        <time>2012-08-19T07:18:11Z</time>
      </trkpt>
      <trkpt lat="43.96456" lon="7.26815">
        <ele>684.769653</ele>
        <time>2012-08-19T07:18:13Z</time>
      </trkpt>
      <trkpt lat="43.96469" lon="7.26821">
        <ele>684.967285</ele>
        <time>2012-08-19T07:18:16Z</time>
      </trkpt>
      <trkpt lat="43.96476" lon="7.26824">
        <ele>685.04187</ele>
        <time>2012-08-19T07:18:19Z</time>
      </trkpt>
      <trkpt lat="43.96488" lon="7.26831">
        <ele>685.054504</ele>
        <time>2012-08-19T07:18:22Z</time>
      </trkpt>
      <trkpt lat="43.96494" lon="7.26835">
        <ele>685.126587</ele>
        <time>2012-08-19T07:18:24Z</time>
      </trkpt>
      <trkpt lat="43.965" lon="7.26838">
        <ele>685.180115</ele>
        <time>2012-08-19T07:18:27Z</time>
      </trkpt>
      <trkpt lat="43.96506" lon="7.26842">
        <ele>685.231201</ele>
        <time>2012-08-19T07:18:29Z</time>
      </trkpt>
      <trkpt lat="43.96516" lon="7.26847">
        <ele>685.362427</ele>
        <time>2012-08-19T07:18:32Z</time>
      </trkpt>
      <trkpt lat="43.96522" lon="7.26849">
        <ele>685.448669</ele>
        <time>2012-08-19T07:18:35Z</time>
      </trkpt>
      <trkpt lat="43.96526" lon="7.26849">
        <ele>685.558228</ele>
        <time>2012-08-19T07:18:37Z</time>
      </trkpt>
      <trkpt lat="43.9653" lon="7.26849">
        <ele>685.876953</ele>
        <time>2012-08-19T07:18:40Z</time>
      </trkpt>
      <trkpt lat="43.96532" lon="7.26849">
        <ele>686.119995</ele>
        <time>2012-08-19T07:18:42Z</time>
      </trkpt>
      <trkpt lat="43.96533" lon="7.26849">
        <ele>686.496216</ele>
        <time>2012-08-19T07:18:45Z</time>
      </trkpt>
      <trkpt lat="43.96536" lon="7.26848">
        <ele>686.689331</ele>
        <time>2012-08-19T07:18:47Z</time>
      </trkpt>
      <trkpt lat="43.96541" lon="7.26849">
        <ele>686.87561</ele>
        <time>2012-08-19T07:18:49Z</time>
      </trkpt>
      <trkpt lat="43.96548" lon="7.26852">
        <ele>687.154541</ele>
        <time>2012-08-19T07:18:52Z</time>
      </trkpt>
      <trkpt lat="43.96553" lon="7.26852">
        <ele>687.306213</ele>
        <time>2012-08-19T07:18:54Z</time>
      </trkpt>
      <trkpt lat="43.9656" lon="7.26851">
        <ele>687.49292</ele>
        <time>2012-08-19T07:18:57Z</time>
      </trkpt>
      <trkpt lat="43.96564" lon="7.26851">
        <ele>687.625244</ele>
        <time>2012-08-19T07:18:59Z</time>
      </trkpt>
      <trkpt lat="43.96571" lon="7.26853">
        <ele>687.863525</ele>
        <time>2012-08-19T07:19:02Z</time>
      </trkpt>
      <trkpt lat="43.96578" lon="7.26852">
        <ele>688.315186</ele>
        <time>2012-08-19T07:19:05Z</time>
      </trkpt>
      <trkpt lat="43.96583" lon="7.26849">
        <ele>688.857849</ele>
        <time>2012-08-19T07:19:08Z</time>
      </trkpt>
      <trkpt lat="43.96588" lon="7.26846">
        <ele>689.566467</ele>
        <time>2012-08-19T07:19:11Z</time>
      </trkpt>
      <trkpt lat="43.96592" lon="7.26844">
        <ele>690.013916</ele>
        <time>2012-08-19T07:19:13Z</time>
      </trkpt>
      <trkpt lat="43.96597" lon="7.26843">
        <ele>690.39679</ele>
        <time>2012-08-19T07:19:15Z</time>
      </trkpt>
      <trkpt lat="43.96603" lon="7.26843">
        <ele>690.792664</ele>
        <time>2012-08-19T07:19:17Z</time>
      </trkpt>
      <trkpt lat="43.9661" lon="7.26843">
        <ele>691.323303</ele>
        <time>2012-08-19T07:19:20Z</time>
      </trkpt>
      <trkpt lat="43.96618" lon="7.26842">
        <ele>691.815186</ele>
        <time>2012-08-19T07:19:23Z</time>
      </trkpt>
      <trkpt lat="43.96623" lon="7.26841">
        <ele>692.111206</ele>
        <time>2012-08-19T07:19:25Z</time>
      </trkpt>
      <trkpt lat="43.96631" lon="7.26839">
        <ele>692.559509</ele>
        <time>2012-08-19T07:19:28Z</time>
      </trkpt>
      <trkpt lat="43.96638" lon="7.26838">
        <ele>693.061951</ele>
        <time>2012-08-19T07:19:30Z</time>
      </trkpt>
      <trkpt lat="43.96647" lon="7.26836">
        <ele>694.048279</ele>
        <time>2012-08-19T07:19:33Z</time>
      </trkpt>
      <trkpt lat="43.96652" lon="7.26833">
        <ele>694.805481</ele>
        <time>2012-08-19T07:19:35Z</time>
      </trkpt>
      <trkpt lat="43.96659" lon="7.26829">
        <ele>695.976135</ele>
        <time>2012-08-19T07:19:38Z</time>
      </trkpt>
      <trkpt lat="43.96664" lon="7.26825">
        <ele>697.024292</ele>
        <time>2012-08-19T07:19:41Z</time>
      </trkpt>
      <trkpt lat="43.96668" lon="7.26823">
        <ele>697.632812</ele>
        <time>2012-08-19T07:19:43Z</time>
      </trkpt>
      <trkpt lat="43.96672" lon="7.26821">
        <ele>698.194458</ele>
        <time>2012-08-19T07:19:45Z</time>
      </trkpt>
      <trkpt lat="43.96677" lon="7.26818">
        <ele>699.018494</ele>
        <time>2012-08-19T07:19:48Z</time>
      </trkpt>
      <trkpt lat="43.96682" lon="7.26811">
        <ele>700.331299</ele>
        <time>2012-08-19T07:19:51Z</time>
      </trkpt>
      <trkpt lat="43.96684" lon="7.26806">
        <ele>701.121826</ele>
        <time>2012-08-19T07:19:53Z</time>
      </trkpt>
      <trkpt lat="43.96686" lon="7.26802">
        <ele>701.873779</ele>
        <time>2012-08-19T07:19:55Z</time>
      </trkpt>
      <trkpt lat="43.96689" lon="7.26797">
        <ele>702.979492</ele>
        <time>2012-08-19T07:19:58Z</time>
      </trkpt>
      <trkpt lat="43.96691" lon="7.26794">
        <ele>703.717834</ele>
        <time>2012-08-19T07:20:00Z</time>
      </trkpt>
      <trkpt lat="43.96694" lon="7.26788">
        <ele>704.79657</ele>
        <time>2012-08-19T07:20:03Z</time>
      </trkpt>
      <trkpt lat="43.96698" lon="7.26783">
        <ele>706.088318</ele>
        <time>2012-08-19T07:20:06Z</time>
      </trkpt>
      <trkpt lat="43.96701" lon="7.26779">
        <ele>707.017456</ele>
        <time>2012-08-19T07:20:08Z</time>
      </trkpt>
      <trkpt lat="43.96701" lon="7.26779">
        <ele>708.387634</ele>
        <time>2012-08-19T07:20:11Z</time>
      </trkpt>
      <trkpt lat="43.96701" lon="7.26779">
        <ele>709.272278</ele>
        <time>2012-08-19T07:20:13Z</time>
      </trkpt>
      <trkpt lat="43.96704" lon="7.26773">
        <ele>710.151306</ele>
        <time>2012-08-19T07:20:16Z</time>
      </trkpt>
      <trkpt lat="43.96704" lon="7.26773">
        <ele>710.271362</ele>
        <time>2012-08-19T07:20:19Z</time>
      </trkpt>
      <trkpt lat="43.96704" lon="7.26773">
        <ele>711.071838</ele>
        <time>2012-08-19T07:20:22Z</time>
      </trkpt>
      <trkpt lat="43.96704" lon="7.26773">
        <ele>712.184448</ele>
        <time>2012-08-19T07:20:25Z</time>
      </trkpt>
      <trkpt lat="43.96709" lon="7.2677">
        <ele>712.948975</ele>
        <time>2012-08-19T07:20:27Z</time>
      </trkpt>
      <trkpt lat="43.96709" lon="7.2677">
        <ele>713.669312</ele>
        <time>2012-08-19T07:20:29Z</time>
      </trkpt>
      <trkpt lat="43.96714" lon="7.26767">
        <ele>714.683716</ele>
        <time>2012-08-19T07:20:32Z</time>
      </trkpt>
      <trkpt lat="43.96718" lon="7.26765">
        <ele>715.322754</ele>
        <time>2012-08-19T07:20:34Z</time>
      </trkpt>
      <trkpt lat="43.96721" lon="7.26763">
        <ele>715.934143</ele>
        <time>2012-08-19T07:20:36Z</time>
      </trkpt>
      <trkpt lat="43.96726" lon="7.26761">
        <ele>716.74585</ele>
        <time>2012-08-19T07:20:39Z</time>
      </trkpt>
      <trkpt lat="43.96731" lon="7.26758">
        <ele>717.466064</ele>
        <time>2012-08-19T07:20:42Z</time>
      </trkpt>
      <trkpt lat="43.96737" lon="7.26755">
        <ele>717.987671</ele>
        <time>2012-08-19T07:20:45Z</time>
      </trkpt>
      <trkpt lat="43.96742" lon="7.26752">
        <ele>718.352417</ele>
        <time>2012-08-19T07:20:47Z</time>
      </trkpt>
      <trkpt lat="43.96749" lon="7.26747">
        <ele>718.919189</ele>
        <time>2012-08-19T07:20:50Z</time>
      </trkpt>
      <trkpt lat="43.96757" lon="7.26744">
        <ele>719.407227</ele>
        <time>2012-08-19T07:20:53Z</time>
      </trkpt>
      <trkpt lat="43.96763" lon="7.26741">
        <ele>719.891968</ele>
        <time>2012-08-19T07:20:56Z</time>
      </trkpt>
      <trkpt lat="43.96766" lon="7.26739">
        <ele>720.258911</ele>
        <time>2012-08-19T07:20:58Z</time>
      </trkpt>
      <trkpt lat="43.9677" lon="7.26736">
        <ele>720.83905</ele>
        <time>2012-08-19T07:21:01Z</time>
      </trkpt>
      <trkpt lat="43.96771" lon="7.26735">
        <ele>721.207703</ele>
        <time>2012-08-19T07:21:03Z</time>
      </trkpt>
      <trkpt lat="43.96772" lon="7.26735">
        <ele>721.397644</ele>
        <time>2012-08-19T07:21:05Z</time>
      </trkpt>
      <trkpt lat="43.96772" lon="7.26735">
        <ele>721.426758</ele>
        <time>2012-08-19T07:21:07Z</time>
      </trkpt>
      <trkpt lat="43.96772" lon="7.26735">
        <ele>721.822754</ele>
        <time>2012-08-19T07:21:10Z</time>
      </trkpt>
      <trkpt lat="43.96772" lon="7.26735">
        <ele>722.089417</ele>
        <time>2012-08-19T07:21:12Z</time>
      </trkpt>
      <trkpt lat="43.96774" lon="7.26729">
        <ele>722.347351</ele>
        <time>2012-08-19T07:21:14Z</time>
      </trkpt>
      <trkpt lat="43.96774" lon="7.26729">
        <ele>722.715942</ele>
        <time>2012-08-19T07:21:17Z</time>
      </trkpt>
      <trkpt lat="43.96774" lon="7.26729">
        <ele>722.846191</ele>
        <time>2012-08-19T07:21:19Z</time>
      </trkpt>
      <trkpt lat="43.96774" lon="7.26729">
        <ele>723.210205</ele>
        <time>2012-08-19T07:21:22Z</time>
      </trkpt>
      <trkpt lat="43.96777" lon="7.26724">
        <ele>723.439087</ele>
        <time>2012-08-19T07:21:24Z</time>
      </trkpt>
      <trkpt lat="43.96777" lon="7.26724">
        <ele>723.659485</ele>
        <time>2012-08-19T07:21:26Z</time>
      </trkpt>
      <trkpt lat="43.96777" lon="7.26724">
        <ele>723.951782</ele>
        <time>2012-08-19T07:21:29Z</time>
      </trkpt>
      <trkpt lat="43.96782" lon="7.26723">
        <ele>724.084778</ele>
        <time>2012-08-19T07:21:32Z</time>
      </trkpt>
      <trkpt lat="43.96791" lon="7.26721">
        <ele>724.269226</ele>
        <time>2012-08-19T07:21:35Z</time>
      </trkpt>
      <trkpt lat="43.96798" lon="7.2672">
        <ele>724.460938</ele>
        <time>2012-08-19T07:21:38Z</time>
      </trkpt>
      <trkpt lat="43.96803" lon="7.2672">
        <ele>724.625793</ele>
        <time>2012-08-19T07:21:40Z</time>
      </trkpt>
      <trkpt lat="43.96807" lon="7.26721">
        <ele>724.751587</ele>
        <time>2012-08-19T07:21:42Z</time>
      </trkpt>
      <trkpt lat="43.96813" lon="7.26723">
        <ele>724.931213</ele>
        <time>2012-08-19T07:21:45Z</time>
      </trkpt>
      <trkpt lat="43.96813" lon="7.26723">
        <ele>724.942627</ele>
        <time>2012-08-19T07:21:47Z</time>
      </trkpt>
      <trkpt lat="43.96818" lon="7.26724">
        <ele>725.007019</ele>
        <time>2012-08-19T07:21:49Z</time>
      </trkpt>
      <trkpt lat="43.96818" lon="7.26724">
        <ele>725.057739</ele>
        <time>2012-08-19T07:21:52Z</time>
      </trkpt>
      <trkpt lat="43.96824" lon="7.26726">
        <ele>725.081055</ele>
        <time>2012-08-19T07:21:54Z</time>
      </trkpt>
      <trkpt lat="43.96829" lon="7.26728">
        <ele>725.126648</ele>
        <time>2012-08-19T07:21:57Z</time>
      </trkpt>
      <trkpt lat="43.96834" lon="7.26729">
        <ele>725.151306</ele>
        <time>2012-08-19T07:21:59Z</time>
      </trkpt>
      <trkpt lat="43.96839" lon="7.26729">
        <ele>725.233765</ele>
        <time>2012-08-19T07:22:02Z</time>
      </trkpt>
      <trkpt lat="43.96842" lon="7.26729">
        <ele>725.278687</ele>
        <time>2012-08-19T07:22:04Z</time>
      </trkpt>
      <trkpt lat="43.96847" lon="7.2673">
        <ele>725.364197</ele>
        <time>2012-08-19T07:22:07Z</time>
      </trkpt>
      <trkpt lat="43.96852" lon="7.26729">
        <ele>725.41626</ele>
        <time>2012-08-19T07:22:09Z</time>
      </trkpt>
      <trkpt lat="43.96858" lon="7.26725">
        <ele>725.773438</ele>
        <time>2012-08-19T07:22:12Z</time>
      </trkpt>
      <trkpt lat="43.9686" lon="7.26719">
        <ele>726.322388</ele>
        <time>2012-08-19T07:22:14Z</time>
      </trkpt>
      <trkpt lat="43.96861" lon="7.26709">
        <ele>727.286804</ele>
        <time>2012-08-19T07:22:17Z</time>
      </trkpt>
      <trkpt lat="43.96862" lon="7.26706">
        <ele>727.920349</ele>
        <time>2012-08-19T07:22:19Z</time>
      </trkpt>
      <trkpt lat="43.96864" lon="7.26705">
        <ele>728.757935</ele>
        <time>2012-08-19T07:22:22Z</time>
      </trkpt>
      <trkpt lat="43.96866" lon="7.26705">
        <ele>729.222534</ele>
        <time>2012-08-19T07:22:24Z</time>
      </trkpt>
      <trkpt lat="43.96871" lon="7.26707">
        <ele>729.940979</ele>
        <time>2012-08-19T07:22:27Z</time>
      </trkpt>
      <trkpt lat="43.96874" lon="7.26711">
        <ele>730.515381</ele>
        <time>2012-08-19T07:22:29Z</time>
      </trkpt>
      <trkpt lat="43.96877" lon="7.26718">
        <ele>731.267395</ele>
        <time>2012-08-19T07:22:32Z</time>
      </trkpt>
      <trkpt lat="43.96881" lon="7.26724">
        <ele>731.939087</ele>
        <time>2012-08-19T07:22:35Z</time>
      </trkpt>
      <trkpt lat="43.96884" lon="7.26728">
        <ele>732.490967</ele>
        <time>2012-08-19T07:22:38Z</time>
      </trkpt>
      <trkpt lat="43.96887" lon="7.2673">
        <ele>732.773743</ele>
        <time>2012-08-19T07:22:40Z</time>
      </trkpt>
      <trkpt lat="43.9689" lon="7.26732">
        <ele>733.030579</ele>
        <time>2012-08-19T07:22:42Z</time>
      </trkpt>
      <trkpt lat="43.96894" lon="7.26734">
        <ele>733.243896</ele>
        <time>2012-08-19T07:22:44Z</time>
      </trkpt>
      <trkpt lat="43.96897" lon="7.26736">
        <ele>733.430054</ele>
        <time>2012-08-19T07:22:46Z</time>
      </trkpt>
      <trkpt lat="43.96901" lon="7.26737">
        <ele>733.559814</ele>
        <time>2012-08-19T07:22:48Z</time>
      </trkpt>
      <trkpt lat="43.96907" lon="7.26739">
        <ele>733.726685</ele>
        <time>2012-08-19T07:22:51Z</time>
      </trkpt>
      <trkpt lat="43.96911" lon="7.26741">
        <ele>733.792358</ele>
        <time>2012-08-19T07:22:53Z</time>
      </trkpt>
      <trkpt lat="43.96914" lon="7.26746">
        <ele>733.862732</ele>
        <time>2012-08-19T07:22:55Z</time>
      </trkpt>
      <trkpt lat="43.96919" lon="7.26751">
        <ele>733.934937</ele>
        <time>2012-08-19T07:22:58Z</time>
      </trkpt>
      <trkpt lat="43.96924" lon="7.26757">
        <ele>734.025879</ele>
        <time>2012-08-19T07:23:01Z</time>
      </trkpt>
      <trkpt lat="43.96928" lon="7.2676">
        <ele>734.094177</ele>
        <time>2012-08-19T07:23:03Z</time>
      </trkpt>
      <trkpt lat="43.96933" lon="7.26771">
        <ele>734.379395</ele>
        <time>2012-08-19T07:23:06Z</time>
      </trkpt>
      <trkpt lat="43.96935" lon="7.26791">
        <ele>734.712219</ele>
        <time>2012-08-19T07:23:09Z</time>
      </trkpt>
      <trkpt lat="43.96936" lon="7.26801">
        <ele>734.887085</ele>
        <time>2012-08-19T07:23:12Z</time>
      </trkpt>
      <trkpt lat="43.96937" lon="7.26815">
        <ele>735.323792</ele>
        <time>2012-08-19T07:23:15Z</time>
      </trkpt>
      <trkpt lat="43.96941" lon="7.2682">
        <ele>735.584656</ele>
        <time>2012-08-19T07:23:17Z</time>
      </trkpt>
      <trkpt lat="43.96949" lon="7.26826">
        <ele>735.942505</ele>
        <time>2012-08-19T07:23:20Z</time>
      </trkpt>
      <trkpt lat="43.96953" lon="7.26828">
        <ele>736.143494</ele>
        <time>2012-08-19T07:23:22Z</time>
      </trkpt>
      <trkpt lat="43.96957" lon="7.26828">
        <ele>736.385925</ele>
        <time>2012-08-19T07:23:25Z</time>
      </trkpt>
      <trkpt lat="43.96962" lon="7.2683">
        <ele>736.499756</ele>
        <time>2012-08-19T07:23:28Z</time>
      </trkpt>
      <trkpt lat="43.96964" lon="7.2683">
        <ele>736.557007</ele>
        <time>2012-08-19T07:23:30Z</time>
      </trkpt>
      <trkpt lat="43.96972" lon="7.26829">
        <ele>736.678223</ele>
        <time>2012-08-19T07:23:33Z</time>
      </trkpt>
      <trkpt lat="43.9698" lon="7.26829">
        <ele>736.729614</ele>
        <time>2012-08-19T07:23:36Z</time>
      </trkpt>
      <trkpt lat="43.96988" lon="7.26831">
        <ele>736.689453</ele>
        <time>2012-08-19T07:23:39Z</time>
      </trkpt>
      <trkpt lat="43.96993" lon="7.26833">
        <ele>736.587158</ele>
        <time>2012-08-19T07:23:42Z</time>
      </trkpt>
      <trkpt lat="43.96996" lon="7.26832">
        <ele>736.428467</ele>
        <time>2012-08-19T07:23:45Z</time>
      </trkpt>
      <trkpt lat="43.96999" lon="7.26831">
        <ele>736.210022</ele>
        <time>2012-08-19T07:23:48Z</time>
      </trkpt>
      <trkpt lat="43.97003" lon="7.26829">
        <ele>735.966553</ele>
        <time>2012-08-19T07:23:51Z</time>
      </trkpt>
      <trkpt lat="43.97007" lon="7.26828">
        <ele>735.718384</ele>
        <time>2012-08-19T07:23:54Z</time>
      </trkpt>
      <trkpt lat="43.97011" lon="7.26824">
        <ele>735.530151</ele>
        <time>2012-08-19T07:23:57Z</time>
      </trkpt>
      <trkpt lat="43.97014" lon="7.26822">
        <ele>735.421936</ele>
        <time>2012-08-19T07:23:59Z</time>
      </trkpt>
      <trkpt lat="43.9702" lon="7.26819">
        <ele>735.487183</ele>
        <time>2012-08-19T07:24:02Z</time>
      </trkpt>
      <trkpt lat="43.97024" lon="7.26817">
        <ele>735.617554</ele>
        <time>2012-08-19T07:24:04Z</time>
      </trkpt>
      <trkpt lat="43.97028" lon="7.26816">
        <ele>735.867981</ele>
        <time>2012-08-19T07:24:06Z</time>
      </trkpt>
      <trkpt lat="43.97033" lon="7.26817">
        <ele>736.278259</ele>
        <time>2012-08-19T07:24:09Z</time>
      </trkpt>
      <trkpt lat="43.97039" lon="7.26818">
        <ele>736.687378</ele>
        <time>2012-08-19T07:24:12Z</time>
      </trkpt>
      <trkpt lat="43.97043" lon="7.26817">
        <ele>737.157959</ele>
        <time>2012-08-19T07:24:15Z</time>
      </trkpt>
      <trkpt lat="43.97047" lon="7.26818">
        <ele>737.691101</ele>
        <time>2012-08-19T07:24:18Z</time>
      </trkpt>
      <trkpt lat="43.97052" lon="7.26826">
        <ele>738.390137</ele>
        <time>2012-08-19T07:24:21Z</time>
      </trkpt>
      <trkpt lat="43.9706" lon="7.26832">
        <ele>739.313232</ele>
        <time>2012-08-19T07:24:24Z</time>
      </trkpt>
      <trkpt lat="43.97064" lon="7.26833">
        <ele>739.913696</ele>
        <time>2012-08-19T07:24:26Z</time>
      </trkpt>
      <trkpt lat="43.97071" lon="7.26836">
        <ele>740.778625</ele>
        <time>2012-08-19T07:24:29Z</time>
      </trkpt>
      <trkpt lat="43.97076" lon="7.26839">
        <ele>741.595154</ele>
        <time>2012-08-19T07:24:32Z</time>
      </trkpt>
      <trkpt lat="43.97079" lon="7.2684">
        <ele>742.074158</ele>
        <time>2012-08-19T07:24:34Z</time>
      </trkpt>
      <trkpt lat="43.97085" lon="7.26838">
        <ele>742.963806</ele>
        <time>2012-08-19T07:24:37Z</time>
      </trkpt>
      <trkpt lat="43.9709" lon="7.26837">
        <ele>743.462402</ele>
        <time>2012-08-19T07:24:39Z</time>
      </trkpt>
      <trkpt lat="43.97097" lon="7.26835">
        <ele>744.073181</ele>
        <time>2012-08-19T07:24:42Z</time>
      </trkpt>
      <trkpt lat="43.97104" lon="7.26838">
        <ele>744.65686</ele>
        <time>2012-08-19T07:24:45Z</time>
      </trkpt>
      <trkpt lat="43.97108" lon="7.26841">
        <ele>745.12384</ele>
        <time>2012-08-19T07:24:48Z</time>
      </trkpt>
      <trkpt lat="43.97115" lon="7.26846">
        <ele>745.449463</ele>
        <time>2012-08-19T07:24:51Z</time>
      </trkpt>
      <trkpt lat="43.97122" lon="7.26852">
        <ele>745.658691</ele>
        <time>2012-08-19T07:24:53Z</time>
      </trkpt>
      <trkpt lat="43.97126" lon="7.26857">
        <ele>746.10144</ele>
        <time>2012-08-19T07:24:56Z</time>
      </trkpt>
      <trkpt lat="43.97133" lon="7.26866">
        <ele>746.398621</ele>
        <time>2012-08-19T07:24:59Z</time>
      </trkpt>
      <trkpt lat="43.97136" lon="7.2687">
        <ele>746.517334</ele>
        <time>2012-08-19T07:25:02Z</time>
      </trkpt>
      <trkpt lat="43.9714" lon="7.26872">
        <ele>746.546753</ele>
        <time>2012-08-19T07:25:05Z</time>
      </trkpt>
      <trkpt lat="43.97146" lon="7.26872">
        <ele>746.569275</ele>
        <time>2012-08-19T07:25:08Z</time>
      </trkpt>
      <trkpt lat="43.97151" lon="7.26874">
        <ele>746.566406</ele>
        <time>2012-08-19T07:25:10Z</time>
      </trkpt>
      <trkpt lat="43.97156" lon="7.26876">
        <ele>746.521484</ele>
        <time>2012-08-19T07:25:12Z</time>
      </trkpt>
      <trkpt lat="43.97167" lon="7.2688">
        <ele>746.474243</ele>
        <time>2012-08-19T07:25:15Z</time>
      </trkpt>
      <trkpt lat="43.97172" lon="7.26881">
        <ele>746.493347</ele>
        <time>2012-08-19T07:25:17Z</time>
      </trkpt>
      <trkpt lat="43.97176" lon="7.26881">
        <ele>746.525085</ele>
        <time>2012-08-19T07:25:19Z</time>
      </trkpt>
      <trkpt lat="43.97176" lon="7.26881">
        <ele>746.549377</ele>
        <time>2012-08-19T07:25:22Z</time>
      </trkpt>
      <trkpt lat="43.97186" lon="7.26885">
        <ele>746.509033</ele>
        <time>2012-08-19T07:25:25Z</time>
      </trkpt>
      <trkpt lat="43.97188" lon="7.26887">
        <ele>746.274109</ele>
        <time>2012-08-19T07:25:28Z</time>
      </trkpt>
      <trkpt lat="43.97192" lon="7.26891">
        <ele>746.0802</ele>
        <time>2012-08-19T07:25:31Z</time>
      </trkpt>
      <trkpt lat="43.97196" lon="7.26901">
        <ele>745.9729</ele>
        <time>2012-08-19T07:25:33Z</time>
      </trkpt>
      <trkpt lat="43.97199" lon="7.26906">
        <ele>745.890259</ele>
        <time>2012-08-19T07:25:35Z</time>
      </trkpt>
      <trkpt lat="43.97201" lon="7.26909">
        <ele>745.80011</ele>
        <time>2012-08-19T07:25:38Z</time>
      </trkpt>
      <trkpt lat="43.97207" lon="7.26917">
        <ele>745.721069</ele>
        <time>2012-08-19T07:25:40Z</time>
      </trkpt>
      <trkpt lat="43.97211" lon="7.26924">
        <ele>745.586609</ele>
        <time>2012-08-19T07:25:43Z</time>
      </trkpt>
      <trkpt lat="43.97216" lon="7.26929">
        <ele>745.49408</ele>
        <time>2012-08-19T07:25:46Z</time>
      </trkpt>
      <trkpt lat="43.97216" lon="7.26932">
        <ele>745.375854</ele>
        <time>2012-08-19T07:25:48Z</time>
      </trkpt>
      <trkpt lat="43.97217" lon="7.26938">
        <ele>745.223572</ele>
        <time>2012-08-19T07:25:51Z</time>
      </trkpt>
      <trkpt lat="43.97218" lon="7.26943">
        <ele>745.139832</ele>
        <time>2012-08-19T07:25:53Z</time>
      </trkpt>
      <trkpt lat="43.97223" lon="7.2695">
        <ele>745.194275</ele>
        <time>2012-08-19T07:25:56Z</time>
      </trkpt>
      <trkpt lat="43.97228" lon="7.26952">
        <ele>745.251709</ele>
        <time>2012-08-19T07:25:58Z</time>
      </trkpt>
      <trkpt lat="43.97237" lon="7.26954">
        <ele>745.472839</ele>
        <time>2012-08-19T07:26:00Z</time>
      </trkpt>
      <trkpt lat="43.97244" lon="7.26957">
        <ele>745.812134</ele>
        <time>2012-08-19T07:26:02Z</time>
      </trkpt>
      <trkpt lat="43.97251" lon="7.2696">
        <ele>746.321533</ele>
        <time>2012-08-19T07:26:05Z</time>
      </trkpt>
      <trkpt lat="43.97254" lon="7.2696">
        <ele>746.605835</ele>
        <time>2012-08-19T07:26:07Z</time>
      </trkpt>
      <trkpt lat="43.97258" lon="7.26958">
        <ele>746.858215</ele>
        <time>2012-08-19T07:26:09Z</time>
      </trkpt>
      <trkpt lat="43.97262" lon="7.26954">
        <ele>747.228394</ele>
        <time>2012-08-19T07:26:12Z</time>
      </trkpt>
      <trkpt lat="43.97264" lon="7.26951">
        <ele>747.524719</ele>
        <time>2012-08-19T07:26:14Z</time>
      </trkpt>
      <trkpt lat="43.97267" lon="7.26947">
        <ele>747.859497</ele>
        <time>2012-08-19T07:26:16Z</time>
      </trkpt>
      <trkpt lat="43.97268" lon="7.26943">
        <ele>748.195007</ele>
        <time>2012-08-19T07:26:18Z</time>
      </trkpt>
      <trkpt lat="43.97272" lon="7.26939">
        <ele>748.671936</ele>
        <time>2012-08-19T07:26:21Z</time>
      </trkpt>
      <trkpt lat="43.97275" lon="7.26937">
        <ele>748.997192</ele>
        <time>2012-08-19T07:26:23Z</time>
      </trkpt>
      <trkpt lat="43.97279" lon="7.26933">
        <ele>749.545288</ele>
        <time>2012-08-19T07:26:26Z</time>
      </trkpt>
      <trkpt lat="43.97284" lon="7.26927">
        <ele>750.07196</ele>
        <time>2012-08-19T07:26:29Z</time>
      </trkpt>
      <trkpt lat="43.9729" lon="7.26923">
        <ele>750.572449</ele>
        <time>2012-08-19T07:26:32Z</time>
      </trkpt>
      <trkpt lat="43.97293" lon="7.26922">
        <ele>750.926697</ele>
        <time>2012-08-19T07:26:34Z</time>
      </trkpt>
      <trkpt lat="43.97293" lon="7.26922">
        <ele>751.196594</ele>
        <time>2012-08-19T07:26:36Z</time>
      </trkpt>
      <trkpt lat="43.97295" lon="7.26914">
        <ele>751.927734</ele>
        <time>2012-08-19T07:26:39Z</time>
      </trkpt>
      <trkpt lat="43.97295" lon="7.26906">
        <ele>752.838928</ele>
        <time>2012-08-19T07:26:42Z</time>
      </trkpt>
      <trkpt lat="43.97295" lon="7.26906">
        <ele>753.358704</ele>
        <time>2012-08-19T07:26:44Z</time>
      </trkpt>
      <trkpt lat="43.97295" lon="7.26906">
        <ele>753.659851</ele>
        <time>2012-08-19T07:26:47Z</time>
      </trkpt>
      <trkpt lat="43.97298" lon="7.269">
        <ele>753.922791</ele>
        <time>2012-08-19T07:26:50Z</time>
      </trkpt>
      <trkpt lat="43.97298" lon="7.269">
        <ele>754.184143</ele>
        <time>2012-08-19T07:26:52Z</time>
      </trkpt>
      <trkpt lat="43.97303" lon="7.26899">
        <ele>754.32135</ele>
        <time>2012-08-19T07:26:54Z</time>
      </trkpt>
      <trkpt lat="43.97303" lon="7.26899">
        <ele>754.607666</ele>
        <time>2012-08-19T07:26:57Z</time>
      </trkpt>
      <trkpt lat="43.97307" lon="7.269">
        <ele>754.809082</ele>
        <time>2012-08-19T07:27:00Z</time>
      </trkpt>
      <trkpt lat="43.97311" lon="7.26904">
        <ele>755.021667</ele>
        <time>2012-08-19T07:27:03Z</time>
      </trkpt>
      <trkpt lat="43.97315" lon="7.26907">
        <ele>755.121826</ele>
        <time>2012-08-19T07:27:05Z</time>
      </trkpt>
      <trkpt lat="43.97318" lon="7.26909">
        <ele>755.254272</ele>
        <time>2012-08-19T07:27:08Z</time>
      </trkpt>
      <trkpt lat="43.97322" lon="7.26912">
        <ele>755.518127</ele>
        <time>2012-08-19T07:27:11Z</time>
      </trkpt>
      <trkpt lat="43.97322" lon="7.26912">
        <ele>755.621216</ele>
        <time>2012-08-19T07:27:13Z</time>
      </trkpt>
      <trkpt lat="43.97332" lon="7.26913">
        <ele>755.785217</ele>
        <time>2012-08-19T07:27:16Z</time>
      </trkpt>
      <trkpt lat="43.97339" lon="7.26916">
        <ele>756.095215</ele>
        <time>2012-08-19T07:27:18Z</time>
      </trkpt>
      <trkpt lat="43.97347" lon="7.26917">
        <ele>756.481506</ele>
        <time>2012-08-19T07:27:21Z</time>
      </trkpt>
      <trkpt lat="43.97353" lon="7.26918">
        <ele>756.751404</ele>
        <time>2012-08-19T07:27:23Z</time>
      </trkpt>
      <trkpt lat="43.97365" lon="7.2692">
        <ele>757.144592</ele>
        <time>2012-08-19T07:27:26Z</time>
      </trkpt>
      <trkpt lat="43.97371" lon="7.2692">
        <ele>757.496704</ele>
        <time>2012-08-19T07:27:29Z</time>
      </trkpt>
      <trkpt lat="43.97379" lon="7.2692">
        <ele>757.755066</ele>
        <time>2012-08-19T07:27:32Z</time>
      </trkpt>
      <trkpt lat="43.97389" lon="7.26919">
        <ele>757.954529</ele>
        <time>2012-08-19T07:27:34Z</time>
      </trkpt>
      <trkpt lat="43.97395" lon="7.26915">
        <ele>758.12384</ele>
        <time>2012-08-19T07:27:36Z</time>
      </trkpt>
      <trkpt lat="43.97401" lon="7.26911">
        <ele>758.376892</ele>
        <time>2012-08-19T07:27:39Z</time>
      </trkpt>
      <trkpt lat="43.97403" lon="7.26909">
        <ele>758.624146</ele>
        <time>2012-08-19T07:27:42Z</time>
      </trkpt>
      <trkpt lat="43.97403" lon="7.26908">
        <ele>758.759888</ele>
        <time>2012-08-19T07:27:44Z</time>
      </trkpt>
      <trkpt lat="43.97401" lon="7.26905">
        <ele>758.961853</ele>
        <time>2012-08-19T07:27:47Z</time>
      </trkpt>
      <trkpt lat="43.97399" lon="7.26903">
        <ele>759.252502</ele>
        <time>2012-08-19T07:27:49Z</time>
      </trkpt>
      <trkpt lat="43.97396" lon="7.26898">
        <ele>759.802185</ele>
        <time>2012-08-19T07:27:52Z</time>
      </trkpt>
      <trkpt lat="43.97394" lon="7.26893">
        <ele>760.135742</ele>
        <time>2012-08-19T07:27:54Z</time>
      </trkpt>
      <trkpt lat="43.97391" lon="7.26886">
        <ele>760.553894</ele>
        <time>2012-08-19T07:27:57Z</time>
      </trkpt>
      <trkpt lat="43.9739" lon="7.26878">
        <ele>760.912354</ele>
        <time>2012-08-19T07:28:00Z</time>
      </trkpt>
      <trkpt lat="43.9739" lon="7.26873">
        <ele>761.095886</ele>
        <time>2012-08-19T07:28:02Z</time>
      </trkpt>
      <trkpt lat="43.97391" lon="7.26867">
        <ele>761.294312</ele>
        <time>2012-08-19T07:28:05Z</time>
      </trkpt>
      <trkpt lat="43.97391" lon="7.26864">
        <ele>761.414185</ele>
        <time>2012-08-19T07:28:08Z</time>
      </trkpt>
      <trkpt lat="43.97391" lon="7.26855">
        <ele>761.526672</ele>
        <time>2012-08-19T07:28:11Z</time>
      </trkpt>
      <trkpt lat="43.97391" lon="7.26849">
        <ele>761.641785</ele>
        <time>2012-08-19T07:28:13Z</time>
      </trkpt>
      <trkpt lat="43.9739" lon="7.26839">
        <ele>761.728394</ele>
        <time>2012-08-19T07:28:16Z</time>
      </trkpt>
      <trkpt lat="43.97388" lon="7.2683">
        <ele>761.876953</ele>
        <time>2012-08-19T07:28:19Z</time>
      </trkpt>
      <trkpt lat="43.97386" lon="7.26822">
        <ele>762.189636</ele>
        <time>2012-08-19T07:28:22Z</time>
      </trkpt>
      <trkpt lat="43.97385" lon="7.26816">
        <ele>762.511108</ele>
        <time>2012-08-19T07:28:24Z</time>
      </trkpt>
      <trkpt lat="43.97385" lon="7.26807">
        <ele>762.94165</ele>
        <time>2012-08-19T07:28:27Z</time>
      </trkpt>
      <trkpt lat="43.97385" lon="7.26807">
        <ele>763.119873</ele>
        <time>2012-08-19T07:28:29Z</time>
      </trkpt>
      <trkpt lat="43.97385" lon="7.26801">
        <ele>763.280945</ele>
        <time>2012-08-19T07:28:32Z</time>
      </trkpt>
      <trkpt lat="43.97387" lon="7.26797">
        <ele>763.402222</ele>
        <time>2012-08-19T07:28:34Z</time>
      </trkpt>
      <trkpt lat="43.97388" lon="7.26793">
        <ele>763.470764</ele>
        <time>2012-08-19T07:28:37Z</time>
      </trkpt>
      <trkpt lat="43.97386" lon="7.26791">
        <ele>763.513794</ele>
        <time>2012-08-19T07:28:40Z</time>
      </trkpt>
      <trkpt lat="43.97384" lon="7.26788">
        <ele>763.522095</ele>
        <time>2012-08-19T07:28:42Z</time>
      </trkpt>
      <trkpt lat="43.97382" lon="7.26781">
        <ele>763.615112</ele>
        <time>2012-08-19T07:28:45Z</time>
      </trkpt>
      <trkpt lat="43.97379" lon="7.26777">
        <ele>763.676758</ele>
        <time>2012-08-19T07:28:47Z</time>
      </trkpt>
      <trkpt lat="43.97376" lon="7.26773">
        <ele>763.689026</ele>
        <time>2012-08-19T07:28:49Z</time>
      </trkpt>
      <trkpt lat="43.97374" lon="7.2677">
        <ele>763.676697</ele>
        <time>2012-08-19T07:28:51Z</time>
      </trkpt>
      <trkpt lat="43.9737" lon="7.26765">
        <ele>763.710938</ele>
        <time>2012-08-19T07:28:54Z</time>
      </trkpt>
      <trkpt lat="43.97367" lon="7.26761">
        <ele>763.774292</ele>
        <time>2012-08-19T07:28:57Z</time>
      </trkpt>
      <trkpt lat="43.97365" lon="7.26757">
        <ele>763.868042</ele>
        <time>2012-08-19T07:29:00Z</time>
      </trkpt>
      <trkpt lat="43.97363" lon="7.26753">
        <ele>763.890686</ele>
        <time>2012-08-19T07:29:03Z</time>
      </trkpt>
      <trkpt lat="43.97361" lon="7.2675">
        <ele>763.828125</ele>
        <time>2012-08-19T07:29:06Z</time>
      </trkpt>
      <trkpt lat="43.9736" lon="7.26748">
        <ele>763.736877</ele>
        <time>2012-08-19T07:29:09Z</time>
      </trkpt>
      <trkpt lat="43.97358" lon="7.26746">
        <ele>763.732117</ele>
        <time>2012-08-19T07:29:12Z</time>
      </trkpt>
      <trkpt lat="43.97357" lon="7.26744">
        <ele>763.689636</ele>
        <time>2012-08-19T07:29:14Z</time>
      </trkpt>
      <trkpt lat="43.97355" lon="7.26742">
        <ele>763.700806</ele>
        <time>2012-08-19T07:29:17Z</time>
      </trkpt>
      <trkpt lat="43.97353" lon="7.26739">
        <ele>763.773804</ele>
        <time>2012-08-19T07:29:20Z</time>
      </trkpt>
      <trkpt lat="43.97351" lon="7.26736">
        <ele>763.906921</ele>
        <time>2012-08-19T07:29:22Z</time>
      </trkpt>
      <trkpt lat="43.97349" lon="7.26731">
        <ele>764.202637</ele>
        <time>2012-08-19T07:29:24Z</time>
      </trkpt>
      <trkpt lat="43.97345" lon="7.26726">
        <ele>764.659912</ele>
        <time>2012-08-19T07:29:26Z</time>
      </trkpt>
      <trkpt lat="43.97341" lon="7.26721">
        <ele>765.16803</ele>
        <time>2012-08-19T07:29:28Z</time>
      </trkpt>
      <trkpt lat="43.97335" lon="7.26716">
        <ele>765.926331</ele>
        <time>2012-08-19T07:29:31Z</time>
      </trkpt>
      <trkpt lat="43.97332" lon="7.26713">
        <ele>766.457886</ele>
        <time>2012-08-19T07:29:33Z</time>
      </trkpt>
      <trkpt lat="43.97327" lon="7.26709">
        <ele>767.285095</ele>
        <time>2012-08-19T07:29:36Z</time>
      </trkpt>
      <trkpt lat="43.97324" lon="7.26707">
        <ele>767.956848</ele>
        <time>2012-08-19T07:29:38Z</time>
      </trkpt>
      <trkpt lat="43.97322" lon="7.26705">
        <ele>768.633362</ele>
        <time>2012-08-19T07:29:40Z</time>
      </trkpt>
      <trkpt lat="43.9732" lon="7.26702">
        <ele>769.626709</ele>
        <time>2012-08-19T07:29:43Z</time>
      </trkpt>
      <trkpt lat="43.97318" lon="7.26699">
        <ele>770.271973</ele>
        <time>2012-08-19T07:29:45Z</time>
      </trkpt>
      <trkpt lat="43.97317" lon="7.26695">
        <ele>771.208069</ele>
        <time>2012-08-19T07:29:48Z</time>
      </trkpt>
      <trkpt lat="43.97317" lon="7.26692">
        <ele>771.799194</ele>
        <time>2012-08-19T07:29:50Z</time>
      </trkpt>
      <trkpt lat="43.97316" lon="7.26691">
        <ele>772.552246</ele>
        <time>2012-08-19T07:29:53Z</time>
      </trkpt>
      <trkpt lat="43.97316" lon="7.26686">
        <ele>773.03656</ele>
        <time>2012-08-19T07:29:56Z</time>
      </trkpt>
      <trkpt lat="43.97316" lon="7.26686">
        <ele>773.294373</ele>
        <time>2012-08-19T07:29:58Z</time>
      </trkpt>
      <trkpt lat="43.97316" lon="7.26686">
        <ele>773.444214</ele>
        <time>2012-08-19T07:30:00Z</time>
      </trkpt>
      <trkpt lat="43.97319" lon="7.2668">
        <ele>773.499146</ele>
        <time>2012-08-19T07:30:03Z</time>
      </trkpt>
      <trkpt lat="43.97319" lon="7.2668">
        <ele>773.530884</ele>
        <time>2012-08-19T07:30:05Z</time>
      </trkpt>
      <trkpt lat="43.97321" lon="7.26673">
        <ele>773.553711</ele>
        <time>2012-08-19T07:30:08Z</time>
      </trkpt>
      <trkpt lat="43.97323" lon="7.26666">
        <ele>773.590576</ele>
        <time>2012-08-19T07:30:11Z</time>
      </trkpt>
      <trkpt lat="43.97323" lon="7.26666">
        <ele>773.590942</ele>
        <time>2012-08-19T07:30:13Z</time>
      </trkpt>
      <trkpt lat="43.97324" lon="7.26659">
        <ele>773.593323</ele>
        <time>2012-08-19T07:30:16Z</time>
      </trkpt>
      <trkpt lat="43.97321" lon="7.26648">
        <ele>773.704346</ele>
        <time>2012-08-19T07:30:19Z</time>
      </trkpt>
      <trkpt lat="43.97318" lon="7.2664">
        <ele>773.826843</ele>
        <time>2012-08-19T07:30:21Z</time>
      </trkpt>
      <trkpt lat="43.97313" lon="7.26632">
        <ele>774.02771</ele>
        <time>2012-08-19T07:30:24Z</time>
      </trkpt>
      <trkpt lat="43.97309" lon="7.26626">
        <ele>774.215332</ele>
        <time>2012-08-19T07:30:27Z</time>
      </trkpt>
      <trkpt lat="43.97306" lon="7.26624">
        <ele>774.378052</ele>
        <time>2012-08-19T07:30:30Z</time>
      </trkpt>
      <trkpt lat="43.97304" lon="7.26622">
        <ele>774.587036</ele>
        <time>2012-08-19T07:30:32Z</time>
      </trkpt>
      <trkpt lat="43.97302" lon="7.26621">
        <ele>775.082886</ele>
        <time>2012-08-19T07:30:35Z</time>
      </trkpt>
      <trkpt lat="43.973" lon="7.26621">
        <ele>775.988281</ele>
        <time>2012-08-19T07:30:38Z</time>
      </trkpt>
      <trkpt lat="43.97298" lon="7.26621">
        <ele>776.527344</ele>
        <time>2012-08-19T07:30:40Z</time>
      </trkpt>
      <trkpt lat="43.97296" lon="7.26619">
        <ele>777.113159</ele>
        <time>2012-08-19T07:30:42Z</time>
      </trkpt>
      <trkpt lat="43.97293" lon="7.26618">
        <ele>778.077087</ele>
        <time>2012-08-19T07:30:45Z</time>
      </trkpt>
      <trkpt lat="43.97291" lon="7.26616">
        <ele>779.127808</ele>
        <time>2012-08-19T07:30:48Z</time>
      </trkpt>
      <trkpt lat="43.97286" lon="7.26615">
        <ele>779.879089</ele>
        <time>2012-08-19T07:30:50Z</time>
      </trkpt>
      <trkpt lat="43.97278" lon="7.26614">
        <ele>781.174255</ele>
        <time>2012-08-19T07:30:53Z</time>
      </trkpt>
      <trkpt lat="43.97276" lon="7.26612">
        <ele>781.984619</ele>
        <time>2012-08-19T07:30:55Z</time>
      </trkpt>
      <trkpt lat="43.97276" lon="7.26609">
        <ele>783.299011</ele>
        <time>2012-08-19T07:30:58Z</time>
      </trkpt>
      <trkpt lat="43.97277" lon="7.26607">
        <ele>784.667236</ele>
        <time>2012-08-19T07:31:01Z</time>
      </trkpt>
      <trkpt lat="43.97278" lon="7.26607">
        <ele>785.584351</ele>
        <time>2012-08-19T07:31:03Z</time>
      </trkpt>
      <trkpt lat="43.97279" lon="7.26605">
        <ele>786.973511</ele>
        <time>2012-08-19T07:31:06Z</time>
      </trkpt>
      <trkpt lat="43.9728" lon="7.26604">
        <ele>787.90802</ele>
        <time>2012-08-19T07:31:08Z</time>
      </trkpt>
      <trkpt lat="43.97281" lon="7.26601">
        <ele>789.289246</ele>
        <time>2012-08-19T07:31:11Z</time>
      </trkpt>
      <trkpt lat="43.97282" lon="7.266">
        <ele>790.144165</ele>
        <time>2012-08-19T07:31:13Z</time>
      </trkpt>
      <trkpt lat="43.97282" lon="7.26599">
        <ele>790.902649</ele>
        <time>2012-08-19T07:31:15Z</time>
      </trkpt>
      <trkpt lat="43.97283" lon="7.26596">
        <ele>791.994385</ele>
        <time>2012-08-19T07:31:18Z</time>
      </trkpt>
      <trkpt lat="43.97283" lon="7.26594">
        <ele>792.744141</ele>
        <time>2012-08-19T07:31:20Z</time>
      </trkpt>
      <trkpt lat="43.97283" lon="7.2659">
        <ele>793.888489</ele>
        <time>2012-08-19T07:31:23Z</time>
      </trkpt>
      <trkpt lat="43.97283" lon="7.26586">
        <ele>794.92511</ele>
        <time>2012-08-19T07:31:26Z</time>
      </trkpt>
      <trkpt lat="43.97286" lon="7.26581">
        <ele>795.95166</ele>
        <time>2012-08-19T07:31:29Z</time>
      </trkpt>
      <trkpt lat="43.97287" lon="7.26577">
        <ele>796.860229</ele>
        <time>2012-08-19T07:31:32Z</time>
      </trkpt>
      <trkpt lat="43.97288" lon="7.26573">
        <ele>797.825623</ele>
        <time>2012-08-19T07:31:35Z</time>
      </trkpt>
      <trkpt lat="43.97289" lon="7.26571">
        <ele>798.18927</ele>
        <time>2012-08-19T07:31:37Z</time>
      </trkpt>
      <trkpt lat="43.97291" lon="7.26569">
        <ele>798.478149</ele>
        <time>2012-08-19T07:31:39Z</time>
      </trkpt>
      <trkpt lat="43.97294" lon="7.26567">
        <ele>798.816467</ele>
        <time>2012-08-19T07:31:42Z</time>
      </trkpt>
      <trkpt lat="43.97296" lon="7.26565">
        <ele>799.179871</ele>
        <time>2012-08-19T07:31:45Z</time>
      </trkpt>
      <trkpt lat="43.97298" lon="7.26563">
        <ele>799.419434</ele>
        <time>2012-08-19T07:31:47Z</time>
      </trkpt>
      <trkpt lat="43.97299" lon="7.2656">
        <ele>799.728455</ele>
        <time>2012-08-19T07:31:49Z</time>
      </trkpt>
      <trkpt lat="43.973" lon="7.26556">
        <ele>800.410095</ele>
        <time>2012-08-19T07:31:52Z</time>
      </trkpt>
      <trkpt lat="43.97301" lon="7.26548">
        <ele>801.392273</ele>
        <time>2012-08-19T07:31:55Z</time>
      </trkpt>
      <trkpt lat="43.97301" lon="7.26543">
        <ele>801.974976</ele>
        <time>2012-08-19T07:31:57Z</time>
      </trkpt>
      <trkpt lat="43.973" lon="7.26533">
        <ele>803.030212</ele>
        <time>2012-08-19T07:32:00Z</time>
      </trkpt>
      <trkpt lat="43.97299" lon="7.26522">
        <ele>804.190857</ele>
        <time>2012-08-19T07:32:03Z</time>
      </trkpt>
      <trkpt lat="43.97297" lon="7.26514">
        <ele>805.254272</ele>
        <time>2012-08-19T07:32:06Z</time>
      </trkpt>
      <trkpt lat="43.97295" lon="7.26507">
        <ele>806.271179</ele>
        <time>2012-08-19T07:32:09Z</time>
      </trkpt>
      <trkpt lat="43.97292" lon="7.265">
        <ele>807.325317</ele>
        <time>2012-08-19T07:32:12Z</time>
      </trkpt>
      <trkpt lat="43.97289" lon="7.26494">
        <ele>808.413513</ele>
        <time>2012-08-19T07:32:15Z</time>
      </trkpt>
      <trkpt lat="43.97287" lon="7.26489">
        <ele>809.084717</ele>
        <time>2012-08-19T07:32:17Z</time>
      </trkpt>
      <trkpt lat="43.97285" lon="7.26482">
        <ele>810.052185</ele>
        <time>2012-08-19T07:32:20Z</time>
      </trkpt>
      <trkpt lat="43.97282" lon="7.26476">
        <ele>810.992432</ele>
        <time>2012-08-19T07:32:23Z</time>
      </trkpt>
      <trkpt lat="43.97279" lon="7.26472">
        <ele>811.891479</ele>
        <time>2012-08-19T07:32:26Z</time>
      </trkpt>
      <trkpt lat="43.97278" lon="7.26468">
        <ele>812.778931</ele>
        <time>2012-08-19T07:32:29Z</time>
      </trkpt>
      <trkpt lat="43.97277" lon="7.26464">
        <ele>813.849792</ele>
        <time>2012-08-19T07:32:32Z</time>
      </trkpt>
      <trkpt lat="43.97276" lon="7.26458">
        <ele>815.074524</ele>
        <time>2012-08-19T07:32:35Z</time>
      </trkpt>
      <trkpt lat="43.97275" lon="7.26455">
        <ele>815.986755</ele>
        <time>2012-08-19T07:32:37Z</time>
      </trkpt>
      <trkpt lat="43.97273" lon="7.26451">
        <ele>817.409302</ele>
        <time>2012-08-19T07:32:40Z</time>
      </trkpt>
      <trkpt lat="43.97272" lon="7.26449">
        <ele>818.897278</ele>
        <time>2012-08-19T07:32:43Z</time>
      </trkpt>
      <trkpt lat="43.9727" lon="7.26445">
        <ele>820.81665</ele>
        <time>2012-08-19T07:32:46Z</time>
      </trkpt>
      <trkpt lat="43.9727" lon="7.26443">
        <ele>822.074097</ele>
        <time>2012-08-19T07:32:48Z</time>
      </trkpt>
      <trkpt lat="43.9727" lon="7.26442">
        <ele>823.315308</ele>
        <time>2012-08-19T07:32:50Z</time>
      </trkpt>
      <trkpt lat="43.97274" lon="7.26442">
        <ele>824.884888</ele>
        <time>2012-08-19T07:32:53Z</time>
      </trkpt>
      <trkpt lat="43.97277" lon="7.26442">
        <ele>825.794434</ele>
        <time>2012-08-19T07:32:55Z</time>
      </trkpt>
      <trkpt lat="43.9728" lon="7.26442">
        <ele>826.744629</ele>
        <time>2012-08-19T07:32:58Z</time>
      </trkpt>
      <trkpt lat="43.97285" lon="7.26441">
        <ele>827.457642</ele>
        <time>2012-08-19T07:33:00Z</time>
      </trkpt>
      <trkpt lat="43.97292" lon="7.26441">
        <ele>828.321411</ele>
        <time>2012-08-19T07:33:02Z</time>
      </trkpt>
      <trkpt lat="43.97298" lon="7.26439">
        <ele>829.152222</ele>
        <time>2012-08-19T07:33:04Z</time>
      </trkpt>
      <trkpt lat="43.97306" lon="7.26433">
        <ele>830.266907</ele>
        <time>2012-08-19T07:33:07Z</time>
      </trkpt>
      <trkpt lat="43.9731" lon="7.26426">
        <ele>831.361023</ele>
        <time>2012-08-19T07:33:10Z</time>
      </trkpt>
      <trkpt lat="43.97314" lon="7.26421">
        <ele>832.512878</ele>
        <time>2012-08-19T07:33:13Z</time>
      </trkpt>
      <trkpt lat="43.97316" lon="7.26418">
        <ele>833.259766</ele>
        <time>2012-08-19T07:33:15Z</time>
      </trkpt>
      <trkpt lat="43.97318" lon="7.26412">
        <ele>834.36792</ele>
        <time>2012-08-19T07:33:18Z</time>
      </trkpt>
      <trkpt lat="43.9732" lon="7.26407">
        <ele>835.045898</ele>
        <time>2012-08-19T07:33:20Z</time>
      </trkpt>
      <trkpt lat="43.97321" lon="7.26402">
        <ele>835.708862</ele>
        <time>2012-08-19T07:33:22Z</time>
      </trkpt>
      <trkpt lat="43.97321" lon="7.26397">
        <ele>836.341553</ele>
        <time>2012-08-19T07:33:24Z</time>
      </trkpt>
      <trkpt lat="43.97322" lon="7.26389">
        <ele>837.199829</ele>
        <time>2012-08-19T07:33:27Z</time>
      </trkpt>
      <trkpt lat="43.97323" lon="7.26378">
        <ele>838.11908</ele>
        <time>2012-08-19T07:33:30Z</time>
      </trkpt>
      <trkpt lat="43.97324" lon="7.26369">
        <ele>839.057007</ele>
        <time>2012-08-19T07:33:33Z</time>
      </trkpt>
      <trkpt lat="43.97324" lon="7.26363">
        <ele>839.684143</ele>
        <time>2012-08-19T07:33:35Z</time>
      </trkpt>
      <trkpt lat="43.97326" lon="7.26358">
        <ele>840.303833</ele>
        <time>2012-08-19T07:33:37Z</time>
      </trkpt>
      <trkpt lat="43.97329" lon="7.26351">
        <ele>841.113708</ele>
        <time>2012-08-19T07:33:40Z</time>
      </trkpt>
      <trkpt lat="43.97333" lon="7.26349">
        <ele>841.534363</ele>
        <time>2012-08-19T07:33:42Z</time>
      </trkpt>
      <trkpt lat="43.97337" lon="7.26347">
        <ele>842.085327</ele>
        <time>2012-08-19T07:33:45Z</time>
      </trkpt>
      <trkpt lat="43.97341" lon="7.26346">
        <ele>842.484619</ele>
        <time>2012-08-19T07:33:48Z</time>
      </trkpt>
      <trkpt lat="43.97344" lon="7.26346">
        <ele>842.640259</ele>
        <time>2012-08-19T07:33:50Z</time>
      </trkpt>
      <trkpt lat="43.97346" lon="7.26345">
        <ele>842.836365</ele>
        <time>2012-08-19T07:33:53Z</time>
      </trkpt>
      <trkpt lat="43.97346" lon="7.26345">
        <ele>842.872925</ele>
        <time>2012-08-19T07:33:56Z</time>
      </trkpt>
      <trkpt lat="43.97346" lon="7.26345">
        <ele>843.017517</ele>
        <time>2012-08-19T07:33:58Z</time>
      </trkpt>
      <trkpt lat="43.97346" lon="7.26345">
        <ele>843.138</ele>
        <time>2012-08-19T07:34:00Z</time>
      </trkpt>
      <trkpt lat="43.97346" lon="7.26345">
        <ele>843.260132</ele>
        <time>2012-08-19T07:34:03Z</time>
      </trkpt>
      <trkpt lat="43.9735" lon="7.26345">
        <ele>843.310669</ele>
        <time>2012-08-19T07:34:06Z</time>
      </trkpt>
      <trkpt lat="43.9735" lon="7.26345">
        <ele>843.200439</ele>
        <time>2012-08-19T07:34:08Z</time>
      </trkpt>
      <trkpt lat="43.97356" lon="7.26345">
        <ele>843.041565</ele>
        <time>2012-08-19T07:34:11Z</time>
      </trkpt>
      <trkpt lat="43.97356" lon="7.26345">
        <ele>842.961243</ele>
        <time>2012-08-19T07:34:13Z</time>
      </trkpt>
      <trkpt lat="43.97361" lon="7.26347">
        <ele>842.807678</ele>
        <time>2012-08-19T07:34:15Z</time>
      </trkpt>
      <trkpt lat="43.97366" lon="7.2635">
        <ele>842.546936</ele>
        <time>2012-08-19T07:34:18Z</time>
      </trkpt>
      <trkpt lat="43.97373" lon="7.26358">
        <ele>842.271973</ele>
        <time>2012-08-19T07:34:21Z</time>
      </trkpt>
      <trkpt lat="43.97384" lon="7.26365">
        <ele>842.011719</ele>
        <time>2012-08-19T07:34:24Z</time>
      </trkpt>
      <trkpt lat="43.97397" lon="7.26371">
        <ele>841.783752</ele>
        <time>2012-08-19T07:34:27Z</time>
      </trkpt>
      <trkpt lat="43.97408" lon="7.26375">
        <ele>841.527039</ele>
        <time>2012-08-19T07:34:30Z</time>
      </trkpt>
      <trkpt lat="43.97415" lon="7.26378">
        <ele>841.321533</ele>
        <time>2012-08-19T07:34:32Z</time>
      </trkpt>
      <trkpt lat="43.97425" lon="7.26382">
        <ele>840.984497</ele>
        <time>2012-08-19T07:34:35Z</time>
      </trkpt>
      <trkpt lat="43.9743" lon="7.26384">
        <ele>840.745361</ele>
        <time>2012-08-19T07:34:37Z</time>
      </trkpt>
      <trkpt lat="43.97438" lon="7.26387">
        <ele>840.362244</ele>
        <time>2012-08-19T07:34:40Z</time>
      </trkpt>
      <trkpt lat="43.97443" lon="7.26389">
        <ele>840.103943</ele>
        <time>2012-08-19T07:34:42Z</time>
      </trkpt>
      <trkpt lat="43.97448" lon="7.26392">
        <ele>839.708679</ele>
        <time>2012-08-19T07:34:45Z</time>
      </trkpt>
      <trkpt lat="43.97452" lon="7.26394">
        <ele>839.431519</ele>
        <time>2012-08-19T07:34:47Z</time>
      </trkpt>
      <trkpt lat="43.97459" lon="7.26394">
        <ele>838.987976</ele>
        <time>2012-08-19T07:34:50Z</time>
      </trkpt>
      <trkpt lat="43.97464" lon="7.26394">
        <ele>838.692627</ele>
        <time>2012-08-19T07:34:52Z</time>
      </trkpt>
      <trkpt lat="43.97471" lon="7.26395">
        <ele>838.23877</ele>
        <time>2012-08-19T07:34:55Z</time>
      </trkpt>
      <trkpt lat="43.97479" lon="7.26396">
        <ele>837.908325</ele>
        <time>2012-08-19T07:34:57Z</time>
      </trkpt>
      <trkpt lat="43.97483" lon="7.26398">
        <ele>837.568604</ele>
        <time>2012-08-19T07:34:59Z</time>
      </trkpt>
      <trkpt lat="43.97491" lon="7.26401">
        <ele>837.026123</ele>
        <time>2012-08-19T07:35:02Z</time>
      </trkpt>
      <trkpt lat="43.97494" lon="7.26395">
        <ele>836.859558</ele>
        <time>2012-08-19T07:35:05Z</time>
      </trkpt>
      <trkpt lat="43.97493" lon="7.26393">
        <ele>836.964478</ele>
        <time>2012-08-19T07:35:08Z</time>
      </trkpt>
      <trkpt lat="43.97491" lon="7.26398">
        <ele>837.126038</ele>
        <time>2012-08-19T07:35:11Z</time>
      </trkpt>
      <trkpt lat="43.97492" lon="7.26397">
        <ele>837.225403</ele>
        <time>2012-08-19T07:35:13Z</time>
      </trkpt>
      <trkpt lat="43.97493" lon="7.26398">
        <ele>837.302246</ele>
        <time>2012-08-19T07:35:15Z</time>
      </trkpt>
      <trkpt lat="43.97495" lon="7.26399">
        <ele>837.344666</ele>
        <time>2012-08-19T07:35:18Z</time>
      </trkpt>
      <trkpt lat="43.97496" lon="7.26401">
        <ele>837.461426</ele>
        <time>2012-08-19T07:35:20Z</time>
      </trkpt>
      <trkpt lat="43.97498" lon="7.26403">
        <ele>837.693054</ele>
        <time>2012-08-19T07:35:23Z</time>
      </trkpt>
      <trkpt lat="43.97499" lon="7.26404">
        <ele>837.889526</ele>
        <time>2012-08-19T07:35:25Z</time>
      </trkpt>
      <trkpt lat="43.97501" lon="7.26405">
        <ele>838.156982</ele>
        <time>2012-08-19T07:35:28Z</time>
      </trkpt>
      <trkpt lat="43.97501" lon="7.26405">
        <ele>838.352356</ele>
        <time>2012-08-19T07:35:30Z</time>
      </trkpt>
      <trkpt lat="43.97506" lon="7.26408">
        <ele>838.828857</ele>
        <time>2012-08-19T07:35:32Z</time>
      </trkpt>
      <trkpt lat="43.97514" lon="7.26425">
        <ele>839.618347</ele>
        <time>2012-08-19T07:35:35Z</time>
      </trkpt>
      <trkpt lat="43.97519" lon="7.26438">
        <ele>840.207581</ele>
        <time>2012-08-19T07:35:37Z</time>
      </trkpt>
      <trkpt lat="43.97524" lon="7.26453">
        <ele>840.956177</ele>
        <time>2012-08-19T07:35:40Z</time>
      </trkpt>
      <trkpt lat="43.9753" lon="7.26468">
        <ele>841.368713</ele>
        <time>2012-08-19T07:35:43Z</time>
      </trkpt>
      <trkpt lat="43.9753" lon="7.26468">
        <ele>841.68103</ele>
        <time>2012-08-19T07:35:45Z</time>
      </trkpt>
      <trkpt lat="43.97535" lon="7.26478">
        <ele>842.062256</ele>
        <time>2012-08-19T07:35:48Z</time>
      </trkpt>
      <trkpt lat="43.97539" lon="7.26485">
        <ele>842.185974</ele>
        <time>2012-08-19T07:35:51Z</time>
      </trkpt>
      <trkpt lat="43.97544" lon="7.26491">
        <ele>842.298218</ele>
        <time>2012-08-19T07:35:53Z</time>
      </trkpt>
      <trkpt lat="43.9756" lon="7.26494">
        <ele>842.554565</ele>
        <time>2012-08-19T07:35:56Z</time>
      </trkpt>
      <trkpt lat="43.97574" lon="7.26496">
        <ele>842.69989</ele>
        <time>2012-08-19T07:35:59Z</time>
      </trkpt>
      <trkpt lat="43.97584" lon="7.26499">
        <ele>842.747253</ele>
        <time>2012-08-19T07:36:02Z</time>
      </trkpt>
      <trkpt lat="43.97591" lon="7.26501">
        <ele>842.721375</ele>
        <time>2012-08-19T07:36:04Z</time>
      </trkpt>
      <trkpt lat="43.97595" lon="7.26495">
        <ele>843.286926</ele>
        <time>2012-08-19T07:36:07Z</time>
      </trkpt>
      <trkpt lat="43.97599" lon="7.26494">
        <ele>843.728821</ele>
        <time>2012-08-19T07:36:09Z</time>
      </trkpt>
      <trkpt lat="43.97604" lon="7.26493">
        <ele>844.362915</ele>
        <time>2012-08-19T07:36:12Z</time>
      </trkpt>
      <trkpt lat="43.97607" lon="7.26495">
        <ele>844.816467</ele>
        <time>2012-08-19T07:36:15Z</time>
      </trkpt>
      <trkpt lat="43.97609" lon="7.26497">
        <ele>844.972412</ele>
        <time>2012-08-19T07:36:17Z</time>
      </trkpt>
      <trkpt lat="43.97612" lon="7.265">
        <ele>845.055603</ele>
        <time>2012-08-19T07:36:20Z</time>
      </trkpt>
      <trkpt lat="43.97615" lon="7.26503">
        <ele>845.136963</ele>
        <time>2012-08-19T07:36:23Z</time>
      </trkpt>
      <trkpt lat="43.97618" lon="7.26507">
        <ele>845.128601</ele>
        <time>2012-08-19T07:36:25Z</time>
      </trkpt>
      <trkpt lat="43.9762" lon="7.26516">
        <ele>845.049194</ele>
        <time>2012-08-19T07:36:28Z</time>
      </trkpt>
      <trkpt lat="43.97621" lon="7.26521">
        <ele>844.998901</ele>
        <time>2012-08-19T07:36:30Z</time>
      </trkpt>
      <trkpt lat="43.97622" lon="7.26527">
        <ele>844.891968</ele>
        <time>2012-08-19T07:36:32Z</time>
      </trkpt>
      <trkpt lat="43.97623" lon="7.2654">
        <ele>844.9021</ele>
        <time>2012-08-19T07:36:35Z</time>
      </trkpt>
      <trkpt lat="43.97623" lon="7.2655">
        <ele>845.217529</ele>
        <time>2012-08-19T07:36:37Z</time>
      </trkpt>
      <trkpt lat="43.97625" lon="7.26557">
        <ele>845.48645</ele>
        <time>2012-08-19T07:36:39Z</time>
      </trkpt>
      <trkpt lat="43.97627" lon="7.26566">
        <ele>845.815186</ele>
        <time>2012-08-19T07:36:42Z</time>
      </trkpt>
      <trkpt lat="43.97626" lon="7.26574">
        <ele>846.074036</ele>
        <time>2012-08-19T07:36:45Z</time>
      </trkpt>
      <trkpt lat="43.97625" lon="7.26578">
        <ele>846.203003</ele>
        <time>2012-08-19T07:36:47Z</time>
      </trkpt>
      <trkpt lat="43.97627" lon="7.26584">
        <ele>846.227539</ele>
        <time>2012-08-19T07:36:49Z</time>
      </trkpt>
      <trkpt lat="43.97635" lon="7.26589">
        <ele>846.204712</ele>
        <time>2012-08-19T07:36:52Z</time>
      </trkpt>
      <trkpt lat="43.9764" lon="7.26595">
        <ele>846.093628</ele>
        <time>2012-08-19T07:36:55Z</time>
      </trkpt>
      <trkpt lat="43.97646" lon="7.26601">
        <ele>846.008301</ele>
        <time>2012-08-19T07:36:58Z</time>
      </trkpt>
      <trkpt lat="43.97653" lon="7.26606">
        <ele>846.185547</ele>
        <time>2012-08-19T07:37:01Z</time>
      </trkpt>
      <trkpt lat="43.97657" lon="7.26609">
        <ele>846.321899</ele>
        <time>2012-08-19T07:37:03Z</time>
      </trkpt>
      <trkpt lat="43.97663" lon="7.26618">
        <ele>846.891846</ele>
        <time>2012-08-19T07:37:06Z</time>
      </trkpt>
      <trkpt lat="43.97666" lon="7.26623">
        <ele>847.35907</ele>
        <time>2012-08-19T07:37:08Z</time>
      </trkpt>
      <trkpt lat="43.97671" lon="7.26631">
        <ele>848.181335</ele>
        <time>2012-08-19T07:37:11Z</time>
      </trkpt>
      <trkpt lat="43.97673" lon="7.26633">
        <ele>848.722412</ele>
        <time>2012-08-19T07:37:13Z</time>
      </trkpt>
      <trkpt lat="43.97678" lon="7.2663">
        <ele>849.41571</ele>
        <time>2012-08-19T07:37:16Z</time>
      </trkpt>
      <trkpt lat="43.97684" lon="7.26624">
        <ele>850.006958</ele>
        <time>2012-08-19T07:37:19Z</time>
      </trkpt>
      <trkpt lat="43.9769" lon="7.26619">
        <ele>850.585938</ele>
        <time>2012-08-19T07:37:22Z</time>
      </trkpt>
      <trkpt lat="43.97693" lon="7.26617">
        <ele>851.014648</ele>
        <time>2012-08-19T07:37:24Z</time>
      </trkpt>
      <trkpt lat="43.97699" lon="7.26615">
        <ele>851.665833</ele>
        <time>2012-08-19T07:37:27Z</time>
      </trkpt>
      <trkpt lat="43.97703" lon="7.26615">
        <ele>852.177734</ele>
        <time>2012-08-19T07:37:30Z</time>
      </trkpt>
      <trkpt lat="43.97705" lon="7.26618">
        <ele>852.393005</ele>
        <time>2012-08-19T07:37:32Z</time>
      </trkpt>
      <trkpt lat="43.97706" lon="7.26621">
        <ele>852.50061</ele>
        <time>2012-08-19T07:37:34Z</time>
      </trkpt>
      <trkpt lat="43.97707" lon="7.26624">
        <ele>852.539062</ele>
        <time>2012-08-19T07:37:36Z</time>
      </trkpt>
      <trkpt lat="43.97707" lon="7.26627">
        <ele>852.599243</ele>
        <time>2012-08-19T07:37:39Z</time>
      </trkpt>
      <trkpt lat="43.97708" lon="7.2663">
        <ele>852.627686</ele>
        <time>2012-08-19T07:37:41Z</time>
      </trkpt>
      <trkpt lat="43.97708" lon="7.26631">
        <ele>852.675476</ele>
        <time>2012-08-19T07:37:43Z</time>
      </trkpt>
      <trkpt lat="43.97709" lon="7.26635">
        <ele>852.749268</ele>
        <time>2012-08-19T07:37:45Z</time>
      </trkpt>
      <trkpt lat="43.97713" lon="7.26637">
        <ele>852.79425</ele>
        <time>2012-08-19T07:37:48Z</time>
      </trkpt>
      <trkpt lat="43.9772" lon="7.2664">
        <ele>852.875</ele>
        <time>2012-08-19T07:37:51Z</time>
      </trkpt>
      <trkpt lat="43.97725" lon="7.26642">
        <ele>852.788391</ele>
        <time>2012-08-19T07:37:53Z</time>
      </trkpt>
      <trkpt lat="43.9773" lon="7.26645">
        <ele>852.692688</ele>
        <time>2012-08-19T07:37:55Z</time>
      </trkpt>
      <trkpt lat="43.97736" lon="7.26647">
        <ele>852.475403</ele>
        <time>2012-08-19T07:37:58Z</time>
      </trkpt>
      <trkpt lat="43.97737" lon="7.26648">
        <ele>852.49884</ele>
        <time>2012-08-19T07:38:00Z</time>
      </trkpt>
      <trkpt lat="43.97748" lon="7.26656">
        <ele>852.7146</ele>
        <time>2012-08-19T07:38:03Z</time>
      </trkpt>
      <trkpt lat="43.97753" lon="7.26661">
        <ele>852.886292</ele>
        <time>2012-08-19T07:38:05Z</time>
      </trkpt>
      <trkpt lat="43.97753" lon="7.26661">
        <ele>853.006042</ele>
        <time>2012-08-19T07:38:07Z</time>
      </trkpt>
      <trkpt lat="43.97757" lon="7.26665">
        <ele>853.078674</ele>
        <time>2012-08-19T07:38:10Z</time>
      </trkpt>
      <trkpt lat="43.97761" lon="7.26672">
        <ele>853.13031</ele>
        <time>2012-08-19T07:38:13Z</time>
      </trkpt>
      <trkpt lat="43.97761" lon="7.26672">
        <ele>853.166321</ele>
        <time>2012-08-19T07:38:15Z</time>
      </trkpt>
      <trkpt lat="43.97768" lon="7.26676">
        <ele>853.205872</ele>
        <time>2012-08-19T07:38:18Z</time>
      </trkpt>
      <trkpt lat="43.97778" lon="7.26678">
        <ele>853.219116</ele>
        <time>2012-08-19T07:38:21Z</time>
      </trkpt>
      <trkpt lat="43.97785" lon="7.26678">
        <ele>853.215332</ele>
        <time>2012-08-19T07:38:23Z</time>
      </trkpt>
      <trkpt lat="43.97792" lon="7.26678">
        <ele>853.201416</ele>
        <time>2012-08-19T07:38:25Z</time>
      </trkpt>
      <trkpt lat="43.97798" lon="7.26679">
        <ele>853.178284</ele>
        <time>2012-08-19T07:38:27Z</time>
      </trkpt>
      <trkpt lat="43.97805" lon="7.26683">
        <ele>853.113953</ele>
        <time>2012-08-19T07:38:30Z</time>
      </trkpt>
      <trkpt lat="43.9781" lon="7.26685">
        <ele>853.036926</ele>
        <time>2012-08-19T07:38:33Z</time>
      </trkpt>
      <trkpt lat="43.97811" lon="7.26685">
        <ele>853.002136</ele>
        <time>2012-08-19T07:38:35Z</time>
      </trkpt>
      <trkpt lat="43.97811" lon="7.26685">
        <ele>852.907043</ele>
        <time>2012-08-19T07:38:38Z</time>
      </trkpt>
      <trkpt lat="43.97816" lon="7.26688">
        <ele>852.820557</ele>
        <time>2012-08-19T07:38:41Z</time>
      </trkpt>
      <trkpt lat="43.97821" lon="7.26692">
        <ele>852.736511</ele>
        <time>2012-08-19T07:38:43Z</time>
      </trkpt>
      <trkpt lat="43.97821" lon="7.26692">
        <ele>852.669617</ele>
        <time>2012-08-19T07:38:45Z</time>
      </trkpt>
      <trkpt lat="43.9783" lon="7.26696">
        <ele>852.643677</ele>
        <time>2012-08-19T07:38:47Z</time>
      </trkpt>
      <trkpt lat="43.97844" lon="7.26697">
        <ele>852.565491</ele>
        <time>2012-08-19T07:38:50Z</time>
      </trkpt>
      <trkpt lat="43.97856" lon="7.26694">
        <ele>852.505554</ele>
        <time>2012-08-19T07:38:52Z</time>
      </trkpt>
      <trkpt lat="43.97867" lon="7.26691">
        <ele>852.484863</ele>
        <time>2012-08-19T07:38:54Z</time>
      </trkpt>
      <trkpt lat="43.97876" lon="7.26688">
        <ele>852.484375</ele>
        <time>2012-08-19T07:38:57Z</time>
      </trkpt>
      <trkpt lat="43.97888" lon="7.26686">
        <ele>852.634033</ele>
        <time>2012-08-19T07:39:00Z</time>
      </trkpt>
      <trkpt lat="43.9789" lon="7.26679">
        <ele>852.884033</ele>
        <time>2012-08-19T07:39:03Z</time>
      </trkpt>
      <trkpt lat="43.9789" lon="7.2667">
        <ele>853.070984</ele>
        <time>2012-08-19T07:39:05Z</time>
      </trkpt>
      <trkpt lat="43.9789" lon="7.26656">
        <ele>853.318604</ele>
        <time>2012-08-19T07:39:08Z</time>
      </trkpt>
      <trkpt lat="43.97891" lon="7.26647">
        <ele>853.46521</ele>
        <time>2012-08-19T07:39:10Z</time>
      </trkpt>
      <trkpt lat="43.9789" lon="7.26638">
        <ele>853.641785</ele>
        <time>2012-08-19T07:39:13Z</time>
      </trkpt>
      <trkpt lat="43.97889" lon="7.26634">
        <ele>853.733032</ele>
        <time>2012-08-19T07:39:15Z</time>
      </trkpt>
      <trkpt lat="43.97886" lon="7.2663">
        <ele>853.84137</ele>
        <time>2012-08-19T07:39:17Z</time>
      </trkpt>
      <trkpt lat="43.9788" lon="7.26624">
        <ele>853.986023</ele>
        <time>2012-08-19T07:39:20Z</time>
      </trkpt>
      <trkpt lat="43.97876" lon="7.26621">
        <ele>854.073547</ele>
        <time>2012-08-19T07:39:22Z</time>
      </trkpt>
      <trkpt lat="43.97871" lon="7.26615">
        <ele>854.192688</ele>
        <time>2012-08-19T07:39:25Z</time>
      </trkpt>
      <trkpt lat="43.97868" lon="7.26611">
        <ele>854.283447</ele>
        <time>2012-08-19T07:39:27Z</time>
      </trkpt>
      <trkpt lat="43.97863" lon="7.26607">
        <ele>854.401672</ele>
        <time>2012-08-19T07:39:29Z</time>
      </trkpt>
      <trkpt lat="43.97858" lon="7.26602">
        <ele>854.616089</ele>
        <time>2012-08-19T07:39:32Z</time>
      </trkpt>
      <trkpt lat="43.97855" lon="7.26598">
        <ele>854.769043</ele>
        <time>2012-08-19T07:39:34Z</time>
      </trkpt>
      <trkpt lat="43.97852" lon="7.26595">
        <ele>854.905701</ele>
        <time>2012-08-19T07:39:36Z</time>
      </trkpt>
      <trkpt lat="43.97847" lon="7.26593">
        <ele>855.067017</ele>
        <time>2012-08-19T07:39:39Z</time>
      </trkpt>
      <trkpt lat="43.97844" lon="7.26587">
        <ele>855.16925</ele>
        <time>2012-08-19T07:39:42Z</time>
      </trkpt>
      <trkpt lat="43.97842" lon="7.26583">
        <ele>855.2229</ele>
        <time>2012-08-19T07:39:44Z</time>
      </trkpt>
      <trkpt lat="43.97839" lon="7.26578">
        <ele>855.261047</ele>
        <time>2012-08-19T07:39:46Z</time>
      </trkpt>
      <trkpt lat="43.97836" lon="7.26569">
        <ele>855.210449</ele>
        <time>2012-08-19T07:39:49Z</time>
      </trkpt>
      <trkpt lat="43.97832" lon="7.26561">
        <ele>855.36676</ele>
        <time>2012-08-19T07:39:52Z</time>
      </trkpt>
      <trkpt lat="43.9783" lon="7.26554">
        <ele>855.494751</ele>
        <time>2012-08-19T07:39:54Z</time>
      </trkpt>
      <trkpt lat="43.97828" lon="7.26544">
        <ele>855.78479</ele>
        <time>2012-08-19T07:39:57Z</time>
      </trkpt>
      <trkpt lat="43.97826" lon="7.2654">
        <ele>856.034912</ele>
        <time>2012-08-19T07:39:59Z</time>
      </trkpt>
      <trkpt lat="43.97823" lon="7.26533">
        <ele>856.444214</ele>
        <time>2012-08-19T07:40:02Z</time>
      </trkpt>
      <trkpt lat="43.97821" lon="7.26528">
        <ele>856.716003</ele>
        <time>2012-08-19T07:40:04Z</time>
      </trkpt>
      <trkpt lat="43.97818" lon="7.26521">
        <ele>857.140564</ele>
        <time>2012-08-19T07:40:07Z</time>
      </trkpt>
      <trkpt lat="43.97816" lon="7.26515">
        <ele>857.425354</ele>
        <time>2012-08-19T07:40:09Z</time>
      </trkpt>
      <trkpt lat="43.97814" lon="7.26507">
        <ele>857.830994</ele>
        <time>2012-08-19T07:40:12Z</time>
      </trkpt>
      <trkpt lat="43.97813" lon="7.26502">
        <ele>858.171997</ele>
        <time>2012-08-19T07:40:15Z</time>
      </trkpt>
      <trkpt lat="43.97811" lon="7.26494">
        <ele>858.4505</ele>
        <time>2012-08-19T07:40:18Z</time>
      </trkpt>
      <trkpt lat="43.9781" lon="7.26488">
        <ele>858.607361</ele>
        <time>2012-08-19T07:40:20Z</time>
      </trkpt>
      <trkpt lat="43.97808" lon="7.26481">
        <ele>858.842529</ele>
        <time>2012-08-19T07:40:23Z</time>
      </trkpt>
      <trkpt lat="43.97807" lon="7.26473">
        <ele>859.098511</ele>
        <time>2012-08-19T07:40:25Z</time>
      </trkpt>
      <trkpt lat="43.97806" lon="7.26461">
        <ele>859.59906</ele>
        <time>2012-08-19T07:40:28Z</time>
      </trkpt>
      <trkpt lat="43.97804" lon="7.26452">
        <ele>860.123169</ele>
        <time>2012-08-19T07:40:31Z</time>
      </trkpt>
      <trkpt lat="43.97803" lon="7.26445">
        <ele>860.486633</ele>
        <time>2012-08-19T07:40:33Z</time>
      </trkpt>
      <trkpt lat="43.97802" lon="7.26438">
        <ele>860.889832</ele>
        <time>2012-08-19T07:40:35Z</time>
      </trkpt>
      <trkpt lat="43.97801" lon="7.26429">
        <ele>861.535217</ele>
        <time>2012-08-19T07:40:38Z</time>
      </trkpt>
      <trkpt lat="43.978" lon="7.26421">
        <ele>862.188354</ele>
        <time>2012-08-19T07:40:41Z</time>
      </trkpt>
      <trkpt lat="43.97799" lon="7.26416">
        <ele>862.608521</ele>
        <time>2012-08-19T07:40:43Z</time>
      </trkpt>
      <trkpt lat="43.97797" lon="7.26407">
        <ele>863.207031</ele>
        <time>2012-08-19T07:40:46Z</time>
      </trkpt>
      <trkpt lat="43.97796" lon="7.264">
        <ele>863.614807</ele>
        <time>2012-08-19T07:40:48Z</time>
      </trkpt>
      <trkpt lat="43.97795" lon="7.26392">
        <ele>864.051086</ele>
        <time>2012-08-19T07:40:50Z</time>
      </trkpt>
      <trkpt lat="43.97792" lon="7.26383">
        <ele>864.750244</ele>
        <time>2012-08-19T07:40:53Z</time>
      </trkpt>
      <trkpt lat="43.97789" lon="7.26375">
        <ele>865.430969</ele>
        <time>2012-08-19T07:40:56Z</time>
      </trkpt>
      <trkpt lat="43.97787" lon="7.26367">
        <ele>866.069031</ele>
        <time>2012-08-19T07:40:59Z</time>
      </trkpt>
      <trkpt lat="43.97786" lon="7.26357">
        <ele>866.70752</ele>
        <time>2012-08-19T07:41:02Z</time>
      </trkpt>
      <trkpt lat="43.97786" lon="7.26347">
        <ele>867.325745</ele>
        <time>2012-08-19T07:41:05Z</time>
      </trkpt>
      <trkpt lat="43.97788" lon="7.2634">
        <ele>867.949097</ele>
        <time>2012-08-19T07:41:08Z</time>
      </trkpt>
      <trkpt lat="43.97791" lon="7.26336">
        <ele>868.583496</ele>
        <time>2012-08-19T07:41:11Z</time>
      </trkpt>
      <trkpt lat="43.97793" lon="7.26334">
        <ele>869.00238</ele>
        <time>2012-08-19T07:41:13Z</time>
      </trkpt>
      <trkpt lat="43.97798" lon="7.26331">
        <ele>869.650757</ele>
        <time>2012-08-19T07:41:16Z</time>
      </trkpt>
      <trkpt lat="43.978" lon="7.26329">
        <ele>870.055176</ele>
        <time>2012-08-19T07:41:18Z</time>
      </trkpt>
      <trkpt lat="43.97804" lon="7.26325">
        <ele>870.605713</ele>
        <time>2012-08-19T07:41:21Z</time>
      </trkpt>
      <trkpt lat="43.97806" lon="7.26323">
        <ele>870.938599</ele>
        <time>2012-08-19T07:41:23Z</time>
      </trkpt>
      <trkpt lat="43.97809" lon="7.2632">
        <ele>871.356079</ele>
        <time>2012-08-19T07:41:26Z</time>
      </trkpt>
      <trkpt lat="43.97812" lon="7.26318">
        <ele>871.590637</ele>
        <time>2012-08-19T07:41:28Z</time>
      </trkpt>
      <trkpt lat="43.97816" lon="7.26316">
        <ele>871.834106</ele>
        <time>2012-08-19T07:41:31Z</time>
      </trkpt>
      <trkpt lat="43.97819" lon="7.26314">
        <ele>871.943726</ele>
        <time>2012-08-19T07:41:33Z</time>
      </trkpt>
      <trkpt lat="43.97823" lon="7.26314">
        <ele>872.02179</ele>
        <time>2012-08-19T07:41:36Z</time>
      </trkpt>
      <trkpt lat="43.97828" lon="7.26313">
        <ele>872.070801</ele>
        <time>2012-08-19T07:41:39Z</time>
      </trkpt>
      <trkpt lat="43.97832" lon="7.26313">
        <ele>872.133789</ele>
        <time>2012-08-19T07:41:42Z</time>
      </trkpt>
      <trkpt lat="43.97835" lon="7.26312">
        <ele>872.146484</ele>
        <time>2012-08-19T07:41:44Z</time>
      </trkpt>
      <trkpt lat="43.97837" lon="7.26311">
        <ele>872.153015</ele>
        <time>2012-08-19T07:41:46Z</time>
      </trkpt>
      <trkpt lat="43.97837" lon="7.26311">
        <ele>872.164856</ele>
        <time>2012-08-19T07:41:49Z</time>
      </trkpt>
      <trkpt lat="43.97842" lon="7.26314">
        <ele>872.180481</ele>
        <time>2012-08-19T07:41:52Z</time>
      </trkpt>
      <trkpt lat="43.97847" lon="7.26313">
        <ele>872.179749</ele>
        <time>2012-08-19T07:41:54Z</time>
      </trkpt>
      <trkpt lat="43.97852" lon="7.26309">
        <ele>872.171082</ele>
        <time>2012-08-19T07:41:57Z</time>
      </trkpt>
      <trkpt lat="43.97856" lon="7.26307">
        <ele>872.158386</ele>
        <time>2012-08-19T07:41:59Z</time>
      </trkpt>
      <trkpt lat="43.97862" lon="7.26305">
        <ele>872.176514</ele>
        <time>2012-08-19T07:42:02Z</time>
      </trkpt>
      <trkpt lat="43.97866" lon="7.26303">
        <ele>872.222168</ele>
        <time>2012-08-19T07:42:04Z</time>
      </trkpt>
      <trkpt lat="43.9787" lon="7.26301">
        <ele>872.248962</ele>
        <time>2012-08-19T07:42:06Z</time>
      </trkpt>
      <trkpt lat="43.97874" lon="7.26299">
        <ele>872.24408</ele>
        <time>2012-08-19T07:42:09Z</time>
      </trkpt>
      <trkpt lat="43.97879" lon="7.26297">
        <ele>872.195801</ele>
        <time>2012-08-19T07:42:12Z</time>
      </trkpt>
      <trkpt lat="43.97884" lon="7.26292">
        <ele>872.161682</ele>
        <time>2012-08-19T07:42:15Z</time>
      </trkpt>
      <trkpt lat="43.97889" lon="7.26288">
        <ele>872.184875</ele>
        <time>2012-08-19T07:42:18Z</time>
      </trkpt>
      <trkpt lat="43.97892" lon="7.26284">
        <ele>872.253418</ele>
        <time>2012-08-19T07:42:21Z</time>
      </trkpt>
      <trkpt lat="43.97894" lon="7.26281">
        <ele>872.309998</ele>
        <time>2012-08-19T07:42:23Z</time>
      </trkpt>
      <trkpt lat="43.97895" lon="7.26279">
        <ele>872.371765</ele>
        <time>2012-08-19T07:42:25Z</time>
      </trkpt>
      <trkpt lat="43.97896" lon="7.26277">
        <ele>872.453918</ele>
        <time>2012-08-19T07:42:27Z</time>
      </trkpt>
      <trkpt lat="43.97896" lon="7.26275">
        <ele>872.55072</ele>
        <time>2012-08-19T07:42:29Z</time>
      </trkpt>
      <trkpt lat="43.97898" lon="7.2627">
        <ele>872.744324</ele>
        <time>2012-08-19T07:42:32Z</time>
      </trkpt>
      <trkpt lat="43.979" lon="7.26266">
        <ele>872.993286</ele>
        <time>2012-08-19T07:42:35Z</time>
      </trkpt>
      <trkpt lat="43.97902" lon="7.26261">
        <ele>873.283813</ele>
        <time>2012-08-19T07:42:38Z</time>
      </trkpt>
      <trkpt lat="43.97904" lon="7.26257">
        <ele>873.552307</ele>
        <time>2012-08-19T07:42:41Z</time>
      </trkpt>
      <trkpt lat="43.97905" lon="7.26254">
        <ele>873.71814</ele>
        <time>2012-08-19T07:42:43Z</time>
      </trkpt>
      <trkpt lat="43.97907" lon="7.26251">
        <ele>873.903564</ele>
        <time>2012-08-19T07:42:45Z</time>
      </trkpt>
      <trkpt lat="43.97909" lon="7.26245">
        <ele>874.540527</ele>
        <time>2012-08-19T07:42:48Z</time>
      </trkpt>
      <trkpt lat="43.97912" lon="7.26237">
        <ele>875.536621</ele>
        <time>2012-08-19T07:42:51Z</time>
      </trkpt>
      <trkpt lat="43.97914" lon="7.26234">
        <ele>876.247314</ele>
        <time>2012-08-19T07:42:53Z</time>
      </trkpt>
      <trkpt lat="43.97917" lon="7.26231">
        <ele>877.365356</ele>
        <time>2012-08-19T07:42:56Z</time>
      </trkpt>
      <trkpt lat="43.97919" lon="7.2623">
        <ele>878.090515</ele>
        <time>2012-08-19T07:42:58Z</time>
      </trkpt>
      <trkpt lat="43.97919" lon="7.2623">
        <ele>878.158997</ele>
        <time>2012-08-19T07:43:00Z</time>
      </trkpt>
      <trkpt lat="43.97922" lon="7.26226">
        <ele>878.243591</ele>
        <time>2012-08-19T07:43:03Z</time>
      </trkpt>
      <trkpt lat="43.97922" lon="7.26226">
        <ele>878.289734</ele>
        <time>2012-08-19T07:43:05Z</time>
      </trkpt>
      <trkpt lat="43.97927" lon="7.26224">
        <ele>878.852783</ele>
        <time>2012-08-19T07:43:08Z</time>
      </trkpt>
      <trkpt lat="43.97927" lon="7.26224">
        <ele>879.132629</ele>
        <time>2012-08-19T07:43:10Z</time>
      </trkpt>
      <trkpt lat="43.97932" lon="7.26222">
        <ele>879.447937</ele>
        <time>2012-08-19T07:43:13Z</time>
      </trkpt>
      <trkpt lat="43.97937" lon="7.26221">
        <ele>879.530701</ele>
        <time>2012-08-19T07:43:16Z</time>
      </trkpt>
      <trkpt lat="43.97941" lon="7.26221">
        <ele>879.704956</ele>
        <time>2012-08-19T07:43:19Z</time>
      </trkpt>
      <trkpt lat="43.9795" lon="7.2622">
        <ele>879.832397</ele>
        <time>2012-08-19T07:43:22Z</time>
      </trkpt>
      <trkpt lat="43.97954" lon="7.26219">
        <ele>879.887939</ele>
        <time>2012-08-19T07:43:24Z</time>
      </trkpt>
      <trkpt lat="43.9796" lon="7.26217">
        <ele>879.94342</ele>
        <time>2012-08-19T07:43:27Z</time>
      </trkpt>
      <trkpt lat="43.97965" lon="7.26217">
        <ele>879.969788</ele>
        <time>2012-08-19T07:43:30Z</time>
      </trkpt>
      <trkpt lat="43.9797" lon="7.26214">
        <ele>879.997681</ele>
        <time>2012-08-19T07:43:33Z</time>
      </trkpt>
      <trkpt lat="43.97975" lon="7.26211">
        <ele>880.013855</ele>
        <time>2012-08-19T07:43:36Z</time>
      </trkpt>
      <trkpt lat="43.97981" lon="7.26211">
        <ele>880.047485</ele>
        <time>2012-08-19T07:43:39Z</time>
      </trkpt>
      <trkpt lat="43.97987" lon="7.2621">
        <ele>880.084229</ele>
        <time>2012-08-19T07:43:42Z</time>
      </trkpt>
      <trkpt lat="43.97991" lon="7.26207">
        <ele>880.104919</ele>
        <time>2012-08-19T07:43:45Z</time>
      </trkpt>
      <trkpt lat="43.97995" lon="7.26202">
        <ele>880.113586</ele>
        <time>2012-08-19T07:43:48Z</time>
      </trkpt>
      <trkpt lat="43.97999" lon="7.262">
        <ele>880.092163</ele>
        <time>2012-08-19T07:43:51Z</time>
      </trkpt>
      <trkpt lat="43.98002" lon="7.26198">
        <ele>880.075439</ele>
        <time>2012-08-19T07:43:53Z</time>
      </trkpt>
      <trkpt lat="43.98005" lon="7.26194">
        <ele>880.069946</ele>
        <time>2012-08-19T07:43:55Z</time>
      </trkpt>
      <trkpt lat="43.98008" lon="7.2619">
        <ele>880.038635</ele>
        <time>2012-08-19T07:43:58Z</time>
      </trkpt>
      <trkpt lat="43.98011" lon="7.26186">
        <ele>880.002502</ele>
        <time>2012-08-19T07:44:00Z</time>
      </trkpt>
      <trkpt lat="43.98014" lon="7.26182">
        <ele>879.947144</ele>
        <time>2012-08-19T07:44:03Z</time>
      </trkpt>
      <trkpt lat="43.98016" lon="7.2618">
        <ele>879.90625</ele>
        <time>2012-08-19T07:44:05Z</time>
      </trkpt>
      <trkpt lat="43.98017" lon="7.26183">
        <ele>879.851746</ele>
        <time>2012-08-19T07:44:07Z</time>
      </trkpt>
      <trkpt lat="43.98022" lon="7.26187">
        <ele>879.745239</ele>
        <time>2012-08-19T07:44:10Z</time>
      </trkpt>
      <trkpt lat="43.98023" lon="7.26189">
        <ele>879.657166</ele>
        <time>2012-08-19T07:44:12Z</time>
      </trkpt>
      <trkpt lat="43.98026" lon="7.26192">
        <ele>879.488464</ele>
        <time>2012-08-19T07:44:15Z</time>
      </trkpt>
      <trkpt lat="43.98026" lon="7.26194">
        <ele>879.352722</ele>
        <time>2012-08-19T07:44:17Z</time>
      </trkpt>
      <trkpt lat="43.98028" lon="7.26196">
        <ele>879.186401</ele>
        <time>2012-08-19T07:44:19Z</time>
      </trkpt>
      <trkpt lat="43.98033" lon="7.26201">
        <ele>878.816711</ele>
        <time>2012-08-19T07:44:22Z</time>
      </trkpt>
      <trkpt lat="43.98036" lon="7.26206">
        <ele>878.394409</ele>
        <time>2012-08-19T07:44:25Z</time>
      </trkpt>
      <trkpt lat="43.98036" lon="7.2621">
        <ele>878.126404</ele>
        <time>2012-08-19T07:44:27Z</time>
      </trkpt>
      <trkpt lat="43.9804" lon="7.26214">
        <ele>877.744385</ele>
        <time>2012-08-19T07:44:30Z</time>
      </trkpt>
      <trkpt lat="43.98044" lon="7.26218">
        <ele>877.330078</ele>
        <time>2012-08-19T07:44:33Z</time>
      </trkpt>
      <trkpt lat="43.98049" lon="7.2622">
        <ele>876.964417</ele>
        <time>2012-08-19T07:44:36Z</time>
      </trkpt>
      <trkpt lat="43.98053" lon="7.26222">
        <ele>876.589844</ele>
        <time>2012-08-19T07:44:39Z</time>
      </trkpt>
      <trkpt lat="43.98058" lon="7.26225">
        <ele>876.249939</ele>
        <time>2012-08-19T07:44:42Z</time>
      </trkpt>
      <trkpt lat="43.98065" lon="7.26231">
        <ele>876.052124</ele>
        <time>2012-08-19T07:44:44Z</time>
      </trkpt>
      <trkpt lat="43.98069" lon="7.26233">
        <ele>875.871887</ele>
        <time>2012-08-19T07:44:46Z</time>
      </trkpt>
      <trkpt lat="43.98073" lon="7.26234">
        <ele>875.653992</ele>
        <time>2012-08-19T07:44:49Z</time>
      </trkpt>
      <trkpt lat="43.98073" lon="7.26236">
        <ele>875.443909</ele>
        <time>2012-08-19T07:44:52Z</time>
      </trkpt>
      <trkpt lat="43.98074" lon="7.26238">
        <ele>875.303772</ele>
        <time>2012-08-19T07:44:54Z</time>
      </trkpt>
      <trkpt lat="43.98076" lon="7.26242">
        <ele>875.110474</ele>
        <time>2012-08-19T07:44:56Z</time>
      </trkpt>
      <trkpt lat="43.98075" lon="7.26242">
        <ele>874.937317</ele>
        <time>2012-08-19T07:44:58Z</time>
      </trkpt>
      <trkpt lat="43.98075" lon="7.26245">
        <ele>874.815613</ele>
        <time>2012-08-19T07:45:00Z</time>
      </trkpt>
      <trkpt lat="43.98078" lon="7.26255">
        <ele>874.690308</ele>
        <time>2012-08-19T07:45:03Z</time>
      </trkpt>
      <trkpt lat="43.98081" lon="7.26262">
        <ele>874.633606</ele>
        <time>2012-08-19T07:45:05Z</time>
      </trkpt>
      <trkpt lat="43.98085" lon="7.26269">
        <ele>874.595154</ele>
        <time>2012-08-19T07:45:07Z</time>
      </trkpt>
      <trkpt lat="43.98092" lon="7.26279">
        <ele>874.594177</ele>
        <time>2012-08-19T07:45:10Z</time>
      </trkpt>
      <trkpt lat="43.98097" lon="7.26282">
        <ele>874.611877</ele>
        <time>2012-08-19T07:45:12Z</time>
      </trkpt>
      <trkpt lat="43.98108" lon="7.26288">
        <ele>874.603333</ele>
        <time>2012-08-19T07:45:15Z</time>
      </trkpt>
      <trkpt lat="43.98117" lon="7.26294">
        <ele>874.603943</ele>
        <time>2012-08-19T07:45:17Z</time>
      </trkpt>
      <trkpt lat="43.98125" lon="7.26297">
        <ele>874.606201</ele>
        <time>2012-08-19T07:45:20Z</time>
      </trkpt>
      <trkpt lat="43.98129" lon="7.26298">
        <ele>874.624084</ele>
        <time>2012-08-19T07:45:22Z</time>
      </trkpt>
      <trkpt lat="43.98134" lon="7.26297">
        <ele>874.665222</ele>
        <time>2012-08-19T07:45:24Z</time>
      </trkpt>
      <trkpt lat="43.98139" lon="7.26295">
        <ele>874.71106</ele>
        <time>2012-08-19T07:45:27Z</time>
      </trkpt>
      <trkpt lat="43.98143" lon="7.26293">
        <ele>874.728088</ele>
        <time>2012-08-19T07:45:29Z</time>
      </trkpt>
      <trkpt lat="43.98149" lon="7.26292">
        <ele>874.756531</ele>
        <time>2012-08-19T07:45:32Z</time>
      </trkpt>
      <trkpt lat="43.98155" lon="7.26289">
        <ele>874.774475</ele>
        <time>2012-08-19T07:45:35Z</time>
      </trkpt>
      <trkpt lat="43.98157" lon="7.26288">
        <ele>874.767151</ele>
        <time>2012-08-19T07:45:37Z</time>
      </trkpt>
      <trkpt lat="43.9816" lon="7.26289">
        <ele>874.696899</ele>
        <time>2012-08-19T07:45:40Z</time>
      </trkpt>
      <trkpt lat="43.98163" lon="7.2629">
        <ele>874.606995</ele>
        <time>2012-08-19T07:45:42Z</time>
      </trkpt>
      <trkpt lat="43.98166" lon="7.26289">
        <ele>874.461975</ele>
        <time>2012-08-19T07:45:45Z</time>
      </trkpt>
      <trkpt lat="43.98168" lon="7.26287">
        <ele>874.311646</ele>
        <time>2012-08-19T07:45:48Z</time>
      </trkpt>
      <trkpt lat="43.9817" lon="7.26284">
        <ele>874.132263</ele>
        <time>2012-08-19T07:45:51Z</time>
      </trkpt>
      <trkpt lat="43.98174" lon="7.26286">
        <ele>873.973267</ele>
        <time>2012-08-19T07:45:53Z</time>
      </trkpt>
      <trkpt lat="43.98178" lon="7.26287">
        <ele>873.708679</ele>
        <time>2012-08-19T07:45:56Z</time>
      </trkpt>
      <trkpt lat="43.98181" lon="7.26287">
        <ele>873.514954</ele>
        <time>2012-08-19T07:45:58Z</time>
      </trkpt>
      <trkpt lat="43.98183" lon="7.26287">
        <ele>873.307068</ele>
        <time>2012-08-19T07:46:00Z</time>
      </trkpt>
      <trkpt lat="43.98183" lon="7.26287">
        <ele>873.286743</ele>
        <time>2012-08-19T07:46:02Z</time>
      </trkpt>
      <trkpt lat="43.98188" lon="7.26289">
        <ele>872.996704</ele>
        <time>2012-08-19T07:46:05Z</time>
      </trkpt>
      <trkpt lat="43.98191" lon="7.26286">
        <ele>872.814819</ele>
        <time>2012-08-19T07:46:07Z</time>
      </trkpt>
      <trkpt lat="43.98197" lon="7.26282">
        <ele>872.555664</ele>
        <time>2012-08-19T07:46:10Z</time>
      </trkpt>
      <trkpt lat="43.98201" lon="7.26278">
        <ele>872.383911</ele>
        <time>2012-08-19T07:46:12Z</time>
      </trkpt>
      <trkpt lat="43.98207" lon="7.26279">
        <ele>872.200134</ele>
        <time>2012-08-19T07:46:14Z</time>
      </trkpt>
      <trkpt lat="43.98223" lon="7.26284">
        <ele>871.919495</ele>
        <time>2012-08-19T07:46:17Z</time>
      </trkpt>
      <trkpt lat="43.98235" lon="7.26288">
        <ele>871.689331</ele>
        <time>2012-08-19T07:46:20Z</time>
      </trkpt>
      <trkpt lat="43.98242" lon="7.26286">
        <ele>871.525574</ele>
        <time>2012-08-19T07:46:23Z</time>
      </trkpt>
      <trkpt lat="43.98247" lon="7.26286">
        <ele>871.4505</ele>
        <time>2012-08-19T07:46:25Z</time>
      </trkpt>
      <trkpt lat="43.98252" lon="7.26281">
        <ele>871.466125</ele>
        <time>2012-08-19T07:46:28Z</time>
      </trkpt>
      <trkpt lat="43.98256" lon="7.26282">
        <ele>871.545288</ele>
        <time>2012-08-19T07:46:31Z</time>
      </trkpt>
      <trkpt lat="43.98259" lon="7.26285">
        <ele>871.558838</ele>
        <time>2012-08-19T07:46:33Z</time>
      </trkpt>
      <trkpt lat="43.98261" lon="7.2629">
        <ele>871.563171</ele>
        <time>2012-08-19T07:46:36Z</time>
      </trkpt>
      <trkpt lat="43.98264" lon="7.26296">
        <ele>871.551208</ele>
        <time>2012-08-19T07:46:39Z</time>
      </trkpt>
      <trkpt lat="43.98266" lon="7.26299">
        <ele>871.517944</ele>
        <time>2012-08-19T07:46:41Z</time>
      </trkpt>
      <trkpt lat="43.98271" lon="7.26299">
        <ele>871.437439</ele>
        <time>2012-08-19T07:46:44Z</time>
      </trkpt>
      <trkpt lat="43.98276" lon="7.26301">
        <ele>871.287476</ele>
        <time>2012-08-19T07:46:47Z</time>
      </trkpt>
      <trkpt lat="43.9828" lon="7.263">
        <ele>871.118958</ele>
        <time>2012-08-19T07:46:49Z</time>
      </trkpt>
      <trkpt lat="43.98284" lon="7.263">
        <ele>870.897095</ele>
        <time>2012-08-19T07:46:52Z</time>
      </trkpt>
      <trkpt lat="43.98288" lon="7.26303">
        <ele>870.740173</ele>
        <time>2012-08-19T07:46:54Z</time>
      </trkpt>
      <trkpt lat="43.98291" lon="7.26307">
        <ele>870.5849</ele>
        <time>2012-08-19T07:46:57Z</time>
      </trkpt>
      <trkpt lat="43.98291" lon="7.26307">
        <ele>870.571472</ele>
        <time>2012-08-19T07:46:59Z</time>
      </trkpt>
      <trkpt lat="43.98294" lon="7.26311">
        <ele>870.433105</ele>
        <time>2012-08-19T07:47:02Z</time>
      </trkpt>
      <trkpt lat="43.98294" lon="7.26311">
        <ele>870.246155</ele>
        <time>2012-08-19T07:47:05Z</time>
      </trkpt>
      <trkpt lat="43.98297" lon="7.26312">
        <ele>870.064819</ele>
        <time>2012-08-19T07:47:08Z</time>
      </trkpt>
      <trkpt lat="43.983" lon="7.26313">
        <ele>869.99823</ele>
        <time>2012-08-19T07:47:10Z</time>
      </trkpt>
      <trkpt lat="43.98303" lon="7.26316">
        <ele>869.94397</ele>
        <time>2012-08-19T07:47:12Z</time>
      </trkpt>
      <trkpt lat="43.98305" lon="7.26318">
        <ele>869.907471</ele>
        <time>2012-08-19T07:47:14Z</time>
      </trkpt>
      <trkpt lat="43.98311" lon="7.26323">
        <ele>869.937256</ele>
        <time>2012-08-19T07:47:17Z</time>
      </trkpt>
      <trkpt lat="43.98319" lon="7.26331">
        <ele>870.098328</ele>
        <time>2012-08-19T07:47:20Z</time>
      </trkpt>
      <trkpt lat="43.9833" lon="7.26337">
        <ele>870.230286</ele>
        <time>2012-08-19T07:47:23Z</time>
      </trkpt>
      <trkpt lat="43.98336" lon="7.2634">
        <ele>870.321716</ele>
        <time>2012-08-19T07:47:25Z</time>
      </trkpt>
      <trkpt lat="43.98342" lon="7.26345">
        <ele>870.427429</ele>
        <time>2012-08-19T07:47:27Z</time>
      </trkpt>
      <trkpt lat="43.98348" lon="7.26356">
        <ele>870.654175</ele>
        <time>2012-08-19T07:47:30Z</time>
      </trkpt>
      <trkpt lat="43.98351" lon="7.26364">
        <ele>870.811035</ele>
        <time>2012-08-19T07:47:32Z</time>
      </trkpt>
      <trkpt lat="43.98354" lon="7.26369">
        <ele>870.948242</ele>
        <time>2012-08-19T07:47:34Z</time>
      </trkpt>
      <trkpt lat="43.98365" lon="7.26374">
        <ele>871.077942</ele>
        <time>2012-08-19T07:47:37Z</time>
      </trkpt>
      <trkpt lat="43.98377" lon="7.26375">
        <ele>871.138794</ele>
        <time>2012-08-19T07:47:40Z</time>
      </trkpt>
      <trkpt lat="43.98383" lon="7.26373">
        <ele>871.165833</ele>
        <time>2012-08-19T07:47:42Z</time>
      </trkpt>
      <trkpt lat="43.98391" lon="7.2637">
        <ele>871.255859</ele>
        <time>2012-08-19T07:47:45Z</time>
      </trkpt>
      <trkpt lat="43.98396" lon="7.2637">
        <ele>871.354309</ele>
        <time>2012-08-19T07:47:47Z</time>
      </trkpt>
      <trkpt lat="43.98401" lon="7.26368">
        <ele>871.442688</ele>
        <time>2012-08-19T07:47:49Z</time>
      </trkpt>
      <trkpt lat="43.98408" lon="7.26366">
        <ele>871.554932</ele>
        <time>2012-08-19T07:47:52Z</time>
      </trkpt>
      <trkpt lat="43.98412" lon="7.26364">
        <ele>871.636047</ele>
        <time>2012-08-19T07:47:54Z</time>
      </trkpt>
      <trkpt lat="43.98415" lon="7.2636">
        <ele>871.712097</ele>
        <time>2012-08-19T07:47:56Z</time>
      </trkpt>
      <trkpt lat="43.9842" lon="7.26352">
        <ele>871.896667</ele>
        <time>2012-08-19T07:47:59Z</time>
      </trkpt>
      <trkpt lat="43.98424" lon="7.26344">
        <ele>872.180725</ele>
        <time>2012-08-19T07:48:02Z</time>
      </trkpt>
      <trkpt lat="43.98427" lon="7.26339">
        <ele>872.396606</ele>
        <time>2012-08-19T07:48:04Z</time>
      </trkpt>
      <trkpt lat="43.98431" lon="7.26335">
        <ele>872.669067</ele>
        <time>2012-08-19T07:48:06Z</time>
      </trkpt>
      <trkpt lat="43.98435" lon="7.26333">
        <ele>872.970642</ele>
        <time>2012-08-19T07:48:08Z</time>
      </trkpt>
      <trkpt lat="43.98439" lon="7.26332">
        <ele>873.330994</ele>
        <time>2012-08-19T07:48:11Z</time>
      </trkpt>
      <trkpt lat="43.98442" lon="7.26332">
        <ele>873.553833</ele>
        <time>2012-08-19T07:48:13Z</time>
      </trkpt>
      <trkpt lat="43.98446" lon="7.26331">
        <ele>873.909119</ele>
        <time>2012-08-19T07:48:16Z</time>
      </trkpt>
      <trkpt lat="43.98448" lon="7.26331">
        <ele>874.161194</ele>
        <time>2012-08-19T07:48:18Z</time>
      </trkpt>
      <trkpt lat="43.98448" lon="7.26331">
        <ele>874.205505</ele>
        <time>2012-08-19T07:48:21Z</time>
      </trkpt>
      <trkpt lat="43.98451" lon="7.26327">
        <ele>874.366028</ele>
        <time>2012-08-19T07:48:23Z</time>
      </trkpt>
      <trkpt lat="43.98453" lon="7.26326">
        <ele>874.805969</ele>
        <time>2012-08-19T07:48:26Z</time>
      </trkpt>
      <trkpt lat="43.98453" lon="7.26325">
        <ele>875.082886</ele>
        <time>2012-08-19T07:48:28Z</time>
      </trkpt>
      <trkpt lat="43.98456" lon="7.26325">
        <ele>875.354126</ele>
        <time>2012-08-19T07:48:30Z</time>
      </trkpt>
      <trkpt lat="43.98461" lon="7.26324">
        <ele>875.738342</ele>
        <time>2012-08-19T07:48:33Z</time>
      </trkpt>
      <trkpt lat="43.98465" lon="7.26322">
        <ele>875.988892</ele>
        <time>2012-08-19T07:48:35Z</time>
      </trkpt>
      <trkpt lat="43.98469" lon="7.26318">
        <ele>876.329956</ele>
        <time>2012-08-19T07:48:38Z</time>
      </trkpt>
      <trkpt lat="43.98471" lon="7.26315">
        <ele>876.582947</ele>
        <time>2012-08-19T07:48:40Z</time>
      </trkpt>
      <trkpt lat="43.98476" lon="7.26309">
        <ele>876.949524</ele>
        <time>2012-08-19T07:48:43Z</time>
      </trkpt>
      <trkpt lat="43.98482" lon="7.26302">
        <ele>877.311646</ele>
        <time>2012-08-19T07:48:46Z</time>
      </trkpt>
      <trkpt lat="43.98486" lon="7.26298">
        <ele>877.514526</ele>
        <time>2012-08-19T07:48:48Z</time>
      </trkpt>
      <trkpt lat="43.9849" lon="7.26295">
        <ele>877.772888</ele>
        <time>2012-08-19T07:48:50Z</time>
      </trkpt>
      <trkpt lat="43.98497" lon="7.26293">
        <ele>878.191284</ele>
        <time>2012-08-19T07:48:53Z</time>
      </trkpt>
      <trkpt lat="43.985" lon="7.26293">
        <ele>878.519958</ele>
        <time>2012-08-19T07:48:55Z</time>
      </trkpt>
      <trkpt lat="43.98503" lon="7.26293">
        <ele>878.937866</ele>
        <time>2012-08-19T07:48:57Z</time>
      </trkpt>
      <trkpt lat="43.98505" lon="7.26292">
        <ele>879.388611</ele>
        <time>2012-08-19T07:49:00Z</time>
      </trkpt>
      <trkpt lat="43.98505" lon="7.26292">
        <ele>879.603455</ele>
        <time>2012-08-19T07:49:03Z</time>
      </trkpt>
      <trkpt lat="43.98506" lon="7.26286">
        <ele>880.271912</ele>
        <time>2012-08-19T07:49:06Z</time>
      </trkpt>
      <trkpt lat="43.98506" lon="7.26286">
        <ele>880.776184</ele>
        <time>2012-08-19T07:49:09Z</time>
      </trkpt>
      <trkpt lat="43.9851" lon="7.26285">
        <ele>881.087097</ele>
        <time>2012-08-19T07:49:12Z</time>
      </trkpt>
      <trkpt lat="43.98517" lon="7.26288">
        <ele>881.238708</ele>
        <time>2012-08-19T07:49:15Z</time>
      </trkpt>
      <trkpt lat="43.98523" lon="7.2629">
        <ele>881.281006</ele>
        <time>2012-08-19T07:49:17Z</time>
      </trkpt>
      <trkpt lat="43.98529" lon="7.26292">
        <ele>881.298462</ele>
        <time>2012-08-19T07:49:20Z</time>
      </trkpt>
      <trkpt lat="43.98533" lon="7.26295">
        <ele>881.291138</ele>
        <time>2012-08-19T07:49:23Z</time>
      </trkpt>
      <trkpt lat="43.98539" lon="7.26301">
        <ele>881.255615</ele>
        <time>2012-08-19T07:49:26Z</time>
      </trkpt>
      <trkpt lat="43.98543" lon="7.26306">
        <ele>881.197144</ele>
        <time>2012-08-19T07:49:29Z</time>
      </trkpt>
      <trkpt lat="43.98548" lon="7.26313">
        <ele>881.16156</ele>
        <time>2012-08-19T07:49:32Z</time>
      </trkpt>
      <trkpt lat="43.9855" lon="7.26321">
        <ele>881.145081</ele>
        <time>2012-08-19T07:49:34Z</time>
      </trkpt>
      <trkpt lat="43.98554" lon="7.2633">
        <ele>881.107422</ele>
        <time>2012-08-19T07:49:37Z</time>
      </trkpt>
      <trkpt lat="43.98556" lon="7.26336">
        <ele>881.080444</ele>
        <time>2012-08-19T07:49:39Z</time>
      </trkpt>
      <trkpt lat="43.98559" lon="7.26344">
        <ele>881.015686</ele>
        <time>2012-08-19T07:49:42Z</time>
      </trkpt>
      <trkpt lat="43.98562" lon="7.26347">
        <ele>880.963806</ele>
        <time>2012-08-19T07:49:44Z</time>
      </trkpt>
      <trkpt lat="43.98565" lon="7.26351">
        <ele>880.892639</ele>
        <time>2012-08-19T07:49:46Z</time>
      </trkpt>
      <trkpt lat="43.98567" lon="7.26354">
        <ele>880.829041</ele>
        <time>2012-08-19T07:49:48Z</time>
      </trkpt>
      <trkpt lat="43.9857" lon="7.2636">
        <ele>880.766174</ele>
        <time>2012-08-19T07:49:51Z</time>
      </trkpt>
      <trkpt lat="43.9857" lon="7.2636">
        <ele>880.759644</ele>
        <time>2012-08-19T07:49:53Z</time>
      </trkpt>
      <trkpt lat="43.9857" lon="7.2636">
        <ele>880.753662</ele>
        <time>2012-08-19T07:49:55Z</time>
      </trkpt>
      <trkpt lat="43.98574" lon="7.26364">
        <ele>880.74707</ele>
        <time>2012-08-19T07:49:57Z</time>
      </trkpt>
      <trkpt lat="43.98579" lon="7.26365">
        <ele>880.61969</ele>
        <time>2012-08-19T07:50:00Z</time>
      </trkpt>
      <trkpt lat="43.98584" lon="7.26367">
        <ele>880.512512</ele>
        <time>2012-08-19T07:50:02Z</time>
      </trkpt>
      <trkpt lat="43.98591" lon="7.26368">
        <ele>880.372437</ele>
        <time>2012-08-19T07:50:05Z</time>
      </trkpt>
      <trkpt lat="43.98595" lon="7.2637">
        <ele>880.318909</ele>
        <time>2012-08-19T07:50:07Z</time>
      </trkpt>
      <trkpt lat="43.98601" lon="7.2637">
        <ele>880.279114</ele>
        <time>2012-08-19T07:50:10Z</time>
      </trkpt>
      <trkpt lat="43.98605" lon="7.26368">
        <ele>880.220703</ele>
        <time>2012-08-19T07:50:12Z</time>
      </trkpt>
      <trkpt lat="43.98607" lon="7.26365">
        <ele>880.163635</ele>
        <time>2012-08-19T07:50:14Z</time>
      </trkpt>
      <trkpt lat="43.98608" lon="7.2636">
        <ele>880.17395</ele>
        <time>2012-08-19T07:50:16Z</time>
      </trkpt>
      <trkpt lat="43.98609" lon="7.26351">
        <ele>880.280212</ele>
        <time>2012-08-19T07:50:19Z</time>
      </trkpt>
      <trkpt lat="43.98611" lon="7.26338">
        <ele>880.764893</ele>
        <time>2012-08-19T07:50:21Z</time>
      </trkpt>
      <trkpt lat="43.98615" lon="7.26309">
        <ele>882.091309</ele>
        <time>2012-08-19T07:50:24Z</time>
      </trkpt>
      <trkpt lat="43.98615" lon="7.26291">
        <ele>883.511963</ele>
        <time>2012-08-19T07:50:27Z</time>
      </trkpt>
      <trkpt lat="43.98613" lon="7.26284">
        <ele>884.450684</ele>
        <time>2012-08-19T07:50:29Z</time>
      </trkpt>
      <trkpt lat="43.9861" lon="7.26275">
        <ele>885.721497</ele>
        <time>2012-08-19T07:50:32Z</time>
      </trkpt>
      <trkpt lat="43.98606" lon="7.26268">
        <ele>886.597656</ele>
        <time>2012-08-19T07:50:34Z</time>
      </trkpt>
      <trkpt lat="43.98602" lon="7.26263">
        <ele>887.522034</ele>
        <time>2012-08-19T07:50:36Z</time>
      </trkpt>
      <trkpt lat="43.98595" lon="7.26257">
        <ele>889.211243</ele>
        <time>2012-08-19T07:50:39Z</time>
      </trkpt>
      <trkpt lat="43.98593" lon="7.2625">
        <ele>890.986816</ele>
        <time>2012-08-19T07:50:42Z</time>
      </trkpt>
      <trkpt lat="43.98593" lon="7.26246">
        <ele>892.098511</ele>
        <time>2012-08-19T07:50:44Z</time>
      </trkpt>
      <trkpt lat="43.98594" lon="7.26239">
        <ele>893.747375</ele>
        <time>2012-08-19T07:50:47Z</time>
      </trkpt>
      <trkpt lat="43.98595" lon="7.26235">
        <ele>894.690247</ele>
        <time>2012-08-19T07:50:49Z</time>
      </trkpt>
      <trkpt lat="43.98595" lon="7.2623">
        <ele>895.934692</ele>
        <time>2012-08-19T07:50:52Z</time>
      </trkpt>
      <trkpt lat="43.98594" lon="7.26223">
        <ele>897.05365</ele>
        <time>2012-08-19T07:50:55Z</time>
      </trkpt>
      <trkpt lat="43.98593" lon="7.26219">
        <ele>897.770386</ele>
        <time>2012-08-19T07:50:57Z</time>
      </trkpt>
      <trkpt lat="43.98592" lon="7.26214">
        <ele>898.285034</ele>
        <time>2012-08-19T07:50:59Z</time>
      </trkpt>
      <trkpt lat="43.9859" lon="7.26208">
        <ele>898.929504</ele>
        <time>2012-08-19T07:51:02Z</time>
      </trkpt>
      <trkpt lat="43.98588" lon="7.26203">
        <ele>899.261475</ele>
        <time>2012-08-19T07:51:04Z</time>
      </trkpt>
      <trkpt lat="43.98585" lon="7.26196">
        <ele>899.806519</ele>
        <time>2012-08-19T07:51:07Z</time>
      </trkpt>
      <trkpt lat="43.98583" lon="7.26191">
        <ele>900.230408</ele>
        <time>2012-08-19T07:51:09Z</time>
      </trkpt>
      <trkpt lat="43.9858" lon="7.26186">
        <ele>900.681885</ele>
        <time>2012-08-19T07:51:11Z</time>
      </trkpt>
      <trkpt lat="43.98578" lon="7.2618">
        <ele>901.318359</ele>
        <time>2012-08-19T07:51:13Z</time>
      </trkpt>
      <trkpt lat="43.98578" lon="7.26172">
        <ele>902.004883</ele>
        <time>2012-08-19T07:51:15Z</time>
      </trkpt>
      <trkpt lat="43.98579" lon="7.26163">
        <ele>902.917419</ele>
        <time>2012-08-19T07:51:18Z</time>
      </trkpt>
      <trkpt lat="43.98583" lon="7.26161">
        <ele>903.991272</ele>
        <time>2012-08-19T07:51:21Z</time>
      </trkpt>
      <trkpt lat="43.98587" lon="7.2616">
        <ele>904.765686</ele>
        <time>2012-08-19T07:51:24Z</time>
      </trkpt>
      <trkpt lat="43.9859" lon="7.2616">
        <ele>905.069031</ele>
        <time>2012-08-19T07:51:26Z</time>
      </trkpt>
      <trkpt lat="43.98595" lon="7.26159">
        <ele>905.265625</ele>
        <time>2012-08-19T07:51:28Z</time>
      </trkpt>
      <trkpt lat="43.98603" lon="7.26156">
        <ele>905.434387</ele>
        <time>2012-08-19T07:51:31Z</time>
      </trkpt>
      <trkpt lat="43.98612" lon="7.26153">
        <ele>905.490234</ele>
        <time>2012-08-19T07:51:34Z</time>
      </trkpt>
      <trkpt lat="43.98618" lon="7.2615">
        <ele>905.487122</ele>
        <time>2012-08-19T07:51:36Z</time>
      </trkpt>
      <trkpt lat="43.98625" lon="7.26145">
        <ele>905.422729</ele>
        <time>2012-08-19T07:51:39Z</time>
      </trkpt>
      <trkpt lat="43.98629" lon="7.26142">
        <ele>905.304077</ele>
        <time>2012-08-19T07:51:42Z</time>
      </trkpt>
      <trkpt lat="43.98631" lon="7.26138">
        <ele>905.211792</ele>
        <time>2012-08-19T07:51:44Z</time>
      </trkpt>
      <trkpt lat="43.98633" lon="7.26129">
        <ele>905.045837</ele>
        <time>2012-08-19T07:51:47Z</time>
      </trkpt>
      <trkpt lat="43.98635" lon="7.26123">
        <ele>904.897339</ele>
        <time>2012-08-19T07:51:49Z</time>
      </trkpt>
      <trkpt lat="43.98637" lon="7.26117">
        <ele>904.752869</ele>
        <time>2012-08-19T07:51:51Z</time>
      </trkpt>
      <trkpt lat="43.9864" lon="7.26111">
        <ele>904.612</ele>
        <time>2012-08-19T07:51:53Z</time>
      </trkpt>
      <trkpt lat="43.98645" lon="7.26103">
        <ele>904.410156</ele>
        <time>2012-08-19T07:51:56Z</time>
      </trkpt>
      <trkpt lat="43.9865" lon="7.26096">
        <ele>904.273376</ele>
        <time>2012-08-19T07:51:58Z</time>
      </trkpt>
      <trkpt lat="43.98656" lon="7.2609">
        <ele>904.129089</ele>
        <time>2012-08-19T07:52:00Z</time>
      </trkpt>
      <trkpt lat="43.98665" lon="7.26077">
        <ele>903.943848</ele>
        <time>2012-08-19T07:52:03Z</time>
      </trkpt>
      <trkpt lat="43.98668" lon="7.2607">
        <ele>903.775757</ele>
        <time>2012-08-19T07:52:06Z</time>
      </trkpt>
      <trkpt lat="43.9867" lon="7.26064">
        <ele>903.66748</ele>
        <time>2012-08-19T07:52:08Z</time>
      </trkpt>
      <trkpt lat="43.98671" lon="7.26053">
        <ele>903.500488</ele>
        <time>2012-08-19T07:52:11Z</time>
      </trkpt>
      <trkpt lat="43.98673" lon="7.26045">
        <ele>903.397278</ele>
        <time>2012-08-19T07:52:13Z</time>
      </trkpt>
      <trkpt lat="43.98675" lon="7.26036">
        <ele>903.300598</ele>
        <time>2012-08-19T07:52:15Z</time>
      </trkpt>
      <trkpt lat="43.98678" lon="7.26025">
        <ele>903.177856</ele>
        <time>2012-08-19T07:52:18Z</time>
      </trkpt>
      <trkpt lat="43.98681" lon="7.26018">
        <ele>903.094788</ele>
        <time>2012-08-19T07:52:20Z</time>
      </trkpt>
      <trkpt lat="43.98685" lon="7.26012">
        <ele>903.009033</ele>
        <time>2012-08-19T07:52:22Z</time>
      </trkpt>
      <trkpt lat="43.98688" lon="7.26008">
        <ele>902.916321</ele>
        <time>2012-08-19T07:52:24Z</time>
      </trkpt>
      <trkpt lat="43.98695" lon="7.26002">
        <ele>902.813965</ele>
        <time>2012-08-19T07:52:27Z</time>
      </trkpt>
      <trkpt lat="43.98699" lon="7.25994">
        <ele>902.737427</ele>
        <time>2012-08-19T07:52:30Z</time>
      </trkpt>
      <trkpt lat="43.98704" lon="7.2599">
        <ele>902.712646</ele>
        <time>2012-08-19T07:52:33Z</time>
      </trkpt>
      <trkpt lat="43.98708" lon="7.25986">
        <ele>902.721497</ele>
        <time>2012-08-19T07:52:36Z</time>
      </trkpt>
      <trkpt lat="43.98711" lon="7.25983">
        <ele>902.722717</ele>
        <time>2012-08-19T07:52:38Z</time>
      </trkpt>
      <trkpt lat="43.98713" lon="7.25979">
        <ele>902.718079</ele>
        <time>2012-08-19T07:52:40Z</time>
      </trkpt>
      <trkpt lat="43.98716" lon="7.25973">
        <ele>902.741699</ele>
        <time>2012-08-19T07:52:43Z</time>
      </trkpt>
      <trkpt lat="43.98718" lon="7.25971">
        <ele>902.766663</ele>
        <time>2012-08-19T07:52:45Z</time>
      </trkpt>
      <trkpt lat="43.98719" lon="7.25968">
        <ele>902.787903</ele>
        <time>2012-08-19T07:52:47Z</time>
      </trkpt>
      <trkpt lat="43.98721" lon="7.25965">
        <ele>902.797363</ele>
        <time>2012-08-19T07:52:49Z</time>
      </trkpt>
      <trkpt lat="43.98723" lon="7.25963">
        <ele>902.795593</ele>
        <time>2012-08-19T07:52:51Z</time>
      </trkpt>
      <trkpt lat="43.98725" lon="7.25961">
        <ele>902.765808</ele>
        <time>2012-08-19T07:52:54Z</time>
      </trkpt>
      <trkpt lat="43.98729" lon="7.25959">
        <ele>902.71637</ele>
        <time>2012-08-19T07:52:57Z</time>
      </trkpt>
      <trkpt lat="43.98732" lon="7.25959">
        <ele>902.644226</ele>
        <time>2012-08-19T07:53:00Z</time>
      </trkpt>
      <trkpt lat="43.98735" lon="7.25961">
        <ele>902.542847</ele>
        <time>2012-08-19T07:53:03Z</time>
      </trkpt>
      <trkpt lat="43.98738" lon="7.2596">
        <ele>902.418091</ele>
        <time>2012-08-19T07:53:06Z</time>
      </trkpt>
      <trkpt lat="43.98741" lon="7.25959">
        <ele>902.269836</ele>
        <time>2012-08-19T07:53:09Z</time>
      </trkpt>
      <trkpt lat="43.98744" lon="7.25957">
        <ele>902.122009</ele>
        <time>2012-08-19T07:53:12Z</time>
      </trkpt>
      <trkpt lat="43.98745" lon="7.25957">
        <ele>902.030457</ele>
        <time>2012-08-19T07:53:14Z</time>
      </trkpt>
      <trkpt lat="43.98748" lon="7.25957">
        <ele>901.927795</ele>
        <time>2012-08-19T07:53:16Z</time>
      </trkpt>
      <trkpt lat="43.98751" lon="7.25959">
        <ele>901.764343</ele>
        <time>2012-08-19T07:53:19Z</time>
      </trkpt>
      <trkpt lat="43.98755" lon="7.2596">
        <ele>901.59314</ele>
        <time>2012-08-19T07:53:22Z</time>
      </trkpt>
      <trkpt lat="43.98756" lon="7.25962">
        <ele>901.530151</ele>
        <time>2012-08-19T07:53:24Z</time>
      </trkpt>
      <trkpt lat="43.98756" lon="7.25962">
        <ele>901.519348</ele>
        <time>2012-08-19T07:53:26Z</time>
      </trkpt>
      <trkpt lat="43.98766" lon="7.25975">
        <ele>901.420837</ele>
        <time>2012-08-19T07:53:29Z</time>
      </trkpt>
      <trkpt lat="43.9877" lon="7.25982">
        <ele>901.259888</ele>
        <time>2012-08-19T07:53:31Z</time>
      </trkpt>
      <trkpt lat="43.98775" lon="7.2599">
        <ele>901.099182</ele>
        <time>2012-08-19T07:53:34Z</time>
      </trkpt>
      <trkpt lat="43.98778" lon="7.25995">
        <ele>901.002747</ele>
        <time>2012-08-19T07:53:37Z</time>
      </trkpt>
      <trkpt lat="43.98778" lon="7.25995">
        <ele>900.804443</ele>
        <time>2012-08-19T07:53:39Z</time>
      </trkpt>
      <trkpt lat="43.9878" lon="7.26001">
        <ele>900.613892</ele>
        <time>2012-08-19T07:53:41Z</time>
      </trkpt>
      <trkpt lat="43.9878" lon="7.26001">
        <ele>900.431335</ele>
        <time>2012-08-19T07:53:43Z</time>
      </trkpt>
      <trkpt lat="43.98782" lon="7.26006">
        <ele>900.150757</ele>
        <time>2012-08-19T07:53:46Z</time>
      </trkpt>
      <trkpt lat="43.98783" lon="7.26009">
        <ele>899.958923</ele>
        <time>2012-08-19T07:53:48Z</time>
      </trkpt>
      <trkpt lat="43.98784" lon="7.26011">
        <ele>899.679565</ele>
        <time>2012-08-19T07:53:51Z</time>
      </trkpt>
      <trkpt lat="43.98784" lon="7.26012">
        <ele>899.505432</ele>
        <time>2012-08-19T07:53:53Z</time>
      </trkpt>
      <trkpt lat="43.98785" lon="7.26015">
        <ele>899.249878</ele>
        <time>2012-08-19T07:53:56Z</time>
      </trkpt>
      <trkpt lat="43.98786" lon="7.26017">
        <ele>899.09906</ele>
        <time>2012-08-19T07:53:58Z</time>
      </trkpt>
      <trkpt lat="43.98786" lon="7.26018">
        <ele>899.016785</ele>
        <time>2012-08-19T07:54:00Z</time>
      </trkpt>
      <trkpt lat="43.98786" lon="7.26018">
        <ele>898.994568</ele>
        <time>2012-08-19T07:54:03Z</time>
      </trkpt>
      <trkpt lat="43.9879" lon="7.26021">
        <ele>898.761902</ele>
        <time>2012-08-19T07:54:06Z</time>
      </trkpt>
      <trkpt lat="43.98792" lon="7.26024">
        <ele>898.540283</ele>
        <time>2012-08-19T07:54:09Z</time>
      </trkpt>
      <trkpt lat="43.98792" lon="7.26024">
        <ele>898.526428</ele>
        <time>2012-08-19T07:54:11Z</time>
      </trkpt>
      <trkpt lat="43.98792" lon="7.26024">
        <ele>898.374573</ele>
        <time>2012-08-19T07:54:14Z</time>
      </trkpt>
      <trkpt lat="43.98796" lon="7.26027">
        <ele>898.212036</ele>
        <time>2012-08-19T07:54:16Z</time>
      </trkpt>
      <trkpt lat="43.98799" lon="7.26031">
        <ele>897.925232</ele>
        <time>2012-08-19T07:54:19Z</time>
      </trkpt>
      <trkpt lat="43.988" lon="7.26034">
        <ele>897.661804</ele>
        <time>2012-08-19T07:54:22Z</time>
      </trkpt>
      <trkpt lat="43.98803" lon="7.26039">
        <ele>897.63501</ele>
        <time>2012-08-19T07:54:24Z</time>
      </trkpt>
      <trkpt lat="43.98803" lon="7.26039">
        <ele>897.609253</ele>
        <time>2012-08-19T07:54:26Z</time>
      </trkpt>
      <trkpt lat="43.98806" lon="7.26043">
        <ele>897.236328</ele>
        <time>2012-08-19T07:54:29Z</time>
      </trkpt>
      <trkpt lat="43.9881" lon="7.26047">
        <ele>897.004028</ele>
        <time>2012-08-19T07:54:31Z</time>
      </trkpt>
      <trkpt lat="43.98815" lon="7.26054">
        <ele>896.68866</ele>
        <time>2012-08-19T07:54:34Z</time>
      </trkpt>
      <trkpt lat="43.98818" lon="7.26057">
        <ele>896.503479</ele>
        <time>2012-08-19T07:54:36Z</time>
      </trkpt>
      <trkpt lat="43.9882" lon="7.26061">
        <ele>896.341675</ele>
        <time>2012-08-19T07:54:38Z</time>
      </trkpt>
      <trkpt lat="43.98827" lon="7.26073">
        <ele>896.117554</ele>
        <time>2012-08-19T07:54:41Z</time>
      </trkpt>
      <trkpt lat="43.98839" lon="7.26086">
        <ele>895.891541</ele>
        <time>2012-08-19T07:54:44Z</time>
      </trkpt>
      <trkpt lat="43.98847" lon="7.26097">
        <ele>895.872314</ele>
        <time>2012-08-19T07:54:47Z</time>
      </trkpt>
      <trkpt lat="43.9885" lon="7.26104">
        <ele>895.767456</ele>
        <time>2012-08-19T07:54:49Z</time>
      </trkpt>
      <trkpt lat="43.98854" lon="7.26109">
        <ele>895.676331</ele>
        <time>2012-08-19T07:54:52Z</time>
      </trkpt>
      <trkpt lat="43.98858" lon="7.26116">
        <ele>895.668518</ele>
        <time>2012-08-19T07:54:54Z</time>
      </trkpt>
      <trkpt lat="43.98858" lon="7.26116">
        <ele>895.628662</ele>
        <time>2012-08-19T07:54:56Z</time>
      </trkpt>
      <trkpt lat="43.98861" lon="7.2612">
        <ele>895.525513</ele>
        <time>2012-08-19T07:54:59Z</time>
      </trkpt>
      <trkpt lat="43.98865" lon="7.26125">
        <ele>895.519653</ele>
        <time>2012-08-19T07:55:01Z</time>
      </trkpt>
      <trkpt lat="43.98865" lon="7.26125">
        <ele>895.471558</ele>
        <time>2012-08-19T07:55:04Z</time>
      </trkpt>
      <trkpt lat="43.9887" lon="7.26128">
        <ele>895.450073</ele>
        <time>2012-08-19T07:55:06Z</time>
      </trkpt>
      <trkpt lat="43.98875" lon="7.26129">
        <ele>895.455078</ele>
        <time>2012-08-19T07:55:09Z</time>
      </trkpt>
      <trkpt lat="43.98882" lon="7.26128">
        <ele>895.543945</ele>
        <time>2012-08-19T07:55:12Z</time>
      </trkpt>
      <trkpt lat="43.98887" lon="7.26128">
        <ele>895.656494</ele>
        <time>2012-08-19T07:55:14Z</time>
      </trkpt>
      <trkpt lat="43.98894" lon="7.26131">
        <ele>895.857361</ele>
        <time>2012-08-19T07:55:17Z</time>
      </trkpt>
      <trkpt lat="43.98901" lon="7.26135">
        <ele>896.065125</ele>
        <time>2012-08-19T07:55:20Z</time>
      </trkpt>
      <trkpt lat="43.98906" lon="7.26134">
        <ele>896.256897</ele>
        <time>2012-08-19T07:55:23Z</time>
      </trkpt>
      <trkpt lat="43.9891" lon="7.26134">
        <ele>896.36908</ele>
        <time>2012-08-19T07:55:25Z</time>
      </trkpt>
      <trkpt lat="43.98913" lon="7.26133">
        <ele>896.474487</ele>
        <time>2012-08-19T07:55:27Z</time>
      </trkpt>
      <trkpt lat="43.98916" lon="7.26133">
        <ele>896.561279</ele>
        <time>2012-08-19T07:55:29Z</time>
      </trkpt>
      <trkpt lat="43.98919" lon="7.26134">
        <ele>896.683289</ele>
        <time>2012-08-19T07:55:32Z</time>
      </trkpt>
      <trkpt lat="43.98923" lon="7.2614">
        <ele>896.737976</ele>
        <time>2012-08-19T07:55:34Z</time>
      </trkpt>
      <trkpt lat="43.98928" lon="7.26144">
        <ele>896.760925</ele>
        <time>2012-08-19T07:55:36Z</time>
      </trkpt>
      <trkpt lat="43.98935" lon="7.26147">
        <ele>896.771729</ele>
        <time>2012-08-19T07:55:39Z</time>
      </trkpt>
      <trkpt lat="43.98942" lon="7.26145">
        <ele>896.827393</ele>
        <time>2012-08-19T07:55:42Z</time>
      </trkpt>
      <trkpt lat="43.98945" lon="7.26143">
        <ele>896.85907</ele>
        <time>2012-08-19T07:55:44Z</time>
      </trkpt>
      <trkpt lat="43.98949" lon="7.26142">
        <ele>896.879883</ele>
        <time>2012-08-19T07:55:46Z</time>
      </trkpt>
      <trkpt lat="43.98952" lon="7.26141">
        <ele>896.870605</ele>
        <time>2012-08-19T07:55:48Z</time>
      </trkpt>
      <trkpt lat="43.98952" lon="7.26141">
        <ele>896.865784</ele>
        <time>2012-08-19T07:55:50Z</time>
      </trkpt>
      <trkpt lat="43.98957" lon="7.26144">
        <ele>896.858765</ele>
        <time>2012-08-19T07:55:53Z</time>
      </trkpt>
      <trkpt lat="43.98957" lon="7.26144">
        <ele>896.837891</ele>
        <time>2012-08-19T07:55:56Z</time>
      </trkpt>
      <trkpt lat="43.9896" lon="7.26145">
        <ele>896.820557</ele>
        <time>2012-08-19T07:55:59Z</time>
      </trkpt>
      <trkpt lat="43.98961" lon="7.26146">
        <ele>896.85907</ele>
        <time>2012-08-19T07:56:01Z</time>
      </trkpt>
      <trkpt lat="43.98963" lon="7.26147">
        <ele>896.906677</ele>
        <time>2012-08-19T07:56:03Z</time>
      </trkpt>
      <trkpt lat="43.98963" lon="7.26147">
        <ele>896.945801</ele>
        <time>2012-08-19T07:56:06Z</time>
      </trkpt>
      <trkpt lat="43.98963" lon="7.26147">
        <ele>896.918274</ele>
        <time>2012-08-19T07:56:09Z</time>
      </trkpt>
      <trkpt lat="43.98968" lon="7.26149">
        <ele>896.847168</ele>
        <time>2012-08-19T07:56:11Z</time>
      </trkpt>
      <trkpt lat="43.98972" lon="7.26147">
        <ele>896.742676</ele>
        <time>2012-08-19T07:56:13Z</time>
      </trkpt>
      <trkpt lat="43.98976" lon="7.26147">
        <ele>896.585388</ele>
        <time>2012-08-19T07:56:16Z</time>
      </trkpt>
      <trkpt lat="43.98977" lon="7.26149">
        <ele>896.542297</ele>
        <time>2012-08-19T07:56:18Z</time>
      </trkpt>
      <trkpt lat="43.98979" lon="7.26151">
        <ele>896.474487</ele>
        <time>2012-08-19T07:56:21Z</time>
      </trkpt>
      <trkpt lat="43.98982" lon="7.26152">
        <ele>896.427979</ele>
        <time>2012-08-19T07:56:24Z</time>
      </trkpt>
      <trkpt lat="43.98984" lon="7.26155">
        <ele>896.440552</ele>
        <time>2012-08-19T07:56:26Z</time>
      </trkpt>
      <trkpt lat="43.98987" lon="7.26159">
        <ele>896.358643</ele>
        <time>2012-08-19T07:56:29Z</time>
      </trkpt>
      <trkpt lat="43.98991" lon="7.26163">
        <ele>896.355957</ele>
        <time>2012-08-19T07:56:31Z</time>
      </trkpt>
      <trkpt lat="43.98994" lon="7.26164">
        <ele>896.343384</ele>
        <time>2012-08-19T07:56:34Z</time>
      </trkpt>
      <trkpt lat="43.98998" lon="7.26171">
        <ele>896.166687</ele>
        <time>2012-08-19T07:56:37Z</time>
      </trkpt>
      <trkpt lat="43.99" lon="7.26174">
        <ele>896.046448</ele>
        <time>2012-08-19T07:56:39Z</time>
      </trkpt>
      <trkpt lat="43.99001" lon="7.26175">
        <ele>895.831848</ele>
        <time>2012-08-19T07:56:42Z</time>
      </trkpt>
      <trkpt lat="43.99002" lon="7.26175">
        <ele>895.744019</ele>
        <time>2012-08-19T07:56:44Z</time>
      </trkpt>
      <trkpt lat="43.99004" lon="7.26172">
        <ele>895.690979</ele>
        <time>2012-08-19T07:56:46Z</time>
      </trkpt>
      <trkpt lat="43.99006" lon="7.26162">
        <ele>895.635498</ele>
        <time>2012-08-19T07:56:49Z</time>
      </trkpt>
      <trkpt lat="43.99009" lon="7.26154">
        <ele>895.607178</ele>
        <time>2012-08-19T07:56:51Z</time>
      </trkpt>
      <trkpt lat="43.99015" lon="7.26141">
        <ele>895.773987</ele>
        <time>2012-08-19T07:56:54Z</time>
      </trkpt>
      <trkpt lat="43.9902" lon="7.26128">
        <ele>896.561523</ele>
        <time>2012-08-19T07:56:57Z</time>
      </trkpt>
      <trkpt lat="43.99026" lon="7.26119">
        <ele>897.531921</ele>
        <time>2012-08-19T07:56:59Z</time>
      </trkpt>
      <trkpt lat="43.99031" lon="7.26108">
        <ele>898.580994</ele>
        <time>2012-08-19T07:57:01Z</time>
      </trkpt>
      <trkpt lat="43.99035" lon="7.26092">
        <ele>900.341553</ele>
        <time>2012-08-19T07:57:04Z</time>
      </trkpt>
      <trkpt lat="43.99036" lon="7.26074">
        <ele>902.425659</ele>
        <time>2012-08-19T07:57:07Z</time>
      </trkpt>
      <trkpt lat="43.99037" lon="7.26057">
        <ele>904.392273</ele>
        <time>2012-08-19T07:57:09Z</time>
      </trkpt>
      <trkpt lat="43.99036" lon="7.26035">
        <ele>907.677795</ele>
        <time>2012-08-19T07:57:12Z</time>
      </trkpt>
      <trkpt lat="43.99034" lon="7.26024">
        <ele>909.783447</ele>
        <time>2012-08-19T07:57:14Z</time>
      </trkpt>
      <trkpt lat="43.99033" lon="7.26014">
        <ele>911.839478</ele>
        <time>2012-08-19T07:57:16Z</time>
      </trkpt>
      <trkpt lat="43.99032" lon="7.26006">
        <ele>913.769287</ele>
        <time>2012-08-19T07:57:18Z</time>
      </trkpt>
      <trkpt lat="43.99031" lon="7.25999">
        <ele>916.448914</ele>
        <time>2012-08-19T07:57:21Z</time>
      </trkpt>
      <trkpt lat="43.99032" lon="7.25995">
        <ele>918.0755</ele>
        <time>2012-08-19T07:57:23Z</time>
      </trkpt>
      <trkpt lat="43.99034" lon="7.25991">
        <ele>920.266113</ele>
        <time>2012-08-19T07:57:26Z</time>
      </trkpt>
      <trkpt lat="43.99036" lon="7.25987">
        <ele>922.196411</ele>
        <time>2012-08-19T07:57:29Z</time>
      </trkpt>
      <trkpt lat="43.99036" lon="7.25983">
        <ele>923.922668</ele>
        <time>2012-08-19T07:57:32Z</time>
      </trkpt>
      <trkpt lat="43.99037" lon="7.2598">
        <ele>925.006714</ele>
        <time>2012-08-19T07:57:34Z</time>
      </trkpt>
      <trkpt lat="43.99037" lon="7.25977">
        <ele>926.002319</ele>
        <time>2012-08-19T07:57:36Z</time>
      </trkpt>
      <trkpt lat="43.99037" lon="7.25972">
        <ele>927.422729</ele>
        <time>2012-08-19T07:57:39Z</time>
      </trkpt>
      <trkpt lat="43.99037" lon="7.25969">
        <ele>928.200623</ele>
        <time>2012-08-19T07:57:41Z</time>
      </trkpt>
      <trkpt lat="43.9904" lon="7.25963">
        <ele>929.060181</ele>
        <time>2012-08-19T07:57:44Z</time>
      </trkpt>
      <trkpt lat="43.99044" lon="7.2596">
        <ele>929.551331</ele>
        <time>2012-08-19T07:57:46Z</time>
      </trkpt>
      <trkpt lat="43.99047" lon="7.25955">
        <ele>930.014038</ele>
        <time>2012-08-19T07:57:48Z</time>
      </trkpt>
      <trkpt lat="43.99051" lon="7.25948">
        <ele>930.67511</ele>
        <time>2012-08-19T07:57:51Z</time>
      </trkpt>
      <trkpt lat="43.99054" lon="7.25942">
        <ele>931.315125</ele>
        <time>2012-08-19T07:57:54Z</time>
      </trkpt>
      <trkpt lat="43.99055" lon="7.25937">
        <ele>931.858154</ele>
        <time>2012-08-19T07:57:57Z</time>
      </trkpt>
      <trkpt lat="43.99056" lon="7.25933">
        <ele>932.316528</ele>
        <time>2012-08-19T07:58:00Z</time>
      </trkpt>
      <trkpt lat="43.99056" lon="7.25929">
        <ele>932.71875</ele>
        <time>2012-08-19T07:58:03Z</time>
      </trkpt>
      <trkpt lat="43.99055" lon="7.25924">
        <ele>933.171814</ele>
        <time>2012-08-19T07:58:06Z</time>
      </trkpt>
      <trkpt lat="43.99055" lon="7.25917">
        <ele>933.630371</ele>
        <time>2012-08-19T07:58:09Z</time>
      </trkpt>
      <trkpt lat="43.99055" lon="7.25912">
        <ele>934.005737</ele>
        <time>2012-08-19T07:58:11Z</time>
      </trkpt>
      <trkpt lat="43.99055" lon="7.25904">
        <ele>934.594604</ele>
        <time>2012-08-19T07:58:14Z</time>
      </trkpt>
      <trkpt lat="43.99054" lon="7.259">
        <ele>935.000549</ele>
        <time>2012-08-19T07:58:16Z</time>
      </trkpt>
      <trkpt lat="43.99053" lon="7.25895">
        <ele>935.427673</ele>
        <time>2012-08-19T07:58:18Z</time>
      </trkpt>
      <trkpt lat="43.99052" lon="7.25891">
        <ele>935.907837</ele>
        <time>2012-08-19T07:58:20Z</time>
      </trkpt>
      <trkpt lat="43.99051" lon="7.25884">
        <ele>936.689392</ele>
        <time>2012-08-19T07:58:23Z</time>
      </trkpt>
      <trkpt lat="43.99052" lon="7.25876">
        <ele>937.499146</ele>
        <time>2012-08-19T07:58:26Z</time>
      </trkpt>
      <trkpt lat="43.99052" lon="7.25871">
        <ele>938.090515</ele>
        <time>2012-08-19T07:58:28Z</time>
      </trkpt>
      <trkpt lat="43.99052" lon="7.25866">
        <ele>938.732117</ele>
        <time>2012-08-19T07:58:30Z</time>
      </trkpt>
      <trkpt lat="43.99053" lon="7.2586">
        <ele>939.694092</ele>
        <time>2012-08-19T07:58:33Z</time>
      </trkpt>
      <trkpt lat="43.99054" lon="7.25855">
        <ele>940.588684</ele>
        <time>2012-08-19T07:58:36Z</time>
      </trkpt>
      <trkpt lat="43.99055" lon="7.25852">
        <ele>941.156372</ele>
        <time>2012-08-19T07:58:38Z</time>
      </trkpt>
      <trkpt lat="43.99056" lon="7.25847">
        <ele>942.034058</ele>
        <time>2012-08-19T07:58:41Z</time>
      </trkpt>
      <trkpt lat="43.99056" lon="7.25844">
        <ele>942.593384</ele>
        <time>2012-08-19T07:58:43Z</time>
      </trkpt>
      <trkpt lat="43.99058" lon="7.25841">
        <ele>943.369141</ele>
        <time>2012-08-19T07:58:46Z</time>
      </trkpt>
      <trkpt lat="43.99058" lon="7.25837">
        <ele>943.875732</ele>
        <time>2012-08-19T07:58:48Z</time>
      </trkpt>
      <trkpt lat="43.99057" lon="7.25832">
        <ele>944.608948</ele>
        <time>2012-08-19T07:58:51Z</time>
      </trkpt>
      <trkpt lat="43.99056" lon="7.25829">
        <ele>945.067078</ele>
        <time>2012-08-19T07:58:53Z</time>
      </trkpt>
      <trkpt lat="43.99056" lon="7.25827">
        <ele>945.525696</ele>
        <time>2012-08-19T07:58:55Z</time>
      </trkpt>
      <trkpt lat="43.99055" lon="7.25822">
        <ele>946.388672</ele>
        <time>2012-08-19T07:58:58Z</time>
      </trkpt>
      <trkpt lat="43.99055" lon="7.25819">
        <ele>946.898621</ele>
        <time>2012-08-19T07:59:00Z</time>
      </trkpt>
      <trkpt lat="43.99054" lon="7.25815">
        <ele>947.528076</ele>
        <time>2012-08-19T07:59:03Z</time>
      </trkpt>
      <trkpt lat="43.99053" lon="7.25809">
        <ele>947.967834</ele>
        <time>2012-08-19T07:59:06Z</time>
      </trkpt>
      <trkpt lat="43.99053" lon="7.25804">
        <ele>948.269531</ele>
        <time>2012-08-19T07:59:09Z</time>
      </trkpt>
      <trkpt lat="43.99052" lon="7.25801">
        <ele>948.423584</ele>
        <time>2012-08-19T07:59:11Z</time>
      </trkpt>
      <trkpt lat="43.99053" lon="7.25796">
        <ele>948.551758</ele>
        <time>2012-08-19T07:59:14Z</time>
      </trkpt>
      <trkpt lat="43.99055" lon="7.25794">
        <ele>948.598877</ele>
        <time>2012-08-19T07:59:16Z</time>
      </trkpt>
      <trkpt lat="43.99056" lon="7.25792">
        <ele>948.67511</ele>
        <time>2012-08-19T07:59:18Z</time>
      </trkpt>
      <trkpt lat="43.99056" lon="7.25792">
        <ele>948.726685</ele>
        <time>2012-08-19T07:59:20Z</time>
      </trkpt>
      <trkpt lat="43.99056" lon="7.25788">
        <ele>949.060974</ele>
        <time>2012-08-19T07:59:23Z</time>
      </trkpt>
      <trkpt lat="43.99056" lon="7.25786">
        <ele>949.343567</ele>
        <time>2012-08-19T07:59:25Z</time>
      </trkpt>
      <trkpt lat="43.99054" lon="7.25783">
        <ele>950.026367</ele>
        <time>2012-08-19T07:59:28Z</time>
      </trkpt>
      <trkpt lat="43.99054" lon="7.2578">
        <ele>950.511353</ele>
        <time>2012-08-19T07:59:30Z</time>
      </trkpt>
      <trkpt lat="43.99053" lon="7.25774">
        <ele>951.215576</ele>
        <time>2012-08-19T07:59:33Z</time>
      </trkpt>
      <trkpt lat="43.99054" lon="7.2577">
        <ele>951.680054</ele>
        <time>2012-08-19T07:59:35Z</time>
      </trkpt>
      <trkpt lat="43.99053" lon="7.25763">
        <ele>952.348999</ele>
        <time>2012-08-19T07:59:38Z</time>
      </trkpt>
      <trkpt lat="43.99053" lon="7.25758">
        <ele>952.778076</ele>
        <time>2012-08-19T07:59:40Z</time>
      </trkpt>
      <trkpt lat="43.99052" lon="7.25752">
        <ele>953.417725</ele>
        <time>2012-08-19T07:59:43Z</time>
      </trkpt>
      <trkpt lat="43.99052" lon="7.25746">
        <ele>953.942322</ele>
        <time>2012-08-19T07:59:46Z</time>
      </trkpt>
      <trkpt lat="43.99051" lon="7.25743">
        <ele>954.24353</ele>
        <time>2012-08-19T07:59:48Z</time>
      </trkpt>
      <trkpt lat="43.99051" lon="7.25739">
        <ele>954.741272</ele>
        <time>2012-08-19T07:59:51Z</time>
      </trkpt>
      <trkpt lat="43.99051" lon="7.25736">
        <ele>955.038269</ele>
        <time>2012-08-19T07:59:53Z</time>
      </trkpt>
      <trkpt lat="43.9905" lon="7.25732">
        <ele>955.445801</ele>
        <time>2012-08-19T07:59:56Z</time>
      </trkpt>
      <trkpt lat="43.9905" lon="7.25729">
        <ele>955.674072</ele>
        <time>2012-08-19T07:59:58Z</time>
      </trkpt>
      <trkpt lat="43.99051" lon="7.25726">
        <ele>955.897705</ele>
        <time>2012-08-19T08:00:00Z</time>
      </trkpt>
      <trkpt lat="43.99051" lon="7.25726">
        <ele>955.925354</ele>
        <time>2012-08-19T08:00:03Z</time>
      </trkpt>
      <trkpt lat="43.99051" lon="7.25726">
        <ele>956.142212</ele>
        <time>2012-08-19T08:00:05Z</time>
      </trkpt>
      <trkpt lat="43.99053" lon="7.25719">
        <ele>956.429565</ele>
        <time>2012-08-19T08:00:07Z</time>
      </trkpt>
      <trkpt lat="43.99054" lon="7.25714">
        <ele>957.121094</ele>
        <time>2012-08-19T08:00:10Z</time>
      </trkpt>
      <trkpt lat="43.99055" lon="7.25709">
        <ele>957.778931</ele>
        <time>2012-08-19T08:00:13Z</time>
      </trkpt>
      <trkpt lat="43.99058" lon="7.25704">
        <ele>958.392395</ele>
        <time>2012-08-19T08:00:16Z</time>
      </trkpt>
      <trkpt lat="43.99061" lon="7.25699">
        <ele>958.934387</ele>
        <time>2012-08-19T08:00:19Z</time>
      </trkpt>
      <trkpt lat="43.99063" lon="7.25696">
        <ele>959.21991</ele>
        <time>2012-08-19T08:00:21Z</time>
      </trkpt>
      <trkpt lat="43.99065" lon="7.25691">
        <ele>959.579163</ele>
        <time>2012-08-19T08:00:24Z</time>
      </trkpt>
      <trkpt lat="43.99068" lon="7.25685">
        <ele>959.842041</ele>
        <time>2012-08-19T08:00:27Z</time>
      </trkpt>
      <trkpt lat="43.9907" lon="7.25682">
        <ele>959.953857</ele>
        <time>2012-08-19T08:00:29Z</time>
      </trkpt>
      <trkpt lat="43.99073" lon="7.25679">
        <ele>960.038025</ele>
        <time>2012-08-19T08:00:31Z</time>
      </trkpt>
      <trkpt lat="43.99075" lon="7.25675">
        <ele>960.087708</ele>
        <time>2012-08-19T08:00:33Z</time>
      </trkpt>
      <trkpt lat="43.99077" lon="7.25673">
        <ele>960.103699</ele>
        <time>2012-08-19T08:00:35Z</time>
      </trkpt>
      <trkpt lat="43.99079" lon="7.25669">
        <ele>960.074036</ele>
        <time>2012-08-19T08:00:37Z</time>
      </trkpt>
      <trkpt lat="43.99083" lon="7.25664">
        <ele>959.991882</ele>
        <time>2012-08-19T08:00:40Z</time>
      </trkpt>
      <trkpt lat="43.99088" lon="7.25661">
        <ele>959.903992</ele>
        <time>2012-08-19T08:00:43Z</time>
      </trkpt>
      <trkpt lat="43.99094" lon="7.25657">
        <ele>959.861572</ele>
        <time>2012-08-19T08:00:46Z</time>
      </trkpt>
      <trkpt lat="43.99097" lon="7.25657">
        <ele>959.86554</ele>
        <time>2012-08-19T08:00:48Z</time>
      </trkpt>
      <trkpt lat="43.991" lon="7.25656">
        <ele>959.898438</ele>
        <time>2012-08-19T08:00:50Z</time>
      </trkpt>
      <trkpt lat="43.99103" lon="7.25654">
        <ele>959.921265</ele>
        <time>2012-08-19T08:00:53Z</time>
      </trkpt>
      <trkpt lat="43.99103" lon="7.25654">
        <ele>959.894104</ele>
        <time>2012-08-19T08:00:56Z</time>
      </trkpt>
      <trkpt lat="43.99103" lon="7.25654">
        <ele>959.714539</ele>
        <time>2012-08-19T08:00:59Z</time>
      </trkpt>
      <trkpt lat="43.99106" lon="7.25652">
        <ele>959.433594</ele>
        <time>2012-08-19T08:01:02Z</time>
      </trkpt>
      <trkpt lat="43.99106" lon="7.25652">
        <ele>959.307617</ele>
        <time>2012-08-19T08:01:04Z</time>
      </trkpt>
      <trkpt lat="43.99106" lon="7.25652">
        <ele>959.111206</ele>
        <time>2012-08-19T08:01:06Z</time>
      </trkpt>
      <trkpt lat="43.9911" lon="7.25651">
        <ele>958.705444</ele>
        <time>2012-08-19T08:01:09Z</time>
      </trkpt>
      <trkpt lat="43.99115" lon="7.25655">
        <ele>958.65979</ele>
        <time>2012-08-19T08:01:11Z</time>
      </trkpt>
      <trkpt lat="43.9912" lon="7.25657">
        <ele>958.117371</ele>
        <time>2012-08-19T08:01:13Z</time>
      </trkpt>
      <trkpt lat="43.99126" lon="7.25658">
        <ele>957.253113</ele>
        <time>2012-08-19T08:01:16Z</time>
      </trkpt>
      <trkpt lat="43.99129" lon="7.25657">
        <ele>956.652283</ele>
        <time>2012-08-19T08:01:18Z</time>
      </trkpt>
      <trkpt lat="43.99132" lon="7.25657">
        <ele>955.722046</ele>
        <time>2012-08-19T08:01:21Z</time>
      </trkpt>
      <trkpt lat="43.99135" lon="7.25657">
        <ele>955.120483</ele>
        <time>2012-08-19T08:01:23Z</time>
      </trkpt>
      <trkpt lat="43.9914" lon="7.25657">
        <ele>954.154663</ele>
        <time>2012-08-19T08:01:26Z</time>
      </trkpt>
      <trkpt lat="43.99144" lon="7.25656">
        <ele>953.130737</ele>
        <time>2012-08-19T08:01:29Z</time>
      </trkpt>
      <trkpt lat="43.99148" lon="7.25655">
        <ele>952.101624</ele>
        <time>2012-08-19T08:01:32Z</time>
      </trkpt>
      <trkpt lat="43.99151" lon="7.25654">
        <ele>951.418884</ele>
        <time>2012-08-19T08:01:34Z</time>
      </trkpt>
      <trkpt lat="43.99154" lon="7.25653">
        <ele>950.732483</ele>
        <time>2012-08-19T08:01:36Z</time>
      </trkpt>
      <trkpt lat="43.9916" lon="7.25653">
        <ele>949.701111</ele>
        <time>2012-08-19T08:01:39Z</time>
      </trkpt>
      <trkpt lat="43.99165" lon="7.25651">
        <ele>948.631104</ele>
        <time>2012-08-19T08:01:42Z</time>
      </trkpt>
      <trkpt lat="43.99168" lon="7.25652">
        <ele>947.888184</ele>
        <time>2012-08-19T08:01:44Z</time>
      </trkpt>
      <trkpt lat="43.99177" lon="7.25657">
        <ele>947.167725</ele>
        <time>2012-08-19T08:01:46Z</time>
      </trkpt>
      <trkpt lat="43.99189" lon="7.25662">
        <ele>946.588806</ele>
        <time>2012-08-19T08:01:48Z</time>
      </trkpt>
      <trkpt lat="43.99205" lon="7.25666">
        <ele>945.846313</ele>
        <time>2012-08-19T08:01:51Z</time>
      </trkpt>
      <trkpt lat="43.99214" lon="7.25668">
        <ele>945.373718</ele>
        <time>2012-08-19T08:01:53Z</time>
      </trkpt>
      <trkpt lat="43.99222" lon="7.25668">
        <ele>944.907288</ele>
        <time>2012-08-19T08:01:55Z</time>
      </trkpt>
      <trkpt lat="43.99229" lon="7.25667">
        <ele>944.457214</ele>
        <time>2012-08-19T08:01:57Z</time>
      </trkpt>
      <trkpt lat="43.99235" lon="7.25664">
        <ele>944.023743</ele>
        <time>2012-08-19T08:01:59Z</time>
      </trkpt>
      <trkpt lat="43.99243" lon="7.25657">
        <ele>943.418396</ele>
        <time>2012-08-19T08:02:02Z</time>
      </trkpt>
      <trkpt lat="43.99249" lon="7.25649">
        <ele>942.905212</ele>
        <time>2012-08-19T08:02:05Z</time>
      </trkpt>
      <trkpt lat="43.99253" lon="7.25644">
        <ele>942.663391</ele>
        <time>2012-08-19T08:02:07Z</time>
      </trkpt>
      <trkpt lat="43.99258" lon="7.25638">
        <ele>942.359497</ele>
        <time>2012-08-19T08:02:10Z</time>
      </trkpt>
      <trkpt lat="43.99262" lon="7.25633">
        <ele>942.120667</ele>
        <time>2012-08-19T08:02:13Z</time>
      </trkpt>
      <trkpt lat="43.99266" lon="7.25629">
        <ele>941.817932</ele>
        <time>2012-08-19T08:02:16Z</time>
      </trkpt>
      <trkpt lat="43.99268" lon="7.25629">
        <ele>941.638184</ele>
        <time>2012-08-19T08:02:18Z</time>
      </trkpt>
      <trkpt lat="43.99271" lon="7.25626">
        <ele>941.485229</ele>
        <time>2012-08-19T08:02:20Z</time>
      </trkpt>
      <trkpt lat="43.99273" lon="7.2562">
        <ele>941.274963</ele>
        <time>2012-08-19T08:02:23Z</time>
      </trkpt>
      <trkpt lat="43.99276" lon="7.25617">
        <ele>941.133911</ele>
        <time>2012-08-19T08:02:25Z</time>
      </trkpt>
      <trkpt lat="43.99278" lon="7.25616">
        <ele>941.006592</ele>
        <time>2012-08-19T08:02:27Z</time>
      </trkpt>
      <trkpt lat="43.99282" lon="7.25613">
        <ele>940.788452</ele>
        <time>2012-08-19T08:02:30Z</time>
      </trkpt>
      <trkpt lat="43.99285" lon="7.25609">
        <ele>940.530029</ele>
        <time>2012-08-19T08:02:33Z</time>
      </trkpt>
      <trkpt lat="43.99287" lon="7.25605">
        <ele>940.336304</ele>
        <time>2012-08-19T08:02:35Z</time>
      </trkpt>
      <trkpt lat="43.99292" lon="7.25598">
        <ele>940.098511</ele>
        <time>2012-08-19T08:02:38Z</time>
      </trkpt>
      <trkpt lat="43.99298" lon="7.25593">
        <ele>939.888306</ele>
        <time>2012-08-19T08:02:41Z</time>
      </trkpt>
      <trkpt lat="43.99303" lon="7.25593">
        <ele>939.77124</ele>
        <time>2012-08-19T08:02:44Z</time>
      </trkpt>
      <trkpt lat="43.99305" lon="7.25592">
        <ele>939.794067</ele>
        <time>2012-08-19T08:02:46Z</time>
      </trkpt>
      <trkpt lat="43.99308" lon="7.25589">
        <ele>939.913879</ele>
        <time>2012-08-19T08:02:49Z</time>
      </trkpt>
      <trkpt lat="43.99309" lon="7.25588">
        <ele>939.962463</ele>
        <time>2012-08-19T08:02:51Z</time>
      </trkpt>
      <trkpt lat="43.99309" lon="7.25588">
        <ele>940.082214</ele>
        <time>2012-08-19T08:02:54Z</time>
      </trkpt>
      <trkpt lat="43.99309" lon="7.25588">
        <ele>940.392822</ele>
        <time>2012-08-19T08:02:57Z</time>
      </trkpt>
      <trkpt lat="43.99312" lon="7.25583">
        <ele>940.596313</ele>
        <time>2012-08-19T08:02:59Z</time>
      </trkpt>
      <trkpt lat="43.99312" lon="7.25582">
        <ele>940.76886</ele>
        <time>2012-08-19T08:03:01Z</time>
      </trkpt>
      <trkpt lat="43.99314" lon="7.25582">
        <ele>940.87561</ele>
        <time>2012-08-19T08:03:04Z</time>
      </trkpt>
      <trkpt lat="43.99314" lon="7.25582">
        <ele>940.957886</ele>
        <time>2012-08-19T08:03:06Z</time>
      </trkpt>
      <trkpt lat="43.99318" lon="7.25583">
        <ele>941.140991</ele>
        <time>2012-08-19T08:03:08Z</time>
      </trkpt>
      <trkpt lat="43.99318" lon="7.25583">
        <ele>941.302551</ele>
        <time>2012-08-19T08:03:11Z</time>
      </trkpt>
      <trkpt lat="43.99327" lon="7.25586">
        <ele>941.360474</ele>
        <time>2012-08-19T08:03:14Z</time>
      </trkpt>
      <trkpt lat="43.99329" lon="7.25587">
        <ele>941.44989</ele>
        <time>2012-08-19T08:03:16Z</time>
      </trkpt>
      <trkpt lat="43.99332" lon="7.25587">
        <ele>941.614441</ele>
        <time>2012-08-19T08:03:19Z</time>
      </trkpt>
      <trkpt lat="43.99335" lon="7.25588">
        <ele>941.860046</ele>
        <time>2012-08-19T08:03:22Z</time>
      </trkpt>
      <trkpt lat="43.99335" lon="7.25588">
        <ele>941.879211</ele>
        <time>2012-08-19T08:03:24Z</time>
      </trkpt>
      <trkpt lat="43.99339" lon="7.25583">
        <ele>941.903992</ele>
        <time>2012-08-19T08:03:27Z</time>
      </trkpt>
      <trkpt lat="43.99339" lon="7.25583">
        <ele>942.067444</ele>
        <time>2012-08-19T08:03:29Z</time>
      </trkpt>
      <trkpt lat="43.99342" lon="7.25577">
        <ele>942.227173</ele>
        <time>2012-08-19T08:03:32Z</time>
      </trkpt>
      <trkpt lat="43.99342" lon="7.25577">
        <ele>942.242554</ele>
        <time>2012-08-19T08:03:34Z</time>
      </trkpt>
      <trkpt lat="43.99342" lon="7.25577">
        <ele>942.255249</ele>
        <time>2012-08-19T08:03:36Z</time>
      </trkpt>
      <trkpt lat="43.99344" lon="7.25571">
        <ele>942.271301</ele>
        <time>2012-08-19T08:03:39Z</time>
      </trkpt>
      <trkpt lat="43.99344" lon="7.25571">
        <ele>942.279724</ele>
        <time>2012-08-19T08:03:41Z</time>
      </trkpt>
      <trkpt lat="43.99348" lon="7.25568">
        <ele>942.294495</ele>
        <time>2012-08-19T08:03:44Z</time>
      </trkpt>
      <trkpt lat="43.99348" lon="7.25568">
        <ele>942.302734</ele>
        <time>2012-08-19T08:03:46Z</time>
      </trkpt>
      <trkpt lat="43.99352" lon="7.25565">
        <ele>942.363342</ele>
        <time>2012-08-19T08:03:48Z</time>
      </trkpt>
      <trkpt lat="43.99352" lon="7.25565">
        <ele>942.444336</ele>
        <time>2012-08-19T08:03:51Z</time>
      </trkpt>
      <trkpt lat="43.99358" lon="7.25562">
        <ele>942.537903</ele>
        <time>2012-08-19T08:03:53Z</time>
      </trkpt>
      <trkpt lat="43.99363" lon="7.2556">
        <ele>942.614929</ele>
        <time>2012-08-19T08:03:56Z</time>
      </trkpt>
      <trkpt lat="43.99368" lon="7.25561">
        <ele>942.683594</ele>
        <time>2012-08-19T08:03:58Z</time>
      </trkpt>
      <trkpt lat="43.9937" lon="7.25561">
        <ele>942.776794</ele>
        <time>2012-08-19T08:04:00Z</time>
      </trkpt>
      <trkpt lat="43.99373" lon="7.2556">
        <ele>942.881958</ele>
        <time>2012-08-19T08:04:02Z</time>
      </trkpt>
      <trkpt lat="43.99375" lon="7.25557">
        <ele>943.037964</ele>
        <time>2012-08-19T08:04:05Z</time>
      </trkpt>
      <trkpt lat="43.99378" lon="7.25555">
        <ele>943.124268</ele>
        <time>2012-08-19T08:04:07Z</time>
      </trkpt>
      <trkpt lat="43.99381" lon="7.25552">
        <ele>943.238647</ele>
        <time>2012-08-19T08:04:10Z</time>
      </trkpt>
      <trkpt lat="43.99383" lon="7.2555">
        <ele>943.320801</ele>
        <time>2012-08-19T08:04:12Z</time>
      </trkpt>
      <trkpt lat="43.99384" lon="7.25548">
        <ele>943.407471</ele>
        <time>2012-08-19T08:04:14Z</time>
      </trkpt>
      <trkpt lat="43.99386" lon="7.25545">
        <ele>943.605103</ele>
        <time>2012-08-19T08:04:17Z</time>
      </trkpt>
      <trkpt lat="43.99388" lon="7.2554">
        <ele>943.781738</ele>
        <time>2012-08-19T08:04:20Z</time>
      </trkpt>
      <trkpt lat="43.99391" lon="7.25537">
        <ele>943.889404</ele>
        <time>2012-08-19T08:04:22Z</time>
      </trkpt>
      <trkpt lat="43.99394" lon="7.25533">
        <ele>943.985718</ele>
        <time>2012-08-19T08:04:24Z</time>
      </trkpt>
      <trkpt lat="43.99398" lon="7.25529">
        <ele>944.068176</ele>
        <time>2012-08-19T08:04:26Z</time>
      </trkpt>
      <trkpt lat="43.99403" lon="7.2552">
        <ele>944.212769</ele>
        <time>2012-08-19T08:04:29Z</time>
      </trkpt>
      <trkpt lat="43.99408" lon="7.25514">
        <ele>944.363586</ele>
        <time>2012-08-19T08:04:32Z</time>
      </trkpt>
      <trkpt lat="43.9941" lon="7.25513">
        <ele>944.514587</ele>
        <time>2012-08-19T08:04:34Z</time>
      </trkpt>
      <trkpt lat="43.99411" lon="7.25512">
        <ele>944.960815</ele>
        <time>2012-08-19T08:04:37Z</time>
      </trkpt>
      <trkpt lat="43.9941" lon="7.25511">
        <ele>945.30188</ele>
        <time>2012-08-19T08:04:39Z</time>
      </trkpt>
      <trkpt lat="43.99409" lon="7.2551">
        <ele>945.685364</ele>
        <time>2012-08-19T08:04:41Z</time>
      </trkpt>
      <trkpt lat="43.99408" lon="7.2551">
        <ele>945.946411</ele>
        <time>2012-08-19T08:04:43Z</time>
      </trkpt>
      <trkpt lat="43.99408" lon="7.2551">
        <ele>945.99762</ele>
        <time>2012-08-19T08:04:46Z</time>
      </trkpt>
      <trkpt lat="43.99408" lon="7.2551">
        <ele>946.023132</ele>
        <time>2012-08-19T08:04:48Z</time>
      </trkpt>
      <trkpt lat="43.99408" lon="7.2551">
        <ele>946.054077</ele>
        <time>2012-08-19T08:04:51Z</time>
      </trkpt>
      <trkpt lat="43.99408" lon="7.2551">
        <ele>946.079651</ele>
        <time>2012-08-19T08:04:54Z</time>
      </trkpt>
      <trkpt lat="43.99407" lon="7.25516">
        <ele>946.099487</ele>
        <time>2012-08-19T08:04:57Z</time>
      </trkpt>
      <trkpt lat="43.99411" lon="7.25522">
        <ele>946.218567</ele>
        <time>2012-08-19T08:05:00Z</time>
      </trkpt>
      <trkpt lat="43.99411" lon="7.25522">
        <ele>946.327576</ele>
        <time>2012-08-19T08:05:03Z</time>
      </trkpt>
      <trkpt lat="43.99416" lon="7.25527">
        <ele>946.39978</ele>
        <time>2012-08-19T08:05:06Z</time>
      </trkpt>
      <trkpt lat="43.9942" lon="7.25534">
        <ele>946.425598</ele>
        <time>2012-08-19T08:05:09Z</time>
      </trkpt>
      <trkpt lat="43.99423" lon="7.25537">
        <ele>946.421509</ele>
        <time>2012-08-19T08:05:12Z</time>
      </trkpt>
      <trkpt lat="43.99424" lon="7.25539">
        <ele>946.414429</ele>
        <time>2012-08-19T08:05:14Z</time>
      </trkpt>
      <trkpt lat="43.99424" lon="7.25541">
        <ele>946.414734</ele>
        <time>2012-08-19T08:05:16Z</time>
      </trkpt>
      <trkpt lat="43.99426" lon="7.25547">
        <ele>946.387756</ele>
        <time>2012-08-19T08:05:19Z</time>
      </trkpt>
      <trkpt lat="43.99427" lon="7.25549">
        <ele>946.348206</ele>
        <time>2012-08-19T08:05:21Z</time>
      </trkpt>
      <trkpt lat="43.99429" lon="7.25553">
        <ele>946.267822</ele>
        <time>2012-08-19T08:05:24Z</time>
      </trkpt>
      <trkpt lat="43.99429" lon="7.25558">
        <ele>946.216125</ele>
        <time>2012-08-19T08:05:26Z</time>
      </trkpt>
      <trkpt lat="43.99429" lon="7.25564">
        <ele>946.121643</ele>
        <time>2012-08-19T08:05:29Z</time>
      </trkpt>
      <trkpt lat="43.99431" lon="7.2557">
        <ele>946.025635</ele>
        <time>2012-08-19T08:05:32Z</time>
      </trkpt>
      <trkpt lat="43.99432" lon="7.25573">
        <ele>945.971802</ele>
        <time>2012-08-19T08:05:34Z</time>
      </trkpt>
      <trkpt lat="43.9943" lon="7.25575">
        <ele>945.886963</ele>
        <time>2012-08-19T08:05:37Z</time>
      </trkpt>
      <trkpt lat="43.99426" lon="7.25584">
        <ele>945.957336</ele>
        <time>2012-08-19T08:05:40Z</time>
      </trkpt>
      <trkpt lat="43.99426" lon="7.25586">
        <ele>946.168579</ele>
        <time>2012-08-19T08:05:42Z</time>
      </trkpt>
      <trkpt lat="43.99429" lon="7.25578">
        <ele>946.773132</ele>
        <time>2012-08-19T08:05:45Z</time>
      </trkpt>
      <trkpt lat="43.9943" lon="7.25574">
        <ele>947.141968</ele>
        <time>2012-08-19T08:05:47Z</time>
      </trkpt>
      <trkpt lat="43.99433" lon="7.25565">
        <ele>947.844666</ele>
        <time>2012-08-19T08:05:50Z</time>
      </trkpt>
      <trkpt lat="43.99435" lon="7.2556">
        <ele>948.80072</ele>
        <time>2012-08-19T08:05:53Z</time>
      </trkpt>
      <trkpt lat="43.99434" lon="7.25558">
        <ele>950.555237</ele>
        <time>2012-08-19T08:05:56Z</time>
      </trkpt>
      <trkpt lat="43.99433" lon="7.25558">
        <ele>952.198181</ele>
        <time>2012-08-19T08:05:59Z</time>
      </trkpt>
      <trkpt lat="43.99433" lon="7.2556">
        <ele>953.272095</ele>
        <time>2012-08-19T08:06:02Z</time>
      </trkpt>
      <trkpt lat="43.99432" lon="7.25561">
        <ele>953.72699</ele>
        <time>2012-08-19T08:06:04Z</time>
      </trkpt>
      <trkpt lat="43.99429" lon="7.25562">
        <ele>954.216492</ele>
        <time>2012-08-19T08:06:07Z</time>
      </trkpt>
      <trkpt lat="43.99426" lon="7.25563">
        <ele>954.469727</ele>
        <time>2012-08-19T08:06:09Z</time>
      </trkpt>
      <trkpt lat="43.99425" lon="7.25569">
        <ele>954.665039</ele>
        <time>2012-08-19T08:06:12Z</time>
      </trkpt>
      <trkpt lat="43.99423" lon="7.25572">
        <ele>954.719482</ele>
        <time>2012-08-19T08:06:14Z</time>
      </trkpt>
      <trkpt lat="43.99422" lon="7.25575">
        <ele>954.727844</ele>
        <time>2012-08-19T08:06:16Z</time>
      </trkpt>
      <trkpt lat="43.99419" lon="7.2558">
        <ele>954.703613</ele>
        <time>2012-08-19T08:06:19Z</time>
      </trkpt>
      <trkpt lat="43.99416" lon="7.25583">
        <ele>954.933289</ele>
        <time>2012-08-19T08:06:22Z</time>
      </trkpt>
      <trkpt lat="43.99413" lon="7.25591">
        <ele>955.516846</ele>
        <time>2012-08-19T08:06:24Z</time>
      </trkpt>
      <trkpt lat="43.99409" lon="7.25613">
        <ele>956.884949</ele>
        <time>2012-08-19T08:06:27Z</time>
      </trkpt>
      <trkpt lat="43.99404" lon="7.2563">
        <ele>958.05188</ele>
        <time>2012-08-19T08:06:30Z</time>
      </trkpt>
      <trkpt lat="43.99399" lon="7.2564">
        <ele>959.116638</ele>
        <time>2012-08-19T08:06:33Z</time>
      </trkpt>
      <trkpt lat="43.99394" lon="7.25645">
        <ele>959.72522</ele>
        <time>2012-08-19T08:06:35Z</time>
      </trkpt>
      <trkpt lat="43.99392" lon="7.2564">
        <ele>960.968384</ele>
        <time>2012-08-19T08:06:37Z</time>
      </trkpt>
      <trkpt lat="43.9939" lon="7.25634">
        <ele>963.176025</ele>
        <time>2012-08-19T08:06:40Z</time>
      </trkpt>
      <trkpt lat="43.99386" lon="7.25629">
        <ele>965.330017</ele>
        <time>2012-08-19T08:06:43Z</time>
      </trkpt>
      <trkpt lat="43.99378" lon="7.25625">
        <ele>967.286438</ele>
        <time>2012-08-19T08:06:46Z</time>
      </trkpt>
      <trkpt lat="43.99371" lon="7.25621">
        <ele>968.164612</ele>
        <time>2012-08-19T08:06:48Z</time>
      </trkpt>
      <trkpt lat="43.99362" lon="7.25617">
        <ele>969.007507</ele>
        <time>2012-08-19T08:06:51Z</time>
      </trkpt>
      <trkpt lat="43.99357" lon="7.25612">
        <ele>969.239258</ele>
        <time>2012-08-19T08:06:53Z</time>
      </trkpt>
      <trkpt lat="43.99353" lon="7.25609">
        <ele>969.228027</ele>
        <time>2012-08-19T08:06:56Z</time>
      </trkpt>
      <trkpt lat="43.9935" lon="7.25608">
        <ele>968.792786</ele>
        <time>2012-08-19T08:06:59Z</time>
      </trkpt>
      <trkpt lat="43.99349" lon="7.25607">
        <ele>968.450989</ele>
        <time>2012-08-19T08:07:01Z</time>
      </trkpt>
      <trkpt lat="43.99349" lon="7.25615">
        <ele>968.187195</ele>
        <time>2012-08-19T08:07:03Z</time>
      </trkpt>
      <trkpt lat="43.99348" lon="7.25628">
        <ele>967.800293</ele>
        <time>2012-08-19T08:07:06Z</time>
      </trkpt>
      <trkpt lat="43.99346" lon="7.25635">
        <ele>967.530518</ele>
        <time>2012-08-19T08:07:08Z</time>
      </trkpt>
      <trkpt lat="43.99342" lon="7.25644">
        <ele>967.052856</ele>
        <time>2012-08-19T08:07:11Z</time>
      </trkpt>
      <trkpt lat="43.99339" lon="7.25654">
        <ele>966.499268</ele>
        <time>2012-08-19T08:07:14Z</time>
      </trkpt>
      <trkpt lat="43.9933" lon="7.25662">
        <ele>966.199219</ele>
        <time>2012-08-19T08:07:17Z</time>
      </trkpt>
      <trkpt lat="43.99324" lon="7.25666">
        <ele>966.017334</ele>
        <time>2012-08-19T08:07:19Z</time>
      </trkpt>
      <trkpt lat="43.99311" lon="7.25675">
        <ele>965.947083</ele>
        <time>2012-08-19T08:07:22Z</time>
      </trkpt>
      <trkpt lat="43.99303" lon="7.25681">
        <ele>965.804932</ele>
        <time>2012-08-19T08:07:25Z</time>
      </trkpt>
      <trkpt lat="43.99298" lon="7.25686">
        <ele>965.603271</ele>
        <time>2012-08-19T08:07:27Z</time>
      </trkpt>
      <trkpt lat="43.99292" lon="7.25692">
        <ele>965.353699</ele>
        <time>2012-08-19T08:07:30Z</time>
      </trkpt>
      <trkpt lat="43.99284" lon="7.25683">
        <ele>965.678406</ele>
        <time>2012-08-19T08:07:33Z</time>
      </trkpt>
      <trkpt lat="43.99278" lon="7.25677">
        <ele>965.968994</ele>
        <time>2012-08-19T08:07:35Z</time>
      </trkpt>
      <trkpt lat="43.9927" lon="7.25674">
        <ele>966.536255</ele>
        <time>2012-08-19T08:07:37Z</time>
      </trkpt>
      <trkpt lat="43.99262" lon="7.25674">
        <ele>967.341736</ele>
        <time>2012-08-19T08:07:40Z</time>
      </trkpt>
      <trkpt lat="43.99255" lon="7.25673">
        <ele>967.763611</ele>
        <time>2012-08-19T08:07:43Z</time>
      </trkpt>
      <trkpt lat="43.99249" lon="7.25674">
        <ele>968.249146</ele>
        <time>2012-08-19T08:07:46Z</time>
      </trkpt>
      <trkpt lat="43.99246" lon="7.25676">
        <ele>968.316772</ele>
        <time>2012-08-19T08:07:48Z</time>
      </trkpt>
      <trkpt lat="43.99243" lon="7.25678">
        <ele>968.289001</ele>
        <time>2012-08-19T08:07:50Z</time>
      </trkpt>
      <trkpt lat="43.99236" lon="7.25718">
        <ele>969.539185</ele>
        <time>2012-08-19T08:07:53Z</time>
      </trkpt>
      <trkpt lat="43.99228" lon="7.25736">
        <ele>971.305603</ele>
        <time>2012-08-19T08:07:56Z</time>
      </trkpt>
      <trkpt lat="43.99221" lon="7.25746">
        <ele>972.387634</ele>
        <time>2012-08-19T08:07:58Z</time>
      </trkpt>
      <trkpt lat="43.99215" lon="7.25756">
        <ele>973.381287</ele>
        <time>2012-08-19T08:08:00Z</time>
      </trkpt>
      <trkpt lat="43.99208" lon="7.25767">
        <ele>974.548035</ele>
        <time>2012-08-19T08:08:03Z</time>
      </trkpt>
      <trkpt lat="43.99204" lon="7.25769">
        <ele>975.343811</ele>
        <time>2012-08-19T08:08:05Z</time>
      </trkpt>
      <trkpt lat="43.99197" lon="7.2577">
        <ele>976.900085</ele>
        <time>2012-08-19T08:08:08Z</time>
      </trkpt>
      <trkpt lat="43.99189" lon="7.25768">
        <ele>978.531799</ele>
        <time>2012-08-19T08:08:11Z</time>
      </trkpt>
      <trkpt lat="43.99183" lon="7.25768">
        <ele>979.630432</ele>
        <time>2012-08-19T08:08:14Z</time>
      </trkpt>
      <trkpt lat="43.99181" lon="7.25756">
        <ele>981.498474</ele>
        <time>2012-08-19T08:08:17Z</time>
      </trkpt>
      <trkpt lat="43.99178" lon="7.25747">
        <ele>983.126404</ele>
        <time>2012-08-19T08:08:20Z</time>
      </trkpt>
      <trkpt lat="43.99175" lon="7.2574">
        <ele>984.783508</ele>
        <time>2012-08-19T08:08:23Z</time>
      </trkpt>
      <trkpt lat="43.99175" lon="7.25736">
        <ele>985.714539</ele>
        <time>2012-08-19T08:08:25Z</time>
      </trkpt>
      <trkpt lat="43.99175" lon="7.25732">
        <ele>986.920715</ele>
        <time>2012-08-19T08:08:28Z</time>
      </trkpt>
      <trkpt lat="43.99167" lon="7.25724">
        <ele>988.496765</ele>
        <time>2012-08-19T08:08:31Z</time>
      </trkpt>
      <trkpt lat="43.99161" lon="7.25719">
        <ele>989.387268</ele>
        <time>2012-08-19T08:08:33Z</time>
      </trkpt>
      <trkpt lat="43.99158" lon="7.25716">
        <ele>990.117493</ele>
        <time>2012-08-19T08:08:35Z</time>
      </trkpt>
      <trkpt lat="43.99156" lon="7.25718">
        <ele>990.961731</ele>
        <time>2012-08-19T08:08:38Z</time>
      </trkpt>
      <trkpt lat="43.99157" lon="7.25721">
        <ele>991.39801</ele>
        <time>2012-08-19T08:08:40Z</time>
      </trkpt>
      <trkpt lat="43.99157" lon="7.25722">
        <ele>991.939758</ele>
        <time>2012-08-19T08:08:43Z</time>
      </trkpt>
      <trkpt lat="43.99157" lon="7.25722">
        <ele>992.41864</ele>
        <time>2012-08-19T08:08:45Z</time>
      </trkpt>
      <trkpt lat="43.99157" lon="7.25724">
        <ele>993.221985</ele>
        <time>2012-08-19T08:08:48Z</time>
      </trkpt>
      <trkpt lat="43.99158" lon="7.25728">
        <ele>994.014587</ele>
        <time>2012-08-19T08:08:51Z</time>
      </trkpt>
      <trkpt lat="43.99159" lon="7.25734">
        <ele>995.138977</ele>
        <time>2012-08-19T08:08:54Z</time>
      </trkpt>
      <trkpt lat="43.99159" lon="7.25734">
        <ele>995.215393</ele>
        <time>2012-08-19T08:08:56Z</time>
      </trkpt>
      <trkpt lat="43.99159" lon="7.25734">
        <ele>995.298523</ele>
        <time>2012-08-19T08:08:58Z</time>
      </trkpt>
      <trkpt lat="43.99158" lon="7.2574">
        <ele>996.736755</ele>
        <time>2012-08-19T08:09:01Z</time>
      </trkpt>
      <trkpt lat="43.99155" lon="7.25748">
        <ele>996.924622</ele>
        <time>2012-08-19T08:09:03Z</time>
      </trkpt>
      <trkpt lat="43.99153" lon="7.25754">
        <ele>997.133972</ele>
        <time>2012-08-19T08:09:05Z</time>
      </trkpt>
      <trkpt lat="43.99152" lon="7.25761">
        <ele>1000.087463</ele>
        <time>2012-08-19T08:09:08Z</time>
      </trkpt>
      <trkpt lat="43.99152" lon="7.25767">
        <ele>1002.828674</ele>
        <time>2012-08-19T08:09:11Z</time>
      </trkpt>
      <trkpt lat="43.99153" lon="7.25768">
        <ele>1004.427307</ele>
        <time>2012-08-19T08:09:13Z</time>
      </trkpt>
      <trkpt lat="43.99154" lon="7.25769">
        <ele>1006.013123</ele>
        <time>2012-08-19T08:09:15Z</time>
      </trkpt>
      <trkpt lat="43.99156" lon="7.25773">
        <ele>1008.450745</ele>
        <time>2012-08-19T08:09:18Z</time>
      </trkpt>
      <trkpt lat="43.99156" lon="7.25783">
        <ele>1011.21991</ele>
        <time>2012-08-19T08:09:21Z</time>
      </trkpt>
      <trkpt lat="43.99156" lon="7.25789">
        <ele>1014.05719</ele>
        <time>2012-08-19T08:09:24Z</time>
      </trkpt>
      <trkpt lat="43.99156" lon="7.25792">
        <ele>1015.857483</ele>
        <time>2012-08-19T08:09:26Z</time>
      </trkpt>
      <trkpt lat="43.99156" lon="7.25794">
        <ele>1017.559509</ele>
        <time>2012-08-19T08:09:28Z</time>
      </trkpt>
      <trkpt lat="43.99156" lon="7.25798">
        <ele>1019.332825</ele>
        <time>2012-08-19T08:09:30Z</time>
      </trkpt>
      <trkpt lat="43.99156" lon="7.25806">
        <ele>1022.29718</ele>
        <time>2012-08-19T08:09:33Z</time>
      </trkpt>
      <trkpt lat="43.99155" lon="7.25817">
        <ele>1025.69397</ele>
        <time>2012-08-19T08:09:36Z</time>
      </trkpt>
      <trkpt lat="43.99153" lon="7.25829">
        <ele>1029.58728</ele>
        <time>2012-08-19T08:09:39Z</time>
      </trkpt>
      <trkpt lat="43.99151" lon="7.25834">
        <ele>1032.255859</ele>
        <time>2012-08-19T08:09:41Z</time>
      </trkpt>
      <trkpt lat="43.9915" lon="7.25838">
        <ele>1034.89502</ele>
        <time>2012-08-19T08:09:43Z</time>
      </trkpt>
      <trkpt lat="43.99149" lon="7.25839">
        <ele>1037.587646</ele>
        <time>2012-08-19T08:09:46Z</time>
      </trkpt>
      <trkpt lat="43.99149" lon="7.25841">
        <ele>1040.057983</ele>
        <time>2012-08-19T08:09:48Z</time>
      </trkpt>
      <trkpt lat="43.9915" lon="7.25843">
        <ele>1043.592529</ele>
        <time>2012-08-19T08:09:51Z</time>
      </trkpt>
      <trkpt lat="43.9915" lon="7.25845">
        <ele>1046.915527</ele>
        <time>2012-08-19T08:09:54Z</time>
      </trkpt>
      <trkpt lat="43.9915" lon="7.25847">
        <ele>1049.016846</ele>
        <time>2012-08-19T08:09:56Z</time>
      </trkpt>
      <trkpt lat="43.99149" lon="7.25851">
        <ele>1052.000488</ele>
        <time>2012-08-19T08:09:59Z</time>
      </trkpt>
      <trkpt lat="43.99149" lon="7.25856">
        <ele>1054.806763</ele>
        <time>2012-08-19T08:10:02Z</time>
      </trkpt>
      <trkpt lat="43.9915" lon="7.2586">
        <ele>1057.436768</ele>
        <time>2012-08-19T08:10:05Z</time>
      </trkpt>
      <trkpt lat="43.9915" lon="7.25864">
        <ele>1059.125854</ele>
        <time>2012-08-19T08:10:07Z</time>
      </trkpt>
      <trkpt lat="43.99151" lon="7.25868">
        <ele>1060.763794</ele>
        <time>2012-08-19T08:10:09Z</time>
      </trkpt>
      <trkpt lat="43.99152" lon="7.25873">
        <ele>1063.11499</ele>
        <time>2012-08-19T08:10:12Z</time>
      </trkpt>
      <trkpt lat="43.99152" lon="7.25876">
        <ele>1064.618164</ele>
        <time>2012-08-19T08:10:14Z</time>
      </trkpt>
      <trkpt lat="43.99152" lon="7.25881">
        <ele>1066.793335</ele>
        <time>2012-08-19T08:10:17Z</time>
      </trkpt>
      <trkpt lat="43.99151" lon="7.25884">
        <ele>1068.187012</ele>
        <time>2012-08-19T08:10:19Z</time>
      </trkpt>
      <trkpt lat="43.9915" lon="7.25886">
        <ele>1069.528076</ele>
        <time>2012-08-19T08:10:21Z</time>
      </trkpt>
      <trkpt lat="43.9915" lon="7.25887">
        <ele>1070.824707</ele>
        <time>2012-08-19T08:10:23Z</time>
      </trkpt>
      <trkpt lat="43.99149" lon="7.2589">
        <ele>1072.673218</ele>
        <time>2012-08-19T08:10:26Z</time>
      </trkpt>
      <trkpt lat="43.99149" lon="7.25894">
        <ele>1073.832642</ele>
        <time>2012-08-19T08:10:28Z</time>
      </trkpt>
      <trkpt lat="43.99148" lon="7.25899">
        <ele>1075.460205</ele>
        <time>2012-08-19T08:10:31Z</time>
      </trkpt>
      <trkpt lat="43.99146" lon="7.25904">
        <ele>1076.988892</ele>
        <time>2012-08-19T08:10:34Z</time>
      </trkpt>
      <trkpt lat="43.99144" lon="7.25906">
        <ele>1077.971924</ele>
        <time>2012-08-19T08:10:36Z</time>
      </trkpt>
      <trkpt lat="43.99141" lon="7.25907">
        <ele>1079.392578</ele>
        <time>2012-08-19T08:10:39Z</time>
      </trkpt>
      <trkpt lat="43.9914" lon="7.25909">
        <ele>1080.297363</ele>
        <time>2012-08-19T08:10:41Z</time>
      </trkpt>
      <trkpt lat="43.99139" lon="7.25912">
        <ele>1081.592285</ele>
        <time>2012-08-19T08:10:44Z</time>
      </trkpt>
      <trkpt lat="43.9914" lon="7.25918">
        <ele>1082.8302</ele>
        <time>2012-08-19T08:10:47Z</time>
      </trkpt>
      <trkpt lat="43.99141" lon="7.25922">
        <ele>1083.625122</ele>
        <time>2012-08-19T08:10:49Z</time>
      </trkpt>
      <trkpt lat="43.99143" lon="7.25928">
        <ele>1084.78418</ele>
        <time>2012-08-19T08:10:52Z</time>
      </trkpt>
      <trkpt lat="43.99144" lon="7.25932">
        <ele>1085.907349</ele>
        <time>2012-08-19T08:10:55Z</time>
      </trkpt>
      <trkpt lat="43.99145" lon="7.25934">
        <ele>1086.620483</ele>
        <time>2012-08-19T08:10:57Z</time>
      </trkpt>
      <trkpt lat="43.99145" lon="7.25937">
        <ele>1087.643066</ele>
        <time>2012-08-19T08:11:00Z</time>
      </trkpt>
      <trkpt lat="43.99146" lon="7.25939">
        <ele>1088.283447</ele>
        <time>2012-08-19T08:11:02Z</time>
      </trkpt>
      <trkpt lat="43.99147" lon="7.25943">
        <ele>1088.896362</ele>
        <time>2012-08-19T08:11:04Z</time>
      </trkpt>
      <trkpt lat="43.99147" lon="7.25947">
        <ele>1089.485596</ele>
        <time>2012-08-19T08:11:06Z</time>
      </trkpt>
      <trkpt lat="43.99148" lon="7.2595">
        <ele>1090.045654</ele>
        <time>2012-08-19T08:11:08Z</time>
      </trkpt>
      <trkpt lat="43.99148" lon="7.25956">
        <ele>1090.84375</ele>
        <time>2012-08-19T08:11:11Z</time>
      </trkpt>
      <trkpt lat="43.99148" lon="7.25959">
        <ele>1091.349609</ele>
        <time>2012-08-19T08:11:13Z</time>
      </trkpt>
      <trkpt lat="43.99149" lon="7.25962">
        <ele>1092.062134</ele>
        <time>2012-08-19T08:11:16Z</time>
      </trkpt>
      <trkpt lat="43.99149" lon="7.25964">
        <ele>1092.511597</ele>
        <time>2012-08-19T08:11:18Z</time>
      </trkpt>
      <trkpt lat="43.99148" lon="7.25966">
        <ele>1093.150513</ele>
        <time>2012-08-19T08:11:21Z</time>
      </trkpt>
      <trkpt lat="43.99148" lon="7.2597">
        <ele>1093.766113</ele>
        <time>2012-08-19T08:11:24Z</time>
      </trkpt>
      <trkpt lat="43.99147" lon="7.25973">
        <ele>1094.356812</ele>
        <time>2012-08-19T08:11:27Z</time>
      </trkpt>
      <trkpt lat="43.99147" lon="7.25978">
        <ele>1094.933716</ele>
        <time>2012-08-19T08:11:30Z</time>
      </trkpt>
      <trkpt lat="43.99147" lon="7.25982">
        <ele>1095.495728</ele>
        <time>2012-08-19T08:11:33Z</time>
      </trkpt>
      <trkpt lat="43.99146" lon="7.25984">
        <ele>1096.042603</ele>
        <time>2012-08-19T08:11:36Z</time>
      </trkpt>
      <trkpt lat="43.99146" lon="7.25986">
        <ele>1096.557495</ele>
        <time>2012-08-19T08:11:39Z</time>
      </trkpt>
      <trkpt lat="43.99147" lon="7.25988">
        <ele>1096.88269</ele>
        <time>2012-08-19T08:11:41Z</time>
      </trkpt>
      <trkpt lat="43.99148" lon="7.25993">
        <ele>1097.382568</ele>
        <time>2012-08-19T08:11:44Z</time>
      </trkpt>
      <trkpt lat="43.99149" lon="7.25996">
        <ele>1097.731689</ele>
        <time>2012-08-19T08:11:46Z</time>
      </trkpt>
      <trkpt lat="43.99151" lon="7.25997">
        <ele>1098.222656</ele>
        <time>2012-08-19T08:11:49Z</time>
      </trkpt>
      <trkpt lat="43.99154" lon="7.25999">
        <ele>1098.659424</ele>
        <time>2012-08-19T08:11:52Z</time>
      </trkpt>
      <trkpt lat="43.99155" lon="7.26">
        <ele>1098.928955</ele>
        <time>2012-08-19T08:11:54Z</time>
      </trkpt>
      <trkpt lat="43.99157" lon="7.26001">
        <ele>1099.171753</ele>
        <time>2012-08-19T08:11:56Z</time>
      </trkpt>
      <trkpt lat="43.9916" lon="7.26003">
        <ele>1099.529541</ele>
        <time>2012-08-19T08:11:59Z</time>
      </trkpt>
      <trkpt lat="43.99162" lon="7.26006">
        <ele>1099.853516</ele>
        <time>2012-08-19T08:12:02Z</time>
      </trkpt>
      <trkpt lat="43.99164" lon="7.26008">
        <ele>1100.108521</ele>
        <time>2012-08-19T08:12:05Z</time>
      </trkpt>
      <trkpt lat="43.99167" lon="7.26012">
        <ele>1100.286865</ele>
        <time>2012-08-19T08:12:08Z</time>
      </trkpt>
      <trkpt lat="43.99169" lon="7.26014">
        <ele>1100.354492</ele>
        <time>2012-08-19T08:12:10Z</time>
      </trkpt>
      <trkpt lat="43.99171" lon="7.26017">
        <ele>1100.407471</ele>
        <time>2012-08-19T08:12:13Z</time>
      </trkpt>
      <trkpt lat="43.99174" lon="7.26018">
        <ele>1100.444214</ele>
        <time>2012-08-19T08:12:16Z</time>
      </trkpt>
      <trkpt lat="43.99176" lon="7.26017">
        <ele>1100.449219</ele>
        <time>2012-08-19T08:12:19Z</time>
      </trkpt>
      <trkpt lat="43.99177" lon="7.26016">
        <ele>1100.372437</ele>
        <time>2012-08-19T08:12:22Z</time>
      </trkpt>
      <trkpt lat="43.9918" lon="7.26021">
        <ele>1100.256958</ele>
        <time>2012-08-19T08:12:25Z</time>
      </trkpt>
      <trkpt lat="43.99181" lon="7.26024">
        <ele>1100.210449</ele>
        <time>2012-08-19T08:12:27Z</time>
      </trkpt>
      <trkpt lat="43.99179" lon="7.26029">
        <ele>1100.177368</ele>
        <time>2012-08-19T08:12:30Z</time>
      </trkpt>
      <trkpt lat="43.99179" lon="7.26033">
        <ele>1100.18457</ele>
        <time>2012-08-19T08:12:32Z</time>
      </trkpt>
      <trkpt lat="43.99182" lon="7.2604">
        <ele>1100.219238</ele>
        <time>2012-08-19T08:12:35Z</time>
      </trkpt>
      <trkpt lat="43.99184" lon="7.26044">
        <ele>1100.206543</ele>
        <time>2012-08-19T08:12:37Z</time>
      </trkpt>
      <trkpt lat="43.99187" lon="7.26048">
        <ele>1100.166626</ele>
        <time>2012-08-19T08:12:40Z</time>
      </trkpt>
      <trkpt lat="43.99189" lon="7.26051">
        <ele>1100.132935</ele>
        <time>2012-08-19T08:12:42Z</time>
      </trkpt>
      <trkpt lat="43.99191" lon="7.26054">
        <ele>1100.092285</ele>
        <time>2012-08-19T08:12:44Z</time>
      </trkpt>
      <trkpt lat="43.99192" lon="7.26058">
        <ele>1100.022461</ele>
        <time>2012-08-19T08:12:47Z</time>
      </trkpt>
      <trkpt lat="43.99193" lon="7.2606">
        <ele>1099.952881</ele>
        <time>2012-08-19T08:12:49Z</time>
      </trkpt>
      <trkpt lat="43.99194" lon="7.26063">
        <ele>1099.81897</ele>
        <time>2012-08-19T08:12:52Z</time>
      </trkpt>
      <trkpt lat="43.99196" lon="7.26069">
        <ele>1099.629639</ele>
        <time>2012-08-19T08:12:55Z</time>
      </trkpt>
      <trkpt lat="43.99197" lon="7.26073">
        <ele>1099.450562</ele>
        <time>2012-08-19T08:12:58Z</time>
      </trkpt>
      <trkpt lat="43.99199" lon="7.26076">
        <ele>1099.248779</ele>
        <time>2012-08-19T08:13:00Z</time>
      </trkpt>
      <trkpt lat="43.99201" lon="7.26083">
        <ele>1098.976074</ele>
        <time>2012-08-19T08:13:03Z</time>
      </trkpt>
      <trkpt lat="43.99201" lon="7.26088">
        <ele>1098.807007</ele>
        <time>2012-08-19T08:13:05Z</time>
      </trkpt>
      <trkpt lat="43.99201" lon="7.26094">
        <ele>1098.594238</ele>
        <time>2012-08-19T08:13:08Z</time>
      </trkpt>
      <trkpt lat="43.99203" lon="7.26099">
        <ele>1098.477417</ele>
        <time>2012-08-19T08:13:11Z</time>
      </trkpt>
      <trkpt lat="43.99206" lon="7.26103">
        <ele>1098.418091</ele>
        <time>2012-08-19T08:13:13Z</time>
      </trkpt>
      <trkpt lat="43.99209" lon="7.26108">
        <ele>1098.343872</ele>
        <time>2012-08-19T08:13:15Z</time>
      </trkpt>
      <trkpt lat="43.99212" lon="7.26113">
        <ele>1098.219849</ele>
        <time>2012-08-19T08:13:18Z</time>
      </trkpt>
      <trkpt lat="43.99214" lon="7.26118">
        <ele>1098.120483</ele>
        <time>2012-08-19T08:13:21Z</time>
      </trkpt>
      <trkpt lat="43.99215" lon="7.26119">
        <ele>1098.021118</ele>
        <time>2012-08-19T08:13:24Z</time>
      </trkpt>
      <trkpt lat="43.99216" lon="7.26121">
        <ele>1097.953125</ele>
        <time>2012-08-19T08:13:27Z</time>
      </trkpt>
      <trkpt lat="43.99218" lon="7.26123">
        <ele>1097.912964</ele>
        <time>2012-08-19T08:13:30Z</time>
      </trkpt>
      <trkpt lat="43.99219" lon="7.26125">
        <ele>1097.912231</ele>
        <time>2012-08-19T08:13:32Z</time>
      </trkpt>
      <trkpt lat="43.99221" lon="7.26128">
        <ele>1097.931152</ele>
        <time>2012-08-19T08:13:35Z</time>
      </trkpt>
      <trkpt lat="43.99222" lon="7.2613">
        <ele>1097.936279</ele>
        <time>2012-08-19T08:13:38Z</time>
      </trkpt>
      <trkpt lat="43.99223" lon="7.26132">
        <ele>1097.931519</ele>
        <time>2012-08-19T08:13:40Z</time>
      </trkpt>
      <trkpt lat="43.99224" lon="7.26132">
        <ele>1097.921265</ele>
        <time>2012-08-19T08:13:42Z</time>
      </trkpt>
      <trkpt lat="43.99226" lon="7.26133">
        <ele>1097.929932</ele>
        <time>2012-08-19T08:13:45Z</time>
      </trkpt>
      <trkpt lat="43.99227" lon="7.26135">
        <ele>1097.972412</ele>
        <time>2012-08-19T08:13:48Z</time>
      </trkpt>
      <trkpt lat="43.99228" lon="7.26134">
        <ele>1098.025513</ele>
        <time>2012-08-19T08:13:50Z</time>
      </trkpt>
      <trkpt lat="43.9923" lon="7.26134">
        <ele>1098.107544</ele>
        <time>2012-08-19T08:13:53Z</time>
      </trkpt>
      <trkpt lat="43.99233" lon="7.26134">
        <ele>1098.188354</ele>
        <time>2012-08-19T08:13:56Z</time>
      </trkpt>
      <trkpt lat="43.99235" lon="7.26136">
        <ele>1098.269531</ele>
        <time>2012-08-19T08:13:59Z</time>
      </trkpt>
      <trkpt lat="43.99237" lon="7.26138">
        <ele>1098.331055</ele>
        <time>2012-08-19T08:14:01Z</time>
      </trkpt>
      <trkpt lat="43.99239" lon="7.2614">
        <ele>1098.419189</ele>
        <time>2012-08-19T08:14:03Z</time>
      </trkpt>
      <trkpt lat="43.99245" lon="7.26144">
        <ele>1098.488525</ele>
        <time>2012-08-19T08:14:06Z</time>
      </trkpt>
      <trkpt lat="43.99251" lon="7.26147">
        <ele>1098.533936</ele>
        <time>2012-08-19T08:14:09Z</time>
      </trkpt>
      <trkpt lat="43.99256" lon="7.26146">
        <ele>1098.547119</ele>
        <time>2012-08-19T08:14:11Z</time>
      </trkpt>
      <trkpt lat="43.99259" lon="7.26147">
        <ele>1098.577759</ele>
        <time>2012-08-19T08:14:14Z</time>
      </trkpt>
      <trkpt lat="43.99261" lon="7.2615">
        <ele>1098.588989</ele>
        <time>2012-08-19T08:14:17Z</time>
      </trkpt>
      <trkpt lat="43.99263" lon="7.26154">
        <ele>1098.570435</ele>
        <time>2012-08-19T08:14:20Z</time>
      </trkpt>
      <trkpt lat="43.99264" lon="7.26156">
        <ele>1098.562012</ele>
        <time>2012-08-19T08:14:22Z</time>
      </trkpt>
      <trkpt lat="43.99266" lon="7.26158">
        <ele>1098.553955</ele>
        <time>2012-08-19T08:14:24Z</time>
      </trkpt>
      <trkpt lat="43.99268" lon="7.26162">
        <ele>1098.537476</ele>
        <time>2012-08-19T08:14:27Z</time>
      </trkpt>
      <trkpt lat="43.9927" lon="7.26166">
        <ele>1098.508545</ele>
        <time>2012-08-19T08:14:30Z</time>
      </trkpt>
      <trkpt lat="43.99273" lon="7.26169">
        <ele>1098.484131</ele>
        <time>2012-08-19T08:14:33Z</time>
      </trkpt>
      <trkpt lat="43.99273" lon="7.26171">
        <ele>1098.510376</ele>
        <time>2012-08-19T08:14:36Z</time>
      </trkpt>
      <trkpt lat="43.99271" lon="7.26177">
        <ele>1098.644775</ele>
        <time>2012-08-19T08:14:39Z</time>
      </trkpt>
      <trkpt lat="43.99269" lon="7.26185">
        <ele>1098.866699</ele>
        <time>2012-08-19T08:14:42Z</time>
      </trkpt>
      <trkpt lat="43.99267" lon="7.26193">
        <ele>1099.227173</ele>
        <time>2012-08-19T08:14:47Z</time>
      </trkpt>
      <trkpt lat="43.99263" lon="7.26197">
        <ele>1099.46936</ele>
        <time>2012-08-19T08:14:50Z</time>
      </trkpt>
      <trkpt lat="43.9926" lon="7.26199">
        <ele>1099.595947</ele>
        <time>2012-08-19T08:14:52Z</time>
      </trkpt>
      <trkpt lat="43.99257" lon="7.262">
        <ele>1099.690674</ele>
        <time>2012-08-19T08:14:54Z</time>
      </trkpt>
      <trkpt lat="43.99255" lon="7.26202">
        <ele>1099.780396</ele>
        <time>2012-08-19T08:14:56Z</time>
      </trkpt>
      <trkpt lat="43.99251" lon="7.26207">
        <ele>1099.959106</ele>
        <time>2012-08-19T08:14:59Z</time>
      </trkpt>
      <trkpt lat="43.99248" lon="7.26211">
        <ele>1100.125854</ele>
        <time>2012-08-19T08:15:02Z</time>
      </trkpt>
      <trkpt lat="43.99245" lon="7.26218">
        <ele>1100.378296</ele>
        <time>2012-08-19T08:15:05Z</time>
      </trkpt>
      <trkpt lat="43.99243" lon="7.26221">
        <ele>1100.518799</ele>
        <time>2012-08-19T08:15:07Z</time>
      </trkpt>
      <trkpt lat="43.99241" lon="7.26225">
        <ele>1100.63269</ele>
        <time>2012-08-19T08:15:09Z</time>
      </trkpt>
      <trkpt lat="43.99239" lon="7.26228">
        <ele>1100.71814</ele>
        <time>2012-08-19T08:15:11Z</time>
      </trkpt>
      <trkpt lat="43.99237" lon="7.26232">
        <ele>1100.811523</ele>
        <time>2012-08-19T08:15:13Z</time>
      </trkpt>
      <trkpt lat="43.99233" lon="7.26237">
        <ele>1100.969727</ele>
        <time>2012-08-19T08:15:16Z</time>
      </trkpt>
      <trkpt lat="43.99229" lon="7.26241">
        <ele>1101.122681</ele>
        <time>2012-08-19T08:15:19Z</time>
      </trkpt>
      <trkpt lat="43.99227" lon="7.26244">
        <ele>1101.205444</ele>
        <time>2012-08-19T08:15:21Z</time>
      </trkpt>
      <trkpt lat="43.99224" lon="7.26246">
        <ele>1101.296387</ele>
        <time>2012-08-19T08:15:24Z</time>
      </trkpt>
      <trkpt lat="43.99222" lon="7.2625">
        <ele>1101.343384</ele>
        <time>2012-08-19T08:15:26Z</time>
      </trkpt>
      <trkpt lat="43.99218" lon="7.26256">
        <ele>1101.425415</ele>
        <time>2012-08-19T08:15:29Z</time>
      </trkpt>
      <trkpt lat="43.99215" lon="7.26261">
        <ele>1101.485229</ele>
        <time>2012-08-19T08:15:32Z</time>
      </trkpt>
      <trkpt lat="43.99213" lon="7.26266">
        <ele>1101.502686</ele>
        <time>2012-08-19T08:15:35Z</time>
      </trkpt>
      <trkpt lat="43.99211" lon="7.26269">
        <ele>1101.514282</ele>
        <time>2012-08-19T08:15:37Z</time>
      </trkpt>
      <trkpt lat="43.99209" lon="7.26271">
        <ele>1101.573608</ele>
        <time>2012-08-19T08:15:40Z</time>
      </trkpt>
      <trkpt lat="43.99207" lon="7.26271">
        <ele>1101.600342</ele>
        <time>2012-08-19T08:15:42Z</time>
      </trkpt>
      <trkpt lat="43.99204" lon="7.26272">
        <ele>1101.623169</ele>
        <time>2012-08-19T08:15:45Z</time>
      </trkpt>
      <trkpt lat="43.99203" lon="7.26272">
        <ele>1101.619873</ele>
        <time>2012-08-19T08:15:47Z</time>
      </trkpt>
      <trkpt lat="43.992" lon="7.26273">
        <ele>1101.569702</ele>
        <time>2012-08-19T08:15:50Z</time>
      </trkpt>
      <trkpt lat="43.99196" lon="7.26275">
        <ele>1101.478394</ele>
        <time>2012-08-19T08:15:53Z</time>
      </trkpt>
      <trkpt lat="43.99194" lon="7.26277">
        <ele>1101.385864</ele>
        <time>2012-08-19T08:15:56Z</time>
      </trkpt>
      <trkpt lat="43.99192" lon="7.26279">
        <ele>1101.285278</ele>
        <time>2012-08-19T08:15:59Z</time>
      </trkpt>
      <trkpt lat="43.9919" lon="7.26282">
        <ele>1101.205444</ele>
        <time>2012-08-19T08:16:01Z</time>
      </trkpt>
      <trkpt lat="43.99189" lon="7.26284">
        <ele>1101.115845</ele>
        <time>2012-08-19T08:16:03Z</time>
      </trkpt>
      <trkpt lat="43.99187" lon="7.26286">
        <ele>1101.026123</ele>
        <time>2012-08-19T08:16:05Z</time>
      </trkpt>
      <trkpt lat="43.99184" lon="7.26288">
        <ele>1100.894653</ele>
        <time>2012-08-19T08:16:08Z</time>
      </trkpt>
      <trkpt lat="43.99182" lon="7.26289">
        <ele>1100.804688</ele>
        <time>2012-08-19T08:16:10Z</time>
      </trkpt>
      <trkpt lat="43.9918" lon="7.26291">
        <ele>1100.6521</ele>
        <time>2012-08-19T08:16:13Z</time>
      </trkpt>
      <trkpt lat="43.99179" lon="7.26292">
        <ele>1100.555542</ele>
        <time>2012-08-19T08:16:15Z</time>
      </trkpt>
      <trkpt lat="43.99176" lon="7.26293">
        <ele>1100.429199</ele>
        <time>2012-08-19T08:16:18Z</time>
      </trkpt>
      <trkpt lat="43.99174" lon="7.26296">
        <ele>1100.382324</ele>
        <time>2012-08-19T08:16:20Z</time>
      </trkpt>
      <trkpt lat="43.99173" lon="7.26297">
        <ele>1100.421387</ele>
        <time>2012-08-19T08:16:23Z</time>
      </trkpt>
      <trkpt lat="43.99173" lon="7.26297">
        <ele>1100.523682</ele>
        <time>2012-08-19T08:16:25Z</time>
      </trkpt>
      <trkpt lat="43.99168" lon="7.263">
        <ele>1100.632202</ele>
        <time>2012-08-19T08:16:28Z</time>
      </trkpt>
      <trkpt lat="43.99166" lon="7.26301">
        <ele>1100.689819</ele>
        <time>2012-08-19T08:16:30Z</time>
      </trkpt>
      <trkpt lat="43.99162" lon="7.26303">
        <ele>1100.760986</ele>
        <time>2012-08-19T08:16:33Z</time>
      </trkpt>
      <trkpt lat="43.99162" lon="7.26303">
        <ele>1100.764893</ele>
        <time>2012-08-19T08:16:35Z</time>
      </trkpt>
      <trkpt lat="43.99157" lon="7.26306">
        <ele>1100.880981</ele>
        <time>2012-08-19T08:16:37Z</time>
      </trkpt>
      <trkpt lat="43.99154" lon="7.26308">
        <ele>1101.162598</ele>
        <time>2012-08-19T08:16:39Z</time>
      </trkpt>
      <trkpt lat="43.9915" lon="7.26311">
        <ele>1101.57605</ele>
        <time>2012-08-19T08:16:42Z</time>
      </trkpt>
      <trkpt lat="43.99149" lon="7.26312">
        <ele>1101.730835</ele>
        <time>2012-08-19T08:16:44Z</time>
      </trkpt>
      <trkpt lat="43.99149" lon="7.26312">
        <ele>1102.239502</ele>
        <time>2012-08-19T08:16:47Z</time>
      </trkpt>
      <trkpt lat="43.99144" lon="7.26314">
        <ele>1102.605835</ele>
        <time>2012-08-19T08:16:49Z</time>
      </trkpt>
      <trkpt lat="43.99141" lon="7.26316">
        <ele>1102.96167</ele>
        <time>2012-08-19T08:16:51Z</time>
      </trkpt>
      <trkpt lat="43.99137" lon="7.26316">
        <ele>1103.441406</ele>
        <time>2012-08-19T08:16:54Z</time>
      </trkpt>
      <trkpt lat="43.99135" lon="7.26317">
        <ele>1103.718018</ele>
        <time>2012-08-19T08:16:56Z</time>
      </trkpt>
      <trkpt lat="43.99132" lon="7.26316">
        <ele>1104.099731</ele>
        <time>2012-08-19T08:16:59Z</time>
      </trkpt>
      <trkpt lat="43.9913" lon="7.26315">
        <ele>1104.455322</ele>
        <time>2012-08-19T08:17:02Z</time>
      </trkpt>
      <trkpt lat="43.99128" lon="7.26315">
        <ele>1104.692017</ele>
        <time>2012-08-19T08:17:04Z</time>
      </trkpt>
      <trkpt lat="43.99127" lon="7.26316">
        <ele>1104.922974</ele>
        <time>2012-08-19T08:17:06Z</time>
      </trkpt>
      <trkpt lat="43.99125" lon="7.26318">
        <ele>1105.270386</ele>
        <time>2012-08-19T08:17:09Z</time>
      </trkpt>
      <trkpt lat="43.99124" lon="7.26318">
        <ele>1105.409058</ele>
        <time>2012-08-19T08:17:11Z</time>
      </trkpt>
      <trkpt lat="43.99124" lon="7.26318">
        <ele>1105.444214</ele>
        <time>2012-08-19T08:17:14Z</time>
      </trkpt>
      <trkpt lat="43.99124" lon="7.26318">
        <ele>1105.615967</ele>
        <time>2012-08-19T08:17:16Z</time>
      </trkpt>
      <trkpt lat="43.9912" lon="7.26316">
        <ele>1106.209839</ele>
        <time>2012-08-19T08:17:19Z</time>
      </trkpt>
      <trkpt lat="43.99117" lon="7.26313">
        <ele>1106.676147</ele>
        <time>2012-08-19T08:17:21Z</time>
      </trkpt>
      <trkpt lat="43.99115" lon="7.26308">
        <ele>1107.778931</ele>
        <time>2012-08-19T08:17:24Z</time>
      </trkpt>
      <trkpt lat="43.99115" lon="7.26296">
        <ele>1109.822632</ele>
        <time>2012-08-19T08:17:27Z</time>
      </trkpt>
      <trkpt lat="43.99113" lon="7.26291">
        <ele>1112.196899</ele>
        <time>2012-08-19T08:17:30Z</time>
      </trkpt>
      <trkpt lat="43.9911" lon="7.26286">
        <ele>1114.740479</ele>
        <time>2012-08-19T08:17:33Z</time>
      </trkpt>
      <trkpt lat="43.99105" lon="7.26284">
        <ele>1117.266113</ele>
        <time>2012-08-19T08:17:36Z</time>
      </trkpt>
      <trkpt lat="43.99101" lon="7.26282">
        <ele>1119.695068</ele>
        <time>2012-08-19T08:17:39Z</time>
      </trkpt>
      <trkpt lat="43.99097" lon="7.26282">
        <ele>1121.939331</ele>
        <time>2012-08-19T08:17:42Z</time>
      </trkpt>
      <trkpt lat="43.99093" lon="7.26282">
        <ele>1124.073975</ele>
        <time>2012-08-19T08:17:45Z</time>
      </trkpt>
      <trkpt lat="43.99089" lon="7.26284">
        <ele>1126.12793</ele>
        <time>2012-08-19T08:17:48Z</time>
      </trkpt>
      <trkpt lat="43.99087" lon="7.26287">
        <ele>1127.562622</ele>
        <time>2012-08-19T08:17:50Z</time>
      </trkpt>
      <trkpt lat="43.99085" lon="7.2629">
        <ele>1129.039795</ele>
        <time>2012-08-19T08:17:52Z</time>
      </trkpt>
      <trkpt lat="43.99083" lon="7.26295">
        <ele>1131.264282</ele>
        <time>2012-08-19T08:17:55Z</time>
      </trkpt>
      <trkpt lat="43.99083" lon="7.26298">
        <ele>1132.736816</ele>
        <time>2012-08-19T08:17:57Z</time>
      </trkpt>
      <trkpt lat="43.99083" lon="7.263">
        <ele>1134.913818</ele>
        <time>2012-08-19T08:18:00Z</time>
      </trkpt>
      <trkpt lat="43.99083" lon="7.263">
        <ele>1136.098511</ele>
        <time>2012-08-19T08:18:02Z</time>
      </trkpt>
      <trkpt lat="43.99086" lon="7.26306">
        <ele>1137.799438</ele>
        <time>2012-08-19T08:18:05Z</time>
      </trkpt>
      <trkpt lat="43.99086" lon="7.26306">
        <ele>1138.636475</ele>
        <time>2012-08-19T08:18:07Z</time>
      </trkpt>
      <trkpt lat="43.99088" lon="7.26312">
        <ele>1139.648804</ele>
        <time>2012-08-19T08:18:10Z</time>
      </trkpt>
      <trkpt lat="43.9909" lon="7.26318">
        <ele>1140.064941</ele>
        <time>2012-08-19T08:18:13Z</time>
      </trkpt>
      <trkpt lat="43.99091" lon="7.26326">
        <ele>1140.121704</ele>
        <time>2012-08-19T08:18:16Z</time>
      </trkpt>
      <trkpt lat="43.9909" lon="7.26334">
        <ele>1140.221924</ele>
        <time>2012-08-19T08:18:19Z</time>
      </trkpt>
      <trkpt lat="43.99088" lon="7.26338">
        <ele>1140.229492</ele>
        <time>2012-08-19T08:18:21Z</time>
      </trkpt>
      <trkpt lat="43.99084" lon="7.26344">
        <ele>1140.42334</ele>
        <time>2012-08-19T08:18:24Z</time>
      </trkpt>
      <trkpt lat="43.99079" lon="7.26355">
        <ele>1141.233643</ele>
        <time>2012-08-19T08:18:27Z</time>
      </trkpt>
      <trkpt lat="43.99074" lon="7.26364">
        <ele>1142.211304</ele>
        <time>2012-08-19T08:18:30Z</time>
      </trkpt>
      <trkpt lat="43.99071" lon="7.26367">
        <ele>1142.881104</ele>
        <time>2012-08-19T08:18:32Z</time>
      </trkpt>
      <trkpt lat="43.99067" lon="7.26371">
        <ele>1143.916626</ele>
        <time>2012-08-19T08:18:35Z</time>
      </trkpt>
      <trkpt lat="43.99063" lon="7.26372">
        <ele>1144.595215</ele>
        <time>2012-08-19T08:18:37Z</time>
      </trkpt>
      <trkpt lat="43.9906" lon="7.26373">
        <ele>1145.354004</ele>
        <time>2012-08-19T08:18:39Z</time>
      </trkpt>
      <trkpt lat="43.99056" lon="7.26372">
        <ele>1146.572266</ele>
        <time>2012-08-19T08:18:42Z</time>
      </trkpt>
      <trkpt lat="43.99052" lon="7.2637">
        <ele>1147.821289</ele>
        <time>2012-08-19T08:18:45Z</time>
      </trkpt>
      <trkpt lat="43.99049" lon="7.26368">
        <ele>1149.043457</ele>
        <time>2012-08-19T08:18:48Z</time>
      </trkpt>
      <trkpt lat="43.99047" lon="7.26368">
        <ele>1149.834473</ele>
        <time>2012-08-19T08:18:50Z</time>
      </trkpt>
      <trkpt lat="43.99044" lon="7.26367">
        <ele>1150.651001</ele>
        <time>2012-08-19T08:18:52Z</time>
      </trkpt>
      <trkpt lat="43.99043" lon="7.26366">
        <ele>1151.604126</ele>
        <time>2012-08-19T08:18:54Z</time>
      </trkpt>
      <trkpt lat="43.99041" lon="7.26363">
        <ele>1152.621338</ele>
        <time>2012-08-19T08:18:56Z</time>
      </trkpt>
      <trkpt lat="43.99039" lon="7.26361">
        <ele>1154.158936</ele>
        <time>2012-08-19T08:18:59Z</time>
      </trkpt>
      <trkpt lat="43.99036" lon="7.26361">
        <ele>1155.659546</ele>
        <time>2012-08-19T08:19:02Z</time>
      </trkpt>
      <trkpt lat="43.99035" lon="7.26362">
        <ele>1156.200195</ele>
        <time>2012-08-19T08:19:04Z</time>
      </trkpt>
      <trkpt lat="43.99031" lon="7.26359">
        <ele>1157.293945</ele>
        <time>2012-08-19T08:19:07Z</time>
      </trkpt>
      <trkpt lat="43.99031" lon="7.26361">
        <ele>1158.771484</ele>
        <time>2012-08-19T08:19:10Z</time>
      </trkpt>
      <trkpt lat="43.99032" lon="7.26365">
        <ele>1160.121704</ele>
        <time>2012-08-19T08:19:13Z</time>
      </trkpt>
      <trkpt lat="43.99036" lon="7.26368">
        <ele>1161.230347</ele>
        <time>2012-08-19T08:19:16Z</time>
      </trkpt>
      <trkpt lat="43.99042" lon="7.26369">
        <ele>1162.091187</ele>
        <time>2012-08-19T08:19:19Z</time>
      </trkpt>
      <trkpt lat="43.99044" lon="7.2637">
        <ele>1162.614014</ele>
        <time>2012-08-19T08:19:21Z</time>
      </trkpt>
      <trkpt lat="43.99048" lon="7.26374">
        <ele>1163.174927</ele>
        <time>2012-08-19T08:19:24Z</time>
      </trkpt>
      <trkpt lat="43.9905" lon="7.26377">
        <ele>1163.470581</ele>
        <time>2012-08-19T08:19:26Z</time>
      </trkpt>
      <trkpt lat="43.99052" lon="7.26381">
        <ele>1163.716309</ele>
        <time>2012-08-19T08:19:29Z</time>
      </trkpt>
      <trkpt lat="43.99055" lon="7.26383">
        <ele>1163.71167</ele>
        <time>2012-08-19T08:19:31Z</time>
      </trkpt>
      <trkpt lat="43.99056" lon="7.26387">
        <ele>1163.5271</ele>
        <time>2012-08-19T08:19:33Z</time>
      </trkpt>
      <trkpt lat="43.99059" lon="7.26393">
        <ele>1163.263794</ele>
        <time>2012-08-19T08:19:36Z</time>
      </trkpt>
      <trkpt lat="43.99062" lon="7.26399">
        <ele>1163.040283</ele>
        <time>2012-08-19T08:19:39Z</time>
      </trkpt>
      <trkpt lat="43.99064" lon="7.26405">
        <ele>1162.818237</ele>
        <time>2012-08-19T08:19:42Z</time>
      </trkpt>
      <trkpt lat="43.99065" lon="7.26411">
        <ele>1162.546509</ele>
        <time>2012-08-19T08:19:45Z</time>
      </trkpt>
      <trkpt lat="43.99065" lon="7.26411">
        <ele>1162.306396</ele>
        <time>2012-08-19T08:19:47Z</time>
      </trkpt>
      <trkpt lat="43.9907" lon="7.26419">
        <ele>1162.073608</ele>
        <time>2012-08-19T08:19:50Z</time>
      </trkpt>
      <trkpt lat="43.99072" lon="7.26426">
        <ele>1161.945557</ele>
        <time>2012-08-19T08:19:52Z</time>
      </trkpt>
      <trkpt lat="43.99074" lon="7.26432">
        <ele>1161.875977</ele>
        <time>2012-08-19T08:19:54Z</time>
      </trkpt>
      <trkpt lat="43.99077" lon="7.26439">
        <ele>1161.856812</ele>
        <time>2012-08-19T08:19:57Z</time>
      </trkpt>
      <trkpt lat="43.99077" lon="7.26439">
        <ele>1161.608887</ele>
        <time>2012-08-19T08:20:00Z</time>
      </trkpt>
      <trkpt lat="43.99081" lon="7.26443">
        <ele>1161.363525</ele>
        <time>2012-08-19T08:20:03Z</time>
      </trkpt>
      <trkpt lat="43.99081" lon="7.26443">
        <ele>1161.216919</ele>
        <time>2012-08-19T08:20:05Z</time>
      </trkpt>
      <trkpt lat="43.99086" lon="7.26441">
        <ele>1161.078857</ele>
        <time>2012-08-19T08:20:07Z</time>
      </trkpt>
      <trkpt lat="43.99086" lon="7.26441">
        <ele>1160.875</ele>
        <time>2012-08-19T08:20:10Z</time>
      </trkpt>
      <trkpt lat="43.99091" lon="7.26439">
        <ele>1160.70166</ele>
        <time>2012-08-19T08:20:12Z</time>
      </trkpt>
      <trkpt lat="43.99098" lon="7.2644">
        <ele>1160.427246</ele>
        <time>2012-08-19T08:20:15Z</time>
      </trkpt>
      <trkpt lat="43.99104" lon="7.2644">
        <ele>1160.159302</ele>
        <time>2012-08-19T08:20:18Z</time>
      </trkpt>
      <trkpt lat="43.99109" lon="7.26441">
        <ele>1159.976562</ele>
        <time>2012-08-19T08:20:20Z</time>
      </trkpt>
      <trkpt lat="43.99114" lon="7.26443">
        <ele>1159.78125</ele>
        <time>2012-08-19T08:20:22Z</time>
      </trkpt>
      <trkpt lat="43.9912" lon="7.26446">
        <ele>1159.587036</ele>
        <time>2012-08-19T08:20:24Z</time>
      </trkpt>
      <trkpt lat="43.99129" lon="7.26449">
        <ele>1159.285278</ele>
        <time>2012-08-19T08:20:27Z</time>
      </trkpt>
      <trkpt lat="43.99143" lon="7.26448">
        <ele>1158.993164</ele>
        <time>2012-08-19T08:20:30Z</time>
      </trkpt>
      <trkpt lat="43.99153" lon="7.2645">
        <ele>1158.745483</ele>
        <time>2012-08-19T08:20:33Z</time>
      </trkpt>
      <trkpt lat="43.99157" lon="7.26452">
        <ele>1158.612061</ele>
        <time>2012-08-19T08:20:35Z</time>
      </trkpt>
      <trkpt lat="43.99162" lon="7.26456">
        <ele>1158.405518</ele>
        <time>2012-08-19T08:20:38Z</time>
      </trkpt>
      <trkpt lat="43.99167" lon="7.2646">
        <ele>1158.211548</ele>
        <time>2012-08-19T08:20:40Z</time>
      </trkpt>
      <trkpt lat="43.99173" lon="7.26466">
        <ele>1157.939453</ele>
        <time>2012-08-19T08:20:43Z</time>
      </trkpt>
      <trkpt lat="43.99175" lon="7.26469">
        <ele>1157.77002</ele>
        <time>2012-08-19T08:20:45Z</time>
      </trkpt>
      <trkpt lat="43.99179" lon="7.26474">
        <ele>1157.52771</ele>
        <time>2012-08-19T08:20:48Z</time>
      </trkpt>
      <trkpt lat="43.99183" lon="7.26478">
        <ele>1157.363403</ele>
        <time>2012-08-19T08:20:50Z</time>
      </trkpt>
      <trkpt lat="43.99186" lon="7.26481">
        <ele>1157.219849</ele>
        <time>2012-08-19T08:20:52Z</time>
      </trkpt>
      <trkpt lat="43.9919" lon="7.26484">
        <ele>1157.050903</ele>
        <time>2012-08-19T08:20:54Z</time>
      </trkpt>
      <trkpt lat="43.99195" lon="7.26491">
        <ele>1156.762695</ele>
        <time>2012-08-19T08:20:57Z</time>
      </trkpt>
      <trkpt lat="43.99196" lon="7.26495">
        <ele>1156.568604</ele>
        <time>2012-08-19T08:20:59Z</time>
      </trkpt>
      <trkpt lat="43.99197" lon="7.26498">
        <ele>1156.396851</ele>
        <time>2012-08-19T08:21:01Z</time>
      </trkpt>
      <trkpt lat="43.99198" lon="7.26504">
        <ele>1156.145874</ele>
        <time>2012-08-19T08:21:04Z</time>
      </trkpt>
      <trkpt lat="43.99199" lon="7.26507">
        <ele>1156.029541</ele>
        <time>2012-08-19T08:21:06Z</time>
      </trkpt>
      <trkpt lat="43.99199" lon="7.26512">
        <ele>1155.856934</ele>
        <time>2012-08-19T08:21:09Z</time>
      </trkpt>
      <trkpt lat="43.99198" lon="7.26519">
        <ele>1156.043213</ele>
        <time>2012-08-19T08:21:12Z</time>
      </trkpt>
      <trkpt lat="43.99197" lon="7.26527">
        <ele>1156.322632</ele>
        <time>2012-08-19T08:21:14Z</time>
      </trkpt>
      <trkpt lat="43.99195" lon="7.26539">
        <ele>1156.900146</ele>
        <time>2012-08-19T08:21:17Z</time>
      </trkpt>
      <trkpt lat="43.99193" lon="7.26545">
        <ele>1157.357178</ele>
        <time>2012-08-19T08:21:19Z</time>
      </trkpt>
      <trkpt lat="43.99191" lon="7.26548">
        <ele>1158.05957</ele>
        <time>2012-08-19T08:21:22Z</time>
      </trkpt>
      <trkpt lat="43.99185" lon="7.26559">
        <ele>1158.834473</ele>
        <time>2012-08-19T08:21:25Z</time>
      </trkpt>
      <trkpt lat="43.99182" lon="7.26563">
        <ele>1159.316162</ele>
        <time>2012-08-19T08:21:27Z</time>
      </trkpt>
      <trkpt lat="43.99179" lon="7.26566">
        <ele>1159.739746</ele>
        <time>2012-08-19T08:21:29Z</time>
      </trkpt>
      <trkpt lat="43.99176" lon="7.26569">
        <ele>1160.147949</ele>
        <time>2012-08-19T08:21:31Z</time>
      </trkpt>
      <trkpt lat="43.99173" lon="7.26573">
        <ele>1160.51355</ele>
        <time>2012-08-19T08:21:33Z</time>
      </trkpt>
      <trkpt lat="43.99169" lon="7.2658">
        <ele>1160.970947</ele>
        <time>2012-08-19T08:21:36Z</time>
      </trkpt>
      <trkpt lat="43.99167" lon="7.26585">
        <ele>1161.347534</ele>
        <time>2012-08-19T08:21:39Z</time>
      </trkpt>
      <trkpt lat="43.99166" lon="7.2659">
        <ele>1161.584106</ele>
        <time>2012-08-19T08:21:41Z</time>
      </trkpt>
      <trkpt lat="43.99167" lon="7.26597">
        <ele>1161.883057</ele>
        <time>2012-08-19T08:21:44Z</time>
      </trkpt>
      <trkpt lat="43.99168" lon="7.26602">
        <ele>1162.028442</ele>
        <time>2012-08-19T08:21:46Z</time>
      </trkpt>
      <trkpt lat="43.9917" lon="7.26609">
        <ele>1162.212158</ele>
        <time>2012-08-19T08:21:49Z</time>
      </trkpt>
      <trkpt lat="43.99172" lon="7.26614">
        <ele>1162.292969</ele>
        <time>2012-08-19T08:21:51Z</time>
      </trkpt>
      <trkpt lat="43.99173" lon="7.26621">
        <ele>1162.406616</ele>
        <time>2012-08-19T08:21:54Z</time>
      </trkpt>
      <trkpt lat="43.99174" lon="7.26628">
        <ele>1162.430298</ele>
        <time>2012-08-19T08:21:57Z</time>
      </trkpt>
      <trkpt lat="43.99176" lon="7.26634">
        <ele>1162.440674</ele>
        <time>2012-08-19T08:22:00Z</time>
      </trkpt>
      <trkpt lat="43.99177" lon="7.2664">
        <ele>1162.345825</ele>
        <time>2012-08-19T08:22:03Z</time>
      </trkpt>
      <trkpt lat="43.99179" lon="7.26645">
        <ele>1162.281372</ele>
        <time>2012-08-19T08:22:06Z</time>
      </trkpt>
      <trkpt lat="43.99181" lon="7.26651">
        <ele>1162.203491</ele>
        <time>2012-08-19T08:22:09Z</time>
      </trkpt>
      <trkpt lat="43.99183" lon="7.26655">
        <ele>1162.104004</ele>
        <time>2012-08-19T08:22:11Z</time>
      </trkpt>
      <trkpt lat="43.99185" lon="7.26659">
        <ele>1162.021851</ele>
        <time>2012-08-19T08:22:13Z</time>
      </trkpt>
      <trkpt lat="43.99188" lon="7.26664">
        <ele>1161.916138</ele>
        <time>2012-08-19T08:22:16Z</time>
      </trkpt>
      <trkpt lat="43.99191" lon="7.26669">
        <ele>1161.792114</ele>
        <time>2012-08-19T08:22:19Z</time>
      </trkpt>
      <trkpt lat="43.99194" lon="7.26672">
        <ele>1161.708618</ele>
        <time>2012-08-19T08:22:21Z</time>
      </trkpt>
      <trkpt lat="43.99196" lon="7.26678">
        <ele>1161.617676</ele>
        <time>2012-08-19T08:22:24Z</time>
      </trkpt>
      <trkpt lat="43.99199" lon="7.26684">
        <ele>1161.555664</ele>
        <time>2012-08-19T08:22:27Z</time>
      </trkpt>
      <trkpt lat="43.99203" lon="7.2669">
        <ele>1161.476318</ele>
        <time>2012-08-19T08:22:30Z</time>
      </trkpt>
      <trkpt lat="43.99205" lon="7.26695">
        <ele>1161.439209</ele>
        <time>2012-08-19T08:22:32Z</time>
      </trkpt>
      <trkpt lat="43.99208" lon="7.26703">
        <ele>1161.407837</ele>
        <time>2012-08-19T08:22:35Z</time>
      </trkpt>
      <trkpt lat="43.99211" lon="7.26712">
        <ele>1161.377808</ele>
        <time>2012-08-19T08:22:38Z</time>
      </trkpt>
      <trkpt lat="43.99212" lon="7.26721">
        <ele>1161.339478</ele>
        <time>2012-08-19T08:22:41Z</time>
      </trkpt>
      <trkpt lat="43.99214" lon="7.2673">
        <ele>1161.306519</ele>
        <time>2012-08-19T08:22:44Z</time>
      </trkpt>
      <trkpt lat="43.99214" lon="7.26735">
        <ele>1161.309692</ele>
        <time>2012-08-19T08:22:46Z</time>
      </trkpt>
      <trkpt lat="43.99214" lon="7.26743">
        <ele>1161.404053</ele>
        <time>2012-08-19T08:22:49Z</time>
      </trkpt>
      <trkpt lat="43.99213" lon="7.26748">
        <ele>1161.514771</ele>
        <time>2012-08-19T08:22:51Z</time>
      </trkpt>
      <trkpt lat="43.99212" lon="7.26753">
        <ele>1161.634644</ele>
        <time>2012-08-19T08:22:53Z</time>
      </trkpt>
      <trkpt lat="43.99208" lon="7.2676">
        <ele>1161.883545</ele>
        <time>2012-08-19T08:22:56Z</time>
      </trkpt>
      <trkpt lat="43.99203" lon="7.26769">
        <ele>1162.45752</ele>
        <time>2012-08-19T08:22:59Z</time>
      </trkpt>
      <trkpt lat="43.99199" lon="7.26775">
        <ele>1162.92688</ele>
        <time>2012-08-19T08:23:01Z</time>
      </trkpt>
      <trkpt lat="43.99196" lon="7.26781">
        <ele>1163.372803</ele>
        <time>2012-08-19T08:23:03Z</time>
      </trkpt>
      <trkpt lat="43.99192" lon="7.26786">
        <ele>1163.831787</ele>
        <time>2012-08-19T08:23:05Z</time>
      </trkpt>
      <trkpt lat="43.99187" lon="7.26793">
        <ele>1164.518921</ele>
        <time>2012-08-19T08:23:08Z</time>
      </trkpt>
      <trkpt lat="43.99181" lon="7.26799">
        <ele>1165.247559</ele>
        <time>2012-08-19T08:23:11Z</time>
      </trkpt>
      <trkpt lat="43.99176" lon="7.26804">
        <ele>1165.911621</ele>
        <time>2012-08-19T08:23:14Z</time>
      </trkpt>
      <trkpt lat="43.99173" lon="7.26807">
        <ele>1166.358643</ele>
        <time>2012-08-19T08:23:16Z</time>
      </trkpt>
      <trkpt lat="43.99169" lon="7.26809">
        <ele>1166.778442</ele>
        <time>2012-08-19T08:23:18Z</time>
      </trkpt>
      <trkpt lat="43.99166" lon="7.2681">
        <ele>1167.155273</ele>
        <time>2012-08-19T08:23:20Z</time>
      </trkpt>
      <trkpt lat="43.99162" lon="7.26813">
        <ele>1167.738892</ele>
        <time>2012-08-19T08:23:23Z</time>
      </trkpt>
      <trkpt lat="43.99156" lon="7.26817">
        <ele>1168.395264</ele>
        <time>2012-08-19T08:23:26Z</time>
      </trkpt>
      <trkpt lat="43.99152" lon="7.26819">
        <ele>1168.748535</ele>
        <time>2012-08-19T08:23:28Z</time>
      </trkpt>
      <trkpt lat="43.99145" lon="7.26823">
        <ele>1169.236938</ele>
        <time>2012-08-19T08:23:31Z</time>
      </trkpt>
      <trkpt lat="43.9914" lon="7.26826">
        <ele>1169.761841</ele>
        <time>2012-08-19T08:23:34Z</time>
      </trkpt>
      <trkpt lat="43.99137" lon="7.26828">
        <ele>1170.119995</ele>
        <time>2012-08-19T08:23:36Z</time>
      </trkpt>
      <trkpt lat="43.99133" lon="7.2683">
        <ele>1170.613037</ele>
        <time>2012-08-19T08:23:39Z</time>
      </trkpt>
      <trkpt lat="43.9913" lon="7.26831">
        <ele>1170.944336</ele>
        <time>2012-08-19T08:23:41Z</time>
      </trkpt>
      <trkpt lat="43.99128" lon="7.26832">
        <ele>1171.274536</ele>
        <time>2012-08-19T08:23:43Z</time>
      </trkpt>
      <trkpt lat="43.99123" lon="7.26834">
        <ele>1171.762085</ele>
        <time>2012-08-19T08:23:46Z</time>
      </trkpt>
      <trkpt lat="43.99121" lon="7.26835">
        <ele>1172.099243</ele>
        <time>2012-08-19T08:23:48Z</time>
      </trkpt>
      <trkpt lat="43.99117" lon="7.26836">
        <ele>1172.60376</ele>
        <time>2012-08-19T08:23:51Z</time>
      </trkpt>
      <trkpt lat="43.99113" lon="7.26837">
        <ele>1173.098511</ele>
        <time>2012-08-19T08:23:54Z</time>
      </trkpt>
      <trkpt lat="43.99108" lon="7.26838">
        <ele>1173.568726</ele>
        <time>2012-08-19T08:23:57Z</time>
      </trkpt>
      <trkpt lat="43.99104" lon="7.26839">
        <ele>1174.023926</ele>
        <time>2012-08-19T08:24:00Z</time>
      </trkpt>
      <trkpt lat="43.99101" lon="7.26837">
        <ele>1174.453979</ele>
        <time>2012-08-19T08:24:03Z</time>
      </trkpt>
      <trkpt lat="43.99096" lon="7.26837">
        <ele>1174.93689</ele>
        <time>2012-08-19T08:24:06Z</time>
      </trkpt>
      <trkpt lat="43.99093" lon="7.26837">
        <ele>1175.211792</ele>
        <time>2012-08-19T08:24:08Z</time>
      </trkpt>
      <trkpt lat="43.99089" lon="7.26836">
        <ele>1175.615845</ele>
        <time>2012-08-19T08:24:11Z</time>
      </trkpt>
      <trkpt lat="43.99087" lon="7.26837">
        <ele>1175.866699</ele>
        <time>2012-08-19T08:24:13Z</time>
      </trkpt>
      <trkpt lat="43.99083" lon="7.26836">
        <ele>1176.241089</ele>
        <time>2012-08-19T08:24:16Z</time>
      </trkpt>
      <trkpt lat="43.99079" lon="7.26833">
        <ele>1176.608521</ele>
        <time>2012-08-19T08:24:19Z</time>
      </trkpt>
      <trkpt lat="43.99076" lon="7.26833">
        <ele>1176.868286</ele>
        <time>2012-08-19T08:24:21Z</time>
      </trkpt>
      <trkpt lat="43.99071" lon="7.26831">
        <ele>1177.22522</ele>
        <time>2012-08-19T08:24:24Z</time>
      </trkpt>
      <trkpt lat="43.99067" lon="7.26828">
        <ele>1177.560913</ele>
        <time>2012-08-19T08:24:27Z</time>
      </trkpt>
      <trkpt lat="43.99063" lon="7.26826">
        <ele>1177.91272</ele>
        <time>2012-08-19T08:24:30Z</time>
      </trkpt>
      <trkpt lat="43.99059" lon="7.26825">
        <ele>1178.219849</ele>
        <time>2012-08-19T08:24:33Z</time>
      </trkpt>
      <trkpt lat="43.99056" lon="7.26826">
        <ele>1178.415405</ele>
        <time>2012-08-19T08:24:35Z</time>
      </trkpt>
      <trkpt lat="43.9905" lon="7.26827">
        <ele>1178.760742</ele>
        <time>2012-08-19T08:24:38Z</time>
      </trkpt>
      <trkpt lat="43.99046" lon="7.2683">
        <ele>1179.031006</ele>
        <time>2012-08-19T08:24:40Z</time>
      </trkpt>
      <trkpt lat="43.99041" lon="7.26832">
        <ele>1179.378662</ele>
        <time>2012-08-19T08:24:42Z</time>
      </trkpt>
      <trkpt lat="43.99036" lon="7.26839">
        <ele>1179.880249</ele>
        <time>2012-08-19T08:24:45Z</time>
      </trkpt>
      <trkpt lat="43.99032" lon="7.26845">
        <ele>1180.203857</ele>
        <time>2012-08-19T08:24:48Z</time>
      </trkpt>
      <trkpt lat="43.9903" lon="7.26849">
        <ele>1180.504395</ele>
        <time>2012-08-19T08:24:51Z</time>
      </trkpt>
      <trkpt lat="43.9903" lon="7.26853">
        <ele>1180.700073</ele>
        <time>2012-08-19T08:24:53Z</time>
      </trkpt>
      <trkpt lat="43.99029" lon="7.26858">
        <ele>1180.958862</ele>
        <time>2012-08-19T08:24:56Z</time>
      </trkpt>
      <trkpt lat="43.99029" lon="7.26862">
        <ele>1181.132812</ele>
        <time>2012-08-19T08:24:58Z</time>
      </trkpt>
      <trkpt lat="43.99029" lon="7.26868">
        <ele>1181.411133</ele>
        <time>2012-08-19T08:25:01Z</time>
      </trkpt>
      <trkpt lat="43.99029" lon="7.26872">
        <ele>1181.618896</ele>
        <time>2012-08-19T08:25:03Z</time>
      </trkpt>
      <trkpt lat="43.99028" lon="7.26876">
        <ele>1181.83606</ele>
        <time>2012-08-19T08:25:05Z</time>
      </trkpt>
      <trkpt lat="43.99026" lon="7.26879">
        <ele>1182.044922</ele>
        <time>2012-08-19T08:25:07Z</time>
      </trkpt>
      <trkpt lat="43.99022" lon="7.26882">
        <ele>1182.377563</ele>
        <time>2012-08-19T08:25:10Z</time>
      </trkpt>
      <trkpt lat="43.9902" lon="7.26884">
        <ele>1182.547852</ele>
        <time>2012-08-19T08:25:12Z</time>
      </trkpt>
      <trkpt lat="43.99018" lon="7.26887">
        <ele>1182.674316</ele>
        <time>2012-08-19T08:25:14Z</time>
      </trkpt>
      <trkpt lat="43.99016" lon="7.26892">
        <ele>1182.882568</ele>
        <time>2012-08-19T08:25:16Z</time>
      </trkpt>
      <trkpt lat="43.9901" lon="7.26898">
        <ele>1183.248657</ele>
        <time>2012-08-19T08:25:19Z</time>
      </trkpt>
      <trkpt lat="43.99005" lon="7.26902">
        <ele>1183.547729</ele>
        <time>2012-08-19T08:25:21Z</time>
      </trkpt>
      <trkpt lat="43.98998" lon="7.26908">
        <ele>1184.126099</ele>
        <time>2012-08-19T08:25:24Z</time>
      </trkpt>
      <trkpt lat="43.98991" lon="7.26913">
        <ele>1184.543213</ele>
        <time>2012-08-19T08:25:27Z</time>
      </trkpt>
      <trkpt lat="43.98986" lon="7.26916">
        <ele>1184.741699</ele>
        <time>2012-08-19T08:25:29Z</time>
      </trkpt>
      <trkpt lat="43.98981" lon="7.26919">
        <ele>1184.942017</ele>
        <time>2012-08-19T08:25:31Z</time>
      </trkpt>
      <trkpt lat="43.98977" lon="7.26921">
        <ele>1185.136841</ele>
        <time>2012-08-19T08:25:33Z</time>
      </trkpt>
      <trkpt lat="43.98971" lon="7.26924">
        <ele>1185.467651</ele>
        <time>2012-08-19T08:25:36Z</time>
      </trkpt>
      <trkpt lat="43.98965" lon="7.26928">
        <ele>1185.654907</ele>
        <time>2012-08-19T08:25:39Z</time>
      </trkpt>
      <trkpt lat="43.98962" lon="7.26933">
        <ele>1185.734741</ele>
        <time>2012-08-19T08:25:41Z</time>
      </trkpt>
      <trkpt lat="43.98961" lon="7.26938">
        <ele>1185.783081</ele>
        <time>2012-08-19T08:25:43Z</time>
      </trkpt>
      <trkpt lat="43.9896" lon="7.26943">
        <ele>1185.799683</ele>
        <time>2012-08-19T08:25:45Z</time>
      </trkpt>
      <trkpt lat="43.9896" lon="7.26951">
        <ele>1185.746094</ele>
        <time>2012-08-19T08:25:48Z</time>
      </trkpt>
      <trkpt lat="43.9896" lon="7.26958">
        <ele>1185.607056</ele>
        <time>2012-08-19T08:25:51Z</time>
      </trkpt>
      <trkpt lat="43.98961" lon="7.26963">
        <ele>1185.498535</ele>
        <time>2012-08-19T08:25:53Z</time>
      </trkpt>
      <trkpt lat="43.98961" lon="7.26967">
        <ele>1185.413208</ele>
        <time>2012-08-19T08:25:55Z</time>
      </trkpt>
      <trkpt lat="43.98962" lon="7.26977">
        <ele>1184.953247</ele>
        <time>2012-08-19T08:26:01Z</time>
      </trkpt>
      <trkpt lat="43.98961" lon="7.26982">
        <ele>1184.747681</ele>
        <time>2012-08-19T08:26:03Z</time>
      </trkpt>
      <trkpt lat="43.9896" lon="7.26987">
        <ele>1184.504272</ele>
        <time>2012-08-19T08:26:05Z</time>
      </trkpt>
      <trkpt lat="43.98957" lon="7.26994">
        <ele>1184.043335</ele>
        <time>2012-08-19T08:26:08Z</time>
      </trkpt>
      <trkpt lat="43.98955" lon="7.26999">
        <ele>1183.838013</ele>
        <time>2012-08-19T08:26:10Z</time>
      </trkpt>
      <trkpt lat="43.98946" lon="7.27012">
        <ele>1183.386963</ele>
        <time>2012-08-19T08:26:16Z</time>
      </trkpt>
      <trkpt lat="43.98942" lon="7.27015">
        <ele>1183.288696</ele>
        <time>2012-08-19T08:26:18Z</time>
      </trkpt>
      <trkpt lat="43.98938" lon="7.27019">
        <ele>1183.201294</ele>
        <time>2012-08-19T08:26:20Z</time>
      </trkpt>
      <trkpt lat="43.98933" lon="7.27024">
        <ele>1183.101074</ele>
        <time>2012-08-19T08:26:23Z</time>
      </trkpt>
      <trkpt lat="43.98923" lon="7.27034">
        <ele>1183.045532</ele>
        <time>2012-08-19T08:26:28Z</time>
      </trkpt>
      <trkpt lat="43.98921" lon="7.27043">
        <ele>1183.070801</ele>
        <time>2012-08-19T08:26:31Z</time>
      </trkpt>
      <trkpt lat="43.98921" lon="7.2705">
        <ele>1183.09021</ele>
        <time>2012-08-19T08:26:33Z</time>
      </trkpt>
      <trkpt lat="43.98921" lon="7.27056">
        <ele>1183.108643</ele>
        <time>2012-08-19T08:26:35Z</time>
      </trkpt>
      <trkpt lat="43.98922" lon="7.27066">
        <ele>1183.139526</ele>
        <time>2012-08-19T08:26:38Z</time>
      </trkpt>
      <trkpt lat="43.98924" lon="7.27074">
        <ele>1183.169067</ele>
        <time>2012-08-19T08:26:41Z</time>
      </trkpt>
      <trkpt lat="43.98925" lon="7.27081">
        <ele>1183.186279</ele>
        <time>2012-08-19T08:26:44Z</time>
      </trkpt>
      <trkpt lat="43.98925" lon="7.27084">
        <ele>1183.192749</ele>
        <time>2012-08-19T08:26:46Z</time>
      </trkpt>
      <trkpt lat="43.98926" lon="7.27086">
        <ele>1183.195679</ele>
        <time>2012-08-19T08:26:49Z</time>
      </trkpt>
      <trkpt lat="43.98926" lon="7.27089">
        <ele>1183.197144</ele>
        <time>2012-08-19T08:26:51Z</time>
      </trkpt>
      <trkpt lat="43.98926" lon="7.27092">
        <ele>1183.197144</ele>
        <time>2012-08-19T08:26:53Z</time>
      </trkpt>
      <trkpt lat="43.98928" lon="7.27096">
        <ele>1183.10791</ele>
        <time>2012-08-19T08:26:56Z</time>
      </trkpt>
      <trkpt lat="43.98931" lon="7.27101">
        <ele>1182.921143</ele>
        <time>2012-08-19T08:26:58Z</time>
      </trkpt>
      <trkpt lat="43.98932" lon="7.27104">
        <ele>1182.77002</ele>
        <time>2012-08-19T08:27:00Z</time>
      </trkpt>
      <trkpt lat="43.9893" lon="7.27104">
        <ele>1182.650391</ele>
        <time>2012-08-19T08:27:02Z</time>
      </trkpt>
      <trkpt lat="43.98926" lon="7.27104">
        <ele>1182.436035</ele>
        <time>2012-08-19T08:27:05Z</time>
      </trkpt>
      <trkpt lat="43.98921" lon="7.27105">
        <ele>1182.19458</ele>
        <time>2012-08-19T08:27:07Z</time>
      </trkpt>
      <trkpt lat="43.98913" lon="7.27107">
        <ele>1181.857422</ele>
        <time>2012-08-19T08:27:10Z</time>
      </trkpt>
      <trkpt lat="43.98907" lon="7.27109">
        <ele>1181.617188</ele>
        <time>2012-08-19T08:27:12Z</time>
      </trkpt>
      <trkpt lat="43.989" lon="7.27112">
        <ele>1181.251831</ele>
        <time>2012-08-19T08:27:14Z</time>
      </trkpt>
      <trkpt lat="43.9889" lon="7.27117">
        <ele>1180.671143</ele>
        <time>2012-08-19T08:27:17Z</time>
      </trkpt>
      <trkpt lat="43.98882" lon="7.27121">
        <ele>1180.168579</ele>
        <time>2012-08-19T08:27:20Z</time>
      </trkpt>
      <trkpt lat="43.98872" lon="7.27123">
        <ele>1179.691895</ele>
        <time>2012-08-19T08:27:23Z</time>
      </trkpt>
      <trkpt lat="43.98867" lon="7.27124">
        <ele>1179.413574</ele>
        <time>2012-08-19T08:27:25Z</time>
      </trkpt>
      <trkpt lat="43.98861" lon="7.27122">
        <ele>1179.070679</ele>
        <time>2012-08-19T08:27:28Z</time>
      </trkpt>
      <trkpt lat="43.98856" lon="7.2712">
        <ele>1178.819214</ele>
        <time>2012-08-19T08:27:30Z</time>
      </trkpt>
      <trkpt lat="43.9885" lon="7.27119">
        <ele>1178.418091</ele>
        <time>2012-08-19T08:27:33Z</time>
      </trkpt>
      <trkpt lat="43.98843" lon="7.27118">
        <ele>1177.983643</ele>
        <time>2012-08-19T08:27:36Z</time>
      </trkpt>
      <trkpt lat="43.98836" lon="7.27118">
        <ele>1177.683716</ele>
        <time>2012-08-19T08:27:39Z</time>
      </trkpt>
      <trkpt lat="43.98829" lon="7.27116">
        <ele>1177.5625</ele>
        <time>2012-08-19T08:27:41Z</time>
      </trkpt>
      <trkpt lat="43.98818" lon="7.27112">
        <ele>1177.376709</ele>
        <time>2012-08-19T08:27:44Z</time>
      </trkpt>
      <trkpt lat="43.98815" lon="7.27113">
        <ele>1177.278442</ele>
        <time>2012-08-19T08:27:46Z</time>
      </trkpt>
      <trkpt lat="43.98813" lon="7.27115">
        <ele>1177.181519</ele>
        <time>2012-08-19T08:27:49Z</time>
      </trkpt>
      <trkpt lat="43.98811" lon="7.27115">
        <ele>1177.140381</ele>
        <time>2012-08-19T08:27:51Z</time>
      </trkpt>
      <trkpt lat="43.98808" lon="7.27116">
        <ele>1177.115112</ele>
        <time>2012-08-19T08:27:53Z</time>
      </trkpt>
      <trkpt lat="43.98804" lon="7.27114">
        <ele>1177.073853</ele>
        <time>2012-08-19T08:27:56Z</time>
      </trkpt>
      <trkpt lat="43.98799" lon="7.27111">
        <ele>1176.939941</ele>
        <time>2012-08-19T08:27:58Z</time>
      </trkpt>
      <trkpt lat="43.98793" lon="7.27109">
        <ele>1176.60144</ele>
        <time>2012-08-19T08:28:01Z</time>
      </trkpt>
      <trkpt lat="43.98787" lon="7.2711">
        <ele>1176.238525</ele>
        <time>2012-08-19T08:28:04Z</time>
      </trkpt>
      <trkpt lat="43.98783" lon="7.27111">
        <ele>1176.00769</ele>
        <time>2012-08-19T08:28:06Z</time>
      </trkpt>
      <trkpt lat="43.98778" lon="7.27114">
        <ele>1175.641602</ele>
        <time>2012-08-19T08:28:09Z</time>
      </trkpt>
      <trkpt lat="43.98774" lon="7.27114">
        <ele>1175.414551</ele>
        <time>2012-08-19T08:28:11Z</time>
      </trkpt>
      <trkpt lat="43.98767" lon="7.27116">
        <ele>1174.897095</ele>
        <time>2012-08-19T08:28:14Z</time>
      </trkpt>
      <trkpt lat="43.9876" lon="7.27121">
        <ele>1174.143066</ele>
        <time>2012-08-19T08:28:17Z</time>
      </trkpt>
      <trkpt lat="43.98753" lon="7.27125">
        <ele>1173.379761</ele>
        <time>2012-08-19T08:28:20Z</time>
      </trkpt>
      <trkpt lat="43.98747" lon="7.27129">
        <ele>1172.727173</ele>
        <time>2012-08-19T08:28:23Z</time>
      </trkpt>
      <trkpt lat="43.98746" lon="7.27128">
        <ele>1172.181274</ele>
        <time>2012-08-19T08:28:26Z</time>
      </trkpt>
      <trkpt lat="43.98745" lon="7.2713">
        <ele>1171.871704</ele>
        <time>2012-08-19T08:28:28Z</time>
      </trkpt>
      <trkpt lat="43.98742" lon="7.27135">
        <ele>1171.348389</ele>
        <time>2012-08-19T08:28:31Z</time>
      </trkpt>
      <trkpt lat="43.98736" lon="7.27141">
        <ele>1170.845947</ele>
        <time>2012-08-19T08:28:34Z</time>
      </trkpt>
      <trkpt lat="43.98731" lon="7.27143">
        <ele>1170.19458</ele>
        <time>2012-08-19T08:28:37Z</time>
      </trkpt>
      <trkpt lat="43.98726" lon="7.27141">
        <ele>1169.430664</ele>
        <time>2012-08-19T08:28:40Z</time>
      </trkpt>
      <trkpt lat="43.98723" lon="7.27139">
        <ele>1168.527832</ele>
        <time>2012-08-19T08:28:43Z</time>
      </trkpt>
      <trkpt lat="43.98718" lon="7.27143">
        <ele>1167.763184</ele>
        <time>2012-08-19T08:28:46Z</time>
      </trkpt>
      <trkpt lat="43.98715" lon="7.27146">
        <ele>1167.265015</ele>
        <time>2012-08-19T08:28:48Z</time>
      </trkpt>
      <trkpt lat="43.98709" lon="7.2715">
        <ele>1166.477661</ele>
        <time>2012-08-19T08:28:51Z</time>
      </trkpt>
      <trkpt lat="43.98704" lon="7.27157">
        <ele>1165.783081</ele>
        <time>2012-08-19T08:28:54Z</time>
      </trkpt>
      <trkpt lat="43.98698" lon="7.27165">
        <ele>1165.113037</ele>
        <time>2012-08-19T08:28:57Z</time>
      </trkpt>
      <trkpt lat="43.9869" lon="7.27168">
        <ele>1164.257324</ele>
        <time>2012-08-19T08:29:00Z</time>
      </trkpt>
      <trkpt lat="43.98682" lon="7.27167">
        <ele>1163.397095</ele>
        <time>2012-08-19T08:29:03Z</time>
      </trkpt>
      <trkpt lat="43.98678" lon="7.27162">
        <ele>1162.807251</ele>
        <time>2012-08-19T08:29:05Z</time>
      </trkpt>
      <trkpt lat="43.98675" lon="7.27157">
        <ele>1161.931641</ele>
        <time>2012-08-19T08:29:08Z</time>
      </trkpt>
      <trkpt lat="43.98672" lon="7.27149">
        <ele>1161.300659</ele>
        <time>2012-08-19T08:29:11Z</time>
      </trkpt>
      <trkpt lat="43.98669" lon="7.27144">
        <ele>1160.827148</ele>
        <time>2012-08-19T08:29:14Z</time>
      </trkpt>
      <trkpt lat="43.98665" lon="7.27144">
        <ele>1160.420044</ele>
        <time>2012-08-19T08:29:16Z</time>
      </trkpt>
      <trkpt lat="43.9866" lon="7.27143">
        <ele>1159.833374</ele>
        <time>2012-08-19T08:29:18Z</time>
      </trkpt>
      <trkpt lat="43.98652" lon="7.27144">
        <ele>1159.09436</ele>
        <time>2012-08-19T08:29:21Z</time>
      </trkpt>
      <trkpt lat="43.98644" lon="7.27142">
        <ele>1158.60791</ele>
        <time>2012-08-19T08:29:24Z</time>
      </trkpt>
      <trkpt lat="43.98638" lon="7.27146">
        <ele>1158.2677</ele>
        <time>2012-08-19T08:29:27Z</time>
      </trkpt>
      <trkpt lat="43.9863" lon="7.27153">
        <ele>1158.035034</ele>
        <time>2012-08-19T08:29:30Z</time>
      </trkpt>
      <trkpt lat="43.98622" lon="7.27155">
        <ele>1157.858032</ele>
        <time>2012-08-19T08:29:33Z</time>
      </trkpt>
      <trkpt lat="43.98616" lon="7.27156">
        <ele>1157.772217</ele>
        <time>2012-08-19T08:29:35Z</time>
      </trkpt>
      <trkpt lat="43.98608" lon="7.27156">
        <ele>1157.860962</ele>
        <time>2012-08-19T08:29:38Z</time>
      </trkpt>
      <trkpt lat="43.98599" lon="7.2716">
        <ele>1157.941528</ele>
        <time>2012-08-19T08:29:41Z</time>
      </trkpt>
      <trkpt lat="43.9859" lon="7.27164">
        <ele>1158.075317</ele>
        <time>2012-08-19T08:29:44Z</time>
      </trkpt>
      <trkpt lat="43.98581" lon="7.27167">
        <ele>1158.292236</ele>
        <time>2012-08-19T08:29:47Z</time>
      </trkpt>
      <trkpt lat="43.98574" lon="7.27168">
        <ele>1158.520386</ele>
        <time>2012-08-19T08:29:50Z</time>
      </trkpt>
      <trkpt lat="43.9857" lon="7.27166">
        <ele>1158.647217</ele>
        <time>2012-08-19T08:29:52Z</time>
      </trkpt>
      <trkpt lat="43.98565" lon="7.27165">
        <ele>1158.882568</ele>
        <time>2012-08-19T08:29:55Z</time>
      </trkpt>
      <trkpt lat="43.98563" lon="7.27168">
        <ele>1159.064087</ele>
        <time>2012-08-19T08:29:57Z</time>
      </trkpt>
      <trkpt lat="43.98559" lon="7.27172">
        <ele>1159.412476</ele>
        <time>2012-08-19T08:30:00Z</time>
      </trkpt>
      <trkpt lat="43.98553" lon="7.27177">
        <ele>1159.76001</ele>
        <time>2012-08-19T08:30:03Z</time>
      </trkpt>
      <trkpt lat="43.98547" lon="7.27183">
        <ele>1160.197632</ele>
        <time>2012-08-19T08:30:06Z</time>
      </trkpt>
      <trkpt lat="43.98543" lon="7.27189">
        <ele>1160.634277</ele>
        <time>2012-08-19T08:30:09Z</time>
      </trkpt>
      <trkpt lat="43.9854" lon="7.27194">
        <ele>1160.924438</ele>
        <time>2012-08-19T08:30:11Z</time>
      </trkpt>
      <trkpt lat="43.98533" lon="7.27201">
        <ele>1161.373413</ele>
        <time>2012-08-19T08:30:14Z</time>
      </trkpt>
      <trkpt lat="43.98529" lon="7.27204">
        <ele>1161.671387</ele>
        <time>2012-08-19T08:30:16Z</time>
      </trkpt>
      <trkpt lat="43.9852" lon="7.27203">
        <ele>1161.864868</ele>
        <time>2012-08-19T08:30:19Z</time>
      </trkpt>
      <trkpt lat="43.98513" lon="7.27201">
        <ele>1161.747192</ele>
        <time>2012-08-19T08:30:21Z</time>
      </trkpt>
      <trkpt lat="43.98506" lon="7.27203">
        <ele>1161.644409</ele>
        <time>2012-08-19T08:30:24Z</time>
      </trkpt>
      <trkpt lat="43.98502" lon="7.27209">
        <ele>1161.565918</ele>
        <time>2012-08-19T08:30:27Z</time>
      </trkpt>
      <trkpt lat="43.98498" lon="7.27218">
        <ele>1161.400513</ele>
        <time>2012-08-19T08:30:30Z</time>
      </trkpt>
      <trkpt lat="43.98493" lon="7.27225">
        <ele>1161.145264</ele>
        <time>2012-08-19T08:30:33Z</time>
      </trkpt>
      <trkpt lat="43.98492" lon="7.27231">
        <ele>1160.924194</ele>
        <time>2012-08-19T08:30:35Z</time>
      </trkpt>
      <trkpt lat="43.9849" lon="7.2724">
        <ele>1160.569092</ele>
        <time>2012-08-19T08:30:38Z</time>
      </trkpt>
      <trkpt lat="43.98488" lon="7.27247">
        <ele>1160.179321</ele>
        <time>2012-08-19T08:30:41Z</time>
      </trkpt>
      <trkpt lat="43.98488" lon="7.27251">
        <ele>1159.791626</ele>
        <time>2012-08-19T08:30:44Z</time>
      </trkpt>
      <trkpt lat="43.98487" lon="7.27254">
        <ele>1159.337524</ele>
        <time>2012-08-19T08:30:47Z</time>
      </trkpt>
      <trkpt lat="43.98487" lon="7.27255">
        <ele>1159.120239</ele>
        <time>2012-08-19T08:30:49Z</time>
      </trkpt>
      <trkpt lat="43.98487" lon="7.27255">
        <ele>1158.814087</ele>
        <time>2012-08-19T08:30:51Z</time>
      </trkpt>
      <trkpt lat="43.98487" lon="7.27255">
        <ele>1158.705811</ele>
        <time>2012-08-19T08:30:54Z</time>
      </trkpt>
      <trkpt lat="43.98487" lon="7.27255">
        <ele>1158.235962</ele>
        <time>2012-08-19T08:30:56Z</time>
      </trkpt>
      <trkpt lat="43.98487" lon="7.27255">
        <ele>1158.094727</ele>
        <time>2012-08-19T08:30:59Z</time>
      </trkpt>
      <trkpt lat="43.98487" lon="7.27255">
        <ele>1157.550171</ele>
        <time>2012-08-19T08:31:01Z</time>
      </trkpt>
      <trkpt lat="43.98485" lon="7.27259">
        <ele>1156.167725</ele>
        <time>2012-08-19T08:31:04Z</time>
      </trkpt>
      <trkpt lat="43.98482" lon="7.27264">
        <ele>1155.330078</ele>
        <time>2012-08-19T08:31:06Z</time>
      </trkpt>
      <trkpt lat="43.98475" lon="7.27274">
        <ele>1154.249023</ele>
        <time>2012-08-19T08:31:09Z</time>
      </trkpt>
      <trkpt lat="43.9847" lon="7.27281">
        <ele>1153.626465</ele>
        <time>2012-08-19T08:31:11Z</time>
      </trkpt>
      <trkpt lat="43.98462" lon="7.2729">
        <ele>1152.797729</ele>
        <time>2012-08-19T08:31:14Z</time>
      </trkpt>
      <trkpt lat="43.98459" lon="7.27296">
        <ele>1152.27063</ele>
        <time>2012-08-19T08:31:16Z</time>
      </trkpt>
      <trkpt lat="43.98456" lon="7.27302">
        <ele>1151.725708</ele>
        <time>2012-08-19T08:31:18Z</time>
      </trkpt>
      <trkpt lat="43.98454" lon="7.27308">
        <ele>1151.178223</ele>
        <time>2012-08-19T08:31:20Z</time>
      </trkpt>
      <trkpt lat="43.98451" lon="7.27316">
        <ele>1150.382324</ele>
        <time>2012-08-19T08:31:23Z</time>
      </trkpt>
      <trkpt lat="43.9845" lon="7.27319">
        <ele>1149.875</ele>
        <time>2012-08-19T08:31:25Z</time>
      </trkpt>
      <trkpt lat="43.98449" lon="7.27323">
        <ele>1149.376343</ele>
        <time>2012-08-19T08:31:27Z</time>
      </trkpt>
      <trkpt lat="43.98448" lon="7.27328">
        <ele>1148.661133</ele>
        <time>2012-08-19T08:31:30Z</time>
      </trkpt>
      <trkpt lat="43.98447" lon="7.27335">
        <ele>1147.947144</ele>
        <time>2012-08-19T08:31:33Z</time>
      </trkpt>
      <trkpt lat="43.98446" lon="7.27341">
        <ele>1147.460327</ele>
        <time>2012-08-19T08:31:35Z</time>
      </trkpt>
      <trkpt lat="43.98443" lon="7.27353">
        <ele>1146.757324</ele>
        <time>2012-08-19T08:31:38Z</time>
      </trkpt>
      <trkpt lat="43.98442" lon="7.27359">
        <ele>1146.292725</ele>
        <time>2012-08-19T08:31:40Z</time>
      </trkpt>
      <trkpt lat="43.98442" lon="7.27365">
        <ele>1145.846069</ele>
        <time>2012-08-19T08:31:42Z</time>
      </trkpt>
      <trkpt lat="43.98441" lon="7.27372">
        <ele>1145.200562</ele>
        <time>2012-08-19T08:31:45Z</time>
      </trkpt>
      <trkpt lat="43.98441" lon="7.27375">
        <ele>1144.776489</ele>
        <time>2012-08-19T08:31:47Z</time>
      </trkpt>
      <trkpt lat="43.98441" lon="7.2738">
        <ele>1144.107056</ele>
        <time>2012-08-19T08:31:50Z</time>
      </trkpt>
      <trkpt lat="43.98441" lon="7.27383">
        <ele>1143.43396</ele>
        <time>2012-08-19T08:31:53Z</time>
      </trkpt>
      <trkpt lat="43.98442" lon="7.27385">
        <ele>1142.920288</ele>
        <time>2012-08-19T08:31:55Z</time>
      </trkpt>
      <trkpt lat="43.98441" lon="7.2739">
        <ele>1142.264038</ele>
        <time>2012-08-19T08:31:58Z</time>
      </trkpt>
      <trkpt lat="43.98441" lon="7.27393">
        <ele>1141.859253</ele>
        <time>2012-08-19T08:32:00Z</time>
      </trkpt>
      <trkpt lat="43.98443" lon="7.27401">
        <ele>1141.286743</ele>
        <time>2012-08-19T08:32:03Z</time>
      </trkpt>
      <trkpt lat="43.98445" lon="7.27405">
        <ele>1140.930786</ele>
        <time>2012-08-19T08:32:05Z</time>
      </trkpt>
      <trkpt lat="43.98447" lon="7.2741">
        <ele>1140.419678</ele>
        <time>2012-08-19T08:32:08Z</time>
      </trkpt>
      <trkpt lat="43.98448" lon="7.27414">
        <ele>1140.018921</ele>
        <time>2012-08-19T08:32:10Z</time>
      </trkpt>
      <trkpt lat="43.98449" lon="7.2742">
        <ele>1139.397339</ele>
        <time>2012-08-19T08:32:13Z</time>
      </trkpt>
      <trkpt lat="43.98448" lon="7.27426">
        <ele>1138.813721</ele>
        <time>2012-08-19T08:32:16Z</time>
      </trkpt>
      <trkpt lat="43.98447" lon="7.27431">
        <ele>1138.284424</ele>
        <time>2012-08-19T08:32:19Z</time>
      </trkpt>
      <trkpt lat="43.98447" lon="7.27434">
        <ele>1137.896973</ele>
        <time>2012-08-19T08:32:21Z</time>
      </trkpt>
      <trkpt lat="43.98448" lon="7.27436">
        <ele>1137.480347</ele>
        <time>2012-08-19T08:32:23Z</time>
      </trkpt>
      <trkpt lat="43.9845" lon="7.27438">
        <ele>1136.909302</ele>
        <time>2012-08-19T08:32:26Z</time>
      </trkpt>
      <trkpt lat="43.98451" lon="7.27441">
        <ele>1136.447266</ele>
        <time>2012-08-19T08:32:29Z</time>
      </trkpt>
      <trkpt lat="43.98451" lon="7.27446">
        <ele>1136.15625</ele>
        <time>2012-08-19T08:32:31Z</time>
      </trkpt>
      <trkpt lat="43.98452" lon="7.27452">
        <ele>1135.742676</ele>
        <time>2012-08-19T08:32:34Z</time>
      </trkpt>
      <trkpt lat="43.98453" lon="7.27455">
        <ele>1135.503662</ele>
        <time>2012-08-19T08:32:36Z</time>
      </trkpt>
      <trkpt lat="43.98452" lon="7.27461">
        <ele>1135.174194</ele>
        <time>2012-08-19T08:32:39Z</time>
      </trkpt>
      <trkpt lat="43.98452" lon="7.27463">
        <ele>1134.960327</ele>
        <time>2012-08-19T08:32:41Z</time>
      </trkpt>
      <trkpt lat="43.98452" lon="7.27466">
        <ele>1134.774658</ele>
        <time>2012-08-19T08:32:43Z</time>
      </trkpt>
      <trkpt lat="43.98452" lon="7.27472">
        <ele>1134.547485</ele>
        <time>2012-08-19T08:32:46Z</time>
      </trkpt>
      <trkpt lat="43.98453" lon="7.27478">
        <ele>1134.364624</ele>
        <time>2012-08-19T08:32:49Z</time>
      </trkpt>
      <trkpt lat="43.98454" lon="7.27482">
        <ele>1134.244385</ele>
        <time>2012-08-19T08:32:51Z</time>
      </trkpt>
      <trkpt lat="43.98456" lon="7.27489">
        <ele>1134.110229</ele>
        <time>2012-08-19T08:32:54Z</time>
      </trkpt>
      <trkpt lat="43.98457" lon="7.27494">
        <ele>1134.030884</ele>
        <time>2012-08-19T08:32:57Z</time>
      </trkpt>
      <trkpt lat="43.98457" lon="7.27499">
        <ele>1133.969238</ele>
        <time>2012-08-19T08:33:00Z</time>
      </trkpt>
      <trkpt lat="43.98457" lon="7.27503">
        <ele>1133.905151</ele>
        <time>2012-08-19T08:33:02Z</time>
      </trkpt>
      <trkpt lat="43.98457" lon="7.27506">
        <ele>1133.728638</ele>
        <time>2012-08-19T08:33:05Z</time>
      </trkpt>
      <trkpt lat="43.98457" lon="7.27506">
        <ele>1133.622559</ele>
        <time>2012-08-19T08:33:07Z</time>
      </trkpt>
      <trkpt lat="43.98452" lon="7.27516">
        <ele>1133.488281</ele>
        <time>2012-08-19T08:33:10Z</time>
      </trkpt>
      <trkpt lat="43.98451" lon="7.27519">
        <ele>1133.34314</ele>
        <time>2012-08-19T08:33:13Z</time>
      </trkpt>
      <trkpt lat="43.98451" lon="7.27519">
        <ele>1133.252563</ele>
        <time>2012-08-19T08:33:15Z</time>
      </trkpt>
      <trkpt lat="43.98451" lon="7.27526">
        <ele>1133.087646</ele>
        <time>2012-08-19T08:33:18Z</time>
      </trkpt>
      <trkpt lat="43.98448" lon="7.27532">
        <ele>1132.86084</ele>
        <time>2012-08-19T08:33:21Z</time>
      </trkpt>
      <trkpt lat="43.98448" lon="7.27532">
        <ele>1132.692017</ele>
        <time>2012-08-19T08:33:23Z</time>
      </trkpt>
      <trkpt lat="43.98445" lon="7.27539">
        <ele>1132.424194</ele>
        <time>2012-08-19T08:33:26Z</time>
      </trkpt>
      <trkpt lat="43.98441" lon="7.27543">
        <ele>1132.174072</ele>
        <time>2012-08-19T08:33:29Z</time>
      </trkpt>
      <trkpt lat="43.98437" lon="7.2755">
        <ele>1131.940063</ele>
        <time>2012-08-19T08:33:32Z</time>
      </trkpt>
      <trkpt lat="43.98435" lon="7.27552">
        <ele>1131.864258</ele>
        <time>2012-08-19T08:33:34Z</time>
      </trkpt>
      <trkpt lat="43.98435" lon="7.27552">
        <ele>1131.768311</ele>
        <time>2012-08-19T08:33:36Z</time>
      </trkpt>
      <trkpt lat="43.98431" lon="7.27557">
        <ele>1131.56958</ele>
        <time>2012-08-19T08:33:38Z</time>
      </trkpt>
      <trkpt lat="43.98431" lon="7.27557">
        <ele>1131.402954</ele>
        <time>2012-08-19T08:33:40Z</time>
      </trkpt>
      <trkpt lat="43.98428" lon="7.27562">
        <ele>1131.295166</ele>
        <time>2012-08-19T08:33:42Z</time>
      </trkpt>
      <trkpt lat="43.98423" lon="7.27568">
        <ele>1131.183594</ele>
        <time>2012-08-19T08:33:45Z</time>
      </trkpt>
      <trkpt lat="43.98419" lon="7.27573">
        <ele>1131.088501</ele>
        <time>2012-08-19T08:33:47Z</time>
      </trkpt>
      <trkpt lat="43.9841" lon="7.27585">
        <ele>1130.951172</ele>
        <time>2012-08-19T08:33:50Z</time>
      </trkpt>
      <trkpt lat="43.98407" lon="7.27591">
        <ele>1130.942505</ele>
        <time>2012-08-19T08:33:52Z</time>
      </trkpt>
      <trkpt lat="43.98402" lon="7.27597">
        <ele>1130.886353</ele>
        <time>2012-08-19T08:33:55Z</time>
      </trkpt>
      <trkpt lat="43.98399" lon="7.27603">
        <ele>1130.837524</ele>
        <time>2012-08-19T08:33:58Z</time>
      </trkpt>
      <trkpt lat="43.98399" lon="7.27603">
        <ele>1130.84668</ele>
        <time>2012-08-19T08:34:00Z</time>
      </trkpt>
      <trkpt lat="43.98395" lon="7.27607">
        <ele>1130.845825</ele>
        <time>2012-08-19T08:34:02Z</time>
      </trkpt>
      <trkpt lat="43.98395" lon="7.27607">
        <ele>1130.806885</ele>
        <time>2012-08-19T08:34:05Z</time>
      </trkpt>
      <trkpt lat="43.98392" lon="7.27613">
        <ele>1130.792236</ele>
        <time>2012-08-19T08:34:08Z</time>
      </trkpt>
      <trkpt lat="43.98388" lon="7.27619">
        <ele>1130.797607</ele>
        <time>2012-08-19T08:34:11Z</time>
      </trkpt>
      <trkpt lat="43.98388" lon="7.27619">
        <ele>1130.799072</ele>
        <time>2012-08-19T08:34:13Z</time>
      </trkpt>
      <trkpt lat="43.98385" lon="7.27624">
        <ele>1130.800171</ele>
        <time>2012-08-19T08:34:16Z</time>
      </trkpt>
      <trkpt lat="43.98382" lon="7.2763">
        <ele>1130.825928</ele>
        <time>2012-08-19T08:34:19Z</time>
      </trkpt>
      <trkpt lat="43.98382" lon="7.2763">
        <ele>1130.828979</ele>
        <time>2012-08-19T08:34:21Z</time>
      </trkpt>
      <trkpt lat="43.9838" lon="7.27635">
        <ele>1130.836914</ele>
        <time>2012-08-19T08:34:24Z</time>
      </trkpt>
      <trkpt lat="43.98377" lon="7.2764">
        <ele>1130.841309</ele>
        <time>2012-08-19T08:34:26Z</time>
      </trkpt>
      <trkpt lat="43.98377" lon="7.2764">
        <ele>1130.87207</ele>
        <time>2012-08-19T08:34:28Z</time>
      </trkpt>
      <trkpt lat="43.98373" lon="7.27646">
        <ele>1130.942627</ele>
        <time>2012-08-19T08:34:31Z</time>
      </trkpt>
      <trkpt lat="43.98369" lon="7.2765">
        <ele>1131.074463</ele>
        <time>2012-08-19T08:34:34Z</time>
      </trkpt>
      <trkpt lat="43.98366" lon="7.27655">
        <ele>1131.174561</ele>
        <time>2012-08-19T08:34:37Z</time>
      </trkpt>
      <trkpt lat="43.98361" lon="7.27664">
        <ele>1131.210327</ele>
        <time>2012-08-19T08:34:40Z</time>
      </trkpt>
      <trkpt lat="43.98357" lon="7.27672">
        <ele>1131.217285</ele>
        <time>2012-08-19T08:34:43Z</time>
      </trkpt>
      <trkpt lat="43.98355" lon="7.27677">
        <ele>1131.216919</ele>
        <time>2012-08-19T08:34:45Z</time>
      </trkpt>
      <trkpt lat="43.98352" lon="7.27683">
        <ele>1131.216431</ele>
        <time>2012-08-19T08:34:48Z</time>
      </trkpt>
      <trkpt lat="43.98349" lon="7.27687">
        <ele>1131.205566</ele>
        <time>2012-08-19T08:34:51Z</time>
      </trkpt>
      <trkpt lat="43.98347" lon="7.27691">
        <ele>1131.195679</ele>
        <time>2012-08-19T08:34:53Z</time>
      </trkpt>
      <trkpt lat="43.98343" lon="7.27695">
        <ele>1131.178467</ele>
        <time>2012-08-19T08:34:55Z</time>
      </trkpt>
      <trkpt lat="43.98339" lon="7.27698">
        <ele>1131.195923</ele>
        <time>2012-08-19T08:34:57Z</time>
      </trkpt>
      <trkpt lat="43.98333" lon="7.27702">
        <ele>1131.265747</ele>
        <time>2012-08-19T08:35:00Z</time>
      </trkpt>
      <trkpt lat="43.98328" lon="7.27706">
        <ele>1131.47937</ele>
        <time>2012-08-19T08:35:03Z</time>
      </trkpt>
      <trkpt lat="43.98322" lon="7.27712">
        <ele>1131.712891</ele>
        <time>2012-08-19T08:35:06Z</time>
      </trkpt>
      <trkpt lat="43.98315" lon="7.27715">
        <ele>1131.824219</ele>
        <time>2012-08-19T08:35:09Z</time>
      </trkpt>
      <trkpt lat="43.98311" lon="7.27718">
        <ele>1131.775146</ele>
        <time>2012-08-19T08:35:11Z</time>
      </trkpt>
      <trkpt lat="43.98305" lon="7.27721">
        <ele>1131.578735</ele>
        <time>2012-08-19T08:35:14Z</time>
      </trkpt>
      <trkpt lat="43.98299" lon="7.27722">
        <ele>1131.291016</ele>
        <time>2012-08-19T08:35:17Z</time>
      </trkpt>
      <trkpt lat="43.98293" lon="7.27722">
        <ele>1130.944946</ele>
        <time>2012-08-19T08:35:20Z</time>
      </trkpt>
      <trkpt lat="43.9829" lon="7.27724">
        <ele>1130.854004</ele>
        <time>2012-08-19T08:35:22Z</time>
      </trkpt>
      <trkpt lat="43.98284" lon="7.27725">
        <ele>1130.93396</ele>
        <time>2012-08-19T08:35:25Z</time>
      </trkpt>
      <trkpt lat="43.98276" lon="7.27722">
        <ele>1131.115356</ele>
        <time>2012-08-19T08:35:28Z</time>
      </trkpt>
      <trkpt lat="43.98272" lon="7.27721">
        <ele>1131.210693</ele>
        <time>2012-08-19T08:35:30Z</time>
      </trkpt>
      <trkpt lat="43.98266" lon="7.27721">
        <ele>1131.416504</ele>
        <time>2012-08-19T08:35:33Z</time>
      </trkpt>
      <trkpt lat="43.98261" lon="7.27719">
        <ele>1131.706543</ele>
        <time>2012-08-19T08:35:36Z</time>
      </trkpt>
      <trkpt lat="43.98259" lon="7.27719">
        <ele>1131.955078</ele>
        <time>2012-08-19T08:35:38Z</time>
      </trkpt>
      <trkpt lat="43.98255" lon="7.27719">
        <ele>1132.399048</ele>
        <time>2012-08-19T08:35:41Z</time>
      </trkpt>
      <trkpt lat="43.98252" lon="7.27719">
        <ele>1132.677368</ele>
        <time>2012-08-19T08:35:43Z</time>
      </trkpt>
      <trkpt lat="43.98247" lon="7.27717">
        <ele>1132.942993</ele>
        <time>2012-08-19T08:35:46Z</time>
      </trkpt>
      <trkpt lat="43.98244" lon="7.27716">
        <ele>1133.142944</ele>
        <time>2012-08-19T08:35:48Z</time>
      </trkpt>
      <trkpt lat="43.98239" lon="7.27714">
        <ele>1133.35376</ele>
        <time>2012-08-19T08:35:51Z</time>
      </trkpt>
      <trkpt lat="43.98234" lon="7.2771">
        <ele>1133.4823</ele>
        <time>2012-08-19T08:35:54Z</time>
      </trkpt>
      <trkpt lat="43.98231" lon="7.27706">
        <ele>1133.589722</ele>
        <time>2012-08-19T08:35:56Z</time>
      </trkpt>
      <trkpt lat="43.98229" lon="7.27703">
        <ele>1133.727417</ele>
        <time>2012-08-19T08:35:58Z</time>
      </trkpt>
      <trkpt lat="43.98226" lon="7.27701">
        <ele>1133.934326</ele>
        <time>2012-08-19T08:36:00Z</time>
      </trkpt>
      <trkpt lat="43.98221" lon="7.27697">
        <ele>1134.324463</ele>
        <time>2012-08-19T08:36:03Z</time>
      </trkpt>
      <trkpt lat="43.98219" lon="7.27694">
        <ele>1134.624756</ele>
        <time>2012-08-19T08:36:05Z</time>
      </trkpt>
      <trkpt lat="43.98215" lon="7.27691">
        <ele>1135.143677</ele>
        <time>2012-08-19T08:36:08Z</time>
      </trkpt>
      <trkpt lat="43.98211" lon="7.27687">
        <ele>1135.769165</ele>
        <time>2012-08-19T08:36:11Z</time>
      </trkpt>
      <trkpt lat="43.98211" lon="7.27687">
        <ele>1136.410522</ele>
        <time>2012-08-19T08:36:14Z</time>
      </trkpt>
      <trkpt lat="43.98206" lon="7.27681">
        <ele>1136.777344</ele>
        <time>2012-08-19T08:36:16Z</time>
      </trkpt>
      <trkpt lat="43.98203" lon="7.27679">
        <ele>1137.156128</ele>
        <time>2012-08-19T08:36:18Z</time>
      </trkpt>
      <trkpt lat="43.98201" lon="7.27679">
        <ele>1137.781616</ele>
        <time>2012-08-19T08:36:21Z</time>
      </trkpt>
      <trkpt lat="43.98196" lon="7.27677">
        <ele>1138.422363</ele>
        <time>2012-08-19T08:36:24Z</time>
      </trkpt>
      <trkpt lat="43.98193" lon="7.27675">
        <ele>1138.79895</ele>
        <time>2012-08-19T08:36:26Z</time>
      </trkpt>
      <trkpt lat="43.9819" lon="7.27673">
        <ele>1139.284912</ele>
        <time>2012-08-19T08:36:29Z</time>
      </trkpt>
      <trkpt lat="43.98187" lon="7.27671">
        <ele>1139.662964</ele>
        <time>2012-08-19T08:36:31Z</time>
      </trkpt>
      <trkpt lat="43.98183" lon="7.27669">
        <ele>1140.074951</ele>
        <time>2012-08-19T08:36:33Z</time>
      </trkpt>
      <trkpt lat="43.9818" lon="7.27666">
        <ele>1140.490479</ele>
        <time>2012-08-19T08:36:35Z</time>
      </trkpt>
      <trkpt lat="43.98174" lon="7.27663">
        <ele>1141.1698</ele>
        <time>2012-08-19T08:36:38Z</time>
      </trkpt>
      <trkpt lat="43.98171" lon="7.27661">
        <ele>1141.678955</ele>
        <time>2012-08-19T08:36:40Z</time>
      </trkpt>
      <trkpt lat="43.98166" lon="7.27658">
        <ele>1142.488037</ele>
        <time>2012-08-19T08:36:43Z</time>
      </trkpt>
      <trkpt lat="43.98163" lon="7.27656">
        <ele>1143.022949</ele>
        <time>2012-08-19T08:36:45Z</time>
      </trkpt>
      <trkpt lat="43.98158" lon="7.27651">
        <ele>1143.808716</ele>
        <time>2012-08-19T08:36:48Z</time>
      </trkpt>
      <trkpt lat="43.98155" lon="7.27648">
        <ele>1144.279297</ele>
        <time>2012-08-19T08:36:50Z</time>
      </trkpt>
      <trkpt lat="43.98153" lon="7.27645">
        <ele>1144.707275</ele>
        <time>2012-08-19T08:36:52Z</time>
      </trkpt>
      <trkpt lat="43.9815" lon="7.27641">
        <ele>1145.324463</ele>
        <time>2012-08-19T08:36:55Z</time>
      </trkpt>
      <trkpt lat="43.98148" lon="7.27638">
        <ele>1145.717651</ele>
        <time>2012-08-19T08:36:57Z</time>
      </trkpt>
      <trkpt lat="43.98145" lon="7.27635">
        <ele>1146.301392</ele>
        <time>2012-08-19T08:37:00Z</time>
      </trkpt>
      <trkpt lat="43.98143" lon="7.27633">
        <ele>1146.706665</ele>
        <time>2012-08-19T08:37:02Z</time>
      </trkpt>
      <trkpt lat="43.9814" lon="7.27631">
        <ele>1147.109253</ele>
        <time>2012-08-19T08:37:04Z</time>
      </trkpt>
      <trkpt lat="43.98138" lon="7.27629">
        <ele>1147.583374</ele>
        <time>2012-08-19T08:37:06Z</time>
      </trkpt>
      <trkpt lat="43.98133" lon="7.27626">
        <ele>1148.260376</ele>
        <time>2012-08-19T08:37:09Z</time>
      </trkpt>
      <trkpt lat="43.98132" lon="7.27625">
        <ele>1148.645752</ele>
        <time>2012-08-19T08:37:11Z</time>
      </trkpt>
      <trkpt lat="43.98126" lon="7.2762">
        <ele>1149.143677</ele>
        <time>2012-08-19T08:37:14Z</time>
      </trkpt>
      <trkpt lat="43.98122" lon="7.27616">
        <ele>1149.650024</ele>
        <time>2012-08-19T08:37:17Z</time>
      </trkpt>
      <trkpt lat="43.98117" lon="7.27611">
        <ele>1150.137817</ele>
        <time>2012-08-19T08:37:20Z</time>
      </trkpt>
      <trkpt lat="43.98111" lon="7.27606">
        <ele>1150.62146</ele>
        <time>2012-08-19T08:37:23Z</time>
      </trkpt>
      <trkpt lat="43.98108" lon="7.27603">
        <ele>1150.902466</ele>
        <time>2012-08-19T08:37:25Z</time>
      </trkpt>
      <trkpt lat="43.98102" lon="7.27602">
        <ele>1151.19873</ele>
        <time>2012-08-19T08:37:28Z</time>
      </trkpt>
      <trkpt lat="43.98096" lon="7.27602">
        <ele>1151.391602</ele>
        <time>2012-08-19T08:37:31Z</time>
      </trkpt>
      <trkpt lat="43.98092" lon="7.27602">
        <ele>1151.471802</ele>
        <time>2012-08-19T08:37:33Z</time>
      </trkpt>
      <trkpt lat="43.98087" lon="7.27601">
        <ele>1151.494385</ele>
        <time>2012-08-19T08:37:36Z</time>
      </trkpt>
      <trkpt lat="43.98083" lon="7.27599">
        <ele>1151.479492</ele>
        <time>2012-08-19T08:37:38Z</time>
      </trkpt>
      <trkpt lat="43.98077" lon="7.27594">
        <ele>1151.51709</ele>
        <time>2012-08-19T08:37:41Z</time>
      </trkpt>
      <trkpt lat="43.98071" lon="7.27588">
        <ele>1151.788086</ele>
        <time>2012-08-19T08:37:44Z</time>
      </trkpt>
      <trkpt lat="43.98066" lon="7.27585">
        <ele>1152.10437</ele>
        <time>2012-08-19T08:37:46Z</time>
      </trkpt>
      <trkpt lat="43.98062" lon="7.27582">
        <ele>1152.398315</ele>
        <time>2012-08-19T08:37:48Z</time>
      </trkpt>
      <trkpt lat="43.98057" lon="7.2758">
        <ele>1152.772217</ele>
        <time>2012-08-19T08:37:51Z</time>
      </trkpt>
      <trkpt lat="43.98051" lon="7.27578">
        <ele>1153.093994</ele>
        <time>2012-08-19T08:37:54Z</time>
      </trkpt>
      <trkpt lat="43.98046" lon="7.27577">
        <ele>1153.269409</ele>
        <time>2012-08-19T08:37:56Z</time>
      </trkpt>
      <trkpt lat="43.98034" lon="7.27572">
        <ele>1153.404419</ele>
        <time>2012-08-19T08:38:01Z</time>
      </trkpt>
      <trkpt lat="43.9803" lon="7.27568">
        <ele>1153.379395</ele>
        <time>2012-08-19T08:38:03Z</time>
      </trkpt>
      <trkpt lat="43.98024" lon="7.27561">
        <ele>1153.31311</ele>
        <time>2012-08-19T08:38:06Z</time>
      </trkpt>
      <trkpt lat="43.98018" lon="7.27555">
        <ele>1153.129517</ele>
        <time>2012-08-19T08:38:09Z</time>
      </trkpt>
      <trkpt lat="43.98014" lon="7.27551">
        <ele>1153.007935</ele>
        <time>2012-08-19T08:38:11Z</time>
      </trkpt>
      <trkpt lat="43.98011" lon="7.27547">
        <ele>1152.886963</ele>
        <time>2012-08-19T08:38:13Z</time>
      </trkpt>
      <trkpt lat="43.98006" lon="7.27541">
        <ele>1152.704834</ele>
        <time>2012-08-19T08:38:16Z</time>
      </trkpt>
      <trkpt lat="43.98002" lon="7.27537">
        <ele>1152.603027</ele>
        <time>2012-08-19T08:38:18Z</time>
      </trkpt>
      <trkpt lat="43.97998" lon="7.27528">
        <ele>1152.426514</ele>
        <time>2012-08-19T08:38:21Z</time>
      </trkpt>
      <trkpt lat="43.97988" lon="7.27514">
        <ele>1152.109741</ele>
        <time>2012-08-19T08:38:26Z</time>
      </trkpt>
      <trkpt lat="43.97982" lon="7.27507">
        <ele>1151.945801</ele>
        <time>2012-08-19T08:38:29Z</time>
      </trkpt>
      <trkpt lat="43.97979" lon="7.27502">
        <ele>1151.824341</ele>
        <time>2012-08-19T08:38:31Z</time>
      </trkpt>
      <trkpt lat="43.97976" lon="7.27499">
        <ele>1151.707764</ele>
        <time>2012-08-19T08:38:33Z</time>
      </trkpt>
      <trkpt lat="43.97972" lon="7.27494">
        <ele>1151.614258</ele>
        <time>2012-08-19T08:38:36Z</time>
      </trkpt>
      <trkpt lat="43.97969" lon="7.2749">
        <ele>1151.545654</ele>
        <time>2012-08-19T08:38:38Z</time>
      </trkpt>
      <trkpt lat="43.97966" lon="7.27486">
        <ele>1151.455444</ele>
        <time>2012-08-19T08:38:40Z</time>
      </trkpt>
      <trkpt lat="43.9796" lon="7.27479">
        <ele>1151.328613</ele>
        <time>2012-08-19T08:38:43Z</time>
      </trkpt>
      <trkpt lat="43.97955" lon="7.27474">
        <ele>1151.258057</ele>
        <time>2012-08-19T08:38:45Z</time>
      </trkpt>
      <trkpt lat="43.97946" lon="7.27469">
        <ele>1151.152954</ele>
        <time>2012-08-19T08:38:48Z</time>
      </trkpt>
      <trkpt lat="43.97941" lon="7.27465">
        <ele>1151.051392</ele>
        <time>2012-08-19T08:38:50Z</time>
      </trkpt>
      <trkpt lat="43.97932" lon="7.27461">
        <ele>1150.819214</ele>
        <time>2012-08-19T08:38:53Z</time>
      </trkpt>
      <trkpt lat="43.97924" lon="7.27457">
        <ele>1150.58728</ele>
        <time>2012-08-19T08:38:56Z</time>
      </trkpt>
      <trkpt lat="43.97918" lon="7.27454">
        <ele>1150.340088</ele>
        <time>2012-08-19T08:38:58Z</time>
      </trkpt>
      <trkpt lat="43.97911" lon="7.27449">
        <ele>1150.025146</ele>
        <time>2012-08-19T08:39:00Z</time>
      </trkpt>
      <trkpt lat="43.97905" lon="7.27445">
        <ele>1149.703979</ele>
        <time>2012-08-19T08:39:02Z</time>
      </trkpt>
      <trkpt lat="43.97898" lon="7.27438">
        <ele>1149.210571</ele>
        <time>2012-08-19T08:39:05Z</time>
      </trkpt>
      <trkpt lat="43.9789" lon="7.27429">
        <ele>1148.679321</ele>
        <time>2012-08-19T08:39:08Z</time>
      </trkpt>
      <trkpt lat="43.97885" lon="7.27424">
        <ele>1148.332275</ele>
        <time>2012-08-19T08:39:10Z</time>
      </trkpt>
      <trkpt lat="43.97879" lon="7.2742">
        <ele>1147.9552</ele>
        <time>2012-08-19T08:39:12Z</time>
      </trkpt>
      <trkpt lat="43.97869" lon="7.27415">
        <ele>1147.312744</ele>
        <time>2012-08-19T08:39:15Z</time>
      </trkpt>
      <trkpt lat="43.97863" lon="7.27414">
        <ele>1146.845825</ele>
        <time>2012-08-19T08:39:17Z</time>
      </trkpt>
      <trkpt lat="43.97855" lon="7.27414">
        <ele>1146.087891</ele>
        <time>2012-08-19T08:39:20Z</time>
      </trkpt>
      <trkpt lat="43.97851" lon="7.27413">
        <ele>1145.550171</ele>
        <time>2012-08-19T08:39:22Z</time>
      </trkpt>
      <trkpt lat="43.97846" lon="7.27411">
        <ele>1144.986694</ele>
        <time>2012-08-19T08:39:24Z</time>
      </trkpt>
      <trkpt lat="43.97839" lon="7.2741">
        <ele>1144.147095</ele>
        <time>2012-08-19T08:39:27Z</time>
      </trkpt>
      <trkpt lat="43.97833" lon="7.2741">
        <ele>1143.417236</ele>
        <time>2012-08-19T08:39:30Z</time>
      </trkpt>
      <trkpt lat="43.97827" lon="7.27411">
        <ele>1143.041748</ele>
        <time>2012-08-19T08:39:32Z</time>
      </trkpt>
      <trkpt lat="43.9782" lon="7.27415">
        <ele>1142.478638</ele>
        <time>2012-08-19T08:39:35Z</time>
      </trkpt>
      <trkpt lat="43.97813" lon="7.27415">
        <ele>1141.714355</ele>
        <time>2012-08-19T08:39:38Z</time>
      </trkpt>
      <trkpt lat="43.97805" lon="7.27418">
        <ele>1140.945068</ele>
        <time>2012-08-19T08:39:41Z</time>
      </trkpt>
      <trkpt lat="43.97799" lon="7.2742">
        <ele>1140.297974</ele>
        <time>2012-08-19T08:39:43Z</time>
      </trkpt>
      <trkpt lat="43.9779" lon="7.27423">
        <ele>1139.296143</ele>
        <time>2012-08-19T08:39:46Z</time>
      </trkpt>
      <trkpt lat="43.97782" lon="7.27425">
        <ele>1138.278442</ele>
        <time>2012-08-19T08:39:49Z</time>
      </trkpt>
      <trkpt lat="43.97776" lon="7.27429">
        <ele>1137.209229</ele>
        <time>2012-08-19T08:39:52Z</time>
      </trkpt>
      <trkpt lat="43.97773" lon="7.27433">
        <ele>1136.484375</ele>
        <time>2012-08-19T08:39:54Z</time>
      </trkpt>
      <trkpt lat="43.97768" lon="7.27437">
        <ele>1135.21167</ele>
        <time>2012-08-19T08:39:57Z</time>
      </trkpt>
      <trkpt lat="43.97762" lon="7.27443">
        <ele>1134.110352</ele>
        <time>2012-08-19T08:40:00Z</time>
      </trkpt>
      <trkpt lat="43.97758" lon="7.27448">
        <ele>1133.019287</ele>
        <time>2012-08-19T08:40:02Z</time>
      </trkpt>
      <trkpt lat="43.97754" lon="7.27453">
        <ele>1132.010498</ele>
        <time>2012-08-19T08:40:04Z</time>
      </trkpt>
      <trkpt lat="43.97747" lon="7.27458">
        <ele>1130.74231</ele>
        <time>2012-08-19T08:40:07Z</time>
      </trkpt>
      <trkpt lat="43.9774" lon="7.27464">
        <ele>1129.744263</ele>
        <time>2012-08-19T08:40:10Z</time>
      </trkpt>
      <trkpt lat="43.97732" lon="7.27469">
        <ele>1128.835938</ele>
        <time>2012-08-19T08:40:13Z</time>
      </trkpt>
      <trkpt lat="43.97724" lon="7.27477">
        <ele>1128.186523</ele>
        <time>2012-08-19T08:40:16Z</time>
      </trkpt>
      <trkpt lat="43.97718" lon="7.27482">
        <ele>1127.803955</ele>
        <time>2012-08-19T08:40:18Z</time>
      </trkpt>
      <trkpt lat="43.97711" lon="7.27491">
        <ele>1127.038452</ele>
        <time>2012-08-19T08:40:21Z</time>
      </trkpt>
      <trkpt lat="43.97706" lon="7.27496">
        <ele>1126.672852</ele>
        <time>2012-08-19T08:40:23Z</time>
      </trkpt>
      <trkpt lat="43.97697" lon="7.275">
        <ele>1126.217285</ele>
        <time>2012-08-19T08:40:26Z</time>
      </trkpt>
      <trkpt lat="43.9769" lon="7.27505">
        <ele>1126.004395</ele>
        <time>2012-08-19T08:40:29Z</time>
      </trkpt>
      <trkpt lat="43.97685" lon="7.27508">
        <ele>1126.028076</ele>
        <time>2012-08-19T08:40:31Z</time>
      </trkpt>
      <trkpt lat="43.97677" lon="7.27511">
        <ele>1126.096802</ele>
        <time>2012-08-19T08:40:34Z</time>
      </trkpt>
      <trkpt lat="43.97673" lon="7.27512">
        <ele>1126.19519</ele>
        <time>2012-08-19T08:40:36Z</time>
      </trkpt>
      <trkpt lat="43.9767" lon="7.27514">
        <ele>1126.250366</ele>
        <time>2012-08-19T08:40:38Z</time>
      </trkpt>
      <trkpt lat="43.97665" lon="7.27516">
        <ele>1126.318115</ele>
        <time>2012-08-19T08:40:41Z</time>
      </trkpt>
      <trkpt lat="43.97657" lon="7.27516">
        <ele>1126.368042</ele>
        <time>2012-08-19T08:40:44Z</time>
      </trkpt>
      <trkpt lat="43.97652" lon="7.27517">
        <ele>1126.411499</ele>
        <time>2012-08-19T08:40:46Z</time>
      </trkpt>
      <trkpt lat="43.97644" lon="7.27517">
        <ele>1126.418701</ele>
        <time>2012-08-19T08:40:49Z</time>
      </trkpt>
      <trkpt lat="43.97641" lon="7.27516">
        <ele>1126.371948</ele>
        <time>2012-08-19T08:40:51Z</time>
      </trkpt>
      <trkpt lat="43.97637" lon="7.27517">
        <ele>1126.323364</ele>
        <time>2012-08-19T08:40:53Z</time>
      </trkpt>
      <trkpt lat="43.97634" lon="7.27517">
        <ele>1126.28772</ele>
        <time>2012-08-19T08:40:55Z</time>
      </trkpt>
      <trkpt lat="43.97628" lon="7.27516">
        <ele>1126.303955</ele>
        <time>2012-08-19T08:40:58Z</time>
      </trkpt>
      <trkpt lat="43.97622" lon="7.27516">
        <ele>1126.203979</ele>
        <time>2012-08-19T08:41:01Z</time>
      </trkpt>
      <trkpt lat="43.97618" lon="7.27516">
        <ele>1126.135498</ele>
        <time>2012-08-19T08:41:03Z</time>
      </trkpt>
      <trkpt lat="43.97612" lon="7.27516">
        <ele>1126.016357</ele>
        <time>2012-08-19T08:41:06Z</time>
      </trkpt>
      <trkpt lat="43.97608" lon="7.27515">
        <ele>1125.877441</ele>
        <time>2012-08-19T08:41:08Z</time>
      </trkpt>
      <trkpt lat="43.97601" lon="7.27515">
        <ele>1125.517578</ele>
        <time>2012-08-19T08:41:11Z</time>
      </trkpt>
      <trkpt lat="43.97597" lon="7.27515">
        <ele>1125.30127</ele>
        <time>2012-08-19T08:41:13Z</time>
      </trkpt>
      <trkpt lat="43.97589" lon="7.27514">
        <ele>1124.857788</ele>
        <time>2012-08-19T08:41:16Z</time>
      </trkpt>
      <trkpt lat="43.97581" lon="7.27513">
        <ele>1124.27417</ele>
        <time>2012-08-19T08:41:19Z</time>
      </trkpt>
      <trkpt lat="43.97573" lon="7.27511">
        <ele>1123.490845</ele>
        <time>2012-08-19T08:41:22Z</time>
      </trkpt>
      <trkpt lat="43.97568" lon="7.2751">
        <ele>1122.679443</ele>
        <time>2012-08-19T08:41:25Z</time>
      </trkpt>
      <trkpt lat="43.97562" lon="7.27511">
        <ele>1121.972412</ele>
        <time>2012-08-19T08:41:28Z</time>
      </trkpt>
      <trkpt lat="43.97555" lon="7.27513">
        <ele>1121.27478</ele>
        <time>2012-08-19T08:41:31Z</time>
      </trkpt>
      <trkpt lat="43.97548" lon="7.27515">
        <ele>1120.580322</ele>
        <time>2012-08-19T08:41:34Z</time>
      </trkpt>
      <trkpt lat="43.9754" lon="7.27521">
        <ele>1119.576172</ele>
        <time>2012-08-19T08:41:37Z</time>
      </trkpt>
      <trkpt lat="43.97533" lon="7.27527">
        <ele>1119.028198</ele>
        <time>2012-08-19T08:41:39Z</time>
      </trkpt>
      <trkpt lat="43.97526" lon="7.27532">
        <ele>1118.567505</ele>
        <time>2012-08-19T08:41:41Z</time>
      </trkpt>
      <trkpt lat="43.97514" lon="7.27538">
        <ele>1118.014648</ele>
        <time>2012-08-19T08:41:44Z</time>
      </trkpt>
      <trkpt lat="43.97505" lon="7.27545">
        <ele>1117.49292</ele>
        <time>2012-08-19T08:41:47Z</time>
      </trkpt>
      <trkpt lat="43.97499" lon="7.27552">
        <ele>1116.745239</ele>
        <time>2012-08-19T08:41:50Z</time>
      </trkpt>
      <trkpt lat="43.97496" lon="7.27557">
        <ele>1115.984985</ele>
        <time>2012-08-19T08:41:52Z</time>
      </trkpt>
      <trkpt lat="43.97495" lon="7.27558">
        <ele>1115.568359</ele>
        <time>2012-08-19T08:41:55Z</time>
      </trkpt>
      <trkpt lat="43.97495" lon="7.27558">
        <ele>1114.142944</ele>
        <time>2012-08-19T08:41:58Z</time>
      </trkpt>
      <trkpt lat="43.97488" lon="7.27565">
        <ele>1112.266846</ele>
        <time>2012-08-19T08:42:01Z</time>
      </trkpt>
      <trkpt lat="43.97484" lon="7.2757">
        <ele>1111.49707</ele>
        <time>2012-08-19T08:42:03Z</time>
      </trkpt>
      <trkpt lat="43.97479" lon="7.27573">
        <ele>1110.862915</ele>
        <time>2012-08-19T08:42:06Z</time>
      </trkpt>
      <trkpt lat="43.97479" lon="7.27573">
        <ele>1110.074829</ele>
        <time>2012-08-19T08:42:08Z</time>
      </trkpt>
      <trkpt lat="43.97471" lon="7.27584">
        <ele>1109.071289</ele>
        <time>2012-08-19T08:42:11Z</time>
      </trkpt>
      <trkpt lat="43.97467" lon="7.2759">
        <ele>1108.375488</ele>
        <time>2012-08-19T08:42:13Z</time>
      </trkpt>
      <trkpt lat="43.97461" lon="7.27597">
        <ele>1107.360962</ele>
        <time>2012-08-19T08:42:16Z</time>
      </trkpt>
      <trkpt lat="43.97453" lon="7.27603">
        <ele>1106.515137</ele>
        <time>2012-08-19T08:42:19Z</time>
      </trkpt>
      <trkpt lat="43.97444" lon="7.27609">
        <ele>1105.880249</ele>
        <time>2012-08-19T08:42:22Z</time>
      </trkpt>
      <trkpt lat="43.97438" lon="7.27613">
        <ele>1105.537598</ele>
        <time>2012-08-19T08:42:24Z</time>
      </trkpt>
      <trkpt lat="43.97433" lon="7.27617">
        <ele>1105.243774</ele>
        <time>2012-08-19T08:42:26Z</time>
      </trkpt>
      <trkpt lat="43.97429" lon="7.27621">
        <ele>1105.093018</ele>
        <time>2012-08-19T08:42:28Z</time>
      </trkpt>
      <trkpt lat="43.97423" lon="7.27626">
        <ele>1105.037231</ele>
        <time>2012-08-19T08:42:31Z</time>
      </trkpt>
      <trkpt lat="43.97419" lon="7.27629">
        <ele>1105.054565</ele>
        <time>2012-08-19T08:42:33Z</time>
      </trkpt>
      <trkpt lat="43.97414" lon="7.27634">
        <ele>1105.016846</ele>
        <time>2012-08-19T08:42:36Z</time>
      </trkpt>
      <trkpt lat="43.97408" lon="7.27641">
        <ele>1104.960449</ele>
        <time>2012-08-19T08:42:39Z</time>
      </trkpt>
      <trkpt lat="43.97404" lon="7.27647">
        <ele>1104.980225</ele>
        <time>2012-08-19T08:42:41Z</time>
      </trkpt>
      <trkpt lat="43.97399" lon="7.27653">
        <ele>1105.047241</ele>
        <time>2012-08-19T08:42:44Z</time>
      </trkpt>
      <trkpt lat="43.97394" lon="7.27654">
        <ele>1105.083496</ele>
        <time>2012-08-19T08:42:47Z</time>
      </trkpt>
      <trkpt lat="43.9739" lon="7.27655">
        <ele>1105.07373</ele>
        <time>2012-08-19T08:42:49Z</time>
      </trkpt>
      <trkpt lat="43.97384" lon="7.27658">
        <ele>1105.083496</ele>
        <time>2012-08-19T08:42:52Z</time>
      </trkpt>
      <trkpt lat="43.97381" lon="7.27659">
        <ele>1105.035767</ele>
        <time>2012-08-19T08:42:54Z</time>
      </trkpt>
      <trkpt lat="43.97376" lon="7.27661">
        <ele>1104.845459</ele>
        <time>2012-08-19T08:42:57Z</time>
      </trkpt>
      <trkpt lat="43.97372" lon="7.27663">
        <ele>1104.622925</ele>
        <time>2012-08-19T08:43:00Z</time>
      </trkpt>
      <trkpt lat="43.97369" lon="7.27664">
        <ele>1104.430542</ele>
        <time>2012-08-19T08:43:02Z</time>
      </trkpt>
      <trkpt lat="43.97365" lon="7.27664">
        <ele>1104.115356</ele>
        <time>2012-08-19T08:43:05Z</time>
      </trkpt>
      <trkpt lat="43.9736" lon="7.27662">
        <ele>1103.820068</ele>
        <time>2012-08-19T08:43:08Z</time>
      </trkpt>
      <trkpt lat="43.97355" lon="7.27661">
        <ele>1103.553467</ele>
        <time>2012-08-19T08:43:11Z</time>
      </trkpt>
      <trkpt lat="43.97352" lon="7.2766">
        <ele>1103.393433</ele>
        <time>2012-08-19T08:43:13Z</time>
      </trkpt>
      <trkpt lat="43.97349" lon="7.2766">
        <ele>1103.243164</ele>
        <time>2012-08-19T08:43:15Z</time>
      </trkpt>
      <trkpt lat="43.97343" lon="7.27662">
        <ele>1102.969727</ele>
        <time>2012-08-19T08:43:18Z</time>
      </trkpt>
      <trkpt lat="43.97336" lon="7.2766">
        <ele>1102.612549</ele>
        <time>2012-08-19T08:43:21Z</time>
      </trkpt>
      <trkpt lat="43.97331" lon="7.27657">
        <ele>1102.34082</ele>
        <time>2012-08-19T08:43:23Z</time>
      </trkpt>
      <trkpt lat="43.97327" lon="7.27656">
        <ele>1102.058472</ele>
        <time>2012-08-19T08:43:25Z</time>
      </trkpt>
      <trkpt lat="43.97322" lon="7.27653">
        <ele>1101.566162</ele>
        <time>2012-08-19T08:43:28Z</time>
      </trkpt>
      <trkpt lat="43.97319" lon="7.27652">
        <ele>1101.152222</ele>
        <time>2012-08-19T08:43:30Z</time>
      </trkpt>
      <trkpt lat="43.97316" lon="7.27649">
        <ele>1100.593018</ele>
        <time>2012-08-19T08:43:33Z</time>
      </trkpt>
      <trkpt lat="43.97313" lon="7.27644">
        <ele>1100.086182</ele>
        <time>2012-08-19T08:43:36Z</time>
      </trkpt>
      <trkpt lat="43.97311" lon="7.2764">
        <ele>1099.615845</ele>
        <time>2012-08-19T08:43:39Z</time>
      </trkpt>
      <trkpt lat="43.97309" lon="7.27637">
        <ele>1099.310791</ele>
        <time>2012-08-19T08:43:41Z</time>
      </trkpt>
      <trkpt lat="43.97308" lon="7.27635">
        <ele>1099.037598</ele>
        <time>2012-08-19T08:43:43Z</time>
      </trkpt>
      <trkpt lat="43.97306" lon="7.27632">
        <ele>1098.67395</ele>
        <time>2012-08-19T08:43:46Z</time>
      </trkpt>
      <trkpt lat="43.97304" lon="7.27631">
        <ele>1098.455078</ele>
        <time>2012-08-19T08:43:48Z</time>
      </trkpt>
      <trkpt lat="43.97302" lon="7.27628">
        <ele>1098.136108</ele>
        <time>2012-08-19T08:43:51Z</time>
      </trkpt>
      <trkpt lat="43.973" lon="7.27626">
        <ele>1097.871338</ele>
        <time>2012-08-19T08:43:54Z</time>
      </trkpt>
      <trkpt lat="43.97297" lon="7.27624">
        <ele>1097.726196</ele>
        <time>2012-08-19T08:43:56Z</time>
      </trkpt>
      <trkpt lat="43.97293" lon="7.27624">
        <ele>1097.565918</ele>
        <time>2012-08-19T08:43:59Z</time>
      </trkpt>
      <trkpt lat="43.97289" lon="7.27625">
        <ele>1097.388428</ele>
        <time>2012-08-19T08:44:02Z</time>
      </trkpt>
      <trkpt lat="43.97286" lon="7.27625">
        <ele>1097.244019</ele>
        <time>2012-08-19T08:44:04Z</time>
      </trkpt>
      <trkpt lat="43.97281" lon="7.27626">
        <ele>1096.937988</ele>
        <time>2012-08-19T08:44:07Z</time>
      </trkpt>
      <trkpt lat="43.97277" lon="7.27627">
        <ele>1096.694702</ele>
        <time>2012-08-19T08:44:09Z</time>
      </trkpt>
      <trkpt lat="43.97273" lon="7.27628">
        <ele>1096.434204</ele>
        <time>2012-08-19T08:44:11Z</time>
      </trkpt>
      <trkpt lat="43.97269" lon="7.27629">
        <ele>1096.145752</ele>
        <time>2012-08-19T08:44:13Z</time>
      </trkpt>
      <trkpt lat="43.97264" lon="7.2763">
        <ele>1095.699951</ele>
        <time>2012-08-19T08:44:16Z</time>
      </trkpt>
      <trkpt lat="43.9726" lon="7.27631">
        <ele>1095.385254</ele>
        <time>2012-08-19T08:44:18Z</time>
      </trkpt>
      <trkpt lat="43.97254" lon="7.27631">
        <ele>1094.871094</ele>
        <time>2012-08-19T08:44:21Z</time>
      </trkpt>
      <trkpt lat="43.9725" lon="7.2763">
        <ele>1094.540283</ele>
        <time>2012-08-19T08:44:23Z</time>
      </trkpt>
      <trkpt lat="43.97245" lon="7.2763">
        <ele>1094.028931</ele>
        <time>2012-08-19T08:44:26Z</time>
      </trkpt>
      <trkpt lat="43.97238" lon="7.27632">
        <ele>1093.546875</ele>
        <time>2012-08-19T08:44:29Z</time>
      </trkpt>
      <trkpt lat="43.97233" lon="7.27634">
        <ele>1093.248779</ele>
        <time>2012-08-19T08:44:31Z</time>
      </trkpt>
      <trkpt lat="43.97226" lon="7.27637">
        <ele>1092.772949</ele>
        <time>2012-08-19T08:44:34Z</time>
      </trkpt>
      <trkpt lat="43.97219" lon="7.27639">
        <ele>1092.34314</ele>
        <time>2012-08-19T08:44:37Z</time>
      </trkpt>
      <trkpt lat="43.97212" lon="7.2764">
        <ele>1091.829224</ele>
        <time>2012-08-19T08:44:40Z</time>
      </trkpt>
      <trkpt lat="43.97205" lon="7.27638">
        <ele>1091.284912</ele>
        <time>2012-08-19T08:44:42Z</time>
      </trkpt>
      <trkpt lat="43.97197" lon="7.27634">
        <ele>1090.450684</ele>
        <time>2012-08-19T08:44:45Z</time>
      </trkpt>
      <trkpt lat="43.97193" lon="7.27632">
        <ele>1089.865479</ele>
        <time>2012-08-19T08:44:47Z</time>
      </trkpt>
      <trkpt lat="43.97188" lon="7.2763">
        <ele>1089.312012</ele>
        <time>2012-08-19T08:44:49Z</time>
      </trkpt>
      <trkpt lat="43.97185" lon="7.27628">
        <ele>1088.790527</ele>
        <time>2012-08-19T08:44:51Z</time>
      </trkpt>
      <trkpt lat="43.97179" lon="7.27624">
        <ele>1088.054443</ele>
        <time>2012-08-19T08:44:54Z</time>
      </trkpt>
      <trkpt lat="43.97175" lon="7.27618">
        <ele>1087.431641</ele>
        <time>2012-08-19T08:44:57Z</time>
      </trkpt>
      <trkpt lat="43.97171" lon="7.27611">
        <ele>1086.787842</ele>
        <time>2012-08-19T08:45:00Z</time>
      </trkpt>
      <trkpt lat="43.97169" lon="7.27606">
        <ele>1086.375732</ele>
        <time>2012-08-19T08:45:02Z</time>
      </trkpt>
      <trkpt lat="43.97167" lon="7.27603">
        <ele>1086.016602</ele>
        <time>2012-08-19T08:45:04Z</time>
      </trkpt>
      <trkpt lat="43.97164" lon="7.27598">
        <ele>1085.554688</ele>
        <time>2012-08-19T08:45:07Z</time>
      </trkpt>
      <trkpt lat="43.97161" lon="7.27591">
        <ele>1085.209961</ele>
        <time>2012-08-19T08:45:10Z</time>
      </trkpt>
      <trkpt lat="43.97158" lon="7.27587">
        <ele>1085.018555</ele>
        <time>2012-08-19T08:45:12Z</time>
      </trkpt>
      <trkpt lat="43.97155" lon="7.27584">
        <ele>1084.861328</ele>
        <time>2012-08-19T08:45:14Z</time>
      </trkpt>
      <trkpt lat="43.97151" lon="7.27582">
        <ele>1084.646606</ele>
        <time>2012-08-19T08:45:16Z</time>
      </trkpt>
      <trkpt lat="43.97148" lon="7.27579">
        <ele>1084.434204</ele>
        <time>2012-08-19T08:45:18Z</time>
      </trkpt>
      <trkpt lat="43.97143" lon="7.27572">
        <ele>1084.077759</ele>
        <time>2012-08-19T08:45:21Z</time>
      </trkpt>
      <trkpt lat="43.97139" lon="7.27567">
        <ele>1083.79541</ele>
        <time>2012-08-19T08:45:23Z</time>
      </trkpt>
      <trkpt lat="43.97134" lon="7.27562">
        <ele>1083.42041</ele>
        <time>2012-08-19T08:45:25Z</time>
      </trkpt>
      <trkpt lat="43.97129" lon="7.27554">
        <ele>1082.900513</ele>
        <time>2012-08-19T08:45:28Z</time>
      </trkpt>
      <trkpt lat="43.97123" lon="7.27548">
        <ele>1082.36853</ele>
        <time>2012-08-19T08:45:31Z</time>
      </trkpt>
      <trkpt lat="43.97118" lon="7.27541">
        <ele>1081.81897</ele>
        <time>2012-08-19T08:45:34Z</time>
      </trkpt>
      <trkpt lat="43.97114" lon="7.27537">
        <ele>1081.450928</ele>
        <time>2012-08-19T08:45:36Z</time>
      </trkpt>
      <trkpt lat="43.97111" lon="7.27533">
        <ele>1081.128052</ele>
        <time>2012-08-19T08:45:38Z</time>
      </trkpt>
      <trkpt lat="43.97106" lon="7.27528">
        <ele>1080.554565</ele>
        <time>2012-08-19T08:45:41Z</time>
      </trkpt>
      <trkpt lat="43.97102" lon="7.27522">
        <ele>1079.974487</ele>
        <time>2012-08-19T08:45:44Z</time>
      </trkpt>
      <trkpt lat="43.971" lon="7.27518">
        <ele>1079.614258</ele>
        <time>2012-08-19T08:45:46Z</time>
      </trkpt>
      <trkpt lat="43.97095" lon="7.2751">
        <ele>1079.060547</ele>
        <time>2012-08-19T08:45:49Z</time>
      </trkpt>
      <trkpt lat="43.97092" lon="7.27505">
        <ele>1078.671875</ele>
        <time>2012-08-19T08:45:51Z</time>
      </trkpt>
      <trkpt lat="43.97088" lon="7.27496">
        <ele>1078.023315</ele>
        <time>2012-08-19T08:45:54Z</time>
      </trkpt>
      <trkpt lat="43.97085" lon="7.27489">
        <ele>1077.51001</ele>
        <time>2012-08-19T08:45:56Z</time>
      </trkpt>
      <trkpt lat="43.9708" lon="7.27479">
        <ele>1076.776489</ele>
        <time>2012-08-19T08:45:59Z</time>
      </trkpt>
      <trkpt lat="43.97077" lon="7.27472">
        <ele>1076.135376</ele>
        <time>2012-08-19T08:46:01Z</time>
      </trkpt>
      <trkpt lat="43.97073" lon="7.27466">
        <ele>1075.440186</ele>
        <time>2012-08-19T08:46:03Z</time>
      </trkpt>
      <trkpt lat="43.97068" lon="7.27455">
        <ele>1074.38501</ele>
        <time>2012-08-19T08:46:06Z</time>
      </trkpt>
      <trkpt lat="43.97063" lon="7.27446">
        <ele>1073.415405</ele>
        <time>2012-08-19T08:46:09Z</time>
      </trkpt>
      <trkpt lat="43.9706" lon="7.27441">
        <ele>1072.769775</ele>
        <time>2012-08-19T08:46:11Z</time>
      </trkpt>
      <trkpt lat="43.97059" lon="7.27436">
        <ele>1072.050537</ele>
        <time>2012-08-19T08:46:13Z</time>
      </trkpt>
      <trkpt lat="43.97057" lon="7.27428">
        <ele>1070.939697</ele>
        <time>2012-08-19T08:46:16Z</time>
      </trkpt>
      <trkpt lat="43.97054" lon="7.27421">
        <ele>1069.783569</ele>
        <time>2012-08-19T08:46:19Z</time>
      </trkpt>
      <trkpt lat="43.97052" lon="7.27418">
        <ele>1069.02356</ele>
        <time>2012-08-19T08:46:21Z</time>
      </trkpt>
      <trkpt lat="43.9705" lon="7.27412">
        <ele>1067.904785</ele>
        <time>2012-08-19T08:46:24Z</time>
      </trkpt>
      <trkpt lat="43.9705" lon="7.27406">
        <ele>1066.779663</ele>
        <time>2012-08-19T08:46:27Z</time>
      </trkpt>
      <trkpt lat="43.9705" lon="7.27403">
        <ele>1066.038818</ele>
        <time>2012-08-19T08:46:29Z</time>
      </trkpt>
      <trkpt lat="43.97051" lon="7.27396">
        <ele>1064.985596</ele>
        <time>2012-08-19T08:46:32Z</time>
      </trkpt>
      <trkpt lat="43.97049" lon="7.27389">
        <ele>1063.80127</ele>
        <time>2012-08-19T08:46:35Z</time>
      </trkpt>
      <trkpt lat="43.97047" lon="7.27383">
        <ele>1062.515137</ele>
        <time>2012-08-19T08:46:38Z</time>
      </trkpt>
      <trkpt lat="43.97045" lon="7.27375">
        <ele>1061.237061</ele>
        <time>2012-08-19T08:46:41Z</time>
      </trkpt>
      <trkpt lat="43.97043" lon="7.27369">
        <ele>1060.410767</ele>
        <time>2012-08-19T08:46:43Z</time>
      </trkpt>
      <trkpt lat="43.97041" lon="7.27364">
        <ele>1059.345703</ele>
        <time>2012-08-19T08:46:45Z</time>
      </trkpt>
      <trkpt lat="43.97037" lon="7.27356">
        <ele>1057.740356</ele>
        <time>2012-08-19T08:46:48Z</time>
      </trkpt>
      <trkpt lat="43.97032" lon="7.27349">
        <ele>1056.277588</ele>
        <time>2012-08-19T08:46:51Z</time>
      </trkpt>
      <trkpt lat="43.97028" lon="7.27344">
        <ele>1055.286133</ele>
        <time>2012-08-19T08:46:53Z</time>
      </trkpt>
      <trkpt lat="43.97024" lon="7.27339">
        <ele>1054.303955</ele>
        <time>2012-08-19T08:46:55Z</time>
      </trkpt>
      <trkpt lat="43.97021" lon="7.27331">
        <ele>1052.759277</ele>
        <time>2012-08-19T08:46:58Z</time>
      </trkpt>
      <trkpt lat="43.97017" lon="7.27322">
        <ele>1051.243286</ele>
        <time>2012-08-19T08:47:01Z</time>
      </trkpt>
      <trkpt lat="43.97015" lon="7.27317">
        <ele>1050.298706</ele>
        <time>2012-08-19T08:47:03Z</time>
      </trkpt>
      <trkpt lat="43.97014" lon="7.27309">
        <ele>1048.935547</ele>
        <time>2012-08-19T08:47:06Z</time>
      </trkpt>
      <trkpt lat="43.97014" lon="7.27302">
        <ele>1047.635742</ele>
        <time>2012-08-19T08:47:09Z</time>
      </trkpt>
      <trkpt lat="43.97014" lon="7.27295">
        <ele>1046.342529</ele>
        <time>2012-08-19T08:47:12Z</time>
      </trkpt>
      <trkpt lat="43.97013" lon="7.2729">
        <ele>1045.44397</ele>
        <time>2012-08-19T08:47:14Z</time>
      </trkpt>
      <trkpt lat="43.97014" lon="7.27282">
        <ele>1044.126709</ele>
        <time>2012-08-19T08:47:17Z</time>
      </trkpt>
      <trkpt lat="43.97013" lon="7.27275">
        <ele>1042.796509</ele>
        <time>2012-08-19T08:47:20Z</time>
      </trkpt>
      <trkpt lat="43.97012" lon="7.27269">
        <ele>1041.957031</ele>
        <time>2012-08-19T08:47:22Z</time>
      </trkpt>
      <trkpt lat="43.9701" lon="7.27263">
        <ele>1041.0271</ele>
        <time>2012-08-19T08:47:24Z</time>
      </trkpt>
      <trkpt lat="43.97004" lon="7.27251">
        <ele>1039.266968</ele>
        <time>2012-08-19T08:47:27Z</time>
      </trkpt>
      <trkpt lat="43.96999" lon="7.27243">
        <ele>1038.024414</ele>
        <time>2012-08-19T08:47:29Z</time>
      </trkpt>
      <trkpt lat="43.96993" lon="7.27233">
        <ele>1036.020142</ele>
        <time>2012-08-19T08:47:32Z</time>
      </trkpt>
      <trkpt lat="43.96987" lon="7.27225">
        <ele>1034.004028</ele>
        <time>2012-08-19T08:47:35Z</time>
      </trkpt>
      <trkpt lat="43.96983" lon="7.2722">
        <ele>1032.606323</ele>
        <time>2012-08-19T08:47:37Z</time>
      </trkpt>
      <trkpt lat="43.96981" lon="7.27217">
        <ele>1031.257324</ele>
        <time>2012-08-19T08:47:39Z</time>
      </trkpt>
      <trkpt lat="43.96976" lon="7.27213">
        <ele>1029.297607</ele>
        <time>2012-08-19T08:47:42Z</time>
      </trkpt>
      <trkpt lat="43.96972" lon="7.27208">
        <ele>1027.401123</ele>
        <time>2012-08-19T08:47:45Z</time>
      </trkpt>
      <trkpt lat="43.9697" lon="7.27205">
        <ele>1026.236938</ele>
        <time>2012-08-19T08:47:47Z</time>
      </trkpt>
      <trkpt lat="43.96966" lon="7.272">
        <ele>1024.490601</ele>
        <time>2012-08-19T08:47:50Z</time>
      </trkpt>
      <trkpt lat="43.96962" lon="7.27197">
        <ele>1022.720032</ele>
        <time>2012-08-19T08:47:53Z</time>
      </trkpt>
      <trkpt lat="43.96959" lon="7.27193">
        <ele>1021.00531</ele>
        <time>2012-08-19T08:47:56Z</time>
      </trkpt>
      <trkpt lat="43.96959" lon="7.27186">
        <ele>1019.379333</ele>
        <time>2012-08-19T08:47:59Z</time>
      </trkpt>
      <trkpt lat="43.96957" lon="7.27183">
        <ele>1017.763977</ele>
        <time>2012-08-19T08:48:02Z</time>
      </trkpt>
      <trkpt lat="43.96954" lon="7.27182">
        <ele>1016.138611</ele>
        <time>2012-08-19T08:48:05Z</time>
      </trkpt>
      <trkpt lat="43.96951" lon="7.27182">
        <ele>1014.270813</ele>
        <time>2012-08-19T08:48:08Z</time>
      </trkpt>
      <trkpt lat="43.96947" lon="7.27179">
        <ele>1012.289368</ele>
        <time>2012-08-19T08:48:11Z</time>
      </trkpt>
      <trkpt lat="43.96945" lon="7.27179">
        <ele>1010.899109</ele>
        <time>2012-08-19T08:48:13Z</time>
      </trkpt>
      <trkpt lat="43.96942" lon="7.27178">
        <ele>1009.488342</ele>
        <time>2012-08-19T08:48:15Z</time>
      </trkpt>
      <trkpt lat="43.96939" lon="7.27175">
        <ele>1007.45929</ele>
        <time>2012-08-19T08:48:18Z</time>
      </trkpt>
      <trkpt lat="43.96935" lon="7.27174">
        <ele>1005.356262</ele>
        <time>2012-08-19T08:48:21Z</time>
      </trkpt>
      <trkpt lat="43.96933" lon="7.27172">
        <ele>1003.291809</ele>
        <time>2012-08-19T08:48:24Z</time>
      </trkpt>
      <trkpt lat="43.96932" lon="7.27171">
        <ele>1001.862732</ele>
        <time>2012-08-19T08:48:26Z</time>
      </trkpt>
      <trkpt lat="43.96929" lon="7.27169">
        <ele>1000.030701</ele>
        <time>2012-08-19T08:48:29Z</time>
      </trkpt>
      <trkpt lat="43.96926" lon="7.27165">
        <ele>998.179016</ele>
        <time>2012-08-19T08:48:32Z</time>
      </trkpt>
      <trkpt lat="43.96924" lon="7.27161">
        <ele>997.054871</ele>
        <time>2012-08-19T08:48:34Z</time>
      </trkpt>
      <trkpt lat="43.96922" lon="7.27159">
        <ele>995.936951</ele>
        <time>2012-08-19T08:48:36Z</time>
      </trkpt>
      <trkpt lat="43.96922" lon="7.27158">
        <ele>994.264709</ele>
        <time>2012-08-19T08:48:39Z</time>
      </trkpt>
      <trkpt lat="43.96922" lon="7.27158">
        <ele>992.562195</ele>
        <time>2012-08-19T08:48:42Z</time>
      </trkpt>
      <trkpt lat="43.96917" lon="7.27156">
        <ele>991.445862</ele>
        <time>2012-08-19T08:48:44Z</time>
      </trkpt>
      <trkpt lat="43.96916" lon="7.27153">
        <ele>989.723083</ele>
        <time>2012-08-19T08:48:47Z</time>
      </trkpt>
      <trkpt lat="43.96915" lon="7.27152">
        <ele>988.578064</ele>
        <time>2012-08-19T08:48:49Z</time>
      </trkpt>
      <trkpt lat="43.96915" lon="7.27152">
        <ele>987.330139</ele>
        <time>2012-08-19T08:48:51Z</time>
      </trkpt>
      <trkpt lat="43.96909" lon="7.27149">
        <ele>985.570374</ele>
        <time>2012-08-19T08:48:54Z</time>
      </trkpt>
      <trkpt lat="43.96904" lon="7.27148">
        <ele>983.847229</ele>
        <time>2012-08-19T08:48:57Z</time>
      </trkpt>
      <trkpt lat="43.96901" lon="7.27144">
        <ele>981.919006</ele>
        <time>2012-08-19T08:49:00Z</time>
      </trkpt>
      <trkpt lat="43.96899" lon="7.27142">
        <ele>980.522766</ele>
        <time>2012-08-19T08:49:02Z</time>
      </trkpt>
      <trkpt lat="43.96896" lon="7.27139">
        <ele>978.437683</ele>
        <time>2012-08-19T08:49:05Z</time>
      </trkpt>
      <trkpt lat="43.96893" lon="7.27135">
        <ele>977.405457</ele>
        <time>2012-08-19T08:49:07Z</time>
      </trkpt>
      <trkpt lat="43.9689" lon="7.27128">
        <ele>976.091614</ele>
        <time>2012-08-19T08:49:10Z</time>
      </trkpt>
      <trkpt lat="43.96888" lon="7.27122">
        <ele>975.325684</ele>
        <time>2012-08-19T08:49:12Z</time>
      </trkpt>
      <trkpt lat="43.96884" lon="7.27118">
        <ele>974.122559</ele>
        <time>2012-08-19T08:49:15Z</time>
      </trkpt>
      <trkpt lat="43.96881" lon="7.27116">
        <ele>973.423889</ele>
        <time>2012-08-19T08:49:17Z</time>
      </trkpt>
      <trkpt lat="43.96878" lon="7.27113">
        <ele>972.7005</ele>
        <time>2012-08-19T08:49:19Z</time>
      </trkpt>
      <trkpt lat="43.96874" lon="7.2711">
        <ele>971.789673</ele>
        <time>2012-08-19T08:49:21Z</time>
      </trkpt>
      <trkpt lat="43.96869" lon="7.27108">
        <ele>970.80188</ele>
        <time>2012-08-19T08:49:23Z</time>
      </trkpt>
      <trkpt lat="43.96865" lon="7.27108">
        <ele>969.678711</ele>
        <time>2012-08-19T08:49:25Z</time>
      </trkpt>
      <trkpt lat="43.9686" lon="7.27112">
        <ele>968.110352</ele>
        <time>2012-08-19T08:49:28Z</time>
      </trkpt>
      <trkpt lat="43.96854" lon="7.27115">
        <ele>966.71521</ele>
        <time>2012-08-19T08:49:31Z</time>
      </trkpt>
      <trkpt lat="43.9685" lon="7.27116">
        <ele>965.890625</ele>
        <time>2012-08-19T08:49:33Z</time>
      </trkpt>
      <trkpt lat="43.96844" lon="7.27118">
        <ele>964.888062</ele>
        <time>2012-08-19T08:49:36Z</time>
      </trkpt>
      <trkpt lat="43.9684" lon="7.27121">
        <ele>964.052124</ele>
        <time>2012-08-19T08:49:39Z</time>
      </trkpt>
      <trkpt lat="43.96836" lon="7.27123">
        <ele>963.406738</ele>
        <time>2012-08-19T08:49:42Z</time>
      </trkpt>
      <trkpt lat="43.96833" lon="7.27126">
        <ele>962.911072</ele>
        <time>2012-08-19T08:49:45Z</time>
      </trkpt>
      <trkpt lat="43.96828" lon="7.27127">
        <ele>962.27002</ele>
        <time>2012-08-19T08:49:48Z</time>
      </trkpt>
      <trkpt lat="43.96823" lon="7.27129">
        <ele>961.681274</ele>
        <time>2012-08-19T08:49:51Z</time>
      </trkpt>
      <trkpt lat="43.96819" lon="7.27129">
        <ele>961.405518</ele>
        <time>2012-08-19T08:49:53Z</time>
      </trkpt>
      <trkpt lat="43.96813" lon="7.27129">
        <ele>961.180969</ele>
        <time>2012-08-19T08:49:56Z</time>
      </trkpt>
      <trkpt lat="43.9681" lon="7.2713">
        <ele>961.070374</ele>
        <time>2012-08-19T08:49:58Z</time>
      </trkpt>
      <trkpt lat="43.96805" lon="7.27133">
        <ele>961.030518</ele>
        <time>2012-08-19T08:50:01Z</time>
      </trkpt>
      <trkpt lat="43.96801" lon="7.27134">
        <ele>961.05719</ele>
        <time>2012-08-19T08:50:03Z</time>
      </trkpt>
      <trkpt lat="43.96794" lon="7.27137">
        <ele>961.128052</ele>
        <time>2012-08-19T08:50:06Z</time>
      </trkpt>
      <trkpt lat="43.96787" lon="7.27141">
        <ele>961.216248</ele>
        <time>2012-08-19T08:50:09Z</time>
      </trkpt>
      <trkpt lat="43.9678" lon="7.27144">
        <ele>961.246216</ele>
        <time>2012-08-19T08:50:12Z</time>
      </trkpt>
      <trkpt lat="43.96775" lon="7.27146">
        <ele>961.174866</ele>
        <time>2012-08-19T08:50:14Z</time>
      </trkpt>
      <trkpt lat="43.96767" lon="7.2715">
        <ele>961.06366</ele>
        <time>2012-08-19T08:50:17Z</time>
      </trkpt>
      <trkpt lat="43.96761" lon="7.27152">
        <ele>961.038757</ele>
        <time>2012-08-19T08:50:19Z</time>
      </trkpt>
      <trkpt lat="43.96754" lon="7.27154">
        <ele>960.972046</ele>
        <time>2012-08-19T08:50:22Z</time>
      </trkpt>
      <trkpt lat="43.96749" lon="7.27155">
        <ele>960.839111</ele>
        <time>2012-08-19T08:50:24Z</time>
      </trkpt>
      <trkpt lat="43.96742" lon="7.27157">
        <ele>960.662659</ele>
        <time>2012-08-19T08:50:27Z</time>
      </trkpt>
      <trkpt lat="43.96738" lon="7.27158">
        <ele>960.529236</ele>
        <time>2012-08-19T08:50:29Z</time>
      </trkpt>
      <trkpt lat="43.96731" lon="7.2716">
        <ele>960.304871</ele>
        <time>2012-08-19T08:50:32Z</time>
      </trkpt>
      <trkpt lat="43.96723" lon="7.27161">
        <ele>960.034546</ele>
        <time>2012-08-19T08:50:35Z</time>
      </trkpt>
      <trkpt lat="43.96719" lon="7.27163">
        <ele>959.875977</ele>
        <time>2012-08-19T08:50:37Z</time>
      </trkpt>
      <trkpt lat="43.96714" lon="7.27173">
        <ele>959.557129</ele>
        <time>2012-08-19T08:50:40Z</time>
      </trkpt>
      <trkpt lat="43.96713" lon="7.27179">
        <ele>959.351868</ele>
        <time>2012-08-19T08:50:42Z</time>
      </trkpt>
      <trkpt lat="43.96711" lon="7.27188">
        <ele>959.096375</ele>
        <time>2012-08-19T08:50:45Z</time>
      </trkpt>
      <trkpt lat="43.96709" lon="7.27196">
        <ele>958.899475</ele>
        <time>2012-08-19T08:50:48Z</time>
      </trkpt>
      <trkpt lat="43.96706" lon="7.27202">
        <ele>958.737244</ele>
        <time>2012-08-19T08:50:51Z</time>
      </trkpt>
      <trkpt lat="43.96704" lon="7.27206">
        <ele>958.602295</ele>
        <time>2012-08-19T08:50:53Z</time>
      </trkpt>
      <trkpt lat="43.967" lon="7.2721">
        <ele>958.428589</ele>
        <time>2012-08-19T08:50:55Z</time>
      </trkpt>
      <trkpt lat="43.96693" lon="7.27217">
        <ele>958.123901</ele>
        <time>2012-08-19T08:50:58Z</time>
      </trkpt>
      <trkpt lat="43.96686" lon="7.27224">
        <ele>957.873657</ele>
        <time>2012-08-19T08:51:01Z</time>
      </trkpt>
      <trkpt lat="43.96681" lon="7.27228">
        <ele>957.713196</ele>
        <time>2012-08-19T08:51:03Z</time>
      </trkpt>
      <trkpt lat="43.96673" lon="7.27234">
        <ele>957.488403</ele>
        <time>2012-08-19T08:51:06Z</time>
      </trkpt>
      <trkpt lat="43.96669" lon="7.27236">
        <ele>957.347229</ele>
        <time>2012-08-19T08:51:08Z</time>
      </trkpt>
      <trkpt lat="43.96664" lon="7.27242">
        <ele>956.962891</ele>
        <time>2012-08-19T08:51:11Z</time>
      </trkpt>
      <trkpt lat="43.96659" lon="7.27249">
        <ele>956.520813</ele>
        <time>2012-08-19T08:51:14Z</time>
      </trkpt>
      <trkpt lat="43.96656" lon="7.27254">
        <ele>956.238586</ele>
        <time>2012-08-19T08:51:16Z</time>
      </trkpt>
      <trkpt lat="43.96654" lon="7.27259">
        <ele>955.992371</ele>
        <time>2012-08-19T08:51:18Z</time>
      </trkpt>
      <trkpt lat="43.96651" lon="7.27265">
        <ele>955.676147</ele>
        <time>2012-08-19T08:51:21Z</time>
      </trkpt>
      <trkpt lat="43.96648" lon="7.2727">
        <ele>955.369995</ele>
        <time>2012-08-19T08:51:24Z</time>
      </trkpt>
      <trkpt lat="43.96647" lon="7.27273">
        <ele>955.1604</ele>
        <time>2012-08-19T08:51:26Z</time>
      </trkpt>
      <trkpt lat="43.96646" lon="7.27279">
        <ele>954.832703</ele>
        <time>2012-08-19T08:51:29Z</time>
      </trkpt>
      <trkpt lat="43.96644" lon="7.27283">
        <ele>954.620178</ele>
        <time>2012-08-19T08:51:31Z</time>
      </trkpt>
      <trkpt lat="43.96641" lon="7.2729">
        <ele>954.286255</ele>
        <time>2012-08-19T08:51:34Z</time>
      </trkpt>
      <trkpt lat="43.96638" lon="7.27296">
        <ele>953.984253</ele>
        <time>2012-08-19T08:51:37Z</time>
      </trkpt>
      <trkpt lat="43.96635" lon="7.27302">
        <ele>953.666016</ele>
        <time>2012-08-19T08:51:40Z</time>
      </trkpt>
      <trkpt lat="43.96633" lon="7.27308">
        <ele>953.466553</ele>
        <time>2012-08-19T08:51:42Z</time>
      </trkpt>
      <trkpt lat="43.96628" lon="7.27319">
        <ele>953.248413</ele>
        <time>2012-08-19T08:51:45Z</time>
      </trkpt>
      <trkpt lat="43.96622" lon="7.27326">
        <ele>953.091492</ele>
        <time>2012-08-19T08:51:48Z</time>
      </trkpt>
      <trkpt lat="43.96614" lon="7.27334">
        <ele>953.008423</ele>
        <time>2012-08-19T08:51:51Z</time>
      </trkpt>
      <trkpt lat="43.96608" lon="7.2734">
        <ele>952.973145</ele>
        <time>2012-08-19T08:51:53Z</time>
      </trkpt>
      <trkpt lat="43.96601" lon="7.27351">
        <ele>952.919006</ele>
        <time>2012-08-19T08:51:56Z</time>
      </trkpt>
      <trkpt lat="43.96595" lon="7.27362">
        <ele>952.843872</ele>
        <time>2012-08-19T08:51:58Z</time>
      </trkpt>
      <trkpt lat="43.96588" lon="7.27378">
        <ele>952.751465</ele>
        <time>2012-08-19T08:52:01Z</time>
      </trkpt>
      <trkpt lat="43.96585" lon="7.27388">
        <ele>952.691101</ele>
        <time>2012-08-19T08:52:03Z</time>
      </trkpt>
      <trkpt lat="43.96583" lon="7.27396">
        <ele>952.616882</ele>
        <time>2012-08-19T08:52:05Z</time>
      </trkpt>
      <trkpt lat="43.96582" lon="7.27408">
        <ele>952.45636</ele>
        <time>2012-08-19T08:52:08Z</time>
      </trkpt>
      <trkpt lat="43.96579" lon="7.27426">
        <ele>952.183105</ele>
        <time>2012-08-19T08:52:11Z</time>
      </trkpt>
      <trkpt lat="43.96576" lon="7.27444">
        <ele>951.927612</ele>
        <time>2012-08-19T08:52:14Z</time>
      </trkpt>
      <trkpt lat="43.96575" lon="7.27454">
        <ele>951.776917</ele>
        <time>2012-08-19T08:52:16Z</time>
      </trkpt>
      <trkpt lat="43.96575" lon="7.27462">
        <ele>951.651794</ele>
        <time>2012-08-19T08:52:18Z</time>
      </trkpt>
      <trkpt lat="43.96575" lon="7.27474">
        <ele>951.428894</ele>
        <time>2012-08-19T08:52:21Z</time>
      </trkpt>
      <trkpt lat="43.96574" lon="7.27482">
        <ele>951.254089</ele>
        <time>2012-08-19T08:52:23Z</time>
      </trkpt>
      <trkpt lat="43.96573" lon="7.27494">
        <ele>951.015625</ele>
        <time>2012-08-19T08:52:26Z</time>
      </trkpt>
      <trkpt lat="43.96573" lon="7.27508">
        <ele>950.732056</ele>
        <time>2012-08-19T08:52:29Z</time>
      </trkpt>
      <trkpt lat="43.96571" lon="7.27522">
        <ele>950.507019</ele>
        <time>2012-08-19T08:52:31Z</time>
      </trkpt>
      <trkpt lat="43.96569" lon="7.2753">
        <ele>950.314514</ele>
        <time>2012-08-19T08:52:33Z</time>
      </trkpt>
      <trkpt lat="43.96567" lon="7.27537">
        <ele>950.149841</ele>
        <time>2012-08-19T08:52:35Z</time>
      </trkpt>
      <trkpt lat="43.96564" lon="7.27544">
        <ele>949.920166</ele>
        <time>2012-08-19T08:52:38Z</time>
      </trkpt>
      <trkpt lat="43.96561" lon="7.27553">
        <ele>949.489563</ele>
        <time>2012-08-19T08:52:41Z</time>
      </trkpt>
      <trkpt lat="43.9656" lon="7.27559">
        <ele>949.212158</ele>
        <time>2012-08-19T08:52:43Z</time>
      </trkpt>
      <trkpt lat="43.96559" lon="7.27565">
        <ele>948.939575</ele>
        <time>2012-08-19T08:52:45Z</time>
      </trkpt>
      <trkpt lat="43.96558" lon="7.2757">
        <ele>948.67395</ele>
        <time>2012-08-19T08:52:47Z</time>
      </trkpt>
      <trkpt lat="43.96557" lon="7.27574">
        <ele>948.399109</ele>
        <time>2012-08-19T08:52:49Z</time>
      </trkpt>
      <trkpt lat="43.96558" lon="7.27582">
        <ele>947.868347</ele>
        <time>2012-08-19T08:52:52Z</time>
      </trkpt>
      <trkpt lat="43.96558" lon="7.27586">
        <ele>947.53717</ele>
        <time>2012-08-19T08:52:54Z</time>
      </trkpt>
      <trkpt lat="43.96556" lon="7.27592">
        <ele>947.031982</ele>
        <time>2012-08-19T08:52:57Z</time>
      </trkpt>
      <trkpt lat="43.96556" lon="7.27599">
        <ele>946.667786</ele>
        <time>2012-08-19T08:52:59Z</time>
      </trkpt>
      <trkpt lat="43.96554" lon="7.27613">
        <ele>946.208069</ele>
        <time>2012-08-19T08:53:02Z</time>
      </trkpt>
      <trkpt lat="43.96551" lon="7.27622">
        <ele>945.763123</ele>
        <time>2012-08-19T08:53:05Z</time>
      </trkpt>
      <trkpt lat="43.96551" lon="7.27632">
        <ele>945.383911</ele>
        <time>2012-08-19T08:53:08Z</time>
      </trkpt>
      <trkpt lat="43.96548" lon="7.2764">
        <ele>945.044312</ele>
        <time>2012-08-19T08:53:11Z</time>
      </trkpt>
      <trkpt lat="43.96546" lon="7.27645">
        <ele>944.813477</ele>
        <time>2012-08-19T08:53:13Z</time>
      </trkpt>
      <trkpt lat="43.96545" lon="7.27656">
        <ele>944.356506</ele>
        <time>2012-08-19T08:53:16Z</time>
      </trkpt>
      <trkpt lat="43.96545" lon="7.27662">
        <ele>944.104553</ele>
        <time>2012-08-19T08:53:18Z</time>
      </trkpt>
      <trkpt lat="43.96545" lon="7.27669">
        <ele>943.791016</ele>
        <time>2012-08-19T08:53:21Z</time>
      </trkpt>
      <trkpt lat="43.96545" lon="7.27674">
        <ele>943.610779</ele>
        <time>2012-08-19T08:53:23Z</time>
      </trkpt>
      <trkpt lat="43.96545" lon="7.27681">
        <ele>943.381958</ele>
        <time>2012-08-19T08:53:26Z</time>
      </trkpt>
      <trkpt lat="43.96545" lon="7.27684">
        <ele>943.315308</ele>
        <time>2012-08-19T08:53:28Z</time>
      </trkpt>
      <trkpt lat="43.96545" lon="7.27684">
        <ele>943.270142</ele>
        <time>2012-08-19T08:53:31Z</time>
      </trkpt>
      <trkpt lat="43.96544" lon="7.27692">
        <ele>943.226685</ele>
        <time>2012-08-19T08:53:33Z</time>
      </trkpt>
      <trkpt lat="43.96543" lon="7.27694">
        <ele>943.203857</ele>
        <time>2012-08-19T08:53:35Z</time>
      </trkpt>
      <trkpt lat="43.96543" lon="7.27698">
        <ele>943.163269</ele>
        <time>2012-08-19T08:53:38Z</time>
      </trkpt>
      <trkpt lat="43.96542" lon="7.27703">
        <ele>943.120117</ele>
        <time>2012-08-19T08:53:41Z</time>
      </trkpt>
      <trkpt lat="43.96542" lon="7.2771">
        <ele>943.032837</ele>
        <time>2012-08-19T08:53:44Z</time>
      </trkpt>
      <trkpt lat="43.9654" lon="7.27714">
        <ele>942.932983</ele>
        <time>2012-08-19T08:53:47Z</time>
      </trkpt>
      <trkpt lat="43.96539" lon="7.27721">
        <ele>942.882996</ele>
        <time>2012-08-19T08:53:50Z</time>
      </trkpt>
      <trkpt lat="43.96537" lon="7.27726">
        <ele>942.892761</ele>
        <time>2012-08-19T08:53:52Z</time>
      </trkpt>
      <trkpt lat="43.96534" lon="7.2774">
        <ele>942.566101</ele>
        <time>2012-08-19T08:53:55Z</time>
      </trkpt>
      <trkpt lat="43.96532" lon="7.27749">
        <ele>942.344055</ele>
        <time>2012-08-19T08:53:57Z</time>
      </trkpt>
      <trkpt lat="43.96531" lon="7.27756">
        <ele>942.134338</ele>
        <time>2012-08-19T08:53:59Z</time>
      </trkpt>
      <trkpt lat="43.9653" lon="7.27767">
        <ele>941.745056</ele>
        <time>2012-08-19T08:54:02Z</time>
      </trkpt>
      <trkpt lat="43.96528" lon="7.27776">
        <ele>941.310059</ele>
        <time>2012-08-19T08:54:05Z</time>
      </trkpt>
      <trkpt lat="43.96525" lon="7.27781">
        <ele>940.890259</ele>
        <time>2012-08-19T08:54:08Z</time>
      </trkpt>
      <trkpt lat="43.96521" lon="7.27788">
        <ele>940.374084</ele>
        <time>2012-08-19T08:54:11Z</time>
      </trkpt>
      <trkpt lat="43.96519" lon="7.27792">
        <ele>939.981018</ele>
        <time>2012-08-19T08:54:13Z</time>
      </trkpt>
      <trkpt lat="43.96516" lon="7.27796">
        <ele>939.547241</ele>
        <time>2012-08-19T08:54:15Z</time>
      </trkpt>
      <trkpt lat="43.96513" lon="7.27798">
        <ele>939.128906</ele>
        <time>2012-08-19T08:54:17Z</time>
      </trkpt>
      <trkpt lat="43.96509" lon="7.278">
        <ele>938.710144</ele>
        <time>2012-08-19T08:54:19Z</time>
      </trkpt>
      <trkpt lat="43.96505" lon="7.27799">
        <ele>938.097656</ele>
        <time>2012-08-19T08:54:22Z</time>
      </trkpt>
      <trkpt lat="43.96502" lon="7.27801">
        <ele>937.583435</ele>
        <time>2012-08-19T08:54:24Z</time>
      </trkpt>
      <trkpt lat="43.96497" lon="7.27806">
        <ele>936.612427</ele>
        <time>2012-08-19T08:54:27Z</time>
      </trkpt>
      <trkpt lat="43.96495" lon="7.27808">
        <ele>935.932434</ele>
        <time>2012-08-19T08:54:29Z</time>
      </trkpt>
      <trkpt lat="43.96495" lon="7.27813">
        <ele>935.058411</ele>
        <time>2012-08-19T08:54:32Z</time>
      </trkpt>
      <trkpt lat="43.96494" lon="7.27815">
        <ele>934.492554</ele>
        <time>2012-08-19T08:54:34Z</time>
      </trkpt>
      <trkpt lat="43.9649" lon="7.27818">
        <ele>933.550903</ele>
        <time>2012-08-19T08:54:37Z</time>
      </trkpt>
      <trkpt lat="43.96486" lon="7.27822">
        <ele>932.590149</ele>
        <time>2012-08-19T08:54:40Z</time>
      </trkpt>
      <trkpt lat="43.96483" lon="7.27827">
        <ele>931.864319</ele>
        <time>2012-08-19T08:54:42Z</time>
      </trkpt>
      <trkpt lat="43.9648" lon="7.2783">
        <ele>931.17926</ele>
        <time>2012-08-19T08:54:44Z</time>
      </trkpt>
      <trkpt lat="43.96478" lon="7.27835">
        <ele>929.989197</ele>
        <time>2012-08-19T08:54:47Z</time>
      </trkpt>
      <trkpt lat="43.96475" lon="7.27843">
        <ele>928.213074</ele>
        <time>2012-08-19T08:54:50Z</time>
      </trkpt>
      <trkpt lat="43.96473" lon="7.27849">
        <ele>926.851501</ele>
        <time>2012-08-19T08:54:52Z</time>
      </trkpt>
      <trkpt lat="43.9647" lon="7.27855">
        <ele>925.512695</ele>
        <time>2012-08-19T08:54:54Z</time>
      </trkpt>
      <trkpt lat="43.96467" lon="7.2786">
        <ele>924.223572</ele>
        <time>2012-08-19T08:54:56Z</time>
      </trkpt>
      <trkpt lat="43.96462" lon="7.27867">
        <ele>922.541687</ele>
        <time>2012-08-19T08:54:59Z</time>
      </trkpt>
      <trkpt lat="43.96459" lon="7.27874">
        <ele>920.97937</ele>
        <time>2012-08-19T08:55:02Z</time>
      </trkpt>
      <trkpt lat="43.96457" lon="7.27879">
        <ele>919.654846</ele>
        <time>2012-08-19T08:55:05Z</time>
      </trkpt>
      <trkpt lat="43.96457" lon="7.27881">
        <ele>918.760986</ele>
        <time>2012-08-19T08:55:07Z</time>
      </trkpt>
      <trkpt lat="43.96456" lon="7.27884">
        <ele>917.771851</ele>
        <time>2012-08-19T08:55:09Z</time>
      </trkpt>
      <trkpt lat="43.96457" lon="7.27885">
        <ele>916.440796</ele>
        <time>2012-08-19T08:55:12Z</time>
      </trkpt>
      <trkpt lat="43.96456" lon="7.27887">
        <ele>915.589661</ele>
        <time>2012-08-19T08:55:14Z</time>
      </trkpt>
      <trkpt lat="43.96455" lon="7.2789">
        <ele>914.714417</ele>
        <time>2012-08-19T08:55:16Z</time>
      </trkpt>
      <trkpt lat="43.96451" lon="7.27894">
        <ele>913.658752</ele>
        <time>2012-08-19T08:55:19Z</time>
      </trkpt>
      <trkpt lat="43.96447" lon="7.27898">
        <ele>912.765381</ele>
        <time>2012-08-19T08:55:22Z</time>
      </trkpt>
      <trkpt lat="43.96445" lon="7.27903">
        <ele>911.66803</ele>
        <time>2012-08-19T08:55:25Z</time>
      </trkpt>
      <trkpt lat="43.96443" lon="7.27908">
        <ele>911.143921</ele>
        <time>2012-08-19T08:55:27Z</time>
      </trkpt>
      <trkpt lat="43.9644" lon="7.27916">
        <ele>910.784851</ele>
        <time>2012-08-19T08:55:30Z</time>
      </trkpt>
      <trkpt lat="43.96437" lon="7.27923">
        <ele>910.715149</ele>
        <time>2012-08-19T08:55:32Z</time>
      </trkpt>
      <trkpt lat="43.96432" lon="7.27934">
        <ele>910.377563</ele>
        <time>2012-08-19T08:55:35Z</time>
      </trkpt>
      <trkpt lat="43.96427" lon="7.27946">
        <ele>910.227783</ele>
        <time>2012-08-19T08:55:38Z</time>
      </trkpt>
      <trkpt lat="43.96425" lon="7.27952">
        <ele>910.191711</ele>
        <time>2012-08-19T08:55:41Z</time>
      </trkpt>
      <trkpt lat="43.96425" lon="7.27952">
        <ele>910.117004</ele>
        <time>2012-08-19T08:55:43Z</time>
      </trkpt>
      <trkpt lat="43.9642" lon="7.27958">
        <ele>909.957947</ele>
        <time>2012-08-19T08:55:46Z</time>
      </trkpt>
      <trkpt lat="43.96414" lon="7.27963">
        <ele>909.712952</ele>
        <time>2012-08-19T08:55:49Z</time>
      </trkpt>
      <trkpt lat="43.96409" lon="7.2797">
        <ele>909.403381</ele>
        <time>2012-08-19T08:55:52Z</time>
      </trkpt>
      <trkpt lat="43.96408" lon="7.27975">
        <ele>909.192261</ele>
        <time>2012-08-19T08:55:54Z</time>
      </trkpt>
      <trkpt lat="43.96408" lon="7.27975">
        <ele>909.063232</ele>
        <time>2012-08-19T08:55:57Z</time>
      </trkpt>
      <trkpt lat="43.96406" lon="7.27981">
        <ele>909.03363</ele>
        <time>2012-08-19T08:56:00Z</time>
      </trkpt>
      <trkpt lat="43.96406" lon="7.27981">
        <ele>909.013245</ele>
        <time>2012-08-19T08:56:02Z</time>
      </trkpt>
      <trkpt lat="43.96405" lon="7.27988">
        <ele>908.992126</ele>
        <time>2012-08-19T08:56:04Z</time>
      </trkpt>
      <trkpt lat="43.96405" lon="7.27988">
        <ele>908.964417</ele>
        <time>2012-08-19T08:56:06Z</time>
      </trkpt>
      <trkpt lat="43.96403" lon="7.27994">
        <ele>908.9151</ele>
        <time>2012-08-19T08:56:09Z</time>
      </trkpt>
      <trkpt lat="43.96403" lon="7.27994">
        <ele>908.869324</ele>
        <time>2012-08-19T08:56:12Z</time>
      </trkpt>
      <trkpt lat="43.96403" lon="7.27994">
        <ele>908.841003</ele>
        <time>2012-08-19T08:56:14Z</time>
      </trkpt>
      <trkpt lat="43.96403" lon="7.27994">
        <ele>908.814026</ele>
        <time>2012-08-19T08:56:16Z</time>
      </trkpt>
      <trkpt lat="43.96403" lon="7.27994">
        <ele>908.788696</ele>
        <time>2012-08-19T08:56:18Z</time>
      </trkpt>
      <trkpt lat="43.96403" lon="7.27994">
        <ele>908.752625</ele>
        <time>2012-08-19T08:56:21Z</time>
      </trkpt>
      <trkpt lat="43.96399" lon="7.27996">
        <ele>908.729431</ele>
        <time>2012-08-19T08:56:23Z</time>
      </trkpt>
      <trkpt lat="43.96399" lon="7.27996">
        <ele>908.697266</ele>
        <time>2012-08-19T08:56:26Z</time>
      </trkpt>
      <trkpt lat="43.96399" lon="7.27996">
        <ele>908.677551</ele>
        <time>2012-08-19T08:56:28Z</time>
      </trkpt>
      <trkpt lat="43.96399" lon="7.27996">
        <ele>908.650452</ele>
        <time>2012-08-19T08:56:31Z</time>
      </trkpt>
      <trkpt lat="43.96399" lon="7.27996">
        <ele>908.633606</ele>
        <time>2012-08-19T08:56:33Z</time>
      </trkpt>
      <trkpt lat="43.96397" lon="7.2799">
        <ele>908.617554</ele>
        <time>2012-08-19T08:56:35Z</time>
      </trkpt>
      <trkpt lat="43.96397" lon="7.2799">
        <ele>908.594543</ele>
        <time>2012-08-19T08:56:38Z</time>
      </trkpt>
      <trkpt lat="43.96397" lon="7.2799">
        <ele>908.571533</ele>
        <time>2012-08-19T08:56:41Z</time>
      </trkpt>
      <trkpt lat="43.96397" lon="7.2799">
        <ele>908.554626</ele>
        <time>2012-08-19T08:56:43Z</time>
      </trkpt>
      <trkpt lat="43.96397" lon="7.2799">
        <ele>908.526794</ele>
        <time>2012-08-19T08:56:46Z</time>
      </trkpt>
      <trkpt lat="43.96397" lon="7.2799">
        <ele>908.507629</ele>
        <time>2012-08-19T08:56:48Z</time>
      </trkpt>
      <trkpt lat="43.96393" lon="7.27986">
        <ele>908.303589</ele>
        <time>2012-08-19T08:56:51Z</time>
      </trkpt>
      <trkpt lat="43.96391" lon="7.27984">
        <ele>908.121155</ele>
        <time>2012-08-19T08:56:53Z</time>
      </trkpt>
      <trkpt lat="43.96387" lon="7.27984">
        <ele>907.957336</ele>
        <time>2012-08-19T08:56:55Z</time>
      </trkpt>
      <trkpt lat="43.96379" lon="7.27986">
        <ele>907.736511</ele>
        <time>2012-08-19T08:56:58Z</time>
      </trkpt>
      <trkpt lat="43.96373" lon="7.27987">
        <ele>907.577759</ele>
        <time>2012-08-19T08:57:01Z</time>
      </trkpt>
      <trkpt lat="43.96368" lon="7.27986">
        <ele>907.495544</ele>
        <time>2012-08-19T08:57:03Z</time>
      </trkpt>
      <trkpt lat="43.96363" lon="7.27991">
        <ele>907.396179</ele>
        <time>2012-08-19T08:57:06Z</time>
      </trkpt>
      <trkpt lat="43.96361" lon="7.27998">
        <ele>907.322144</ele>
        <time>2012-08-19T08:57:09Z</time>
      </trkpt>
      <trkpt lat="43.96359" lon="7.28003">
        <ele>907.262024</ele>
        <time>2012-08-19T08:57:11Z</time>
      </trkpt>
      <trkpt lat="43.96356" lon="7.28008">
        <ele>907.216309</ele>
        <time>2012-08-19T08:57:13Z</time>
      </trkpt>
      <trkpt lat="43.96352" lon="7.28015">
        <ele>907.169861</ele>
        <time>2012-08-19T08:57:16Z</time>
      </trkpt>
      <trkpt lat="43.96351" lon="7.28021">
        <ele>907.148132</ele>
        <time>2012-08-19T08:57:18Z</time>
      </trkpt>
      <trkpt lat="43.96348" lon="7.28031">
        <ele>907.112061</ele>
        <time>2012-08-19T08:57:21Z</time>
      </trkpt>
      <trkpt lat="43.96346" lon="7.2804">
        <ele>907.000427</ele>
        <time>2012-08-19T08:57:24Z</time>
      </trkpt>
      <trkpt lat="43.96343" lon="7.28068">
        <ele>906.054199</ele>
        <time>2012-08-19T08:57:30Z</time>
      </trkpt>
      <trkpt lat="43.96344" lon="7.28077">
        <ele>905.463928</ele>
        <time>2012-08-19T08:57:32Z</time>
      </trkpt>
      <trkpt lat="43.96345" lon="7.28087">
        <ele>904.927368</ele>
        <time>2012-08-19T08:57:34Z</time>
      </trkpt>
      <trkpt lat="43.96346" lon="7.28097">
        <ele>904.400085</ele>
        <time>2012-08-19T08:57:36Z</time>
      </trkpt>
      <trkpt lat="43.96348" lon="7.28105">
        <ele>903.926453</ele>
        <time>2012-08-19T08:57:38Z</time>
      </trkpt>
      <trkpt lat="43.96351" lon="7.28117">
        <ele>903.293274</ele>
        <time>2012-08-19T08:57:41Z</time>
      </trkpt>
      <trkpt lat="43.96354" lon="7.28127">
        <ele>902.799988</ele>
        <time>2012-08-19T08:57:44Z</time>
      </trkpt>
      <trkpt lat="43.96355" lon="7.28138">
        <ele>902.452271</ele>
        <time>2012-08-19T08:57:47Z</time>
      </trkpt>
      <trkpt lat="43.96355" lon="7.28148">
        <ele>902.209534</ele>
        <time>2012-08-19T08:57:50Z</time>
      </trkpt>
      <trkpt lat="43.96355" lon="7.28155">
        <ele>902.094055</ele>
        <time>2012-08-19T08:57:52Z</time>
      </trkpt>
      <trkpt lat="43.96354" lon="7.28163">
        <ele>901.952942</ele>
        <time>2012-08-19T08:57:54Z</time>
      </trkpt>
      <trkpt lat="43.96354" lon="7.28171">
        <ele>901.838013</ele>
        <time>2012-08-19T08:57:56Z</time>
      </trkpt>
      <trkpt lat="43.96352" lon="7.28184">
        <ele>901.701111</ele>
        <time>2012-08-19T08:57:59Z</time>
      </trkpt>
      <trkpt lat="43.9635" lon="7.28199">
        <ele>901.617188</ele>
        <time>2012-08-19T08:58:02Z</time>
      </trkpt>
      <trkpt lat="43.96348" lon="7.28207">
        <ele>901.609497</ele>
        <time>2012-08-19T08:58:04Z</time>
      </trkpt>
      <trkpt lat="43.96344" lon="7.28218">
        <ele>901.580566</ele>
        <time>2012-08-19T08:58:07Z</time>
      </trkpt>
      <trkpt lat="43.96341" lon="7.28224">
        <ele>901.557922</ele>
        <time>2012-08-19T08:58:09Z</time>
      </trkpt>
      <trkpt lat="43.96337" lon="7.28229">
        <ele>901.509705</ele>
        <time>2012-08-19T08:58:11Z</time>
      </trkpt>
      <trkpt lat="43.96332" lon="7.28234">
        <ele>901.426636</ele>
        <time>2012-08-19T08:58:14Z</time>
      </trkpt>
      <trkpt lat="43.96331" lon="7.28236">
        <ele>901.157715</ele>
        <time>2012-08-19T08:58:17Z</time>
      </trkpt>
      <trkpt lat="43.96329" lon="7.2824">
        <ele>900.98114</ele>
        <time>2012-08-19T08:58:19Z</time>
      </trkpt>
      <trkpt lat="43.96325" lon="7.28247">
        <ele>900.711609</ele>
        <time>2012-08-19T08:58:22Z</time>
      </trkpt>
      <trkpt lat="43.96322" lon="7.28252">
        <ele>900.554382</ele>
        <time>2012-08-19T08:58:24Z</time>
      </trkpt>
      <trkpt lat="43.96317" lon="7.28261">
        <ele>900.336609</ele>
        <time>2012-08-19T08:58:27Z</time>
      </trkpt>
      <trkpt lat="43.96313" lon="7.28266">
        <ele>900.16864</ele>
        <time>2012-08-19T08:58:29Z</time>
      </trkpt>
      <trkpt lat="43.96307" lon="7.28275">
        <ele>899.777832</ele>
        <time>2012-08-19T08:58:32Z</time>
      </trkpt>
      <trkpt lat="43.96302" lon="7.28283">
        <ele>899.307373</ele>
        <time>2012-08-19T08:58:34Z</time>
      </trkpt>
      <trkpt lat="43.96296" lon="7.28292">
        <ele>898.716248</ele>
        <time>2012-08-19T08:58:36Z</time>
      </trkpt>
      <trkpt lat="43.96289" lon="7.28301">
        <ele>897.897644</ele>
        <time>2012-08-19T08:58:39Z</time>
      </trkpt>
      <trkpt lat="43.96284" lon="7.28306">
        <ele>897.302734</ele>
        <time>2012-08-19T08:58:41Z</time>
      </trkpt>
      <trkpt lat="43.96275" lon="7.28311">
        <ele>896.316589</ele>
        <time>2012-08-19T08:58:44Z</time>
      </trkpt>
      <trkpt lat="43.96266" lon="7.2831">
        <ele>895.341492</ele>
        <time>2012-08-19T08:58:47Z</time>
      </trkpt>
      <trkpt lat="43.96258" lon="7.28303">
        <ele>894.37677</ele>
        <time>2012-08-19T08:58:50Z</time>
      </trkpt>
      <trkpt lat="43.96253" lon="7.28297">
        <ele>893.739685</ele>
        <time>2012-08-19T08:58:52Z</time>
      </trkpt>
      <trkpt lat="43.96248" lon="7.2829">
        <ele>890.389282</ele>
        <time>2012-08-19T08:58:54Z</time>
      </trkpt>
      <trkpt lat="43.96242" lon="7.28285">
        <ele>889.551819</ele>
        <time>2012-08-19T08:58:57Z</time>
      </trkpt>
      <trkpt lat="43.96238" lon="7.28285">
        <ele>888.989746</ele>
        <time>2012-08-19T08:58:59Z</time>
      </trkpt>
      <trkpt lat="43.96234" lon="7.28284">
        <ele>888.432739</ele>
        <time>2012-08-19T08:59:01Z</time>
      </trkpt>
      <trkpt lat="43.96228" lon="7.28286">
        <ele>887.593628</ele>
        <time>2012-08-19T08:59:04Z</time>
      </trkpt>
      <trkpt lat="43.96223" lon="7.28287">
        <ele>887.072693</ele>
        <time>2012-08-19T08:59:06Z</time>
      </trkpt>
      <trkpt lat="43.96216" lon="7.28286">
        <ele>886.305908</ele>
        <time>2012-08-19T08:59:09Z</time>
      </trkpt>
      <trkpt lat="43.96208" lon="7.28286">
        <ele>885.575928</ele>
        <time>2012-08-19T08:59:12Z</time>
      </trkpt>
      <trkpt lat="43.96204" lon="7.28287">
        <ele>885.09967</ele>
        <time>2012-08-19T08:59:14Z</time>
      </trkpt>
      <trkpt lat="43.96198" lon="7.28288">
        <ele>884.491089</ele>
        <time>2012-08-19T08:59:17Z</time>
      </trkpt>
      <trkpt lat="43.96191" lon="7.28288">
        <ele>883.902161</ele>
        <time>2012-08-19T08:59:20Z</time>
      </trkpt>
      <trkpt lat="43.96185" lon="7.28287">
        <ele>883.531616</ele>
        <time>2012-08-19T08:59:22Z</time>
      </trkpt>
      <trkpt lat="43.9618" lon="7.28289">
        <ele>883.191711</ele>
        <time>2012-08-19T08:59:24Z</time>
      </trkpt>
      <trkpt lat="43.96172" lon="7.2829">
        <ele>882.710754</ele>
        <time>2012-08-19T08:59:27Z</time>
      </trkpt>
      <trkpt lat="43.96164" lon="7.28292">
        <ele>882.116882</ele>
        <time>2012-08-19T08:59:30Z</time>
      </trkpt>
      <trkpt lat="43.96159" lon="7.28293">
        <ele>881.718262</ele>
        <time>2012-08-19T08:59:32Z</time>
      </trkpt>
      <trkpt lat="43.96153" lon="7.28296">
        <ele>881.322815</ele>
        <time>2012-08-19T08:59:34Z</time>
      </trkpt>
      <trkpt lat="43.96149" lon="7.28298">
        <ele>880.896973</ele>
        <time>2012-08-19T08:59:36Z</time>
      </trkpt>
      <trkpt lat="43.96143" lon="7.28301">
        <ele>880.128967</ele>
        <time>2012-08-19T08:59:39Z</time>
      </trkpt>
      <trkpt lat="43.9614" lon="7.28303">
        <ele>879.654419</ele>
        <time>2012-08-19T08:59:41Z</time>
      </trkpt>
      <trkpt lat="43.96138" lon="7.28306">
        <ele>879.176636</ele>
        <time>2012-08-19T08:59:43Z</time>
      </trkpt>
      <trkpt lat="43.96133" lon="7.28309">
        <ele>878.413391</ele>
        <time>2012-08-19T08:59:46Z</time>
      </trkpt>
      <trkpt lat="43.96131" lon="7.28316">
        <ele>877.559448</ele>
        <time>2012-08-19T08:59:49Z</time>
      </trkpt>
      <trkpt lat="43.96133" lon="7.28321">
        <ele>876.858643</ele>
        <time>2012-08-19T08:59:51Z</time>
      </trkpt>
      <trkpt lat="43.96133" lon="7.28328">
        <ele>876.083313</ele>
        <time>2012-08-19T08:59:53Z</time>
      </trkpt>
      <trkpt lat="43.9613" lon="7.28338">
        <ele>875.120056</ele>
        <time>2012-08-19T08:59:55Z</time>
      </trkpt>
      <trkpt lat="43.96128" lon="7.28352">
        <ele>874.088318</ele>
        <time>2012-08-19T08:59:58Z</time>
      </trkpt>
      <trkpt lat="43.96127" lon="7.28364">
        <ele>873.396057</ele>
        <time>2012-08-19T09:00:01Z</time>
      </trkpt>
      <trkpt lat="43.96127" lon="7.28371">
        <ele>872.972473</ele>
        <time>2012-08-19T09:00:03Z</time>
      </trkpt>
      <trkpt lat="43.96125" lon="7.28383">
        <ele>872.216125</ele>
        <time>2012-08-19T09:00:06Z</time>
      </trkpt>
      <trkpt lat="43.96122" lon="7.28395">
        <ele>871.503601</ele>
        <time>2012-08-19T09:00:09Z</time>
      </trkpt>
      <trkpt lat="43.96118" lon="7.284">
        <ele>871.096802</ele>
        <time>2012-08-19T09:00:11Z</time>
      </trkpt>
      <trkpt lat="43.96114" lon="7.28406">
        <ele>870.537598</ele>
        <time>2012-08-19T09:00:14Z</time>
      </trkpt>
      <trkpt lat="43.96112" lon="7.28413">
        <ele>870.150757</ele>
        <time>2012-08-19T09:00:16Z</time>
      </trkpt>
      <trkpt lat="43.96109" lon="7.28419">
        <ele>869.819702</ele>
        <time>2012-08-19T09:00:18Z</time>
      </trkpt>
      <trkpt lat="43.96107" lon="7.28425">
        <ele>869.421143</ele>
        <time>2012-08-19T09:00:21Z</time>
      </trkpt>
      <trkpt lat="43.96106" lon="7.2843">
        <ele>869.220581</ele>
        <time>2012-08-19T09:00:23Z</time>
      </trkpt>
      <trkpt lat="43.96105" lon="7.28433">
        <ele>869.031616</ele>
        <time>2012-08-19T09:00:26Z</time>
      </trkpt>
      <trkpt lat="43.96103" lon="7.28439">
        <ele>868.806519</ele>
        <time>2012-08-19T09:00:29Z</time>
      </trkpt>
      <trkpt lat="43.96102" lon="7.28442">
        <ele>868.705627</ele>
        <time>2012-08-19T09:00:31Z</time>
      </trkpt>
      <trkpt lat="43.961" lon="7.28445">
        <ele>868.625427</ele>
        <time>2012-08-19T09:00:33Z</time>
      </trkpt>
      <trkpt lat="43.96098" lon="7.28449">
        <ele>868.545349</ele>
        <time>2012-08-19T09:00:35Z</time>
      </trkpt>
      <trkpt lat="43.96097" lon="7.28453">
        <ele>868.385498</ele>
        <time>2012-08-19T09:00:37Z</time>
      </trkpt>
      <trkpt lat="43.96098" lon="7.2846">
        <ele>867.846558</ele>
        <time>2012-08-19T09:00:40Z</time>
      </trkpt>
      <trkpt lat="43.961" lon="7.28466">
        <ele>867.171143</ele>
        <time>2012-08-19T09:00:42Z</time>
      </trkpt>
      <trkpt lat="43.96103" lon="7.28477">
        <ele>865.974731</ele>
        <time>2012-08-19T09:00:45Z</time>
      </trkpt>
      <trkpt lat="43.96106" lon="7.28491">
        <ele>864.862427</ele>
        <time>2012-08-19T09:00:48Z</time>
      </trkpt>
      <trkpt lat="43.96106" lon="7.28508">
        <ele>863.708069</ele>
        <time>2012-08-19T09:00:51Z</time>
      </trkpt>
      <trkpt lat="43.96108" lon="7.28527">
        <ele>862.45752</ele>
        <time>2012-08-19T09:00:54Z</time>
      </trkpt>
      <trkpt lat="43.96116" lon="7.28538">
        <ele>861.318054</ele>
        <time>2012-08-19T09:00:56Z</time>
      </trkpt>
      <trkpt lat="43.96135" lon="7.28557">
        <ele>858.997986</ele>
        <time>2012-08-19T09:00:59Z</time>
      </trkpt>
      <trkpt lat="43.96143" lon="7.28567">
        <ele>857.481018</ele>
        <time>2012-08-19T09:01:01Z</time>
      </trkpt>
      <trkpt lat="43.96151" lon="7.2858">
        <ele>855.431091</ele>
        <time>2012-08-19T09:01:04Z</time>
      </trkpt>
      <trkpt lat="43.96152" lon="7.28585">
        <ele>854.194946</ele>
        <time>2012-08-19T09:01:06Z</time>
      </trkpt>
      <trkpt lat="43.9615" lon="7.28595">
        <ele>852.529602</ele>
        <time>2012-08-19T09:01:09Z</time>
      </trkpt>
      <trkpt lat="43.96149" lon="7.28601">
        <ele>851.515686</ele>
        <time>2012-08-19T09:01:11Z</time>
      </trkpt>
      <trkpt lat="43.96149" lon="7.28609">
        <ele>850.058838</ele>
        <time>2012-08-19T09:01:14Z</time>
      </trkpt>
      <trkpt lat="43.96149" lon="7.28618">
        <ele>848.50415</ele>
        <time>2012-08-19T09:01:17Z</time>
      </trkpt>
      <trkpt lat="43.96147" lon="7.28624">
        <ele>847.563721</ele>
        <time>2012-08-19T09:01:19Z</time>
      </trkpt>
      <trkpt lat="43.96147" lon="7.28629">
        <ele>846.722778</ele>
        <time>2012-08-19T09:01:21Z</time>
      </trkpt>
      <trkpt lat="43.96148" lon="7.28637">
        <ele>845.639465</ele>
        <time>2012-08-19T09:01:24Z</time>
      </trkpt>
      <trkpt lat="43.96147" lon="7.28646">
        <ele>844.61499</ele>
        <time>2012-08-19T09:01:27Z</time>
      </trkpt>
      <trkpt lat="43.96146" lon="7.28655">
        <ele>843.75708</ele>
        <time>2012-08-19T09:01:30Z</time>
      </trkpt>
      <trkpt lat="43.96144" lon="7.28661">
        <ele>843.276489</ele>
        <time>2012-08-19T09:01:32Z</time>
      </trkpt>
      <trkpt lat="43.96144" lon="7.28669">
        <ele>842.807739</ele>
        <time>2012-08-19T09:01:34Z</time>
      </trkpt>
      <trkpt lat="43.96141" lon="7.28681">
        <ele>841.921143</ele>
        <time>2012-08-19T09:01:37Z</time>
      </trkpt>
      <trkpt lat="43.96137" lon="7.28688">
        <ele>841.240601</ele>
        <time>2012-08-19T09:01:39Z</time>
      </trkpt>
      <trkpt lat="43.96135" lon="7.28698">
        <ele>840.215881</ele>
        <time>2012-08-19T09:01:42Z</time>
      </trkpt>
      <trkpt lat="43.96134" lon="7.28704">
        <ele>839.510559</ele>
        <time>2012-08-19T09:01:44Z</time>
      </trkpt>
      <trkpt lat="43.96132" lon="7.2871">
        <ele>838.774536</ele>
        <time>2012-08-19T09:01:46Z</time>
      </trkpt>
      <trkpt lat="43.9613" lon="7.2872">
        <ele>837.590881</ele>
        <time>2012-08-19T09:01:49Z</time>
      </trkpt>
      <trkpt lat="43.96128" lon="7.2873">
        <ele>836.355042</ele>
        <time>2012-08-19T09:01:52Z</time>
      </trkpt>
      <trkpt lat="43.96128" lon="7.28735">
        <ele>835.365723</ele>
        <time>2012-08-19T09:01:54Z</time>
      </trkpt>
      <trkpt lat="43.96126" lon="7.28738">
        <ele>834.404785</ele>
        <time>2012-08-19T09:01:56Z</time>
      </trkpt>
      <trkpt lat="43.96123" lon="7.28739">
        <ele>832.886719</ele>
        <time>2012-08-19T09:01:59Z</time>
      </trkpt>
      <trkpt lat="43.96122" lon="7.28744">
        <ele>831.387634</ele>
        <time>2012-08-19T09:02:02Z</time>
      </trkpt>
      <trkpt lat="43.96123" lon="7.28749">
        <ele>830.379944</ele>
        <time>2012-08-19T09:02:04Z</time>
      </trkpt>
      <trkpt lat="43.96124" lon="7.28755">
        <ele>829.184326</ele>
        <time>2012-08-19T09:02:06Z</time>
      </trkpt>
      <trkpt lat="43.96125" lon="7.28765">
        <ele>827.448364</ele>
        <time>2012-08-19T09:02:09Z</time>
      </trkpt>
      <trkpt lat="43.96128" lon="7.28772">
        <ele>826.251038</ele>
        <time>2012-08-19T09:02:11Z</time>
      </trkpt>
      <trkpt lat="43.96131" lon="7.28778">
        <ele>824.912659</ele>
        <time>2012-08-19T09:02:13Z</time>
      </trkpt>
      <trkpt lat="43.96132" lon="7.28784">
        <ele>822.849182</ele>
        <time>2012-08-19T09:02:16Z</time>
      </trkpt>
      <trkpt lat="43.96129" lon="7.28788">
        <ele>820.743103</ele>
        <time>2012-08-19T09:02:19Z</time>
      </trkpt>
      <trkpt lat="43.96128" lon="7.28794">
        <ele>818.16272</ele>
        <time>2012-08-19T09:02:22Z</time>
      </trkpt>
      <trkpt lat="43.96128" lon="7.28798">
        <ele>816.414551</ele>
        <time>2012-08-19T09:02:24Z</time>
      </trkpt>
      <trkpt lat="43.9613" lon="7.28802">
        <ele>814.644958</ele>
        <time>2012-08-19T09:02:26Z</time>
      </trkpt>
      <trkpt lat="43.96134" lon="7.28809">
        <ele>811.74353</ele>
        <time>2012-08-19T09:02:29Z</time>
      </trkpt>
      <trkpt lat="43.96135" lon="7.28818">
        <ele>808.741028</ele>
        <time>2012-08-19T09:02:32Z</time>
      </trkpt>
      <trkpt lat="43.96136" lon="7.28822">
        <ele>806.74884</ele>
        <time>2012-08-19T09:02:34Z</time>
      </trkpt>
      <trkpt lat="43.96136" lon="7.28826">
        <ele>804.93158</ele>
        <time>2012-08-19T09:02:36Z</time>
      </trkpt>
      <trkpt lat="43.96135" lon="7.2883">
        <ele>802.24469</ele>
        <time>2012-08-19T09:02:39Z</time>
      </trkpt>
      <trkpt lat="43.96138" lon="7.28835">
        <ele>799.716187</ele>
        <time>2012-08-19T09:02:42Z</time>
      </trkpt>
      <trkpt lat="43.9614" lon="7.28837">
        <ele>798.235474</ele>
        <time>2012-08-19T09:02:44Z</time>
      </trkpt>
      <trkpt lat="43.96143" lon="7.2884">
        <ele>796.66095</ele>
        <time>2012-08-19T09:02:46Z</time>
      </trkpt>
      <trkpt lat="43.96145" lon="7.28844">
        <ele>794.002136</ele>
        <time>2012-08-19T09:02:49Z</time>
      </trkpt>
      <trkpt lat="43.96144" lon="7.28848">
        <ele>791.456665</ele>
        <time>2012-08-19T09:02:52Z</time>
      </trkpt>
      <trkpt lat="43.96143" lon="7.28851">
        <ele>790.050049</ele>
        <time>2012-08-19T09:02:54Z</time>
      </trkpt>
      <trkpt lat="43.96141" lon="7.28854">
        <ele>788.136719</ele>
        <time>2012-08-19T09:02:57Z</time>
      </trkpt>
      <trkpt lat="43.96136" lon="7.2886">
        <ele>786.13501</ele>
        <time>2012-08-19T09:03:00Z</time>
      </trkpt>
      <trkpt lat="43.96132" lon="7.28864">
        <ele>784.849731</ele>
        <time>2012-08-19T09:03:02Z</time>
      </trkpt>
      <trkpt lat="43.96129" lon="7.28868">
        <ele>783.673706</ele>
        <time>2012-08-19T09:03:04Z</time>
      </trkpt>
      <trkpt lat="43.96125" lon="7.2887">
        <ele>782.269043</ele>
        <time>2012-08-19T09:03:07Z</time>
      </trkpt>
      <trkpt lat="43.9612" lon="7.28875">
        <ele>780.939026</ele>
        <time>2012-08-19T09:03:10Z</time>
      </trkpt>
      <trkpt lat="43.96116" lon="7.28875">
        <ele>779.73468</ele>
        <time>2012-08-19T09:03:12Z</time>
      </trkpt>
      <trkpt lat="43.96113" lon="7.28874">
        <ele>777.923767</ele>
        <time>2012-08-19T09:03:15Z</time>
      </trkpt>
      <trkpt lat="43.9611" lon="7.28873">
        <ele>776.391663</ele>
        <time>2012-08-19T09:03:17Z</time>
      </trkpt>
      <trkpt lat="43.96106" lon="7.28875">
        <ele>774.304382</ele>
        <time>2012-08-19T09:03:20Z</time>
      </trkpt>
      <trkpt lat="43.96104" lon="7.28876">
        <ele>772.917969</ele>
        <time>2012-08-19T09:03:22Z</time>
      </trkpt>
      <trkpt lat="43.96101" lon="7.28879">
        <ele>771.544006</ele>
        <time>2012-08-19T09:03:24Z</time>
      </trkpt>
      <trkpt lat="43.96096" lon="7.28877">
        <ele>770.204407</ele>
        <time>2012-08-19T09:03:26Z</time>
      </trkpt>
      <trkpt lat="43.96093" lon="7.28872">
        <ele>768.774902</ele>
        <time>2012-08-19T09:03:28Z</time>
      </trkpt>
      <trkpt lat="43.96089" lon="7.28866">
        <ele>766.471436</ele>
        <time>2012-08-19T09:03:31Z</time>
      </trkpt>
      <trkpt lat="43.96087" lon="7.28868">
        <ele>764.323242</ele>
        <time>2012-08-19T09:03:34Z</time>
      </trkpt>
      <trkpt lat="43.96085" lon="7.2887">
        <ele>762.923096</ele>
        <time>2012-08-19T09:03:36Z</time>
      </trkpt>
      <trkpt lat="43.96083" lon="7.28868">
        <ele>761.578613</ele>
        <time>2012-08-19T09:03:38Z</time>
      </trkpt>
      <trkpt lat="43.9608" lon="7.28863">
        <ele>759.548401</ele>
        <time>2012-08-19T09:03:41Z</time>
      </trkpt>
      <trkpt lat="43.96077" lon="7.2886">
        <ele>757.806946</ele>
        <time>2012-08-19T09:03:44Z</time>
      </trkpt>
      <trkpt lat="43.96076" lon="7.28865">
        <ele>756.166016</ele>
        <time>2012-08-19T09:03:47Z</time>
      </trkpt>
      <trkpt lat="43.96075" lon="7.28872">
        <ele>754.406311</ele>
        <time>2012-08-19T09:03:50Z</time>
      </trkpt>
      <trkpt lat="43.96073" lon="7.2887">
        <ele>753.292053</ele>
        <time>2012-08-19T09:03:52Z</time>
      </trkpt>
      <trkpt lat="43.96072" lon="7.28864">
        <ele>752.112793</ele>
        <time>2012-08-19T09:03:54Z</time>
      </trkpt>
      <trkpt lat="43.9607" lon="7.28862">
        <ele>750.398621</ele>
        <time>2012-08-19T09:03:57Z</time>
      </trkpt>
      <trkpt lat="43.9607" lon="7.28864">
        <ele>749.352661</ele>
        <time>2012-08-19T09:03:59Z</time>
      </trkpt>
      <trkpt lat="43.96068" lon="7.28865">
        <ele>748.367432</ele>
        <time>2012-08-19T09:04:01Z</time>
      </trkpt>
      <trkpt lat="43.96066" lon="7.28861">
        <ele>746.853333</ele>
        <time>2012-08-19T09:04:04Z</time>
      </trkpt>
      <trkpt lat="43.96063" lon="7.28857">
        <ele>745.198364</ele>
        <time>2012-08-19T09:04:07Z</time>
      </trkpt>
      <trkpt lat="43.96057" lon="7.28855">
        <ele>743.474426</ele>
        <time>2012-08-19T09:04:10Z</time>
      </trkpt>
      <trkpt lat="43.96054" lon="7.28852">
        <ele>742.394409</ele>
        <time>2012-08-19T09:04:12Z</time>
      </trkpt>
      <trkpt lat="43.96049" lon="7.28847">
        <ele>740.885437</ele>
        <time>2012-08-19T09:04:15Z</time>
      </trkpt>
      <trkpt lat="43.96045" lon="7.28842">
        <ele>739.765442</ele>
        <time>2012-08-19T09:04:17Z</time>
      </trkpt>
      <trkpt lat="43.96041" lon="7.28829">
        <ele>738.008423</ele>
        <time>2012-08-19T09:04:20Z</time>
      </trkpt>
      <trkpt lat="43.96039" lon="7.28821">
        <ele>736.931335</ele>
        <time>2012-08-19T09:04:22Z</time>
      </trkpt>
      <trkpt lat="43.96037" lon="7.28813">
        <ele>735.915466</ele>
        <time>2012-08-19T09:04:24Z</time>
      </trkpt>
      <trkpt lat="43.96033" lon="7.28802">
        <ele>734.482849</ele>
        <time>2012-08-19T09:04:27Z</time>
      </trkpt>
      <trkpt lat="43.96028" lon="7.28796">
        <ele>733.694458</ele>
        <time>2012-08-19T09:04:29Z</time>
      </trkpt>
      <trkpt lat="43.96023" lon="7.28787">
        <ele>732.759155</ele>
        <time>2012-08-19T09:04:32Z</time>
      </trkpt>
      <trkpt lat="43.96019" lon="7.28778">
        <ele>731.987488</ele>
        <time>2012-08-19T09:04:35Z</time>
      </trkpt>
      <trkpt lat="43.96018" lon="7.28769">
        <ele>731.330017</ele>
        <time>2012-08-19T09:04:38Z</time>
      </trkpt>
      <trkpt lat="43.96021" lon="7.2876">
        <ele>730.849304</ele>
        <time>2012-08-19T09:04:41Z</time>
      </trkpt>
      <trkpt lat="43.96021" lon="7.28755">
        <ele>730.619568</ele>
        <time>2012-08-19T09:04:43Z</time>
      </trkpt>
      <trkpt lat="43.96019" lon="7.2875">
        <ele>730.400635</ele>
        <time>2012-08-19T09:04:46Z</time>
      </trkpt>
      <trkpt lat="43.96018" lon="7.28746">
        <ele>730.346802</ele>
        <time>2012-08-19T09:04:48Z</time>
      </trkpt>
      <trkpt lat="43.96016" lon="7.28741">
        <ele>730.379761</ele>
        <time>2012-08-19T09:04:51Z</time>
      </trkpt>
      <trkpt lat="43.96014" lon="7.28736">
        <ele>730.420471</ele>
        <time>2012-08-19T09:04:54Z</time>
      </trkpt>
      <trkpt lat="43.96012" lon="7.28732">
        <ele>730.478149</ele>
        <time>2012-08-19T09:04:57Z</time>
      </trkpt>
      <trkpt lat="43.96008" lon="7.28728">
        <ele>730.492493</ele>
        <time>2012-08-19T09:05:00Z</time>
      </trkpt>
      <trkpt lat="43.96004" lon="7.28728">
        <ele>730.541199</ele>
        <time>2012-08-19T09:05:02Z</time>
      </trkpt>
      <trkpt lat="43.96001" lon="7.28727">
        <ele>730.612</ele>
        <time>2012-08-19T09:05:04Z</time>
      </trkpt>
      <trkpt lat="43.96001" lon="7.28727">
        <ele>730.61969</ele>
        <time>2012-08-19T09:05:06Z</time>
      </trkpt>
      <trkpt lat="43.95998" lon="7.28727">
        <ele>730.700317</ele>
        <time>2012-08-19T09:05:09Z</time>
      </trkpt>
      <trkpt lat="43.95996" lon="7.28728">
        <ele>730.770569</ele>
        <time>2012-08-19T09:05:11Z</time>
      </trkpt>
      <trkpt lat="43.95994" lon="7.28731">
        <ele>730.804077</ele>
        <time>2012-08-19T09:05:14Z</time>
      </trkpt>
      <trkpt lat="43.95991" lon="7.28732">
        <ele>730.883545</ele>
        <time>2012-08-19T09:05:17Z</time>
      </trkpt>
      <trkpt lat="43.95986" lon="7.28731">
        <ele>731.001587</ele>
        <time>2012-08-19T09:05:21Z</time>
      </trkpt>
      <trkpt lat="43.95983" lon="7.2873">
        <ele>731.074097</ele>
        <time>2012-08-19T09:05:23Z</time>
      </trkpt>
      <trkpt lat="43.95979" lon="7.28731">
        <ele>731.171753</ele>
        <time>2012-08-19T09:05:25Z</time>
      </trkpt>
      <trkpt lat="43.95975" lon="7.28734">
        <ele>731.276917</ele>
        <time>2012-08-19T09:05:27Z</time>
      </trkpt>
      <trkpt lat="43.95972" lon="7.28736">
        <ele>731.366821</ele>
        <time>2012-08-19T09:05:29Z</time>
      </trkpt>
      <trkpt lat="43.95967" lon="7.28741">
        <ele>731.533752</ele>
        <time>2012-08-19T09:05:32Z</time>
      </trkpt>
      <trkpt lat="43.95965" lon="7.28747">
        <ele>731.655945</ele>
        <time>2012-08-19T09:05:34Z</time>
      </trkpt>
      <trkpt lat="43.95962" lon="7.28753">
        <ele>731.77832</ele>
        <time>2012-08-19T09:05:36Z</time>
      </trkpt>
      <trkpt lat="43.95958" lon="7.28759">
        <ele>731.823792</ele>
        <time>2012-08-19T09:05:39Z</time>
      </trkpt>
      <trkpt lat="43.95955" lon="7.28762">
        <ele>731.748962</ele>
        <time>2012-08-19T09:05:42Z</time>
      </trkpt>
      <trkpt lat="43.95951" lon="7.28766">
        <ele>731.6875</ele>
        <time>2012-08-19T09:05:45Z</time>
      </trkpt>
      <trkpt lat="43.95947" lon="7.28772">
        <ele>731.528809</ele>
        <time>2012-08-19T09:05:47Z</time>
      </trkpt>
      <trkpt lat="43.95942" lon="7.28778">
        <ele>731.315674</ele>
        <time>2012-08-19T09:05:49Z</time>
      </trkpt>
      <trkpt lat="43.95937" lon="7.28788">
        <ele>730.496582</ele>
        <time>2012-08-19T09:05:52Z</time>
      </trkpt>
      <trkpt lat="43.95934" lon="7.28797">
        <ele>729.331665</ele>
        <time>2012-08-19T09:05:55Z</time>
      </trkpt>
      <trkpt lat="43.95934" lon="7.28805">
        <ele>727.876282</ele>
        <time>2012-08-19T09:05:58Z</time>
      </trkpt>
      <trkpt lat="43.95925" lon="7.28813">
        <ele>725.563171</ele>
        <time>2012-08-19T09:06:04Z</time>
      </trkpt>
      <trkpt lat="43.95922" lon="7.28814">
        <ele>724.762634</ele>
        <time>2012-08-19T09:06:06Z</time>
      </trkpt>
      <trkpt lat="43.95918" lon="7.2881">
        <ele>723.53125</ele>
        <time>2012-08-19T09:06:09Z</time>
      </trkpt>
      <trkpt lat="43.95915" lon="7.28807">
        <ele>722.69342</ele>
        <time>2012-08-19T09:06:11Z</time>
      </trkpt>
      <trkpt lat="43.95909" lon="7.28806">
        <ele>721.346985</ele>
        <time>2012-08-19T09:06:14Z</time>
      </trkpt>
      <trkpt lat="43.95904" lon="7.28807">
        <ele>720.361572</ele>
        <time>2012-08-19T09:06:16Z</time>
      </trkpt>
      <trkpt lat="43.95899" lon="7.2881">
        <ele>719.337646</ele>
        <time>2012-08-19T09:06:18Z</time>
      </trkpt>
      <trkpt lat="43.95891" lon="7.28816">
        <ele>717.697327</ele>
        <time>2012-08-19T09:06:21Z</time>
      </trkpt>
      <trkpt lat="43.95884" lon="7.28818">
        <ele>715.941406</ele>
        <time>2012-08-19T09:06:24Z</time>
      </trkpt>
      <trkpt lat="43.95879" lon="7.28818">
        <ele>714.78717</ele>
        <time>2012-08-19T09:06:26Z</time>
      </trkpt>
      <trkpt lat="43.95874" lon="7.28818">
        <ele>712.987793</ele>
        <time>2012-08-19T09:06:29Z</time>
      </trkpt>
      <trkpt lat="43.95871" lon="7.28819">
        <ele>711.776184</ele>
        <time>2012-08-19T09:06:31Z</time>
      </trkpt>
      <trkpt lat="43.95864" lon="7.28817">
        <ele>709.865967</ele>
        <time>2012-08-19T09:06:34Z</time>
      </trkpt>
      <trkpt lat="43.9586" lon="7.28809">
        <ele>707.680664</ele>
        <time>2012-08-19T09:06:37Z</time>
      </trkpt>
      <trkpt lat="43.95856" lon="7.28797">
        <ele>705.429321</ele>
        <time>2012-08-19T09:06:40Z</time>
      </trkpt>
      <trkpt lat="43.95855" lon="7.28792">
        <ele>704.068604</ele>
        <time>2012-08-19T09:06:42Z</time>
      </trkpt>
      <trkpt lat="43.95852" lon="7.28786">
        <ele>702.096313</ele>
        <time>2012-08-19T09:06:45Z</time>
      </trkpt>
      <trkpt lat="43.95849" lon="7.28781">
        <ele>700.339355</ele>
        <time>2012-08-19T09:06:48Z</time>
      </trkpt>
      <trkpt lat="43.95846" lon="7.28775">
        <ele>699.097107</ele>
        <time>2012-08-19T09:06:51Z</time>
      </trkpt>
      <trkpt lat="43.95844" lon="7.28767">
        <ele>698.319702</ele>
        <time>2012-08-19T09:06:54Z</time>
      </trkpt>
      <trkpt lat="43.95841" lon="7.28758">
        <ele>697.708313</ele>
        <time>2012-08-19T09:06:57Z</time>
      </trkpt>
      <trkpt lat="43.95836" lon="7.28747">
        <ele>697.242554</ele>
        <time>2012-08-19T09:07:00Z</time>
      </trkpt>
      <trkpt lat="43.95834" lon="7.28741">
        <ele>696.979431</ele>
        <time>2012-08-19T09:07:02Z</time>
      </trkpt>
      <trkpt lat="43.95831" lon="7.2873">
        <ele>696.699585</ele>
        <time>2012-08-19T09:07:05Z</time>
      </trkpt>
      <trkpt lat="43.9583" lon="7.28719">
        <ele>696.484863</ele>
        <time>2012-08-19T09:07:08Z</time>
      </trkpt>
      <trkpt lat="43.95829" lon="7.28709">
        <ele>696.352417</ele>
        <time>2012-08-19T09:07:11Z</time>
      </trkpt>
      <trkpt lat="43.95824" lon="7.28695">
        <ele>696.247986</ele>
        <time>2012-08-19T09:07:14Z</time>
      </trkpt>
      <trkpt lat="43.95822" lon="7.28684">
        <ele>696.186646</ele>
        <time>2012-08-19T09:07:16Z</time>
      </trkpt>
      <trkpt lat="43.9582" lon="7.28674">
        <ele>696.14978</ele>
        <time>2012-08-19T09:07:18Z</time>
      </trkpt>
      <trkpt lat="43.95818" lon="7.28662">
        <ele>695.994934</ele>
        <time>2012-08-19T09:07:21Z</time>
      </trkpt>
      <trkpt lat="43.95814" lon="7.28651">
        <ele>695.634888</ele>
        <time>2012-08-19T09:07:24Z</time>
      </trkpt>
      <trkpt lat="43.95812" lon="7.28644">
        <ele>695.392639</ele>
        <time>2012-08-19T09:07:26Z</time>
      </trkpt>
      <trkpt lat="43.95817" lon="7.28634">
        <ele>694.802551</ele>
        <time>2012-08-19T09:07:29Z</time>
      </trkpt>
      <trkpt lat="43.95825" lon="7.28628">
        <ele>694.269836</ele>
        <time>2012-08-19T09:07:31Z</time>
      </trkpt>
      <trkpt lat="43.9583" lon="7.28622">
        <ele>693.763672</ele>
        <time>2012-08-19T09:07:33Z</time>
      </trkpt>
      <trkpt lat="43.95834" lon="7.28616">
        <ele>693.273254</ele>
        <time>2012-08-19T09:07:35Z</time>
      </trkpt>
      <trkpt lat="43.95837" lon="7.28607">
        <ele>692.62439</ele>
        <time>2012-08-19T09:07:38Z</time>
      </trkpt>
      <trkpt lat="43.9584" lon="7.28598">
        <ele>692.039246</ele>
        <time>2012-08-19T09:07:41Z</time>
      </trkpt>
      <trkpt lat="43.95842" lon="7.28593">
        <ele>691.70929</ele>
        <time>2012-08-19T09:07:43Z</time>
      </trkpt>
      <trkpt lat="43.95844" lon="7.28587">
        <ele>691.387695</ele>
        <time>2012-08-19T09:07:45Z</time>
      </trkpt>
      <trkpt lat="43.95847" lon="7.28581">
        <ele>691.120483</ele>
        <time>2012-08-19T09:07:47Z</time>
      </trkpt>
      <trkpt lat="43.95851" lon="7.28573">
        <ele>690.779602</ele>
        <time>2012-08-19T09:07:50Z</time>
      </trkpt>
      <trkpt lat="43.95854" lon="7.28569">
        <ele>690.543518</ele>
        <time>2012-08-19T09:07:52Z</time>
      </trkpt>
      <trkpt lat="43.95854" lon="7.28563">
        <ele>690.29071</ele>
        <time>2012-08-19T09:07:55Z</time>
      </trkpt>
      <trkpt lat="43.95852" lon="7.2856">
        <ele>690.069397</ele>
        <time>2012-08-19T09:07:57Z</time>
      </trkpt>
      <trkpt lat="43.95852" lon="7.28554">
        <ele>689.909668</ele>
        <time>2012-08-19T09:07:59Z</time>
      </trkpt>
      <trkpt lat="43.95852" lon="7.28545">
        <ele>689.713867</ele>
        <time>2012-08-19T09:08:02Z</time>
      </trkpt>
      <trkpt lat="43.95852" lon="7.28538">
        <ele>689.55011</ele>
        <time>2012-08-19T09:08:04Z</time>
      </trkpt>
      <trkpt lat="43.95852" lon="7.28529">
        <ele>689.334595</ele>
        <time>2012-08-19T09:08:06Z</time>
      </trkpt>
      <trkpt lat="43.95852" lon="7.28519">
        <ele>689.132996</ele>
        <time>2012-08-19T09:08:09Z</time>
      </trkpt>
      <trkpt lat="43.95854" lon="7.28514">
        <ele>689.062134</ele>
        <time>2012-08-19T09:08:12Z</time>
      </trkpt>
      <trkpt lat="43.95857" lon="7.2851">
        <ele>689.035706</ele>
        <time>2012-08-19T09:08:15Z</time>
      </trkpt>
      <trkpt lat="43.95856" lon="7.28507">
        <ele>688.925598</ele>
        <time>2012-08-19T09:08:17Z</time>
      </trkpt>
      <trkpt lat="43.95852" lon="7.28503">
        <ele>688.883118</ele>
        <time>2012-08-19T09:08:20Z</time>
      </trkpt>
      <trkpt lat="43.95848" lon="7.28501">
        <ele>688.87616</ele>
        <time>2012-08-19T09:08:22Z</time>
      </trkpt>
      <trkpt lat="43.95843" lon="7.28496">
        <ele>688.879517</ele>
        <time>2012-08-19T09:08:24Z</time>
      </trkpt>
      <trkpt lat="43.9584" lon="7.2849">
        <ele>688.906921</ele>
        <time>2012-08-19T09:08:26Z</time>
      </trkpt>
      <trkpt lat="43.95837" lon="7.28483">
        <ele>688.929565</ele>
        <time>2012-08-19T09:08:28Z</time>
      </trkpt>
      <trkpt lat="43.95835" lon="7.28473">
        <ele>688.956909</ele>
        <time>2012-08-19T09:08:31Z</time>
      </trkpt>
      <trkpt lat="43.95833" lon="7.28466">
        <ele>688.983459</ele>
        <time>2012-08-19T09:08:33Z</time>
      </trkpt>
      <trkpt lat="43.95832" lon="7.28458">
        <ele>688.88031</ele>
        <time>2012-08-19T09:08:36Z</time>
      </trkpt>
      <trkpt lat="43.95834" lon="7.28452">
        <ele>688.744324</ele>
        <time>2012-08-19T09:08:38Z</time>
      </trkpt>
      <trkpt lat="43.95835" lon="7.28443">
        <ele>688.508972</ele>
        <time>2012-08-19T09:08:41Z</time>
      </trkpt>
      <trkpt lat="43.95835" lon="7.28438">
        <ele>688.352783</ele>
        <time>2012-08-19T09:08:43Z</time>
      </trkpt>
      <trkpt lat="43.95835" lon="7.28431">
        <ele>688.198181</ele>
        <time>2012-08-19T09:08:45Z</time>
      </trkpt>
      <trkpt lat="43.95835" lon="7.28426">
        <ele>688.0177</ele>
        <time>2012-08-19T09:08:47Z</time>
      </trkpt>
      <trkpt lat="43.95835" lon="7.28421">
        <ele>687.775635</ele>
        <time>2012-08-19T09:08:49Z</time>
      </trkpt>
      <trkpt lat="43.95834" lon="7.28416">
        <ele>687.520081</ele>
        <time>2012-08-19T09:08:51Z</time>
      </trkpt>
      <trkpt lat="43.95833" lon="7.28411">
        <ele>687.272339</ele>
        <time>2012-08-19T09:08:53Z</time>
      </trkpt>
      <trkpt lat="43.95833" lon="7.28404">
        <ele>686.940552</ele>
        <time>2012-08-19T09:08:56Z</time>
      </trkpt>
      <trkpt lat="43.95833" lon="7.28397">
        <ele>686.63092</ele>
        <time>2012-08-19T09:08:59Z</time>
      </trkpt>
      <trkpt lat="43.95834" lon="7.28391">
        <ele>686.327454</ele>
        <time>2012-08-19T09:09:02Z</time>
      </trkpt>
      <trkpt lat="43.95835" lon="7.28385">
        <ele>686.049622</ele>
        <time>2012-08-19T09:09:05Z</time>
      </trkpt>
      <trkpt lat="43.95836" lon="7.28382">
        <ele>685.851257</ele>
        <time>2012-08-19T09:09:07Z</time>
      </trkpt>
      <trkpt lat="43.95837" lon="7.28378">
        <ele>685.607971</ele>
        <time>2012-08-19T09:09:10Z</time>
      </trkpt>
      <trkpt lat="43.95835" lon="7.28377">
        <ele>685.495361</ele>
        <time>2012-08-19T09:09:12Z</time>
      </trkpt>
      <trkpt lat="43.95834" lon="7.28376">
        <ele>685.384644</ele>
        <time>2012-08-19T09:09:14Z</time>
      </trkpt>
      <trkpt lat="43.95834" lon="7.28372">
        <ele>685.25293</ele>
        <time>2012-08-19T09:09:17Z</time>
      </trkpt>
      <trkpt lat="43.95833" lon="7.28367">
        <ele>685.163818</ele>
        <time>2012-08-19T09:09:20Z</time>
      </trkpt>
      <trkpt lat="43.95833" lon="7.28362">
        <ele>685.138672</ele>
        <time>2012-08-19T09:09:22Z</time>
      </trkpt>
      <trkpt lat="43.95834" lon="7.28356">
        <ele>685.11908</ele>
        <time>2012-08-19T09:09:25Z</time>
      </trkpt>
      <trkpt lat="43.95836" lon="7.28347">
        <ele>685.082092</ele>
        <time>2012-08-19T09:09:28Z</time>
      </trkpt>
      <trkpt lat="43.95836" lon="7.28339">
        <ele>685.106445</ele>
        <time>2012-08-19T09:09:31Z</time>
      </trkpt>
      <trkpt lat="43.95836" lon="7.28334">
        <ele>685.100464</ele>
        <time>2012-08-19T09:09:33Z</time>
      </trkpt>
      <trkpt lat="43.95835" lon="7.2833">
        <ele>685.089783</ele>
        <time>2012-08-19T09:09:35Z</time>
      </trkpt>
      <trkpt lat="43.95833" lon="7.28325">
        <ele>685.049561</ele>
        <time>2012-08-19T09:09:38Z</time>
      </trkpt>
      <trkpt lat="43.95831" lon="7.28321">
        <ele>685.043701</ele>
        <time>2012-08-19T09:09:41Z</time>
      </trkpt>
      <trkpt lat="43.9583" lon="7.28319">
        <ele>685.078674</ele>
        <time>2012-08-19T09:09:43Z</time>
      </trkpt>
      <trkpt lat="43.95829" lon="7.28316">
        <ele>685.190613</ele>
        <time>2012-08-19T09:09:46Z</time>
      </trkpt>
      <trkpt lat="43.95829" lon="7.28314">
        <ele>685.296936</ele>
        <time>2012-08-19T09:09:48Z</time>
      </trkpt>
      <trkpt lat="43.95828" lon="7.28312">
        <ele>685.395996</ele>
        <time>2012-08-19T09:09:51Z</time>
      </trkpt>
      <trkpt lat="43.95827" lon="7.28311">
        <ele>685.579834</ele>
        <time>2012-08-19T09:09:53Z</time>
      </trkpt>
      <trkpt lat="43.95829" lon="7.28309">
        <ele>685.672485</ele>
        <time>2012-08-19T09:09:55Z</time>
      </trkpt>
      <trkpt lat="43.95831" lon="7.28307">
        <ele>685.570618</ele>
        <time>2012-08-19T09:09:57Z</time>
      </trkpt>
      <trkpt lat="43.95833" lon="7.28306">
        <ele>685.319885</ele>
        <time>2012-08-19T09:09:59Z</time>
      </trkpt>
      <trkpt lat="43.95834" lon="7.28305">
        <ele>684.994324</ele>
        <time>2012-08-19T09:10:01Z</time>
      </trkpt>
      <trkpt lat="43.95834" lon="7.28307">
        <ele>684.379517</ele>
        <time>2012-08-19T09:10:04Z</time>
      </trkpt>
      <trkpt lat="43.95834" lon="7.28307">
        <ele>683.889282</ele>
        <time>2012-08-19T09:10:06Z</time>
      </trkpt>
      <trkpt lat="43.95833" lon="7.28307">
        <ele>683.041748</ele>
        <time>2012-08-19T09:10:09Z</time>
      </trkpt>
      <trkpt lat="43.95831" lon="7.28307">
        <ele>682.380188</ele>
        <time>2012-08-19T09:10:11Z</time>
      </trkpt>
      <trkpt lat="43.95829" lon="7.28308">
        <ele>681.280579</ele>
        <time>2012-08-19T09:10:14Z</time>
      </trkpt>
      <trkpt lat="43.95826" lon="7.28309">
        <ele>680.106506</ele>
        <time>2012-08-19T09:10:17Z</time>
      </trkpt>
      <trkpt lat="43.95824" lon="7.2831">
        <ele>679.257202</ele>
        <time>2012-08-19T09:10:19Z</time>
      </trkpt>
      <trkpt lat="43.95823" lon="7.28311">
        <ele>677.898926</ele>
        <time>2012-08-19T09:10:22Z</time>
      </trkpt>
      <trkpt lat="43.9582" lon="7.28314">
        <ele>676.541138</ele>
        <time>2012-08-19T09:10:25Z</time>
      </trkpt>
      <trkpt lat="43.95819" lon="7.28316">
        <ele>675.611267</ele>
        <time>2012-08-19T09:10:27Z</time>
      </trkpt>
      <trkpt lat="43.95816" lon="7.28318">
        <ele>674.210449</ele>
        <time>2012-08-19T09:10:30Z</time>
      </trkpt>
      <trkpt lat="43.95814" lon="7.2832">
        <ele>673.261414</ele>
        <time>2012-08-19T09:10:32Z</time>
      </trkpt>
      <trkpt lat="43.95811" lon="7.28321">
        <ele>671.825256</ele>
        <time>2012-08-19T09:10:35Z</time>
      </trkpt>
      <trkpt lat="43.95809" lon="7.28321">
        <ele>670.879822</ele>
        <time>2012-08-19T09:10:37Z</time>
      </trkpt>
      <trkpt lat="43.95804" lon="7.28321">
        <ele>669.66095</ele>
        <time>2012-08-19T09:10:40Z</time>
      </trkpt>
      <trkpt lat="43.95802" lon="7.28321">
        <ele>668.875244</ele>
        <time>2012-08-19T09:10:42Z</time>
      </trkpt>
      <trkpt lat="43.95799" lon="7.28321">
        <ele>668.097839</ele>
        <time>2012-08-19T09:10:44Z</time>
      </trkpt>
      <trkpt lat="43.95795" lon="7.28319">
        <ele>667.024353</ele>
        <time>2012-08-19T09:10:47Z</time>
      </trkpt>
      <trkpt lat="43.95792" lon="7.28314">
        <ele>666.019531</ele>
        <time>2012-08-19T09:10:50Z</time>
      </trkpt>
      <trkpt lat="43.95791" lon="7.2831">
        <ele>665.282471</ele>
        <time>2012-08-19T09:10:52Z</time>
      </trkpt>
      <trkpt lat="43.95792" lon="7.28306">
        <ele>664.552734</ele>
        <time>2012-08-19T09:10:54Z</time>
      </trkpt>
      <trkpt lat="43.95792" lon="7.28302">
        <ele>663.836243</ele>
        <time>2012-08-19T09:10:56Z</time>
      </trkpt>
      <trkpt lat="43.95792" lon="7.28299">
        <ele>663.049988</ele>
        <time>2012-08-19T09:10:58Z</time>
      </trkpt>
      <trkpt lat="43.95794" lon="7.28295">
        <ele>661.744385</ele>
        <time>2012-08-19T09:11:01Z</time>
      </trkpt>
      <trkpt lat="43.95795" lon="7.28292">
        <ele>660.781433</ele>
        <time>2012-08-19T09:11:03Z</time>
      </trkpt>
      <trkpt lat="43.95795" lon="7.28287">
        <ele>659.285156</ele>
        <time>2012-08-19T09:11:06Z</time>
      </trkpt>
      <trkpt lat="43.95793" lon="7.28281">
        <ele>657.760986</ele>
        <time>2012-08-19T09:11:09Z</time>
      </trkpt>
      <trkpt lat="43.95792" lon="7.28275">
        <ele>656.265381</ele>
        <time>2012-08-19T09:11:12Z</time>
      </trkpt>
      <trkpt lat="43.95792" lon="7.28271">
        <ele>655.266968</ele>
        <time>2012-08-19T09:11:14Z</time>
      </trkpt>
      <trkpt lat="43.95793" lon="7.28267">
        <ele>654.274902</ele>
        <time>2012-08-19T09:11:16Z</time>
      </trkpt>
      <trkpt lat="43.95796" lon="7.28263">
        <ele>652.789124</ele>
        <time>2012-08-19T09:11:19Z</time>
      </trkpt>
      <trkpt lat="43.95797" lon="7.2826">
        <ele>651.820312</ele>
        <time>2012-08-19T09:11:21Z</time>
      </trkpt>
      <trkpt lat="43.958" lon="7.28257">
        <ele>650.434387</ele>
        <time>2012-08-19T09:11:24Z</time>
      </trkpt>
      <trkpt lat="43.95803" lon="7.28254">
        <ele>649.141541</ele>
        <time>2012-08-19T09:11:27Z</time>
      </trkpt>
      <trkpt lat="43.95805" lon="7.28253">
        <ele>648.316772</ele>
        <time>2012-08-19T09:11:29Z</time>
      </trkpt>
      <trkpt lat="43.95806" lon="7.2825">
        <ele>647.114563</ele>
        <time>2012-08-19T09:11:32Z</time>
      </trkpt>
      <trkpt lat="43.95807" lon="7.28248">
        <ele>645.9599</ele>
        <time>2012-08-19T09:11:35Z</time>
      </trkpt>
      <trkpt lat="43.95808" lon="7.28248">
        <ele>645.217896</ele>
        <time>2012-08-19T09:11:37Z</time>
      </trkpt>
      <trkpt lat="43.95807" lon="7.28244">
        <ele>644.13269</ele>
        <time>2012-08-19T09:11:40Z</time>
      </trkpt>
      <trkpt lat="43.95805" lon="7.28241">
        <ele>643.389832</ele>
        <time>2012-08-19T09:11:42Z</time>
      </trkpt>
      <trkpt lat="43.95802" lon="7.28239">
        <ele>642.318726</ele>
        <time>2012-08-19T09:11:45Z</time>
      </trkpt>
      <trkpt lat="43.958" lon="7.28239">
        <ele>641.629883</ele>
        <time>2012-08-19T09:11:47Z</time>
      </trkpt>
      <trkpt lat="43.95795" lon="7.2824">
        <ele>640.550293</ele>
        <time>2012-08-19T09:11:50Z</time>
      </trkpt>
      <trkpt lat="43.95792" lon="7.28241">
        <ele>639.865295</ele>
        <time>2012-08-19T09:11:52Z</time>
      </trkpt>
      <trkpt lat="43.95788" lon="7.2824">
        <ele>638.869263</ele>
        <time>2012-08-19T09:11:55Z</time>
      </trkpt>
      <trkpt lat="43.95786" lon="7.28238">
        <ele>638.225647</ele>
        <time>2012-08-19T09:11:57Z</time>
      </trkpt>
      <trkpt lat="43.95784" lon="7.28237">
        <ele>637.562134</ele>
        <time>2012-08-19T09:11:59Z</time>
      </trkpt>
      <trkpt lat="43.9578" lon="7.28236">
        <ele>636.765137</ele>
        <time>2012-08-19T09:12:02Z</time>
      </trkpt>
      <trkpt lat="43.95775" lon="7.28237">
        <ele>636.097534</ele>
        <time>2012-08-19T09:12:05Z</time>
      </trkpt>
      <trkpt lat="43.95771" lon="7.28237">
        <ele>635.693054</ele>
        <time>2012-08-19T09:12:07Z</time>
      </trkpt>
      <trkpt lat="43.95767" lon="7.28238">
        <ele>635.188416</ele>
        <time>2012-08-19T09:12:09Z</time>
      </trkpt>
      <trkpt lat="43.95761" lon="7.28241">
        <ele>634.441284</ele>
        <time>2012-08-19T09:12:12Z</time>
      </trkpt>
      <trkpt lat="43.95754" lon="7.28242">
        <ele>633.717041</ele>
        <time>2012-08-19T09:12:15Z</time>
      </trkpt>
      <trkpt lat="43.95751" lon="7.28241">
        <ele>633.238586</ele>
        <time>2012-08-19T09:12:17Z</time>
      </trkpt>
      <trkpt lat="43.95748" lon="7.28241">
        <ele>632.695923</ele>
        <time>2012-08-19T09:12:19Z</time>
      </trkpt>
      <trkpt lat="43.95745" lon="7.2824">
        <ele>632.056641</ele>
        <time>2012-08-19T09:12:22Z</time>
      </trkpt>
      <trkpt lat="43.95741" lon="7.28239">
        <ele>631.453857</ele>
        <time>2012-08-19T09:12:25Z</time>
      </trkpt>
      <trkpt lat="43.95739" lon="7.28238">
        <ele>631.051697</ele>
        <time>2012-08-19T09:12:27Z</time>
      </trkpt>
      <trkpt lat="43.95736" lon="7.28237">
        <ele>630.471741</ele>
        <time>2012-08-19T09:12:30Z</time>
      </trkpt>
      <trkpt lat="43.95734" lon="7.28237">
        <ele>630.094421</ele>
        <time>2012-08-19T09:12:32Z</time>
      </trkpt>
      <trkpt lat="43.95732" lon="7.28236">
        <ele>629.708374</ele>
        <time>2012-08-19T09:12:34Z</time>
      </trkpt>
      <trkpt lat="43.9573" lon="7.28235">
        <ele>629.164307</ele>
        <time>2012-08-19T09:12:37Z</time>
      </trkpt>
      <trkpt lat="43.95728" lon="7.28233">
        <ele>628.763611</ele>
        <time>2012-08-19T09:12:40Z</time>
      </trkpt>
      <trkpt lat="43.95726" lon="7.28233">
        <ele>628.567505</ele>
        <time>2012-08-19T09:12:42Z</time>
      </trkpt>
      <trkpt lat="43.95723" lon="7.28234">
        <ele>628.385559</ele>
        <time>2012-08-19T09:12:44Z</time>
      </trkpt>
      <trkpt lat="43.95721" lon="7.28234">
        <ele>628.225281</ele>
        <time>2012-08-19T09:12:46Z</time>
      </trkpt>
      <trkpt lat="43.95719" lon="7.28235">
        <ele>628.07782</ele>
        <time>2012-08-19T09:12:48Z</time>
      </trkpt>
      <trkpt lat="43.95716" lon="7.28235">
        <ele>627.842529</ele>
        <time>2012-08-19T09:12:51Z</time>
      </trkpt>
      <trkpt lat="43.95714" lon="7.28234">
        <ele>627.645325</ele>
        <time>2012-08-19T09:12:53Z</time>
      </trkpt>
      <trkpt lat="43.95713" lon="7.28234">
        <ele>627.438477</ele>
        <time>2012-08-19T09:12:55Z</time>
      </trkpt>
      <trkpt lat="43.9571" lon="7.28233">
        <ele>627.255127</ele>
        <time>2012-08-19T09:12:57Z</time>
      </trkpt>
      <trkpt lat="43.95708" lon="7.28234">
        <ele>627.078186</ele>
        <time>2012-08-19T09:12:59Z</time>
      </trkpt>
      <trkpt lat="43.95706" lon="7.28235">
        <ele>626.91394</ele>
        <time>2012-08-19T09:13:01Z</time>
      </trkpt>
      <trkpt lat="43.95703" lon="7.28235">
        <ele>626.626526</ele>
        <time>2012-08-19T09:13:04Z</time>
      </trkpt>
      <trkpt lat="43.957" lon="7.28236">
        <ele>626.312622</ele>
        <time>2012-08-19T09:13:07Z</time>
      </trkpt>
      <trkpt lat="43.95697" lon="7.28236">
        <ele>626.070984</ele>
        <time>2012-08-19T09:13:09Z</time>
      </trkpt>
      <trkpt lat="43.95693" lon="7.28237">
        <ele>625.754333</ele>
        <time>2012-08-19T09:13:12Z</time>
      </trkpt>
      <trkpt lat="43.9569" lon="7.28237">
        <ele>625.56073</ele>
        <time>2012-08-19T09:13:14Z</time>
      </trkpt>
      <trkpt lat="43.95685" lon="7.28237">
        <ele>625.34314</ele>
        <time>2012-08-19T09:13:17Z</time>
      </trkpt>
      <trkpt lat="43.9568" lon="7.28236">
        <ele>625.144043</ele>
        <time>2012-08-19T09:13:20Z</time>
      </trkpt>
      <trkpt lat="43.95678" lon="7.28236">
        <ele>625.066223</ele>
        <time>2012-08-19T09:13:22Z</time>
      </trkpt>
      <trkpt lat="43.95675" lon="7.28237">
        <ele>625.000854</ele>
        <time>2012-08-19T09:13:24Z</time>
      </trkpt>
      <trkpt lat="43.95671" lon="7.28237">
        <ele>624.954041</ele>
        <time>2012-08-19T09:13:27Z</time>
      </trkpt>
      <trkpt lat="43.95667" lon="7.28235">
        <ele>624.776855</ele>
        <time>2012-08-19T09:13:30Z</time>
      </trkpt>
      <trkpt lat="43.95663" lon="7.28233">
        <ele>624.603394</ele>
        <time>2012-08-19T09:13:32Z</time>
      </trkpt>
      <trkpt lat="43.95658" lon="7.28232">
        <ele>624.433533</ele>
        <time>2012-08-19T09:13:34Z</time>
      </trkpt>
      <trkpt lat="43.95655" lon="7.28231">
        <ele>624.294189</ele>
        <time>2012-08-19T09:13:36Z</time>
      </trkpt>
      <trkpt lat="43.9565" lon="7.2823">
        <ele>624.158142</ele>
        <time>2012-08-19T09:13:39Z</time>
      </trkpt>
      <trkpt lat="43.95646" lon="7.2823">
        <ele>623.951111</ele>
        <time>2012-08-19T09:13:42Z</time>
      </trkpt>
      <trkpt lat="43.95644" lon="7.2823">
        <ele>623.75116</ele>
        <time>2012-08-19T09:13:44Z</time>
      </trkpt>
      <trkpt lat="43.95643" lon="7.28229">
        <ele>623.564819</ele>
        <time>2012-08-19T09:13:46Z</time>
      </trkpt>
      <trkpt lat="43.9564" lon="7.28227">
        <ele>623.486328</ele>
        <time>2012-08-19T09:13:48Z</time>
      </trkpt>
      <trkpt lat="43.95638" lon="7.28225">
        <ele>623.378906</ele>
        <time>2012-08-19T09:13:51Z</time>
      </trkpt>
      <trkpt lat="43.95635" lon="7.28221">
        <ele>623.179504</ele>
        <time>2012-08-19T09:13:54Z</time>
      </trkpt>
      <trkpt lat="43.95632" lon="7.28215">
        <ele>622.791504</ele>
        <time>2012-08-19T09:13:57Z</time>
      </trkpt>
      <trkpt lat="43.9563" lon="7.28211">
        <ele>622.653381</ele>
        <time>2012-08-19T09:13:59Z</time>
      </trkpt>
      <trkpt lat="43.95628" lon="7.28207">
        <ele>622.683777</ele>
        <time>2012-08-19T09:14:01Z</time>
      </trkpt>
      <trkpt lat="43.95627" lon="7.28204">
        <ele>622.759338</ele>
        <time>2012-08-19T09:14:03Z</time>
      </trkpt>
      <trkpt lat="43.95624" lon="7.28199">
        <ele>622.864563</ele>
        <time>2012-08-19T09:14:06Z</time>
      </trkpt>
      <trkpt lat="43.95622" lon="7.28194">
        <ele>622.984436</ele>
        <time>2012-08-19T09:14:09Z</time>
      </trkpt>
      <trkpt lat="43.95619" lon="7.28192">
        <ele>623.042297</ele>
        <time>2012-08-19T09:14:12Z</time>
      </trkpt>
      <trkpt lat="43.95616" lon="7.2819">
        <ele>623.059753</ele>
        <time>2012-08-19T09:14:14Z</time>
      </trkpt>
      <trkpt lat="43.95613" lon="7.28186">
        <ele>623.01593</ele>
        <time>2012-08-19T09:14:17Z</time>
      </trkpt>
      <trkpt lat="43.95611" lon="7.28184">
        <ele>622.948242</ele>
        <time>2012-08-19T09:14:19Z</time>
      </trkpt>
      <trkpt lat="43.9561" lon="7.28182">
        <ele>622.878967</ele>
        <time>2012-08-19T09:14:21Z</time>
      </trkpt>
      <trkpt lat="43.95608" lon="7.28182">
        <ele>622.687378</ele>
        <time>2012-08-19T09:14:23Z</time>
      </trkpt>
      <trkpt lat="43.95606" lon="7.2818">
        <ele>622.475769</ele>
        <time>2012-08-19T09:14:25Z</time>
      </trkpt>
      <trkpt lat="43.95605" lon="7.28178">
        <ele>622.27301</ele>
        <time>2012-08-19T09:14:27Z</time>
      </trkpt>
      <trkpt lat="43.95604" lon="7.28178">
        <ele>622.16803</ele>
        <time>2012-08-19T09:14:30Z</time>
      </trkpt>
      <trkpt lat="43.95604" lon="7.28178">
        <ele>622.06897</ele>
        <time>2012-08-19T09:14:33Z</time>
      </trkpt>
      <trkpt lat="43.95599" lon="7.28175">
        <ele>622.041992</ele>
        <time>2012-08-19T09:14:35Z</time>
      </trkpt>
      <trkpt lat="43.95595" lon="7.28171">
        <ele>621.982605</ele>
        <time>2012-08-19T09:14:38Z</time>
      </trkpt>
      <trkpt lat="43.95592" lon="7.28166">
        <ele>622.108643</ele>
        <time>2012-08-19T09:14:41Z</time>
      </trkpt>
      <trkpt lat="43.95589" lon="7.28162">
        <ele>622.291443</ele>
        <time>2012-08-19T09:14:44Z</time>
      </trkpt>
      <trkpt lat="43.95588" lon="7.28159">
        <ele>622.419739</ele>
        <time>2012-08-19T09:14:46Z</time>
      </trkpt>
      <trkpt lat="43.95588" lon="7.28159">
        <ele>622.703735</ele>
        <time>2012-08-19T09:14:49Z</time>
      </trkpt>
      <trkpt lat="43.95588" lon="7.28159">
        <ele>623.022156</ele>
        <time>2012-08-19T09:14:52Z</time>
      </trkpt>
      <trkpt lat="43.95588" lon="7.28159">
        <ele>623.378113</ele>
        <time>2012-08-19T09:14:55Z</time>
      </trkpt>
      <trkpt lat="43.95588" lon="7.28153">
        <ele>623.770935</ele>
        <time>2012-08-19T09:14:58Z</time>
      </trkpt>
      <trkpt lat="43.95588" lon="7.28153">
        <ele>624.141602</ele>
        <time>2012-08-19T09:15:01Z</time>
      </trkpt>
      <trkpt lat="43.95588" lon="7.28153">
        <ele>624.367493</ele>
        <time>2012-08-19T09:15:03Z</time>
      </trkpt>
      <trkpt lat="43.95588" lon="7.28153">
        <ele>624.683899</ele>
        <time>2012-08-19T09:15:06Z</time>
      </trkpt>
      <trkpt lat="43.95587" lon="7.28146">
        <ele>624.979919</ele>
        <time>2012-08-19T09:15:09Z</time>
      </trkpt>
      <trkpt lat="43.95587" lon="7.28146">
        <ele>625.22998</ele>
        <time>2012-08-19T09:15:12Z</time>
      </trkpt>
      <trkpt lat="43.95584" lon="7.28141">
        <ele>625.416687</ele>
        <time>2012-08-19T09:15:15Z</time>
      </trkpt>
      <trkpt lat="43.95584" lon="7.28141">
        <ele>625.582275</ele>
        <time>2012-08-19T09:15:18Z</time>
      </trkpt>
      <trkpt lat="43.95584" lon="7.28141">
        <ele>625.742249</ele>
        <time>2012-08-19T09:15:21Z</time>
      </trkpt>
      <trkpt lat="43.9558" lon="7.28136">
        <ele>625.829651</ele>
        <time>2012-08-19T09:15:23Z</time>
      </trkpt>
      <trkpt lat="43.95579" lon="7.28136">
        <ele>625.894043</ele>
        <time>2012-08-19T09:15:25Z</time>
      </trkpt>
      <trkpt lat="43.95577" lon="7.28134">
        <ele>625.972534</ele>
        <time>2012-08-19T09:15:28Z</time>
      </trkpt>
      <trkpt lat="43.95574" lon="7.28132">
        <ele>626.048035</ele>
        <time>2012-08-19T09:15:31Z</time>
      </trkpt>
      <trkpt lat="43.95572" lon="7.28131">
        <ele>626.133972</ele>
        <time>2012-08-19T09:15:33Z</time>
      </trkpt>
      <trkpt lat="43.95568" lon="7.28129">
        <ele>626.24884</ele>
        <time>2012-08-19T09:15:36Z</time>
      </trkpt>
      <trkpt lat="43.95566" lon="7.28127">
        <ele>626.334351</ele>
        <time>2012-08-19T09:15:38Z</time>
      </trkpt>
      <trkpt lat="43.95563" lon="7.28123">
        <ele>626.423096</ele>
        <time>2012-08-19T09:15:41Z</time>
      </trkpt>
      <trkpt lat="43.9556" lon="7.28121">
        <ele>626.477539</ele>
        <time>2012-08-19T09:15:43Z</time>
      </trkpt>
      <trkpt lat="43.95558" lon="7.28118">
        <ele>626.547363</ele>
        <time>2012-08-19T09:15:45Z</time>
      </trkpt>
      <trkpt lat="43.95555" lon="7.28115">
        <ele>626.693298</ele>
        <time>2012-08-19T09:15:48Z</time>
      </trkpt>
      <trkpt lat="43.95552" lon="7.28111">
        <ele>626.909973</ele>
        <time>2012-08-19T09:15:51Z</time>
      </trkpt>
      <trkpt lat="43.95551" lon="7.28107">
        <ele>627.211975</ele>
        <time>2012-08-19T09:15:54Z</time>
      </trkpt>
      <trkpt lat="43.95549" lon="7.28103">
        <ele>627.53418</ele>
        <time>2012-08-19T09:15:57Z</time>
      </trkpt>
      <trkpt lat="43.95547" lon="7.28101">
        <ele>627.750366</ele>
        <time>2012-08-19T09:15:59Z</time>
      </trkpt>
      <trkpt lat="43.95546" lon="7.28097">
        <ele>628.096985</ele>
        <time>2012-08-19T09:16:02Z</time>
      </trkpt>
      <trkpt lat="43.95544" lon="7.28095">
        <ele>628.341614</ele>
        <time>2012-08-19T09:16:04Z</time>
      </trkpt>
      <trkpt lat="43.95544" lon="7.28095">
        <ele>628.369324</ele>
        <time>2012-08-19T09:16:06Z</time>
      </trkpt>
      <trkpt lat="43.95544" lon="7.28095">
        <ele>628.69342</ele>
        <time>2012-08-19T09:16:09Z</time>
      </trkpt>
      <trkpt lat="43.95541" lon="7.28088">
        <ele>629.121826</ele>
        <time>2012-08-19T09:16:12Z</time>
      </trkpt>
      <trkpt lat="43.95537" lon="7.28082">
        <ele>629.370911</ele>
        <time>2012-08-19T09:16:14Z</time>
      </trkpt>
      <trkpt lat="43.95535" lon="7.28076">
        <ele>629.911743</ele>
        <time>2012-08-19T09:16:17Z</time>
      </trkpt>
      <trkpt lat="43.95533" lon="7.2807">
        <ele>630.685425</ele>
        <time>2012-08-19T09:16:20Z</time>
      </trkpt>
      <trkpt lat="43.95532" lon="7.28065">
        <ele>631.507568</ele>
        <time>2012-08-19T09:16:23Z</time>
      </trkpt>
      <trkpt lat="43.95532" lon="7.28059">
        <ele>632.307251</ele>
        <time>2012-08-19T09:16:26Z</time>
      </trkpt>
      <trkpt lat="43.95533" lon="7.28055">
        <ele>632.819519</ele>
        <time>2012-08-19T09:16:28Z</time>
      </trkpt>
      <trkpt lat="43.95533" lon="7.28048">
        <ele>633.563416</ele>
        <time>2012-08-19T09:16:31Z</time>
      </trkpt>
      <trkpt lat="43.95534" lon="7.28039">
        <ele>634.282654</ele>
        <time>2012-08-19T09:16:34Z</time>
      </trkpt>
      <trkpt lat="43.95534" lon="7.28029">
        <ele>634.974182</ele>
        <time>2012-08-19T09:16:37Z</time>
      </trkpt>
      <trkpt lat="43.95533" lon="7.28024">
        <ele>635.434692</ele>
        <time>2012-08-19T09:16:39Z</time>
      </trkpt>
      <trkpt lat="43.95533" lon="7.28015">
        <ele>636.173767</ele>
        <time>2012-08-19T09:16:42Z</time>
      </trkpt>
      <trkpt lat="43.95532" lon="7.28007">
        <ele>636.896729</ele>
        <time>2012-08-19T09:16:45Z</time>
      </trkpt>
      <trkpt lat="43.95532" lon="7.28002">
        <ele>637.344727</ele>
        <time>2012-08-19T09:16:47Z</time>
      </trkpt>
      <trkpt lat="43.95531" lon="7.27997">
        <ele>637.765991</ele>
        <time>2012-08-19T09:16:49Z</time>
      </trkpt>
      <trkpt lat="43.95528" lon="7.2799">
        <ele>638.381592</ele>
        <time>2012-08-19T09:16:52Z</time>
      </trkpt>
      <trkpt lat="43.95528" lon="7.27985">
        <ele>638.817444</ele>
        <time>2012-08-19T09:16:54Z</time>
      </trkpt>
      <trkpt lat="43.95529" lon="7.27981">
        <ele>639.266418</ele>
        <time>2012-08-19T09:16:56Z</time>
      </trkpt>
      <trkpt lat="43.95531" lon="7.27976">
        <ele>639.92749</ele>
        <time>2012-08-19T09:16:59Z</time>
      </trkpt>
      <trkpt lat="43.95535" lon="7.2797">
        <ele>640.554565</ele>
        <time>2012-08-19T09:17:02Z</time>
      </trkpt>
      <trkpt lat="43.95539" lon="7.27968">
        <ele>641.161926</ele>
        <time>2012-08-19T09:17:05Z</time>
      </trkpt>
      <trkpt lat="43.95544" lon="7.27972">
        <ele>641.77771</ele>
        <time>2012-08-19T09:17:08Z</time>
      </trkpt>
      <trkpt lat="43.9555" lon="7.27979">
        <ele>642.390808</ele>
        <time>2012-08-19T09:17:11Z</time>
      </trkpt>
      <trkpt lat="43.95556" lon="7.27987">
        <ele>643.001099</ele>
        <time>2012-08-19T09:17:14Z</time>
      </trkpt>
      <trkpt lat="43.95561" lon="7.27994">
        <ele>643.589355</ele>
        <time>2012-08-19T09:17:17Z</time>
      </trkpt>
      <trkpt lat="43.95564" lon="7.27999">
        <ele>643.967041</ele>
        <time>2012-08-19T09:17:19Z</time>
      </trkpt>
      <trkpt lat="43.95567" lon="7.28002">
        <ele>644.323975</ele>
        <time>2012-08-19T09:17:21Z</time>
      </trkpt>
      <trkpt lat="43.95569" lon="7.28005">
        <ele>644.821167</ele>
        <time>2012-08-19T09:17:24Z</time>
      </trkpt>
      <trkpt lat="43.95571" lon="7.28007">
        <ele>645.127563</ele>
        <time>2012-08-19T09:17:26Z</time>
      </trkpt>
      <trkpt lat="43.95571" lon="7.28007">
        <ele>645.568237</ele>
        <time>2012-08-19T09:17:29Z</time>
      </trkpt>
      <trkpt lat="43.95571" lon="7.28007">
        <ele>645.862549</ele>
        <time>2012-08-19T09:17:31Z</time>
      </trkpt>
    </trkseg>
  </trk>
</gpx>